<?xml version="1.0" encoding="UTF-8" standalone="no" ?>
<gpx xmlns="http://www.topografix.com/GPX/1/1" xmlns:xsi="http://www.w3.org/2001/XMLSchema-instance" xsi:schemaLocation="http://www.topografix.com/GPX/1/1 http://www.topografix.com/GPX/1/1/gpx.xsd" version="1.1" creator="VisuGPX - https://www.visugpx.com">
  <metadata>
    <name>Pic de l'Ours</name>
  </metadata>
  <trk>
    <name><![CDATA[Pic de l'Ours]]></name>
    <trkseg>
      <trkpt lat="43.42599" lon="6.76876">
        <ele>6.1</ele>
        <time>2019-10-13T06:08:26Z</time>
      </trkpt>
      <trkpt lat="43.42579" lon="6.76871">
        <ele>1.4</ele>
        <time>2019-10-13T06:08:31Z</time>
      </trkpt>
      <trkpt lat="43.42566" lon="6.76867">
        <ele>1.2</ele>
        <time>2019-10-13T06:08:34Z</time>
      </trkpt>
      <trkpt lat="43.42554" lon="6.76864">
        <ele>1.8</ele>
        <time>2019-10-13T06:08:37Z</time>
      </trkpt>
      <trkpt lat="43.4255" lon="6.76865">
        <ele>2.2</ele>
        <time>2019-10-13T06:08:38Z</time>
      </trkpt>
      <trkpt lat="43.42527" lon="6.76874">
        <ele>2.2</ele>
        <time>2019-10-13T06:08:43Z</time>
      </trkpt>
      <trkpt lat="43.42512" lon="6.76878">
        <ele>1.6</ele>
        <time>2019-10-13T06:08:46Z</time>
      </trkpt>
      <trkpt lat="43.42502" lon="6.76873">
        <ele>1.6</ele>
        <time>2019-10-13T06:08:48Z</time>
      </trkpt>
      <trkpt lat="43.42495" lon="6.76854">
        <ele>1</ele>
        <time>2019-10-13T06:08:51Z</time>
      </trkpt>
      <trkpt lat="43.42489" lon="6.76839">
        <ele>0.6</ele>
        <time>2019-10-13T06:08:53Z</time>
      </trkpt>
      <trkpt lat="43.42481" lon="6.76824">
        <ele>4</ele>
        <time>2019-10-13T06:08:55Z</time>
      </trkpt>
      <trkpt lat="43.42471" lon="6.76809">
        <ele>-1</ele>
        <time>2019-10-13T06:08:57Z</time>
      </trkpt>
      <trkpt lat="43.42466" lon="6.76802">
        <ele>-2.2</ele>
        <time>2019-10-13T06:08:58Z</time>
      </trkpt>
      <trkpt lat="43.42458" lon="6.76787">
        <ele>-2.6</ele>
        <time>2019-10-13T06:09:00Z</time>
      </trkpt>
      <trkpt lat="43.42449" lon="6.76771">
        <ele>-2.8</ele>
        <time>2019-10-13T06:09:02Z</time>
      </trkpt>
      <trkpt lat="43.42439" lon="6.7676">
        <ele>-3</ele>
        <time>2019-10-13T06:09:04Z</time>
      </trkpt>
      <trkpt lat="43.42405" lon="6.76736">
        <ele>-2.2</ele>
        <time>2019-10-13T06:09:10Z</time>
      </trkpt>
      <trkpt lat="43.424" lon="6.76716">
        <ele>-2</ele>
        <time>2019-10-13T06:09:13Z</time>
      </trkpt>
      <trkpt lat="43.42403" lon="6.76681">
        <ele>-2.6</ele>
        <time>2019-10-13T06:09:17Z</time>
      </trkpt>
      <trkpt lat="43.42404" lon="6.76663">
        <ele>-2.6</ele>
        <time>2019-10-13T06:09:19Z</time>
      </trkpt>
      <trkpt lat="43.424" lon="6.76648">
        <ele>-2.4</ele>
        <time>2019-10-13T06:09:21Z</time>
      </trkpt>
      <trkpt lat="43.42383" lon="6.76639">
        <ele>-3.2</ele>
        <time>2019-10-13T06:09:24Z</time>
      </trkpt>
      <trkpt lat="43.42331" lon="6.76627">
        <ele>-3</ele>
        <time>2019-10-13T06:09:32Z</time>
      </trkpt>
      <trkpt lat="43.42318" lon="6.76622">
        <ele>-2.8</ele>
        <time>2019-10-13T06:09:34Z</time>
      </trkpt>
      <trkpt lat="43.42298" lon="6.76614">
        <ele>-2.8</ele>
        <time>2019-10-13T06:09:37Z</time>
      </trkpt>
      <trkpt lat="43.4224" lon="6.76594">
        <ele>-2.6</ele>
        <time>2019-10-13T06:09:46Z</time>
      </trkpt>
      <trkpt lat="43.42234" lon="6.76592">
        <ele>-2.6</ele>
        <time>2019-10-13T06:09:47Z</time>
      </trkpt>
      <trkpt lat="43.42216" lon="6.76591">
        <ele>-2</ele>
        <time>2019-10-13T06:09:50Z</time>
      </trkpt>
      <trkpt lat="43.42197" lon="6.76604">
        <ele>-0.8</ele>
        <time>2019-10-13T06:09:54Z</time>
      </trkpt>
      <trkpt lat="43.42184" lon="6.76629">
        <ele>-0.4</ele>
        <time>2019-10-13T06:09:58Z</time>
      </trkpt>
      <trkpt lat="43.42182" lon="6.76644">
        <ele>-0.2</ele>
        <time>2019-10-13T06:10:00Z</time>
      </trkpt>
      <trkpt lat="43.42177" lon="6.76674">
        <ele>0.4</ele>
        <time>2019-10-13T06:10:04Z</time>
      </trkpt>
      <trkpt lat="43.4217" lon="6.76735">
        <ele>1.2</ele>
        <time>2019-10-13T06:10:12Z</time>
      </trkpt>
      <trkpt lat="43.42164" lon="6.76775">
        <ele>1.4</ele>
        <time>2019-10-13T06:10:17Z</time>
      </trkpt>
      <trkpt lat="43.42162" lon="6.76783">
        <ele>1.2</ele>
        <time>2019-10-13T06:10:18Z</time>
      </trkpt>
      <trkpt lat="43.42154" lon="6.7685">
        <ele>1</ele>
        <time>2019-10-13T06:10:26Z</time>
      </trkpt>
      <trkpt lat="43.42138" lon="6.76909">
        <ele>0.6</ele>
        <time>2019-10-13T06:10:33Z</time>
      </trkpt>
      <trkpt lat="43.42121" lon="6.76935">
        <ele>0.4</ele>
        <time>2019-10-13T06:10:37Z</time>
      </trkpt>
      <trkpt lat="43.42117" lon="6.76941">
        <ele>0.4</ele>
        <time>2019-10-13T06:10:38Z</time>
      </trkpt>
      <trkpt lat="43.42094" lon="6.7696">
        <ele>0.4</ele>
        <time>2019-10-13T06:10:42Z</time>
      </trkpt>
      <trkpt lat="43.42088" lon="6.76963">
        <ele>0.2</ele>
        <time>2019-10-13T06:10:43Z</time>
      </trkpt>
      <trkpt lat="43.42037" lon="6.76988">
        <ele>-0.2</ele>
        <time>2019-10-13T06:10:51Z</time>
      </trkpt>
      <trkpt lat="43.42031" lon="6.76991">
        <ele>2.4</ele>
        <time>2019-10-13T06:10:52Z</time>
      </trkpt>
      <trkpt lat="43.41987" lon="6.77013">
        <ele>-0.4</ele>
        <time>2019-10-13T06:10:59Z</time>
      </trkpt>
      <trkpt lat="43.41976" lon="6.77022">
        <ele>-0.8</ele>
        <time>2019-10-13T06:11:01Z</time>
      </trkpt>
      <trkpt lat="43.4196" lon="6.77038">
        <ele>-1</ele>
        <time>2019-10-13T06:11:04Z</time>
      </trkpt>
      <trkpt lat="43.41955" lon="6.77045">
        <ele>-1</ele>
        <time>2019-10-13T06:11:05Z</time>
      </trkpt>
      <trkpt lat="43.41944" lon="6.77065">
        <ele>-1.2</ele>
        <time>2019-10-13T06:11:08Z</time>
      </trkpt>
      <trkpt lat="43.41941" lon="6.77073">
        <ele>-1.2</ele>
        <time>2019-10-13T06:11:09Z</time>
      </trkpt>
      <trkpt lat="43.41933" lon="6.77106">
        <ele>-1.4</ele>
        <time>2019-10-13T06:11:13Z</time>
      </trkpt>
      <trkpt lat="43.41932" lon="6.77115">
        <ele>-1.4</ele>
        <time>2019-10-13T06:11:14Z</time>
      </trkpt>
      <trkpt lat="43.41925" lon="6.77155">
        <ele>-1.8</ele>
        <time>2019-10-13T06:11:19Z</time>
      </trkpt>
      <trkpt lat="43.41921" lon="6.77179">
        <ele>-1.4</ele>
        <time>2019-10-13T06:11:22Z</time>
      </trkpt>
      <trkpt lat="43.41911" lon="6.77229">
        <ele>-0.8</ele>
        <time>2019-10-13T06:11:28Z</time>
      </trkpt>
      <trkpt lat="43.41908" lon="6.77246">
        <ele>-0.8</ele>
        <time>2019-10-13T06:11:30Z</time>
      </trkpt>
      <trkpt lat="43.41895" lon="6.77313">
        <ele>-0.4</ele>
        <time>2019-10-13T06:11:38Z</time>
      </trkpt>
      <trkpt lat="43.41877" lon="6.7737">
        <ele>-1</ele>
        <time>2019-10-13T06:11:45Z</time>
      </trkpt>
      <trkpt lat="43.41849" lon="6.77417">
        <ele>-1</ele>
        <time>2019-10-13T06:11:52Z</time>
      </trkpt>
      <trkpt lat="43.41812" lon="6.77476">
        <ele>-1.2</ele>
        <time>2019-10-13T06:12:01Z</time>
      </trkpt>
      <trkpt lat="43.41808" lon="6.77482">
        <ele>-1.2</ele>
        <time>2019-10-13T06:12:02Z</time>
      </trkpt>
      <trkpt lat="43.41766" lon="6.77537">
        <ele>-1.4</ele>
        <time>2019-10-13T06:12:11Z</time>
      </trkpt>
      <trkpt lat="43.41762" lon="6.77543">
        <ele>-1.6</ele>
        <time>2019-10-13T06:12:12Z</time>
      </trkpt>
      <trkpt lat="43.41752" lon="6.77556">
        <ele>-1.8</ele>
        <time>2019-10-13T06:12:14Z</time>
      </trkpt>
      <trkpt lat="43.41717" lon="6.77593">
        <ele>-1.8</ele>
        <time>2019-10-13T06:12:21Z</time>
      </trkpt>
      <trkpt lat="43.41699" lon="6.77605">
        <ele>-1.4</ele>
        <time>2019-10-13T06:12:24Z</time>
      </trkpt>
      <trkpt lat="43.41692" lon="6.77605">
        <ele>-1.4</ele>
        <time>2019-10-13T06:12:25Z</time>
      </trkpt>
      <trkpt lat="43.41674" lon="6.77614">
        <ele>-1.4</ele>
        <time>2019-10-13T06:12:28Z</time>
      </trkpt>
      <trkpt lat="43.41655" lon="6.77637">
        <ele>-1.4</ele>
        <time>2019-10-13T06:12:32Z</time>
      </trkpt>
      <trkpt lat="43.41649" lon="6.77642">
        <ele>-1.2</ele>
        <time>2019-10-13T06:12:33Z</time>
      </trkpt>
      <trkpt lat="43.41623" lon="6.77672">
        <ele>-1.6</ele>
        <time>2019-10-13T06:12:38Z</time>
      </trkpt>
      <trkpt lat="43.41607" lon="6.777">
        <ele>-2</ele>
        <time>2019-10-13T06:12:42Z</time>
      </trkpt>
      <trkpt lat="43.41604" lon="6.77708">
        <ele>-2</ele>
        <time>2019-10-13T06:12:43Z</time>
      </trkpt>
      <trkpt lat="43.41576" lon="6.77765">
        <ele>-1.8</ele>
        <time>2019-10-13T06:12:51Z</time>
      </trkpt>
      <trkpt lat="43.41546" lon="6.7783">
        <ele>-2</ele>
        <time>2019-10-13T06:13:00Z</time>
      </trkpt>
      <trkpt lat="43.41531" lon="6.77876">
        <ele>-2.2</ele>
        <time>2019-10-13T06:13:06Z</time>
      </trkpt>
      <trkpt lat="43.41513" lon="6.77939">
        <ele>-2.4</ele>
        <time>2019-10-13T06:13:14Z</time>
      </trkpt>
      <trkpt lat="43.4151" lon="6.77946">
        <ele>-2.4</ele>
        <time>2019-10-13T06:13:15Z</time>
      </trkpt>
      <trkpt lat="43.41499" lon="6.77968">
        <ele>-2.8</ele>
        <time>2019-10-13T06:13:18Z</time>
      </trkpt>
      <trkpt lat="43.41495" lon="6.77974">
        <ele>-2.8</ele>
        <time>2019-10-13T06:13:19Z</time>
      </trkpt>
      <trkpt lat="43.41481" lon="6.77991">
        <ele>-3</ele>
        <time>2019-10-13T06:13:22Z</time>
      </trkpt>
      <trkpt lat="43.4147" lon="6.77998">
        <ele>-3</ele>
        <time>2019-10-13T06:13:24Z</time>
      </trkpt>
      <trkpt lat="43.41459" lon="6.78004">
        <ele>-3.2</ele>
        <time>2019-10-13T06:13:26Z</time>
      </trkpt>
      <trkpt lat="43.4145" lon="6.78017">
        <ele>-3</ele>
        <time>2019-10-13T06:13:28Z</time>
      </trkpt>
      <trkpt lat="43.41447" lon="6.78042">
        <ele>-3</ele>
        <time>2019-10-13T06:13:31Z</time>
      </trkpt>
      <trkpt lat="43.41445" lon="6.78059">
        <ele>-2.8</ele>
        <time>2019-10-13T06:13:33Z</time>
      </trkpt>
      <trkpt lat="43.41438" lon="6.78083">
        <ele>-3</ele>
        <time>2019-10-13T06:13:36Z</time>
      </trkpt>
      <trkpt lat="43.41435" lon="6.7809">
        <ele>-3</ele>
        <time>2019-10-13T06:13:37Z</time>
      </trkpt>
      <trkpt lat="43.41427" lon="6.78104">
        <ele>-2.8</ele>
        <time>2019-10-13T06:13:39Z</time>
      </trkpt>
      <trkpt lat="43.41419" lon="6.78116">
        <ele>-2.6</ele>
        <time>2019-10-13T06:13:41Z</time>
      </trkpt>
      <trkpt lat="43.41389" lon="6.78147">
        <ele>-2.8</ele>
        <time>2019-10-13T06:13:47Z</time>
      </trkpt>
      <trkpt lat="43.41345" lon="6.78182">
        <ele>-3.4</ele>
        <time>2019-10-13T06:13:55Z</time>
      </trkpt>
      <trkpt lat="43.41319" lon="6.7822">
        <ele>-3.2</ele>
        <time>2019-10-13T06:14:01Z</time>
      </trkpt>
      <trkpt lat="43.41292" lon="6.78277">
        <ele>-2.6</ele>
        <time>2019-10-13T06:14:09Z</time>
      </trkpt>
      <trkpt lat="43.41264" lon="6.78322">
        <ele>-2.4</ele>
        <time>2019-10-13T06:14:16Z</time>
      </trkpt>
      <trkpt lat="43.4123" lon="6.78371">
        <ele>-1.6</ele>
        <time>2019-10-13T06:14:24Z</time>
      </trkpt>
      <trkpt lat="43.41217" lon="6.78389">
        <ele>-1.4</ele>
        <time>2019-10-13T06:14:27Z</time>
      </trkpt>
      <trkpt lat="43.41214" lon="6.78394">
        <ele>-1.4</ele>
        <time>2019-10-13T06:14:28Z</time>
      </trkpt>
      <trkpt lat="43.41205" lon="6.78412">
        <ele>-0.6</ele>
        <time>2019-10-13T06:14:31Z</time>
      </trkpt>
      <trkpt lat="43.41202" lon="6.78419">
        <ele>-0.4</ele>
        <time>2019-10-13T06:14:32Z</time>
      </trkpt>
      <trkpt lat="43.41194" lon="6.78438">
        <ele>0.4</ele>
        <time>2019-10-13T06:14:35Z</time>
      </trkpt>
      <trkpt lat="43.41188" lon="6.78457">
        <ele>1.6</ele>
        <time>2019-10-13T06:14:38Z</time>
      </trkpt>
      <trkpt lat="43.41185" lon="6.78463">
        <ele>1.8</ele>
        <time>2019-10-13T06:14:39Z</time>
      </trkpt>
      <trkpt lat="43.41175" lon="6.78486">
        <ele>2.6</ele>
        <time>2019-10-13T06:14:43Z</time>
      </trkpt>
      <trkpt lat="43.41167" lon="6.78495">
        <ele>3</ele>
        <time>2019-10-13T06:14:45Z</time>
      </trkpt>
      <trkpt lat="43.41159" lon="6.78504">
        <ele>3.6</ele>
        <time>2019-10-13T06:14:47Z</time>
      </trkpt>
      <trkpt lat="43.41156" lon="6.78509">
        <ele>3.8</ele>
        <time>2019-10-13T06:14:48Z</time>
      </trkpt>
      <trkpt lat="43.41146" lon="6.78524">
        <ele>4.6</ele>
        <time>2019-10-13T06:14:51Z</time>
      </trkpt>
      <trkpt lat="43.41143" lon="6.78529">
        <ele>4.8</ele>
        <time>2019-10-13T06:14:52Z</time>
      </trkpt>
      <trkpt lat="43.41134" lon="6.78553">
        <ele>6</ele>
        <time>2019-10-13T06:14:56Z</time>
      </trkpt>
      <trkpt lat="43.41132" lon="6.78558">
        <ele>6.2</ele>
        <time>2019-10-13T06:14:57Z</time>
      </trkpt>
      <trkpt lat="43.4113" lon="6.7857">
        <ele>7</ele>
        <time>2019-10-13T06:14:59Z</time>
      </trkpt>
      <trkpt lat="43.41123" lon="6.78599">
        <ele>8.2</ele>
        <time>2019-10-13T06:15:04Z</time>
      </trkpt>
      <trkpt lat="43.41122" lon="6.78605">
        <ele>8.4</ele>
        <time>2019-10-13T06:15:05Z</time>
      </trkpt>
      <trkpt lat="43.41119" lon="6.78649">
        <ele>9.2</ele>
        <time>2019-10-13T06:15:12Z</time>
      </trkpt>
      <trkpt lat="43.41126" lon="6.78703">
        <ele>9.6</ele>
        <time>2019-10-13T06:15:20Z</time>
      </trkpt>
      <trkpt lat="43.41128" lon="6.78723">
        <ele>10.2</ele>
        <time>2019-10-13T06:15:23Z</time>
      </trkpt>
      <trkpt lat="43.41133" lon="6.7875">
        <ele>10.6</ele>
        <time>2019-10-13T06:15:27Z</time>
      </trkpt>
      <trkpt lat="43.41138" lon="6.78785">
        <ele>11.2</ele>
        <time>2019-10-13T06:15:32Z</time>
      </trkpt>
      <trkpt lat="43.41143" lon="6.78818">
        <ele>11.8</ele>
        <time>2019-10-13T06:15:37Z</time>
      </trkpt>
      <trkpt lat="43.41151" lon="6.78843">
        <ele>12.4</ele>
        <time>2019-10-13T06:15:41Z</time>
      </trkpt>
      <trkpt lat="43.41156" lon="6.78856">
        <ele>12.8</ele>
        <time>2019-10-13T06:15:43Z</time>
      </trkpt>
      <trkpt lat="43.4118" lon="6.78898">
        <ele>12.8</ele>
        <time>2019-10-13T06:15:50Z</time>
      </trkpt>
      <trkpt lat="43.41208" lon="6.78951">
        <ele>12.8</ele>
        <time>2019-10-13T06:15:58Z</time>
      </trkpt>
      <trkpt lat="43.41237" lon="6.79014">
        <ele>12.8</ele>
        <time>2019-10-13T06:16:07Z</time>
      </trkpt>
      <trkpt lat="43.41249" lon="6.79072">
        <ele>13.4</ele>
        <time>2019-10-13T06:16:14Z</time>
      </trkpt>
      <trkpt lat="43.41262" lon="6.79138">
        <ele>13.8</ele>
        <time>2019-10-13T06:16:22Z</time>
      </trkpt>
      <trkpt lat="43.41279" lon="6.79188">
        <ele>12.4</ele>
        <time>2019-10-13T06:16:28Z</time>
      </trkpt>
      <trkpt lat="43.41288" lon="6.79215">
        <ele>11.2</ele>
        <time>2019-10-13T06:16:31Z</time>
      </trkpt>
      <trkpt lat="43.41295" lon="6.79234">
        <ele>9.8</ele>
        <time>2019-10-13T06:16:33Z</time>
      </trkpt>
      <trkpt lat="43.41302" lon="6.79253">
        <ele>8.4</ele>
        <time>2019-10-13T06:16:35Z</time>
      </trkpt>
      <trkpt lat="43.41313" lon="6.79283">
        <ele>7.2</ele>
        <time>2019-10-13T06:16:38Z</time>
      </trkpt>
      <trkpt lat="43.41323" lon="6.79314">
        <ele>6</ele>
        <time>2019-10-13T06:16:41Z</time>
      </trkpt>
      <trkpt lat="43.41331" lon="6.79336">
        <ele>5.6</ele>
        <time>2019-10-13T06:16:43Z</time>
      </trkpt>
      <trkpt lat="43.41338" lon="6.79358">
        <ele>4.8</ele>
        <time>2019-10-13T06:16:45Z</time>
      </trkpt>
      <trkpt lat="43.41349" lon="6.79393">
        <ele>3.4</ele>
        <time>2019-10-13T06:16:48Z</time>
      </trkpt>
      <trkpt lat="43.4136" lon="6.79427">
        <ele>2.2</ele>
        <time>2019-10-13T06:16:51Z</time>
      </trkpt>
      <trkpt lat="43.41367" lon="6.7945">
        <ele>1.6</ele>
        <time>2019-10-13T06:16:53Z</time>
      </trkpt>
      <trkpt lat="43.41378" lon="6.79484">
        <ele>1.2</ele>
        <time>2019-10-13T06:16:56Z</time>
      </trkpt>
      <trkpt lat="43.41395" lon="6.7954">
        <ele>0.2</ele>
        <time>2019-10-13T06:17:01Z</time>
      </trkpt>
      <trkpt lat="43.41398" lon="6.79551">
        <ele>6.7</ele>
        <time>2019-10-13T06:17:02Z</time>
      </trkpt>
      <trkpt lat="43.41414" lon="6.79602">
        <ele>7.2</ele>
        <time>2019-10-13T06:17:07Z</time>
      </trkpt>
      <trkpt lat="43.41424" lon="6.79664">
        <ele>1</ele>
        <time>2019-10-13T06:17:13Z</time>
      </trkpt>
      <trkpt lat="43.41424" lon="6.79685">
        <ele>0.6</ele>
        <time>2019-10-13T06:17:15Z</time>
      </trkpt>
      <trkpt lat="43.41421" lon="6.79707">
        <ele>5.7</ele>
        <time>2019-10-13T06:17:17Z</time>
      </trkpt>
      <trkpt lat="43.41416" lon="6.79753">
        <ele>-1.2</ele>
        <time>2019-10-13T06:17:21Z</time>
      </trkpt>
      <trkpt lat="43.41412" lon="6.79775">
        <ele>-2.6</ele>
        <time>2019-10-13T06:17:23Z</time>
      </trkpt>
      <trkpt lat="43.41408" lon="6.79796">
        <ele>-3</ele>
        <time>2019-10-13T06:17:25Z</time>
      </trkpt>
      <trkpt lat="43.414" lon="6.79839">
        <ele>-3.8</ele>
        <time>2019-10-13T06:17:29Z</time>
      </trkpt>
      <trkpt lat="43.41396" lon="6.79871">
        <ele>-4.8</ele>
        <time>2019-10-13T06:17:32Z</time>
      </trkpt>
      <trkpt lat="43.41393" lon="6.79892">
        <ele>-4.8</ele>
        <time>2019-10-13T06:17:34Z</time>
      </trkpt>
      <trkpt lat="43.41384" lon="6.79957">
        <ele>-3.8</ele>
        <time>2019-10-13T06:17:41Z</time>
      </trkpt>
      <trkpt lat="43.41381" lon="6.79982">
        <ele>-2.8</ele>
        <time>2019-10-13T06:17:44Z</time>
      </trkpt>
      <trkpt lat="43.41381" lon="6.79998">
        <ele>-2.2</ele>
        <time>2019-10-13T06:17:46Z</time>
      </trkpt>
      <trkpt lat="43.41383" lon="6.80006">
        <ele>-1.6</ele>
        <time>2019-10-13T06:17:47Z</time>
      </trkpt>
      <trkpt lat="43.41392" lon="6.80034">
        <ele>-0.4</ele>
        <time>2019-10-13T06:17:51Z</time>
      </trkpt>
      <trkpt lat="43.41394" lon="6.80041">
        <ele>-0.2</ele>
        <time>2019-10-13T06:17:52Z</time>
      </trkpt>
      <trkpt lat="43.41405" lon="6.80068">
        <ele>0.6</ele>
        <time>2019-10-13T06:17:56Z</time>
      </trkpt>
      <trkpt lat="43.41415" lon="6.80103">
        <ele>1.8</ele>
        <time>2019-10-13T06:18:01Z</time>
      </trkpt>
      <trkpt lat="43.41426" lon="6.8016">
        <ele>2.8</ele>
        <time>2019-10-13T06:18:09Z</time>
      </trkpt>
      <trkpt lat="43.41429" lon="6.80176">
        <ele>3</ele>
        <time>2019-10-13T06:18:11Z</time>
      </trkpt>
      <trkpt lat="43.41437" lon="6.80221">
        <ele>3</ele>
        <time>2019-10-13T06:18:17Z</time>
      </trkpt>
      <trkpt lat="43.41444" lon="6.80267">
        <ele>2.6</ele>
        <time>2019-10-13T06:18:23Z</time>
      </trkpt>
      <trkpt lat="43.41448" lon="6.80292">
        <ele>2.6</ele>
        <time>2019-10-13T06:18:26Z</time>
      </trkpt>
      <trkpt lat="43.41461" lon="6.80365">
        <ele>2</ele>
        <time>2019-10-13T06:18:35Z</time>
      </trkpt>
      <trkpt lat="43.41463" lon="6.80373">
        <ele>2</ele>
        <time>2019-10-13T06:18:36Z</time>
      </trkpt>
      <trkpt lat="43.41464" lon="6.80381">
        <ele>1.8</ele>
        <time>2019-10-13T06:18:37Z</time>
      </trkpt>
      <trkpt lat="43.41471" lon="6.80443">
        <ele>1.2</ele>
        <time>2019-10-13T06:18:44Z</time>
      </trkpt>
      <trkpt lat="43.41472" lon="6.80462">
        <ele>0.8</ele>
        <time>2019-10-13T06:18:46Z</time>
      </trkpt>
      <trkpt lat="43.41472" lon="6.80509">
        <ele>-0.4</ele>
        <time>2019-10-13T06:18:51Z</time>
      </trkpt>
      <trkpt lat="43.41472" lon="6.80519">
        <ele>-0.6</ele>
        <time>2019-10-13T06:18:52Z</time>
      </trkpt>
      <trkpt lat="43.4147" lon="6.80567">
        <ele>-1.6</ele>
        <time>2019-10-13T06:18:57Z</time>
      </trkpt>
      <trkpt lat="43.41469" lon="6.80586">
        <ele>-2.2</ele>
        <time>2019-10-13T06:18:59Z</time>
      </trkpt>
      <trkpt lat="43.41469" lon="6.80654">
        <ele>-2.8</ele>
        <time>2019-10-13T06:19:06Z</time>
      </trkpt>
      <trkpt lat="43.41469" lon="6.80663">
        <ele>-2.8</ele>
        <time>2019-10-13T06:19:07Z</time>
      </trkpt>
      <trkpt lat="43.4147" lon="6.80744">
        <ele>-2.4</ele>
        <time>2019-10-13T06:19:16Z</time>
      </trkpt>
      <trkpt lat="43.41471" lon="6.8076">
        <ele>-2.2</ele>
        <time>2019-10-13T06:19:18Z</time>
      </trkpt>
      <trkpt lat="43.41472" lon="6.80783">
        <ele>-1.6</ele>
        <time>2019-10-13T06:19:21Z</time>
      </trkpt>
      <trkpt lat="43.41472" lon="6.80791">
        <ele>-1.6</ele>
        <time>2019-10-13T06:19:22Z</time>
      </trkpt>
      <trkpt lat="43.41478" lon="6.80836">
        <ele>-0.6</ele>
        <time>2019-10-13T06:19:28Z</time>
      </trkpt>
      <trkpt lat="43.4148" lon="6.80844">
        <ele>-0.6</ele>
        <time>2019-10-13T06:19:29Z</time>
      </trkpt>
      <trkpt lat="43.41489" lon="6.80897">
        <ele>0.4</ele>
        <time>2019-10-13T06:19:36Z</time>
      </trkpt>
      <trkpt lat="43.41495" lon="6.8095">
        <ele>1.4</ele>
        <time>2019-10-13T06:19:43Z</time>
      </trkpt>
      <trkpt lat="43.415" lon="6.80986">
        <ele>2.4</ele>
        <time>2019-10-13T06:19:48Z</time>
      </trkpt>
      <trkpt lat="43.41505" lon="6.81015">
        <ele>2.8</ele>
        <time>2019-10-13T06:19:52Z</time>
      </trkpt>
      <trkpt lat="43.41512" lon="6.8106">
        <ele>3.6</ele>
        <time>2019-10-13T06:19:58Z</time>
      </trkpt>
      <trkpt lat="43.41514" lon="6.81075">
        <ele>3.2</ele>
        <time>2019-10-13T06:20:00Z</time>
      </trkpt>
      <trkpt lat="43.41521" lon="6.81124">
        <ele>2.6</ele>
        <time>2019-10-13T06:20:06Z</time>
      </trkpt>
      <trkpt lat="43.41522" lon="6.81132">
        <ele>2.4</ele>
        <time>2019-10-13T06:20:07Z</time>
      </trkpt>
      <trkpt lat="43.41537" lon="6.81208">
        <ele>1.4</ele>
        <time>2019-10-13T06:20:16Z</time>
      </trkpt>
      <trkpt lat="43.41539" lon="6.81217">
        <ele>1.2</ele>
        <time>2019-10-13T06:20:17Z</time>
      </trkpt>
      <trkpt lat="43.41562" lon="6.81282">
        <ele>0.6</ele>
        <time>2019-10-13T06:20:25Z</time>
      </trkpt>
      <trkpt lat="43.41565" lon="6.8129">
        <ele>0.4</ele>
        <time>2019-10-13T06:20:26Z</time>
      </trkpt>
      <trkpt lat="43.41585" lon="6.81346">
        <ele>0.4</ele>
        <time>2019-10-13T06:20:33Z</time>
      </trkpt>
      <trkpt lat="43.41611" lon="6.81416">
        <ele>-0.2</ele>
        <time>2019-10-13T06:20:42Z</time>
      </trkpt>
      <trkpt lat="43.41614" lon="6.81424">
        <ele>-0.2</ele>
        <time>2019-10-13T06:20:43Z</time>
      </trkpt>
      <trkpt lat="43.41636" lon="6.81487">
        <ele>-0.2</ele>
        <time>2019-10-13T06:20:51Z</time>
      </trkpt>
      <trkpt lat="43.41651" lon="6.8154">
        <ele>0.6</ele>
        <time>2019-10-13T06:20:58Z</time>
      </trkpt>
      <trkpt lat="43.4166" lon="6.81578">
        <ele>1.4</ele>
        <time>2019-10-13T06:21:03Z</time>
      </trkpt>
      <trkpt lat="43.41666" lon="6.81601">
        <ele>1.8</ele>
        <time>2019-10-13T06:21:06Z</time>
      </trkpt>
      <trkpt lat="43.41677" lon="6.81655">
        <ele>2.6</ele>
        <time>2019-10-13T06:21:13Z</time>
      </trkpt>
      <trkpt lat="43.41678" lon="6.81663">
        <ele>2.8</ele>
        <time>2019-10-13T06:21:14Z</time>
      </trkpt>
      <trkpt lat="43.41683" lon="6.81718">
        <ele>3.6</ele>
        <time>2019-10-13T06:21:21Z</time>
      </trkpt>
      <trkpt lat="43.41686" lon="6.81781">
        <ele>4.2</ele>
        <time>2019-10-13T06:21:29Z</time>
      </trkpt>
      <trkpt lat="43.41688" lon="6.81853">
        <ele>4.4</ele>
        <time>2019-10-13T06:21:38Z</time>
      </trkpt>
      <trkpt lat="43.41691" lon="6.81909">
        <ele>4.4</ele>
        <time>2019-10-13T06:21:45Z</time>
      </trkpt>
      <trkpt lat="43.41692" lon="6.81926">
        <ele>4.8</ele>
        <time>2019-10-13T06:21:47Z</time>
      </trkpt>
      <trkpt lat="43.41699" lon="6.81985">
        <ele>4.2</ele>
        <time>2019-10-13T06:21:54Z</time>
      </trkpt>
      <trkpt lat="43.41708" lon="6.82053">
        <ele>3.8</ele>
        <time>2019-10-13T06:22:02Z</time>
      </trkpt>
      <trkpt lat="43.4171" lon="6.82062">
        <ele>3.6</ele>
        <time>2019-10-13T06:22:03Z</time>
      </trkpt>
      <trkpt lat="43.41723" lon="6.82127">
        <ele>2.2</ele>
        <time>2019-10-13T06:22:11Z</time>
      </trkpt>
      <trkpt lat="43.41738" lon="6.82166">
        <ele>2</ele>
        <time>2019-10-13T06:22:16Z</time>
      </trkpt>
      <trkpt lat="43.41741" lon="6.82174">
        <ele>1.6</ele>
        <time>2019-10-13T06:22:17Z</time>
      </trkpt>
      <trkpt lat="43.41749" lon="6.82189">
        <ele>1</ele>
        <time>2019-10-13T06:22:19Z</time>
      </trkpt>
      <trkpt lat="43.41765" lon="6.82217">
        <ele>-0.2</ele>
        <time>2019-10-13T06:22:23Z</time>
      </trkpt>
      <trkpt lat="43.41769" lon="6.82223">
        <ele>-0.2</ele>
        <time>2019-10-13T06:22:24Z</time>
      </trkpt>
      <trkpt lat="43.41771" lon="6.8223">
        <ele>0.2</ele>
        <time>2019-10-13T06:22:26Z</time>
      </trkpt>
      <trkpt lat="43.4177" lon="6.82231">
        <ele>0.8</ele>
        <time>2019-10-13T06:22:30Z</time>
      </trkpt>
      <trkpt lat="43.4177" lon="6.82232">
        <ele>1</ele>
        <time>2019-10-13T06:22:31Z</time>
      </trkpt>
      <trkpt lat="43.41771" lon="6.82236">
        <ele>0.8</ele>
        <time>2019-10-13T06:22:35Z</time>
      </trkpt>
      <trkpt lat="43.41771" lon="6.82236">
        <ele>0.6</ele>
        <time>2019-10-13T06:22:43Z</time>
      </trkpt>
      <trkpt lat="43.41771" lon="6.82236">
        <ele>0.8</ele>
        <time>2019-10-13T06:22:59Z</time>
      </trkpt>
      <trkpt lat="43.41771" lon="6.82236">
        <ele>0.6</ele>
        <time>2019-10-13T06:23:16Z</time>
      </trkpt>
      <trkpt lat="43.41772" lon="6.82238">
        <ele>0.8</ele>
        <time>2019-10-13T06:23:18Z</time>
      </trkpt>
      <trkpt lat="43.41776" lon="6.82242">
        <ele>0.6</ele>
        <time>2019-10-13T06:23:20Z</time>
      </trkpt>
      <trkpt lat="43.41778" lon="6.82248">
        <ele>0.4</ele>
        <time>2019-10-13T06:23:22Z</time>
      </trkpt>
      <trkpt lat="43.41781" lon="6.82262">
        <ele>0.4</ele>
        <time>2019-10-13T06:23:25Z</time>
      </trkpt>
      <trkpt lat="43.41781" lon="6.82268">
        <ele>0.4</ele>
        <time>2019-10-13T06:23:26Z</time>
      </trkpt>
      <trkpt lat="43.4178" lon="6.82291">
        <ele>0.4</ele>
        <time>2019-10-13T06:23:30Z</time>
      </trkpt>
      <trkpt lat="43.41777" lon="6.82309">
        <ele>0.2</ele>
        <time>2019-10-13T06:23:33Z</time>
      </trkpt>
      <trkpt lat="43.41776" lon="6.82326">
        <ele>0.4</ele>
        <time>2019-10-13T06:23:36Z</time>
      </trkpt>
      <trkpt lat="43.41773" lon="6.82358">
        <ele>1.8</ele>
        <time>2019-10-13T06:23:41Z</time>
      </trkpt>
      <trkpt lat="43.41773" lon="6.82364">
        <ele>2</ele>
        <time>2019-10-13T06:23:42Z</time>
      </trkpt>
      <trkpt lat="43.41773" lon="6.82371">
        <ele>2.2</ele>
        <time>2019-10-13T06:23:43Z</time>
      </trkpt>
      <trkpt lat="43.41771" lon="6.82412">
        <ele>2.2</ele>
        <time>2019-10-13T06:23:49Z</time>
      </trkpt>
      <trkpt lat="43.41775" lon="6.82462">
        <ele>3</ele>
        <time>2019-10-13T06:23:56Z</time>
      </trkpt>
      <trkpt lat="43.41776" lon="6.8247">
        <ele>3</ele>
        <time>2019-10-13T06:23:57Z</time>
      </trkpt>
      <trkpt lat="43.41786" lon="6.82534">
        <ele>3.6</ele>
        <time>2019-10-13T06:24:06Z</time>
      </trkpt>
      <trkpt lat="43.41795" lon="6.82592">
        <ele>3.6</ele>
        <time>2019-10-13T06:24:14Z</time>
      </trkpt>
      <trkpt lat="43.41797" lon="6.82607">
        <ele>4</ele>
        <time>2019-10-13T06:24:16Z</time>
      </trkpt>
      <trkpt lat="43.41808" lon="6.82673">
        <ele>3.4</ele>
        <time>2019-10-13T06:24:25Z</time>
      </trkpt>
      <trkpt lat="43.41815" lon="6.82702">
        <ele>3.4</ele>
        <time>2019-10-13T06:24:29Z</time>
      </trkpt>
      <trkpt lat="43.41823" lon="6.82722">
        <ele>3.6</ele>
        <time>2019-10-13T06:24:32Z</time>
      </trkpt>
      <trkpt lat="43.41832" lon="6.82743">
        <ele>3</ele>
        <time>2019-10-13T06:24:35Z</time>
      </trkpt>
      <trkpt lat="43.41847" lon="6.82782">
        <ele>1.8</ele>
        <time>2019-10-13T06:24:40Z</time>
      </trkpt>
      <trkpt lat="43.41866" lon="6.82836">
        <ele>1.2</ele>
        <time>2019-10-13T06:24:47Z</time>
      </trkpt>
      <trkpt lat="43.41878" lon="6.82877">
        <ele>0.8</ele>
        <time>2019-10-13T06:24:52Z</time>
      </trkpt>
      <trkpt lat="43.4188" lon="6.82886">
        <ele>0.8</ele>
        <time>2019-10-13T06:24:53Z</time>
      </trkpt>
      <trkpt lat="43.41881" lon="6.82895">
        <ele>0.8</ele>
        <time>2019-10-13T06:24:54Z</time>
      </trkpt>
      <trkpt lat="43.41882" lon="6.82923">
        <ele>-0.4</ele>
        <time>2019-10-13T06:24:57Z</time>
      </trkpt>
      <trkpt lat="43.41881" lon="6.82932">
        <ele>-0.4</ele>
        <time>2019-10-13T06:24:58Z</time>
      </trkpt>
      <trkpt lat="43.4188" lon="6.82942">
        <ele>-0.2</ele>
        <time>2019-10-13T06:24:59Z</time>
      </trkpt>
      <trkpt lat="43.41866" lon="6.82986">
        <ele>-0.4</ele>
        <time>2019-10-13T06:25:04Z</time>
      </trkpt>
      <trkpt lat="43.41844" lon="6.83056">
        <ele>-1.2</ele>
        <time>2019-10-13T06:25:12Z</time>
      </trkpt>
      <trkpt lat="43.41841" lon="6.83064">
        <ele>-1</ele>
        <time>2019-10-13T06:25:13Z</time>
      </trkpt>
      <trkpt lat="43.41816" lon="6.83123">
        <ele>0.4</ele>
        <time>2019-10-13T06:25:21Z</time>
      </trkpt>
      <trkpt lat="43.41807" lon="6.83143">
        <ele>1.2</ele>
        <time>2019-10-13T06:25:24Z</time>
      </trkpt>
      <trkpt lat="43.41796" lon="6.8317">
        <ele>2.2</ele>
        <time>2019-10-13T06:25:28Z</time>
      </trkpt>
      <trkpt lat="43.41787" lon="6.83191">
        <ele>2.6</ele>
        <time>2019-10-13T06:25:31Z</time>
      </trkpt>
      <trkpt lat="43.41776" lon="6.83218">
        <ele>3.2</ele>
        <time>2019-10-13T06:25:35Z</time>
      </trkpt>
      <trkpt lat="43.41761" lon="6.83253">
        <ele>3.4</ele>
        <time>2019-10-13T06:25:40Z</time>
      </trkpt>
      <trkpt lat="43.4174" lon="6.83302">
        <ele>3.6</ele>
        <time>2019-10-13T06:25:47Z</time>
      </trkpt>
      <trkpt lat="43.41714" lon="6.83366">
        <ele>4.2</ele>
        <time>2019-10-13T06:25:56Z</time>
      </trkpt>
      <trkpt lat="43.41711" lon="6.83372">
        <ele>4.2</ele>
        <time>2019-10-13T06:25:57Z</time>
      </trkpt>
      <trkpt lat="43.41694" lon="6.834">
        <ele>5.2</ele>
        <time>2019-10-13T06:26:02Z</time>
      </trkpt>
      <trkpt lat="43.41691" lon="6.83405">
        <ele>5.4</ele>
        <time>2019-10-13T06:26:03Z</time>
      </trkpt>
      <trkpt lat="43.4168" lon="6.83429">
        <ele>6.2</ele>
        <time>2019-10-13T06:26:07Z</time>
      </trkpt>
      <trkpt lat="43.41679" lon="6.83435">
        <ele>6.6</ele>
        <time>2019-10-13T06:26:08Z</time>
      </trkpt>
      <trkpt lat="43.41677" lon="6.83442">
        <ele>6.8</ele>
        <time>2019-10-13T06:26:09Z</time>
      </trkpt>
      <trkpt lat="43.41674" lon="6.83462">
        <ele>7.6</ele>
        <time>2019-10-13T06:26:12Z</time>
      </trkpt>
      <trkpt lat="43.41672" lon="6.83495">
        <ele>8.6</ele>
        <time>2019-10-13T06:26:17Z</time>
      </trkpt>
      <trkpt lat="43.41673" lon="6.83516">
        <ele>9</ele>
        <time>2019-10-13T06:26:20Z</time>
      </trkpt>
      <trkpt lat="43.41676" lon="6.8353">
        <ele>9.4</ele>
        <time>2019-10-13T06:26:22Z</time>
      </trkpt>
      <trkpt lat="43.41679" lon="6.83544">
        <ele>9.6</ele>
        <time>2019-10-13T06:26:24Z</time>
      </trkpt>
      <trkpt lat="43.41689" lon="6.8358">
        <ele>9.6</ele>
        <time>2019-10-13T06:26:29Z</time>
      </trkpt>
      <trkpt lat="43.41695" lon="6.83629">
        <ele>9.4</ele>
        <time>2019-10-13T06:26:35Z</time>
      </trkpt>
      <trkpt lat="43.41697" lon="6.83673">
        <ele>8.6</ele>
        <time>2019-10-13T06:26:40Z</time>
      </trkpt>
      <trkpt lat="43.41698" lon="6.83691">
        <ele>8.6</ele>
        <time>2019-10-13T06:26:42Z</time>
      </trkpt>
      <trkpt lat="43.41702" lon="6.83772">
        <ele>8.2</ele>
        <time>2019-10-13T06:26:51Z</time>
      </trkpt>
      <trkpt lat="43.41702" lon="6.83781">
        <ele>8.2</ele>
        <time>2019-10-13T06:26:52Z</time>
      </trkpt>
      <trkpt lat="43.41708" lon="6.83851">
        <ele>8.8</ele>
        <time>2019-10-13T06:27:00Z</time>
      </trkpt>
      <trkpt lat="43.41715" lon="6.83928">
        <ele>8.6</ele>
        <time>2019-10-13T06:27:09Z</time>
      </trkpt>
      <trkpt lat="43.41724" lon="6.84006">
        <ele>8.6</ele>
        <time>2019-10-13T06:27:18Z</time>
      </trkpt>
      <trkpt lat="43.41733" lon="6.84087">
        <ele>9</ele>
        <time>2019-10-13T06:27:27Z</time>
      </trkpt>
      <trkpt lat="43.41733" lon="6.84096">
        <ele>9.2</ele>
        <time>2019-10-13T06:27:28Z</time>
      </trkpt>
      <trkpt lat="43.4174" lon="6.84171">
        <ele>8.8</ele>
        <time>2019-10-13T06:27:36Z</time>
      </trkpt>
      <trkpt lat="43.41741" lon="6.84181">
        <ele>8.8</ele>
        <time>2019-10-13T06:27:37Z</time>
      </trkpt>
      <trkpt lat="43.41745" lon="6.84255">
        <ele>8.2</ele>
        <time>2019-10-13T06:27:45Z</time>
      </trkpt>
      <trkpt lat="43.41746" lon="6.84273">
        <ele>8.8</ele>
        <time>2019-10-13T06:27:47Z</time>
      </trkpt>
      <trkpt lat="43.41751" lon="6.84344">
        <ele>9.6</ele>
        <time>2019-10-13T06:27:55Z</time>
      </trkpt>
      <trkpt lat="43.41755" lon="6.8438">
        <ele>9.6</ele>
        <time>2019-10-13T06:27:59Z</time>
      </trkpt>
      <trkpt lat="43.41763" lon="6.8446">
        <ele>9.2</ele>
        <time>2019-10-13T06:28:08Z</time>
      </trkpt>
      <trkpt lat="43.41764" lon="6.84469">
        <ele>9.2</ele>
        <time>2019-10-13T06:28:09Z</time>
      </trkpt>
      <trkpt lat="43.41768" lon="6.84521">
        <ele>9.8</ele>
        <time>2019-10-13T06:28:15Z</time>
      </trkpt>
      <trkpt lat="43.41774" lon="6.84583">
        <ele>9.6</ele>
        <time>2019-10-13T06:28:22Z</time>
      </trkpt>
      <trkpt lat="43.41782" lon="6.84646">
        <ele>9.2</ele>
        <time>2019-10-13T06:28:29Z</time>
      </trkpt>
      <trkpt lat="43.41791" lon="6.84722">
        <ele>10.4</ele>
        <time>2019-10-13T06:28:38Z</time>
      </trkpt>
      <trkpt lat="43.41793" lon="6.84738">
        <ele>10.8</ele>
        <time>2019-10-13T06:28:40Z</time>
      </trkpt>
      <trkpt lat="43.41801" lon="6.84791">
        <ele>11.6</ele>
        <time>2019-10-13T06:28:47Z</time>
      </trkpt>
      <trkpt lat="43.41802" lon="6.84799">
        <ele>11.8</ele>
        <time>2019-10-13T06:28:48Z</time>
      </trkpt>
      <trkpt lat="43.4181" lon="6.84859">
        <ele>12.2</ele>
        <time>2019-10-13T06:28:56Z</time>
      </trkpt>
      <trkpt lat="43.41814" lon="6.8488">
        <ele>13.2</ele>
        <time>2019-10-13T06:28:59Z</time>
      </trkpt>
      <trkpt lat="43.4182" lon="6.84914">
        <ele>13.8</ele>
        <time>2019-10-13T06:29:04Z</time>
      </trkpt>
      <trkpt lat="43.41821" lon="6.84928">
        <ele>14.2</ele>
        <time>2019-10-13T06:29:06Z</time>
      </trkpt>
      <trkpt lat="43.41828" lon="6.84946">
        <ele>14.6</ele>
        <time>2019-10-13T06:29:09Z</time>
      </trkpt>
      <trkpt lat="43.41835" lon="6.84972">
        <ele>15.4</ele>
        <time>2019-10-13T06:29:13Z</time>
      </trkpt>
      <trkpt lat="43.41836" lon="6.84979">
        <ele>15.8</ele>
        <time>2019-10-13T06:29:14Z</time>
      </trkpt>
      <trkpt lat="43.41839" lon="6.84998">
        <ele>16.6</ele>
        <time>2019-10-13T06:29:17Z</time>
      </trkpt>
      <trkpt lat="43.41842" lon="6.85022">
        <ele>17.4</ele>
        <time>2019-10-13T06:29:21Z</time>
      </trkpt>
      <trkpt lat="43.41843" lon="6.85028">
        <ele>17.8</ele>
        <time>2019-10-13T06:29:22Z</time>
      </trkpt>
      <trkpt lat="43.41844" lon="6.85034">
        <ele>18.2</ele>
        <time>2019-10-13T06:29:23Z</time>
      </trkpt>
      <trkpt lat="43.41847" lon="6.85046">
        <ele>19</ele>
        <time>2019-10-13T06:29:25Z</time>
      </trkpt>
      <trkpt lat="43.41849" lon="6.85059">
        <ele>19.2</ele>
        <time>2019-10-13T06:29:27Z</time>
      </trkpt>
      <trkpt lat="43.41864" lon="6.85118">
        <ele>19.6</ele>
        <time>2019-10-13T06:29:36Z</time>
      </trkpt>
      <trkpt lat="43.41884" lon="6.85173">
        <ele>18.2</ele>
        <time>2019-10-13T06:29:44Z</time>
      </trkpt>
      <trkpt lat="43.41888" lon="6.8518">
        <ele>17.8</ele>
        <time>2019-10-13T06:29:45Z</time>
      </trkpt>
      <trkpt lat="43.41899" lon="6.85202">
        <ele>15.8</ele>
        <time>2019-10-13T06:29:48Z</time>
      </trkpt>
      <trkpt lat="43.41902" lon="6.8521">
        <ele>15.6</ele>
        <time>2019-10-13T06:29:49Z</time>
      </trkpt>
      <trkpt lat="43.41911" lon="6.85226">
        <ele>14.8</ele>
        <time>2019-10-13T06:29:51Z</time>
      </trkpt>
      <trkpt lat="43.41925" lon="6.8525">
        <ele>13.8</ele>
        <time>2019-10-13T06:29:54Z</time>
      </trkpt>
      <trkpt lat="43.41935" lon="6.85268">
        <ele>12.6</ele>
        <time>2019-10-13T06:29:56Z</time>
      </trkpt>
      <trkpt lat="43.41945" lon="6.85285">
        <ele>10.8</ele>
        <time>2019-10-13T06:29:58Z</time>
      </trkpt>
      <trkpt lat="43.41955" lon="6.85303">
        <ele>9.2</ele>
        <time>2019-10-13T06:30:00Z</time>
      </trkpt>
      <trkpt lat="43.41965" lon="6.85321">
        <ele>7.8</ele>
        <time>2019-10-13T06:30:02Z</time>
      </trkpt>
      <trkpt lat="43.41977" lon="6.8535">
        <ele>6.6</ele>
        <time>2019-10-13T06:30:05Z</time>
      </trkpt>
      <trkpt lat="43.41984" lon="6.85371">
        <ele>5.8</ele>
        <time>2019-10-13T06:30:07Z</time>
      </trkpt>
      <trkpt lat="43.41986" lon="6.85381">
        <ele>5.4</ele>
        <time>2019-10-13T06:30:08Z</time>
      </trkpt>
      <trkpt lat="43.41991" lon="6.85403">
        <ele>4.2</ele>
        <time>2019-10-13T06:30:10Z</time>
      </trkpt>
      <trkpt lat="43.41996" lon="6.85426">
        <ele>3.4</ele>
        <time>2019-10-13T06:30:12Z</time>
      </trkpt>
      <trkpt lat="43.41997" lon="6.85437">
        <ele>2.8</ele>
        <time>2019-10-13T06:30:13Z</time>
      </trkpt>
      <trkpt lat="43.41999" lon="6.8546">
        <ele>1.4</ele>
        <time>2019-10-13T06:30:15Z</time>
      </trkpt>
      <trkpt lat="43.42003" lon="6.85494">
        <ele>0.2</ele>
        <time>2019-10-13T06:30:18Z</time>
      </trkpt>
      <trkpt lat="43.42004" lon="6.85505">
        <ele>6.7</ele>
        <time>2019-10-13T06:30:19Z</time>
      </trkpt>
      <trkpt lat="43.42007" lon="6.85539">
        <ele>-1</ele>
        <time>2019-10-13T06:30:22Z</time>
      </trkpt>
      <trkpt lat="43.42009" lon="6.85562">
        <ele>-2</ele>
        <time>2019-10-13T06:30:24Z</time>
      </trkpt>
      <trkpt lat="43.42013" lon="6.85607">
        <ele>-2.8</ele>
        <time>2019-10-13T06:30:28Z</time>
      </trkpt>
      <trkpt lat="43.42016" lon="6.85638">
        <ele>-3</ele>
        <time>2019-10-13T06:30:31Z</time>
      </trkpt>
      <trkpt lat="43.42018" lon="6.85648">
        <ele>-3.4</ele>
        <time>2019-10-13T06:30:32Z</time>
      </trkpt>
      <trkpt lat="43.42025" lon="6.85665">
        <ele>-3.4</ele>
        <time>2019-10-13T06:30:34Z</time>
      </trkpt>
      <trkpt lat="43.42034" lon="6.85681">
        <ele>-3</ele>
        <time>2019-10-13T06:30:36Z</time>
      </trkpt>
      <trkpt lat="43.42048" lon="6.85703">
        <ele>-2.6</ele>
        <time>2019-10-13T06:30:39Z</time>
      </trkpt>
      <trkpt lat="43.42063" lon="6.85723">
        <ele>-2.4</ele>
        <time>2019-10-13T06:30:42Z</time>
      </trkpt>
      <trkpt lat="43.42081" lon="6.85738">
        <ele>-2.4</ele>
        <time>2019-10-13T06:30:45Z</time>
      </trkpt>
      <trkpt lat="43.42088" lon="6.85743">
        <ele>-2.6</ele>
        <time>2019-10-13T06:30:46Z</time>
      </trkpt>
      <trkpt lat="43.4212" lon="6.8576">
        <ele>-2</ele>
        <time>2019-10-13T06:30:51Z</time>
      </trkpt>
      <trkpt lat="43.42127" lon="6.85762">
        <ele>-2</ele>
        <time>2019-10-13T06:30:52Z</time>
      </trkpt>
      <trkpt lat="43.42134" lon="6.85764">
        <ele>-1.8</ele>
        <time>2019-10-13T06:30:53Z</time>
      </trkpt>
      <trkpt lat="43.42155" lon="6.85763">
        <ele>-1.4</ele>
        <time>2019-10-13T06:30:56Z</time>
      </trkpt>
      <trkpt lat="43.42169" lon="6.85758">
        <ele>-1.4</ele>
        <time>2019-10-13T06:30:58Z</time>
      </trkpt>
      <trkpt lat="43.42194" lon="6.85747">
        <ele>-1.6</ele>
        <time>2019-10-13T06:31:02Z</time>
      </trkpt>
      <trkpt lat="43.42214" lon="6.8574">
        <ele>-0.8</ele>
        <time>2019-10-13T06:31:05Z</time>
      </trkpt>
      <trkpt lat="43.4222" lon="6.85739">
        <ele>-0.6</ele>
        <time>2019-10-13T06:31:06Z</time>
      </trkpt>
      <trkpt lat="43.42233" lon="6.85738">
        <ele>-1</ele>
        <time>2019-10-13T06:31:08Z</time>
      </trkpt>
      <trkpt lat="43.42252" lon="6.85741">
        <ele>-1.4</ele>
        <time>2019-10-13T06:31:11Z</time>
      </trkpt>
      <trkpt lat="43.42264" lon="6.85748">
        <ele>-1.8</ele>
        <time>2019-10-13T06:31:13Z</time>
      </trkpt>
      <trkpt lat="43.4231" lon="6.85769">
        <ele>-1.4</ele>
        <time>2019-10-13T06:31:21Z</time>
      </trkpt>
      <trkpt lat="43.42334" lon="6.85766">
        <ele>-1</ele>
        <time>2019-10-13T06:31:25Z</time>
      </trkpt>
      <trkpt lat="43.42339" lon="6.85764">
        <ele>-1</ele>
        <time>2019-10-13T06:31:26Z</time>
      </trkpt>
      <trkpt lat="43.42389" lon="6.85745">
        <ele>-1.4</ele>
        <time>2019-10-13T06:31:35Z</time>
      </trkpt>
      <trkpt lat="43.42394" lon="6.85741">
        <ele>-1.2</ele>
        <time>2019-10-13T06:31:36Z</time>
      </trkpt>
      <trkpt lat="43.42403" lon="6.85732">
        <ele>-0.8</ele>
        <time>2019-10-13T06:31:38Z</time>
      </trkpt>
      <trkpt lat="43.42415" lon="6.85713">
        <ele>-0.2</ele>
        <time>2019-10-13T06:31:41Z</time>
      </trkpt>
      <trkpt lat="43.42422" lon="6.85699">
        <ele>0.2</ele>
        <time>2019-10-13T06:31:43Z</time>
      </trkpt>
      <trkpt lat="43.42433" lon="6.8567">
        <ele>0.2</ele>
        <time>2019-10-13T06:31:47Z</time>
      </trkpt>
      <trkpt lat="43.42441" lon="6.85647">
        <ele>0.2</ele>
        <time>2019-10-13T06:31:50Z</time>
      </trkpt>
      <trkpt lat="43.42454" lon="6.85614">
        <ele>-0.4</ele>
        <time>2019-10-13T06:31:54Z</time>
      </trkpt>
      <trkpt lat="43.42465" lon="6.85602">
        <ele>-1</ele>
        <time>2019-10-13T06:31:56Z</time>
      </trkpt>
      <trkpt lat="43.42471" lon="6.85597">
        <ele>-1.6</ele>
        <time>2019-10-13T06:31:57Z</time>
      </trkpt>
      <trkpt lat="43.42477" lon="6.85594">
        <ele>-2.6</ele>
        <time>2019-10-13T06:31:58Z</time>
      </trkpt>
      <trkpt lat="43.42491" lon="6.85591">
        <ele>-4</ele>
        <time>2019-10-13T06:32:00Z</time>
      </trkpt>
      <trkpt lat="43.42504" lon="6.85592">
        <ele>-4.2</ele>
        <time>2019-10-13T06:32:02Z</time>
      </trkpt>
      <trkpt lat="43.4253" lon="6.85591">
        <ele>-4.2</ele>
        <time>2019-10-13T06:32:06Z</time>
      </trkpt>
      <trkpt lat="43.4256" lon="6.85595">
        <ele>-3.8</ele>
        <time>2019-10-13T06:32:11Z</time>
      </trkpt>
      <trkpt lat="43.42565" lon="6.85599">
        <ele>-3.6</ele>
        <time>2019-10-13T06:32:12Z</time>
      </trkpt>
      <trkpt lat="43.42577" lon="6.85617">
        <ele>-3.4</ele>
        <time>2019-10-13T06:32:15Z</time>
      </trkpt>
      <trkpt lat="43.42579" lon="6.8564">
        <ele>-3</ele>
        <time>2019-10-13T06:32:18Z</time>
      </trkpt>
      <trkpt lat="43.42578" lon="6.85647">
        <ele>-2.8</ele>
        <time>2019-10-13T06:32:19Z</time>
      </trkpt>
      <trkpt lat="43.42576" lon="6.85669">
        <ele>-1.8</ele>
        <time>2019-10-13T06:32:22Z</time>
      </trkpt>
      <trkpt lat="43.42574" lon="6.85676">
        <ele>-1.6</ele>
        <time>2019-10-13T06:32:23Z</time>
      </trkpt>
      <trkpt lat="43.42574" lon="6.85694">
        <ele>-0.8</ele>
        <time>2019-10-13T06:32:26Z</time>
      </trkpt>
      <trkpt lat="43.42577" lon="6.85705">
        <ele>-1</ele>
        <time>2019-10-13T06:32:28Z</time>
      </trkpt>
      <trkpt lat="43.42584" lon="6.8572">
        <ele>-0.6</ele>
        <time>2019-10-13T06:32:31Z</time>
      </trkpt>
      <trkpt lat="43.42587" lon="6.85724">
        <ele>-0.4</ele>
        <time>2019-10-13T06:32:32Z</time>
      </trkpt>
      <trkpt lat="43.42594" lon="6.85731">
        <ele>0.2</ele>
        <time>2019-10-13T06:32:34Z</time>
      </trkpt>
      <trkpt lat="43.42608" lon="6.85743">
        <ele>0.4</ele>
        <time>2019-10-13T06:32:38Z</time>
      </trkpt>
      <trkpt lat="43.42612" lon="6.85746">
        <ele>0.8</ele>
        <time>2019-10-13T06:32:39Z</time>
      </trkpt>
      <trkpt lat="43.42631" lon="6.85761">
        <ele>1.4</ele>
        <time>2019-10-13T06:32:44Z</time>
      </trkpt>
      <trkpt lat="43.42638" lon="6.85767">
        <ele>1.4</ele>
        <time>2019-10-13T06:32:46Z</time>
      </trkpt>
      <trkpt lat="43.42658" lon="6.85785">
        <ele>1.2</ele>
        <time>2019-10-13T06:32:51Z</time>
      </trkpt>
      <trkpt lat="43.42673" lon="6.85799">
        <ele>1.8</ele>
        <time>2019-10-13T06:32:55Z</time>
      </trkpt>
      <trkpt lat="43.42685" lon="6.85807">
        <ele>2.6</ele>
        <time>2019-10-13T06:32:58Z</time>
      </trkpt>
      <trkpt lat="43.42689" lon="6.85809">
        <ele>3</ele>
        <time>2019-10-13T06:32:59Z</time>
      </trkpt>
      <trkpt lat="43.42702" lon="6.85812">
        <ele>4.4</ele>
        <time>2019-10-13T06:33:02Z</time>
      </trkpt>
      <trkpt lat="43.4271" lon="6.85814">
        <ele>5.6</ele>
        <time>2019-10-13T06:33:04Z</time>
      </trkpt>
      <trkpt lat="43.42722" lon="6.85815">
        <ele>6.4</ele>
        <time>2019-10-13T06:33:07Z</time>
      </trkpt>
      <trkpt lat="43.42726" lon="6.85814">
        <ele>7.2</ele>
        <time>2019-10-13T06:33:08Z</time>
      </trkpt>
      <trkpt lat="43.4273" lon="6.85812">
        <ele>8.4</ele>
        <time>2019-10-13T06:33:09Z</time>
      </trkpt>
      <trkpt lat="43.42734" lon="6.85809">
        <ele>9.4</ele>
        <time>2019-10-13T06:33:10Z</time>
      </trkpt>
      <trkpt lat="43.42741" lon="6.85801">
        <ele>7.4</ele>
        <time>2019-10-13T06:33:12Z</time>
      </trkpt>
      <trkpt lat="43.42744" lon="6.85797">
        <ele>7.4</ele>
        <time>2019-10-13T06:33:13Z</time>
      </trkpt>
      <trkpt lat="43.42747" lon="6.85792">
        <ele>8.2</ele>
        <time>2019-10-13T06:33:14Z</time>
      </trkpt>
      <trkpt lat="43.42749" lon="6.85787">
        <ele>9.8</ele>
        <time>2019-10-13T06:33:15Z</time>
      </trkpt>
      <trkpt lat="43.42752" lon="6.85775">
        <ele>9</ele>
        <time>2019-10-13T06:33:17Z</time>
      </trkpt>
      <trkpt lat="43.42757" lon="6.85757">
        <ele>9.8</ele>
        <time>2019-10-13T06:33:20Z</time>
      </trkpt>
      <trkpt lat="43.42766" lon="6.85733">
        <ele>9.8</ele>
        <time>2019-10-13T06:33:24Z</time>
      </trkpt>
      <trkpt lat="43.42772" lon="6.85725">
        <ele>10.2</ele>
        <time>2019-10-13T06:33:26Z</time>
      </trkpt>
      <trkpt lat="43.42784" lon="6.85717">
        <ele>10.8</ele>
        <time>2019-10-13T06:33:29Z</time>
      </trkpt>
      <trkpt lat="43.42793" lon="6.85716">
        <ele>11.2</ele>
        <time>2019-10-13T06:33:31Z</time>
      </trkpt>
      <trkpt lat="43.42797" lon="6.85716">
        <ele>11.4</ele>
        <time>2019-10-13T06:33:32Z</time>
      </trkpt>
      <trkpt lat="43.42806" lon="6.85716">
        <ele>11.8</ele>
        <time>2019-10-13T06:33:34Z</time>
      </trkpt>
      <trkpt lat="43.42825" lon="6.85713">
        <ele>12.6</ele>
        <time>2019-10-13T06:33:38Z</time>
      </trkpt>
      <trkpt lat="43.4283" lon="6.8571">
        <ele>12.6</ele>
        <time>2019-10-13T06:33:39Z</time>
      </trkpt>
      <trkpt lat="43.42845" lon="6.85698">
        <ele>12.2</ele>
        <time>2019-10-13T06:33:42Z</time>
      </trkpt>
      <trkpt lat="43.42868" lon="6.85676">
        <ele>10.6</ele>
        <time>2019-10-13T06:33:46Z</time>
      </trkpt>
      <trkpt lat="43.42874" lon="6.8567">
        <ele>10</ele>
        <time>2019-10-13T06:33:47Z</time>
      </trkpt>
      <trkpt lat="43.42881" lon="6.85664">
        <ele>8.8</ele>
        <time>2019-10-13T06:33:48Z</time>
      </trkpt>
      <trkpt lat="43.42895" lon="6.85652">
        <ele>7.2</ele>
        <time>2019-10-13T06:33:50Z</time>
      </trkpt>
      <trkpt lat="43.42903" lon="6.85647">
        <ele>6.4</ele>
        <time>2019-10-13T06:33:51Z</time>
      </trkpt>
      <trkpt lat="43.42911" lon="6.85644">
        <ele>5.6</ele>
        <time>2019-10-13T06:33:52Z</time>
      </trkpt>
      <trkpt lat="43.42933" lon="6.85648">
        <ele>4.8</ele>
        <time>2019-10-13T06:33:55Z</time>
      </trkpt>
      <trkpt lat="43.4294" lon="6.85651">
        <ele>5</ele>
        <time>2019-10-13T06:33:56Z</time>
      </trkpt>
      <trkpt lat="43.42966" lon="6.85658">
        <ele>6.6</ele>
        <time>2019-10-13T06:34:00Z</time>
      </trkpt>
      <trkpt lat="43.42973" lon="6.85656">
        <ele>6.8</ele>
        <time>2019-10-13T06:34:01Z</time>
      </trkpt>
      <trkpt lat="43.42993" lon="6.85649">
        <ele>6.6</ele>
        <time>2019-10-13T06:34:04Z</time>
      </trkpt>
      <trkpt lat="43.42999" lon="6.85648">
        <ele>6.4</ele>
        <time>2019-10-13T06:34:05Z</time>
      </trkpt>
      <trkpt lat="43.43019" lon="6.85652">
        <ele>5.8</ele>
        <time>2019-10-13T06:34:08Z</time>
      </trkpt>
      <trkpt lat="43.43059" lon="6.85667">
        <ele>4.6</ele>
        <time>2019-10-13T06:34:14Z</time>
      </trkpt>
      <trkpt lat="43.43073" lon="6.85673">
        <ele>3.4</ele>
        <time>2019-10-13T06:34:16Z</time>
      </trkpt>
      <trkpt lat="43.43094" lon="6.85682">
        <ele>2.4</ele>
        <time>2019-10-13T06:34:19Z</time>
      </trkpt>
      <trkpt lat="43.43114" lon="6.85692">
        <ele>1.4</ele>
        <time>2019-10-13T06:34:22Z</time>
      </trkpt>
      <trkpt lat="43.43127" lon="6.85701">
        <ele>0.8</ele>
        <time>2019-10-13T06:34:24Z</time>
      </trkpt>
      <trkpt lat="43.43161" lon="6.85718">
        <ele>0.6</ele>
        <time>2019-10-13T06:34:29Z</time>
      </trkpt>
      <trkpt lat="43.43168" lon="6.8572">
        <ele>0.6</ele>
        <time>2019-10-13T06:34:30Z</time>
      </trkpt>
      <trkpt lat="43.43194" lon="6.85726">
        <ele>0.2</ele>
        <time>2019-10-13T06:34:34Z</time>
      </trkpt>
      <trkpt lat="43.43214" lon="6.85729">
        <ele>0.4</ele>
        <time>2019-10-13T06:34:37Z</time>
      </trkpt>
      <trkpt lat="43.43241" lon="6.85736">
        <ele>-0.2</ele>
        <time>2019-10-13T06:34:41Z</time>
      </trkpt>
      <trkpt lat="43.43254" lon="6.85744">
        <ele>-0.8</ele>
        <time>2019-10-13T06:34:43Z</time>
      </trkpt>
      <trkpt lat="43.43268" lon="6.85754">
        <ele>-1.4</ele>
        <time>2019-10-13T06:34:45Z</time>
      </trkpt>
      <trkpt lat="43.43274" lon="6.8576">
        <ele>-1.8</ele>
        <time>2019-10-13T06:34:46Z</time>
      </trkpt>
      <trkpt lat="43.43285" lon="6.85774">
        <ele>-2.2</ele>
        <time>2019-10-13T06:34:48Z</time>
      </trkpt>
      <trkpt lat="43.43303" lon="6.85808">
        <ele>-3.2</ele>
        <time>2019-10-13T06:34:52Z</time>
      </trkpt>
      <trkpt lat="43.43306" lon="6.85816">
        <ele>-3.4</ele>
        <time>2019-10-13T06:34:53Z</time>
      </trkpt>
      <trkpt lat="43.43321" lon="6.85851">
        <ele>-4.4</ele>
        <time>2019-10-13T06:34:57Z</time>
      </trkpt>
      <trkpt lat="43.43339" lon="6.85892">
        <ele>-4.2</ele>
        <time>2019-10-13T06:35:02Z</time>
      </trkpt>
      <trkpt lat="43.43346" lon="6.85916">
        <ele>-4</ele>
        <time>2019-10-13T06:35:05Z</time>
      </trkpt>
      <trkpt lat="43.43346" lon="6.85924">
        <ele>-3.6</ele>
        <time>2019-10-13T06:35:06Z</time>
      </trkpt>
      <trkpt lat="43.43349" lon="6.8593">
        <ele>-3.2</ele>
        <time>2019-10-13T06:35:07Z</time>
      </trkpt>
      <trkpt lat="43.43354" lon="6.85933">
        <ele>-3</ele>
        <time>2019-10-13T06:35:08Z</time>
      </trkpt>
      <trkpt lat="43.43363" lon="6.85927">
        <ele>-3.2</ele>
        <time>2019-10-13T06:35:10Z</time>
      </trkpt>
      <trkpt lat="43.4337" lon="6.85904">
        <ele>-2.6</ele>
        <time>2019-10-13T06:35:13Z</time>
      </trkpt>
      <trkpt lat="43.43381" lon="6.85882">
        <ele>-3.2</ele>
        <time>2019-10-13T06:35:16Z</time>
      </trkpt>
      <trkpt lat="43.43389" lon="6.85868">
        <ele>-3.2</ele>
        <time>2019-10-13T06:35:18Z</time>
      </trkpt>
      <trkpt lat="43.43419" lon="6.85816">
        <ele>-2.4</ele>
        <time>2019-10-13T06:35:26Z</time>
      </trkpt>
      <trkpt lat="43.43434" lon="6.8579">
        <ele>-2.8</ele>
        <time>2019-10-13T06:35:30Z</time>
      </trkpt>
      <trkpt lat="43.4344" lon="6.85776">
        <ele>-2.6</ele>
        <time>2019-10-13T06:35:32Z</time>
      </trkpt>
      <trkpt lat="43.43442" lon="6.85769">
        <ele>-2.6</ele>
        <time>2019-10-13T06:35:33Z</time>
      </trkpt>
      <trkpt lat="43.4345" lon="6.85747">
        <ele>-2</ele>
        <time>2019-10-13T06:35:36Z</time>
      </trkpt>
      <trkpt lat="43.43457" lon="6.85726">
        <ele>-1</ele>
        <time>2019-10-13T06:35:39Z</time>
      </trkpt>
      <trkpt lat="43.43459" lon="6.85719">
        <ele>-0.6</ele>
        <time>2019-10-13T06:35:40Z</time>
      </trkpt>
      <trkpt lat="43.43465" lon="6.857">
        <ele>0.4</ele>
        <time>2019-10-13T06:35:43Z</time>
      </trkpt>
      <trkpt lat="43.43473" lon="6.85674">
        <ele>1.6</ele>
        <time>2019-10-13T06:35:47Z</time>
      </trkpt>
      <trkpt lat="43.43476" lon="6.8566">
        <ele>2.2</ele>
        <time>2019-10-13T06:35:49Z</time>
      </trkpt>
      <trkpt lat="43.43476" lon="6.85646">
        <ele>2.6</ele>
        <time>2019-10-13T06:35:51Z</time>
      </trkpt>
      <trkpt lat="43.43477" lon="6.85631">
        <ele>2.8</ele>
        <time>2019-10-13T06:35:53Z</time>
      </trkpt>
      <trkpt lat="43.4348" lon="6.85577">
        <ele>2.8</ele>
        <time>2019-10-13T06:36:00Z</time>
      </trkpt>
      <trkpt lat="43.43479" lon="6.85546">
        <ele>3</ele>
        <time>2019-10-13T06:36:04Z</time>
      </trkpt>
      <trkpt lat="43.43475" lon="6.85524">
        <ele>3</ele>
        <time>2019-10-13T06:36:07Z</time>
      </trkpt>
      <trkpt lat="43.43473" lon="6.85517">
        <ele>3.2</ele>
        <time>2019-10-13T06:36:08Z</time>
      </trkpt>
      <trkpt lat="43.43464" lon="6.85495">
        <ele>3.2</ele>
        <time>2019-10-13T06:36:11Z</time>
      </trkpt>
      <trkpt lat="43.43461" lon="6.85488">
        <ele>3.4</ele>
        <time>2019-10-13T06:36:12Z</time>
      </trkpt>
      <trkpt lat="43.43442" lon="6.85447">
        <ele>3.6</ele>
        <time>2019-10-13T06:36:18Z</time>
      </trkpt>
      <trkpt lat="43.43433" lon="6.85426">
        <ele>3.4</ele>
        <time>2019-10-13T06:36:21Z</time>
      </trkpt>
      <trkpt lat="43.43419" lon="6.85393">
        <ele>3.6</ele>
        <time>2019-10-13T06:36:26Z</time>
      </trkpt>
      <trkpt lat="43.43417" lon="6.85386">
        <ele>3.6</ele>
        <time>2019-10-13T06:36:27Z</time>
      </trkpt>
      <trkpt lat="43.43408" lon="6.85331">
        <ele>3</ele>
        <time>2019-10-13T06:36:34Z</time>
      </trkpt>
      <trkpt lat="43.43407" lon="6.85303">
        <ele>2.8</ele>
        <time>2019-10-13T06:36:37Z</time>
      </trkpt>
      <trkpt lat="43.43409" lon="6.85281">
        <ele>2.4</ele>
        <time>2019-10-13T06:36:39Z</time>
      </trkpt>
      <trkpt lat="43.4341" lon="6.85273">
        <ele>2.2</ele>
        <time>2019-10-13T06:36:40Z</time>
      </trkpt>
      <trkpt lat="43.43418" lon="6.85263">
        <ele>2</ele>
        <time>2019-10-13T06:36:42Z</time>
      </trkpt>
      <trkpt lat="43.43434" lon="6.85265">
        <ele>1.8</ele>
        <time>2019-10-13T06:36:45Z</time>
      </trkpt>
      <trkpt lat="43.43449" lon="6.85273">
        <ele>1.6</ele>
        <time>2019-10-13T06:36:47Z</time>
      </trkpt>
      <trkpt lat="43.43463" lon="6.8528">
        <ele>1.4</ele>
        <time>2019-10-13T06:36:49Z</time>
      </trkpt>
      <trkpt lat="43.43511" lon="6.85294">
        <ele>2</ele>
        <time>2019-10-13T06:36:56Z</time>
      </trkpt>
      <trkpt lat="43.43562" lon="6.85291">
        <ele>2.2</ele>
        <time>2019-10-13T06:37:04Z</time>
      </trkpt>
      <trkpt lat="43.43617" lon="6.85287">
        <ele>2.4</ele>
        <time>2019-10-13T06:37:13Z</time>
      </trkpt>
      <trkpt lat="43.43664" lon="6.85271">
        <ele>2.4</ele>
        <time>2019-10-13T06:37:21Z</time>
      </trkpt>
      <trkpt lat="43.43705" lon="6.85247">
        <ele>1.4</ele>
        <time>2019-10-13T06:37:28Z</time>
      </trkpt>
      <trkpt lat="43.43715" lon="6.85239">
        <ele>0.8</ele>
        <time>2019-10-13T06:37:30Z</time>
      </trkpt>
      <trkpt lat="43.43731" lon="6.85225">
        <ele>6.3</ele>
        <time>2019-10-13T06:37:33Z</time>
      </trkpt>
      <trkpt lat="43.43755" lon="6.85202">
        <ele>-0.4</ele>
        <time>2019-10-13T06:37:38Z</time>
      </trkpt>
      <trkpt lat="43.43803" lon="6.85155">
        <ele>0.2</ele>
        <time>2019-10-13T06:37:48Z</time>
      </trkpt>
      <trkpt lat="43.43838" lon="6.85122">
        <ele>-0.4</ele>
        <time>2019-10-13T06:37:55Z</time>
      </trkpt>
      <trkpt lat="43.43879" lon="6.85084">
        <ele>-0.4</ele>
        <time>2019-10-13T06:38:03Z</time>
      </trkpt>
      <trkpt lat="43.43926" lon="6.85045">
        <ele>-0.2</ele>
        <time>2019-10-13T06:38:12Z</time>
      </trkpt>
      <trkpt lat="43.43951" lon="6.85022">
        <ele>-1.2</ele>
        <time>2019-10-13T06:38:17Z</time>
      </trkpt>
      <trkpt lat="43.43967" lon="6.85008">
        <ele>-1</ele>
        <time>2019-10-13T06:38:20Z</time>
      </trkpt>
      <trkpt lat="43.43999" lon="6.84982">
        <ele>-1.2</ele>
        <time>2019-10-13T06:38:26Z</time>
      </trkpt>
      <trkpt lat="43.4401" lon="6.84978">
        <ele>-1.4</ele>
        <time>2019-10-13T06:38:28Z</time>
      </trkpt>
      <trkpt lat="43.44034" lon="6.84983">
        <ele>-1.4</ele>
        <time>2019-10-13T06:38:32Z</time>
      </trkpt>
      <trkpt lat="43.44075" lon="6.85">
        <ele>-2</ele>
        <time>2019-10-13T06:38:39Z</time>
      </trkpt>
      <trkpt lat="43.44132" lon="6.85022">
        <ele>-1.2</ele>
        <time>2019-10-13T06:38:49Z</time>
      </trkpt>
      <trkpt lat="43.44171" lon="6.85034">
        <ele>-0.8</ele>
        <time>2019-10-13T06:38:56Z</time>
      </trkpt>
      <trkpt lat="43.44206" lon="6.85036">
        <ele>8</ele>
        <time>2019-10-13T06:39:02Z</time>
      </trkpt>
      <trkpt lat="43.44217" lon="6.85036">
        <ele>0.2</ele>
        <time>2019-10-13T06:39:04Z</time>
      </trkpt>
      <trkpt lat="43.44239" lon="6.85035">
        <ele>1</ele>
        <time>2019-10-13T06:39:08Z</time>
      </trkpt>
      <trkpt lat="43.44251" lon="6.85034">
        <ele>1.4</ele>
        <time>2019-10-13T06:39:10Z</time>
      </trkpt>
      <trkpt lat="43.44272" lon="6.85036">
        <ele>1.6</ele>
        <time>2019-10-13T06:39:14Z</time>
      </trkpt>
      <trkpt lat="43.44283" lon="6.85047">
        <ele>1.4</ele>
        <time>2019-10-13T06:39:16Z</time>
      </trkpt>
      <trkpt lat="43.44294" lon="6.85057">
        <ele>1</ele>
        <time>2019-10-13T06:39:18Z</time>
      </trkpt>
      <trkpt lat="43.44326" lon="6.85078">
        <ele>0.8</ele>
        <time>2019-10-13T06:39:24Z</time>
      </trkpt>
      <trkpt lat="43.44336" lon="6.85086">
        <ele>0.8</ele>
        <time>2019-10-13T06:39:26Z</time>
      </trkpt>
      <trkpt lat="43.44354" lon="6.85095">
        <ele>0.8</ele>
        <time>2019-10-13T06:39:29Z</time>
      </trkpt>
      <trkpt lat="43.4436" lon="6.85097">
        <ele>1</ele>
        <time>2019-10-13T06:39:30Z</time>
      </trkpt>
      <trkpt lat="43.4439" lon="6.85101">
        <ele>1.8</ele>
        <time>2019-10-13T06:39:35Z</time>
      </trkpt>
      <trkpt lat="43.44427" lon="6.85096">
        <ele>1.8</ele>
        <time>2019-10-13T06:39:41Z</time>
      </trkpt>
      <trkpt lat="43.44439" lon="6.85093">
        <ele>2</ele>
        <time>2019-10-13T06:39:43Z</time>
      </trkpt>
      <trkpt lat="43.4445" lon="6.85093">
        <ele>2.2</ele>
        <time>2019-10-13T06:39:45Z</time>
      </trkpt>
      <trkpt lat="43.44462" lon="6.85094">
        <ele>2.2</ele>
        <time>2019-10-13T06:39:47Z</time>
      </trkpt>
      <trkpt lat="43.44477" lon="6.85101">
        <ele>2.6</ele>
        <time>2019-10-13T06:39:50Z</time>
      </trkpt>
      <trkpt lat="43.44482" lon="6.85104">
        <ele>2.6</ele>
        <time>2019-10-13T06:39:51Z</time>
      </trkpt>
      <trkpt lat="43.44487" lon="6.85107">
        <ele>2.6</ele>
        <time>2019-10-13T06:39:52Z</time>
      </trkpt>
      <trkpt lat="43.44516" lon="6.85119">
        <ele>2.4</ele>
        <time>2019-10-13T06:39:57Z</time>
      </trkpt>
      <trkpt lat="43.44562" lon="6.85122">
        <ele>1.8</ele>
        <time>2019-10-13T06:40:04Z</time>
      </trkpt>
      <trkpt lat="43.44613" lon="6.85122">
        <ele>1.4</ele>
        <time>2019-10-13T06:40:12Z</time>
      </trkpt>
      <trkpt lat="43.4462" lon="6.85121">
        <ele>1</ele>
        <time>2019-10-13T06:40:13Z</time>
      </trkpt>
      <trkpt lat="43.44646" lon="6.85112">
        <ele>1</ele>
        <time>2019-10-13T06:40:17Z</time>
      </trkpt>
      <trkpt lat="43.44658" lon="6.85109">
        <ele>1.2</ele>
        <time>2019-10-13T06:40:19Z</time>
      </trkpt>
      <trkpt lat="43.4467" lon="6.85115">
        <ele>1.6</ele>
        <time>2019-10-13T06:40:21Z</time>
      </trkpt>
      <trkpt lat="43.44687" lon="6.8514">
        <ele>1.8</ele>
        <time>2019-10-13T06:40:25Z</time>
      </trkpt>
      <trkpt lat="43.44712" lon="6.85173">
        <ele>1.6</ele>
        <time>2019-10-13T06:40:30Z</time>
      </trkpt>
      <trkpt lat="43.44737" lon="6.85185">
        <ele>2</ele>
        <time>2019-10-13T06:40:34Z</time>
      </trkpt>
      <trkpt lat="43.44743" lon="6.85189">
        <ele>2</ele>
        <time>2019-10-13T06:40:35Z</time>
      </trkpt>
      <trkpt lat="43.44754" lon="6.85201">
        <ele>2.2</ele>
        <time>2019-10-13T06:40:37Z</time>
      </trkpt>
      <trkpt lat="43.44757" lon="6.85208">
        <ele>2.2</ele>
        <time>2019-10-13T06:40:38Z</time>
      </trkpt>
      <trkpt lat="43.44764" lon="6.85234">
        <ele>2.2</ele>
        <time>2019-10-13T06:40:41Z</time>
      </trkpt>
      <trkpt lat="43.44767" lon="6.85242">
        <ele>2</ele>
        <time>2019-10-13T06:40:42Z</time>
      </trkpt>
      <trkpt lat="43.44785" lon="6.85291">
        <ele>1.6</ele>
        <time>2019-10-13T06:40:48Z</time>
      </trkpt>
      <trkpt lat="43.44786" lon="6.853">
        <ele>1.6</ele>
        <time>2019-10-13T06:40:49Z</time>
      </trkpt>
      <trkpt lat="43.44792" lon="6.85334">
        <ele>2</ele>
        <time>2019-10-13T06:40:53Z</time>
      </trkpt>
      <trkpt lat="43.44803" lon="6.85374">
        <ele>2.4</ele>
        <time>2019-10-13T06:40:58Z</time>
      </trkpt>
      <trkpt lat="43.44806" lon="6.85381">
        <ele>2.4</ele>
        <time>2019-10-13T06:40:59Z</time>
      </trkpt>
      <trkpt lat="43.44819" lon="6.8541">
        <ele>3</ele>
        <time>2019-10-13T06:41:03Z</time>
      </trkpt>
      <trkpt lat="43.44829" lon="6.85422">
        <ele>2.6</ele>
        <time>2019-10-13T06:41:05Z</time>
      </trkpt>
      <trkpt lat="43.44868" lon="6.85458">
        <ele>2</ele>
        <time>2019-10-13T06:41:12Z</time>
      </trkpt>
      <trkpt lat="43.44918" lon="6.855">
        <ele>2.2</ele>
        <time>2019-10-13T06:41:21Z</time>
      </trkpt>
      <trkpt lat="43.4493" lon="6.85511">
        <ele>2.2</ele>
        <time>2019-10-13T06:41:23Z</time>
      </trkpt>
      <trkpt lat="43.44945" lon="6.85532">
        <ele>2</ele>
        <time>2019-10-13T06:41:26Z</time>
      </trkpt>
      <trkpt lat="43.44949" lon="6.85539">
        <ele>2</ele>
        <time>2019-10-13T06:41:27Z</time>
      </trkpt>
      <trkpt lat="43.44952" lon="6.85547">
        <ele>2</ele>
        <time>2019-10-13T06:41:28Z</time>
      </trkpt>
      <trkpt lat="43.44954" lon="6.85555">
        <ele>2</ele>
        <time>2019-10-13T06:41:29Z</time>
      </trkpt>
      <trkpt lat="43.44958" lon="6.8557">
        <ele>2.4</ele>
        <time>2019-10-13T06:41:31Z</time>
      </trkpt>
      <trkpt lat="43.44966" lon="6.85618">
        <ele>2.6</ele>
        <time>2019-10-13T06:41:37Z</time>
      </trkpt>
      <trkpt lat="43.44979" lon="6.85657">
        <ele>2.8</ele>
        <time>2019-10-13T06:41:42Z</time>
      </trkpt>
      <trkpt lat="43.45001" lon="6.85678">
        <ele>3</ele>
        <time>2019-10-13T06:41:46Z</time>
      </trkpt>
      <trkpt lat="43.45013" lon="6.85685">
        <ele>3</ele>
        <time>2019-10-13T06:41:48Z</time>
      </trkpt>
      <trkpt lat="43.45031" lon="6.85692">
        <ele>2.6</ele>
        <time>2019-10-13T06:41:51Z</time>
      </trkpt>
      <trkpt lat="43.45055" lon="6.85706">
        <ele>3.2</ele>
        <time>2019-10-13T06:41:55Z</time>
      </trkpt>
      <trkpt lat="43.45059" lon="6.85711">
        <ele>3.2</ele>
        <time>2019-10-13T06:41:56Z</time>
      </trkpt>
      <trkpt lat="43.45071" lon="6.85738">
        <ele>4.2</ele>
        <time>2019-10-13T06:42:00Z</time>
      </trkpt>
      <trkpt lat="43.45075" lon="6.8575">
        <ele>5</ele>
        <time>2019-10-13T06:42:02Z</time>
      </trkpt>
      <trkpt lat="43.45076" lon="6.85756">
        <ele>5.4</ele>
        <time>2019-10-13T06:42:03Z</time>
      </trkpt>
      <trkpt lat="43.45076" lon="6.85769">
        <ele>6</ele>
        <time>2019-10-13T06:42:05Z</time>
      </trkpt>
      <trkpt lat="43.45076" lon="6.85775">
        <ele>6.2</ele>
        <time>2019-10-13T06:42:06Z</time>
      </trkpt>
      <trkpt lat="43.45076" lon="6.85782">
        <ele>6.4</ele>
        <time>2019-10-13T06:42:07Z</time>
      </trkpt>
      <trkpt lat="43.45076" lon="6.85808">
        <ele>6.2</ele>
        <time>2019-10-13T06:42:10Z</time>
      </trkpt>
      <trkpt lat="43.45076" lon="6.85828">
        <ele>4.8</ele>
        <time>2019-10-13T06:42:12Z</time>
      </trkpt>
      <trkpt lat="43.45077" lon="6.85838">
        <ele>3.4</ele>
        <time>2019-10-13T06:42:13Z</time>
      </trkpt>
      <trkpt lat="43.45079" lon="6.85857">
        <ele>2.6</ele>
        <time>2019-10-13T06:42:15Z</time>
      </trkpt>
      <trkpt lat="43.45089" lon="6.85881">
        <ele>2.6</ele>
        <time>2019-10-13T06:42:18Z</time>
      </trkpt>
      <trkpt lat="43.45094" lon="6.85888">
        <ele>2.6</ele>
        <time>2019-10-13T06:42:19Z</time>
      </trkpt>
      <trkpt lat="43.45108" lon="6.85918">
        <ele>2.8</ele>
        <time>2019-10-13T06:42:23Z</time>
      </trkpt>
      <trkpt lat="43.4511" lon="6.85926">
        <ele>2.8</ele>
        <time>2019-10-13T06:42:24Z</time>
      </trkpt>
      <trkpt lat="43.45115" lon="6.85976">
        <ele>3.6</ele>
        <time>2019-10-13T06:42:30Z</time>
      </trkpt>
      <trkpt lat="43.45116" lon="6.85992">
        <ele>3.8</ele>
        <time>2019-10-13T06:42:32Z</time>
      </trkpt>
      <trkpt lat="43.45124" lon="6.86014">
        <ele>3.6</ele>
        <time>2019-10-13T06:42:35Z</time>
      </trkpt>
      <trkpt lat="43.45131" lon="6.86039">
        <ele>3.6</ele>
        <time>2019-10-13T06:42:38Z</time>
      </trkpt>
      <trkpt lat="43.45133" lon="6.86055">
        <ele>3.8</ele>
        <time>2019-10-13T06:42:40Z</time>
      </trkpt>
      <trkpt lat="43.45136" lon="6.86087">
        <ele>4</ele>
        <time>2019-10-13T06:42:44Z</time>
      </trkpt>
      <trkpt lat="43.45134" lon="6.86102">
        <ele>4.2</ele>
        <time>2019-10-13T06:42:46Z</time>
      </trkpt>
      <trkpt lat="43.45127" lon="6.86114">
        <ele>4.4</ele>
        <time>2019-10-13T06:42:48Z</time>
      </trkpt>
      <trkpt lat="43.45123" lon="6.86119">
        <ele>4.6</ele>
        <time>2019-10-13T06:42:49Z</time>
      </trkpt>
      <trkpt lat="43.45109" lon="6.86131">
        <ele>4.6</ele>
        <time>2019-10-13T06:42:52Z</time>
      </trkpt>
      <trkpt lat="43.451" lon="6.8614">
        <ele>4.8</ele>
        <time>2019-10-13T06:42:54Z</time>
      </trkpt>
      <trkpt lat="43.45086" lon="6.86162">
        <ele>5</ele>
        <time>2019-10-13T06:42:58Z</time>
      </trkpt>
      <trkpt lat="43.45074" lon="6.86177">
        <ele>5.4</ele>
        <time>2019-10-13T06:43:01Z</time>
      </trkpt>
      <trkpt lat="43.45071" lon="6.86183">
        <ele>5.6</ele>
        <time>2019-10-13T06:43:02Z</time>
      </trkpt>
      <trkpt lat="43.45071" lon="6.8619">
        <ele>5.6</ele>
        <time>2019-10-13T06:43:03Z</time>
      </trkpt>
      <trkpt lat="43.45079" lon="6.86208">
        <ele>5.6</ele>
        <time>2019-10-13T06:43:06Z</time>
      </trkpt>
      <trkpt lat="43.45082" lon="6.86215">
        <ele>5.4</ele>
        <time>2019-10-13T06:43:07Z</time>
      </trkpt>
      <trkpt lat="43.45099" lon="6.86239">
        <ele>5.4</ele>
        <time>2019-10-13T06:43:11Z</time>
      </trkpt>
      <trkpt lat="43.4511" lon="6.86257">
        <ele>5.4</ele>
        <time>2019-10-13T06:43:15Z</time>
      </trkpt>
      <trkpt lat="43.45112" lon="6.86259">
        <ele>5.6</ele>
        <time>2019-10-13T06:43:17Z</time>
      </trkpt>
      <trkpt lat="43.45113" lon="6.86263">
        <ele>6.2</ele>
        <time>2019-10-13T06:43:19Z</time>
      </trkpt>
      <trkpt lat="43.45115" lon="6.86264">
        <ele>6.2</ele>
        <time>2019-10-13T06:43:21Z</time>
      </trkpt>
      <trkpt lat="43.45115" lon="6.86263">
        <ele>6.4</ele>
        <time>2019-10-13T06:43:23Z</time>
      </trkpt>
      <trkpt lat="43.45115" lon="6.8626">
        <ele>6.2</ele>
        <time>2019-10-13T06:43:27Z</time>
      </trkpt>
      <trkpt lat="43.45114" lon="6.86259">
        <ele>6.2</ele>
        <time>2019-10-13T06:43:28Z</time>
      </trkpt>
      <trkpt lat="43.45108" lon="6.86251">
        <ele>5.8</ele>
        <time>2019-10-13T06:43:32Z</time>
      </trkpt>
      <trkpt lat="43.45104" lon="6.86245">
        <ele>5.8</ele>
        <time>2019-10-13T06:43:38Z</time>
      </trkpt>
      <trkpt lat="43.45103" lon="6.86246">
        <ele>5.8</ele>
        <time>2019-10-13T06:43:46Z</time>
      </trkpt>
      <trkpt lat="43.45103" lon="6.86246">
        <ele>5</ele>
        <time>2019-10-13T06:43:59Z</time>
      </trkpt>
      <trkpt lat="43.45103" lon="6.86246">
        <ele>5</ele>
        <time>2019-10-13T06:44:03Z</time>
      </trkpt>
      <trkpt lat="43.45106" lon="6.86248">
        <ele>5</ele>
        <time>2019-10-13T06:44:07Z</time>
      </trkpt>
      <trkpt lat="43.45108" lon="6.86251">
        <ele>4.8</ele>
        <time>2019-10-13T06:44:08Z</time>
      </trkpt>
      <trkpt lat="43.45117" lon="6.86266">
        <ele>4.4</ele>
        <time>2019-10-13T06:44:11Z</time>
      </trkpt>
      <trkpt lat="43.45124" lon="6.86277">
        <ele>4</ele>
        <time>2019-10-13T06:44:13Z</time>
      </trkpt>
      <trkpt lat="43.4514" lon="6.86306">
        <ele>3.4</ele>
        <time>2019-10-13T06:44:18Z</time>
      </trkpt>
      <trkpt lat="43.45144" lon="6.86313">
        <ele>3.4</ele>
        <time>2019-10-13T06:44:19Z</time>
      </trkpt>
      <trkpt lat="43.45162" lon="6.86343">
        <ele>2.8</ele>
        <time>2019-10-13T06:44:24Z</time>
      </trkpt>
      <trkpt lat="43.45166" lon="6.8635">
        <ele>2.8</ele>
        <time>2019-10-13T06:44:25Z</time>
      </trkpt>
      <trkpt lat="43.45168" lon="6.86357">
        <ele>2.8</ele>
        <time>2019-10-13T06:44:26Z</time>
      </trkpt>
      <trkpt lat="43.45171" lon="6.86381">
        <ele>2.8</ele>
        <time>2019-10-13T06:44:29Z</time>
      </trkpt>
      <trkpt lat="43.45175" lon="6.86414">
        <ele>3.8</ele>
        <time>2019-10-13T06:44:34Z</time>
      </trkpt>
      <trkpt lat="43.45175" lon="6.86422">
        <ele>4</ele>
        <time>2019-10-13T06:44:35Z</time>
      </trkpt>
      <trkpt lat="43.45175" lon="6.86443">
        <ele>4</ele>
        <time>2019-10-13T06:44:38Z</time>
      </trkpt>
      <trkpt lat="43.45181" lon="6.86447">
        <ele>4.2</ele>
        <time>2019-10-13T06:44:41Z</time>
      </trkpt>
      <trkpt lat="43.45182" lon="6.86445">
        <ele>4.6</ele>
        <time>2019-10-13T06:44:42Z</time>
      </trkpt>
      <trkpt lat="43.4518" lon="6.86441">
        <ele>4.8</ele>
        <time>2019-10-13T06:44:44Z</time>
      </trkpt>
      <trkpt lat="43.45171" lon="6.86445">
        <ele>4.8</ele>
        <time>2019-10-13T06:44:47Z</time>
      </trkpt>
      <trkpt lat="43.45161" lon="6.86468">
        <ele>4.6</ele>
        <time>2019-10-13T06:44:51Z</time>
      </trkpt>
      <trkpt lat="43.45155" lon="6.86489">
        <ele>4.4</ele>
        <time>2019-10-13T06:44:54Z</time>
      </trkpt>
      <trkpt lat="43.4515" lon="6.86504">
        <ele>4.4</ele>
        <time>2019-10-13T06:44:56Z</time>
      </trkpt>
      <trkpt lat="43.45149" lon="6.86512">
        <ele>4.4</ele>
        <time>2019-10-13T06:44:57Z</time>
      </trkpt>
      <trkpt lat="43.45147" lon="6.86537">
        <ele>4.4</ele>
        <time>2019-10-13T06:45:00Z</time>
      </trkpt>
      <trkpt lat="43.45147" lon="6.86577">
        <ele>4.4</ele>
        <time>2019-10-13T06:45:05Z</time>
      </trkpt>
      <trkpt lat="43.45148" lon="6.86585">
        <ele>4.2</ele>
        <time>2019-10-13T06:45:06Z</time>
      </trkpt>
      <trkpt lat="43.45151" lon="6.86608">
        <ele>4.2</ele>
        <time>2019-10-13T06:45:09Z</time>
      </trkpt>
      <trkpt lat="43.45158" lon="6.8663">
        <ele>4.6</ele>
        <time>2019-10-13T06:45:12Z</time>
      </trkpt>
      <trkpt lat="43.45165" lon="6.86644">
        <ele>4.6</ele>
        <time>2019-10-13T06:45:14Z</time>
      </trkpt>
      <trkpt lat="43.45178" lon="6.86671">
        <ele>5.2</ele>
        <time>2019-10-13T06:45:18Z</time>
      </trkpt>
      <trkpt lat="43.45196" lon="6.86714">
        <ele>5.4</ele>
        <time>2019-10-13T06:45:24Z</time>
      </trkpt>
      <trkpt lat="43.452" lon="6.86721">
        <ele>5.6</ele>
        <time>2019-10-13T06:45:25Z</time>
      </trkpt>
      <trkpt lat="43.45212" lon="6.86739">
        <ele>5.6</ele>
        <time>2019-10-13T06:45:28Z</time>
      </trkpt>
      <trkpt lat="43.45217" lon="6.86744">
        <ele>5.6</ele>
        <time>2019-10-13T06:45:29Z</time>
      </trkpt>
      <trkpt lat="43.45243" lon="6.86769">
        <ele>6.4</ele>
        <time>2019-10-13T06:45:35Z</time>
      </trkpt>
      <trkpt lat="43.45247" lon="6.86771">
        <ele>7</ele>
        <time>2019-10-13T06:45:36Z</time>
      </trkpt>
      <trkpt lat="43.45254" lon="6.86774">
        <ele>8.6</ele>
        <time>2019-10-13T06:45:38Z</time>
      </trkpt>
      <trkpt lat="43.45258" lon="6.86777">
        <ele>9</ele>
        <time>2019-10-13T06:45:39Z</time>
      </trkpt>
      <trkpt lat="43.45276" lon="6.86787">
        <ele>9.8</ele>
        <time>2019-10-13T06:45:43Z</time>
      </trkpt>
      <trkpt lat="43.45286" lon="6.86791">
        <ele>9.6</ele>
        <time>2019-10-13T06:45:45Z</time>
      </trkpt>
      <trkpt lat="43.45291" lon="6.86793">
        <ele>9.6</ele>
        <time>2019-10-13T06:45:46Z</time>
      </trkpt>
      <trkpt lat="43.45314" lon="6.86812">
        <ele>9.8</ele>
        <time>2019-10-13T06:45:51Z</time>
      </trkpt>
      <trkpt lat="43.45352" lon="6.86856">
        <ele>10</ele>
        <time>2019-10-13T06:46:00Z</time>
      </trkpt>
      <trkpt lat="43.45371" lon="6.86883">
        <ele>8.4</ele>
        <time>2019-10-13T06:46:04Z</time>
      </trkpt>
      <trkpt lat="43.45378" lon="6.86888">
        <ele>8</ele>
        <time>2019-10-13T06:46:05Z</time>
      </trkpt>
      <trkpt lat="43.45385" lon="6.86892">
        <ele>7.2</ele>
        <time>2019-10-13T06:46:06Z</time>
      </trkpt>
      <trkpt lat="43.45398" lon="6.86901">
        <ele>5.6</ele>
        <time>2019-10-13T06:46:08Z</time>
      </trkpt>
      <trkpt lat="43.45401" lon="6.8692">
        <ele>4.6</ele>
        <time>2019-10-13T06:46:10Z</time>
      </trkpt>
      <trkpt lat="43.45398" lon="6.86956">
        <ele>4</ele>
        <time>2019-10-13T06:46:14Z</time>
      </trkpt>
      <trkpt lat="43.45386" lon="6.86975">
        <ele>4.8</ele>
        <time>2019-10-13T06:46:17Z</time>
      </trkpt>
      <trkpt lat="43.45379" lon="6.86986">
        <ele>5.6</ele>
        <time>2019-10-13T06:46:19Z</time>
      </trkpt>
      <trkpt lat="43.45377" lon="6.86998">
        <ele>6.8</ele>
        <time>2019-10-13T06:46:21Z</time>
      </trkpt>
      <trkpt lat="43.45377" lon="6.87008">
        <ele>8</ele>
        <time>2019-10-13T06:46:23Z</time>
      </trkpt>
      <trkpt lat="43.45377" lon="6.87013">
        <ele>8.6</ele>
        <time>2019-10-13T06:46:24Z</time>
      </trkpt>
      <trkpt lat="43.45378" lon="6.87017">
        <ele>8.8</ele>
        <time>2019-10-13T06:46:25Z</time>
      </trkpt>
      <trkpt lat="43.45379" lon="6.87021">
        <ele>9.2</ele>
        <time>2019-10-13T06:46:26Z</time>
      </trkpt>
      <trkpt lat="43.45381" lon="6.87028">
        <ele>10.2</ele>
        <time>2019-10-13T06:46:28Z</time>
      </trkpt>
      <trkpt lat="43.45381" lon="6.87041">
        <ele>11.4</ele>
        <time>2019-10-13T06:46:31Z</time>
      </trkpt>
      <trkpt lat="43.45381" lon="6.87054">
        <ele>12.4</ele>
        <time>2019-10-13T06:46:34Z</time>
      </trkpt>
      <trkpt lat="43.45381" lon="6.87068">
        <ele>13.8</ele>
        <time>2019-10-13T06:46:37Z</time>
      </trkpt>
      <trkpt lat="43.45381" lon="6.87076">
        <ele>14.8</ele>
        <time>2019-10-13T06:46:39Z</time>
      </trkpt>
      <trkpt lat="43.45381" lon="6.87088">
        <ele>16.2</ele>
        <time>2019-10-13T06:46:42Z</time>
      </trkpt>
      <trkpt lat="43.45381" lon="6.871">
        <ele>17.6</ele>
        <time>2019-10-13T06:46:45Z</time>
      </trkpt>
      <trkpt lat="43.45381" lon="6.87103">
        <ele>18</ele>
        <time>2019-10-13T06:46:46Z</time>
      </trkpt>
      <trkpt lat="43.45381" lon="6.87111">
        <ele>18.6</ele>
        <time>2019-10-13T06:46:48Z</time>
      </trkpt>
      <trkpt lat="43.45381" lon="6.87126">
        <ele>19.6</ele>
        <time>2019-10-13T06:46:52Z</time>
      </trkpt>
      <trkpt lat="43.4538" lon="6.87138">
        <ele>20.4</ele>
        <time>2019-10-13T06:46:55Z</time>
      </trkpt>
      <trkpt lat="43.45379" lon="6.87141">
        <ele>20.6</ele>
        <time>2019-10-13T06:46:56Z</time>
      </trkpt>
      <trkpt lat="43.45375" lon="6.87152">
        <ele>21.8</ele>
        <time>2019-10-13T06:46:59Z</time>
      </trkpt>
      <trkpt lat="43.45371" lon="6.87159">
        <ele>22</ele>
        <time>2019-10-13T06:47:01Z</time>
      </trkpt>
      <trkpt lat="43.45366" lon="6.87168">
        <ele>23</ele>
        <time>2019-10-13T06:47:04Z</time>
      </trkpt>
      <trkpt lat="43.45353" lon="6.87185">
        <ele>24.2</ele>
        <time>2019-10-13T06:47:10Z</time>
      </trkpt>
      <trkpt lat="43.45345" lon="6.87196">
        <ele>25.4</ele>
        <time>2019-10-13T06:47:14Z</time>
      </trkpt>
      <trkpt lat="43.45336" lon="6.87206">
        <ele>26</ele>
        <time>2019-10-13T06:47:18Z</time>
      </trkpt>
      <trkpt lat="43.45329" lon="6.87213">
        <ele>26.6</ele>
        <time>2019-10-13T06:47:21Z</time>
      </trkpt>
      <trkpt lat="43.45322" lon="6.8722">
        <ele>27.4</ele>
        <time>2019-10-13T06:47:24Z</time>
      </trkpt>
      <trkpt lat="43.45319" lon="6.87222">
        <ele>27.6</ele>
        <time>2019-10-13T06:47:25Z</time>
      </trkpt>
      <trkpt lat="43.45302" lon="6.87238">
        <ele>28.8</ele>
        <time>2019-10-13T06:47:32Z</time>
      </trkpt>
      <trkpt lat="43.453" lon="6.8724">
        <ele>29</ele>
        <time>2019-10-13T06:47:33Z</time>
      </trkpt>
      <trkpt lat="43.45292" lon="6.87246">
        <ele>29.8</ele>
        <time>2019-10-13T06:47:36Z</time>
      </trkpt>
      <trkpt lat="43.4528" lon="6.87258">
        <ele>30.8</ele>
        <time>2019-10-13T06:47:41Z</time>
      </trkpt>
      <trkpt lat="43.45277" lon="6.8726">
        <ele>31</ele>
        <time>2019-10-13T06:47:42Z</time>
      </trkpt>
      <trkpt lat="43.45267" lon="6.87275">
        <ele>32.2</ele>
        <time>2019-10-13T06:47:47Z</time>
      </trkpt>
      <trkpt lat="43.45258" lon="6.87286">
        <ele>33.2</ele>
        <time>2019-10-13T06:47:51Z</time>
      </trkpt>
      <trkpt lat="43.45256" lon="6.87288">
        <ele>33.2</ele>
        <time>2019-10-13T06:47:52Z</time>
      </trkpt>
      <trkpt lat="43.45247" lon="6.87302">
        <ele>34.2</ele>
        <time>2019-10-13T06:47:57Z</time>
      </trkpt>
      <trkpt lat="43.45239" lon="6.87314">
        <ele>35</ele>
        <time>2019-10-13T06:48:01Z</time>
      </trkpt>
      <trkpt lat="43.45238" lon="6.87317">
        <ele>35.4</ele>
        <time>2019-10-13T06:48:02Z</time>
      </trkpt>
      <trkpt lat="43.4523" lon="6.87331">
        <ele>36.6</ele>
        <time>2019-10-13T06:48:06Z</time>
      </trkpt>
      <trkpt lat="43.45228" lon="6.87334">
        <ele>36.6</ele>
        <time>2019-10-13T06:48:07Z</time>
      </trkpt>
      <trkpt lat="43.45223" lon="6.87343">
        <ele>37.6</ele>
        <time>2019-10-13T06:48:10Z</time>
      </trkpt>
      <trkpt lat="43.45216" lon="6.87356">
        <ele>39.2</ele>
        <time>2019-10-13T06:48:14Z</time>
      </trkpt>
      <trkpt lat="43.45207" lon="6.87374">
        <ele>40.2</ele>
        <time>2019-10-13T06:48:19Z</time>
      </trkpt>
      <trkpt lat="43.45203" lon="6.87381">
        <ele>40.6</ele>
        <time>2019-10-13T06:48:21Z</time>
      </trkpt>
      <trkpt lat="43.45198" lon="6.87392">
        <ele>41.4</ele>
        <time>2019-10-13T06:48:24Z</time>
      </trkpt>
      <trkpt lat="43.45189" lon="6.87416">
        <ele>42.4</ele>
        <time>2019-10-13T06:48:30Z</time>
      </trkpt>
      <trkpt lat="43.45185" lon="6.87432">
        <ele>43.4</ele>
        <time>2019-10-13T06:48:34Z</time>
      </trkpt>
      <trkpt lat="43.45181" lon="6.87449">
        <ele>44.4</ele>
        <time>2019-10-13T06:48:38Z</time>
      </trkpt>
      <trkpt lat="43.4518" lon="6.87454">
        <ele>44.8</ele>
        <time>2019-10-13T06:48:39Z</time>
      </trkpt>
      <trkpt lat="43.45177" lon="6.87487">
        <ele>45.6</ele>
        <time>2019-10-13T06:48:46Z</time>
      </trkpt>
      <trkpt lat="43.45178" lon="6.87491">
        <ele>45.6</ele>
        <time>2019-10-13T06:48:47Z</time>
      </trkpt>
      <trkpt lat="43.4518" lon="6.87521">
        <ele>46.8</ele>
        <time>2019-10-13T06:48:53Z</time>
      </trkpt>
      <trkpt lat="43.45182" lon="6.87531">
        <ele>46.8</ele>
        <time>2019-10-13T06:48:55Z</time>
      </trkpt>
      <trkpt lat="43.45196" lon="6.87561">
        <ele>48.2</ele>
        <time>2019-10-13T06:49:02Z</time>
      </trkpt>
      <trkpt lat="43.45211" lon="6.87572">
        <ele>48.8</ele>
        <time>2019-10-13T06:49:07Z</time>
      </trkpt>
      <trkpt lat="43.45218" lon="6.87575">
        <ele>49.2</ele>
        <time>2019-10-13T06:49:09Z</time>
      </trkpt>
      <trkpt lat="43.45232" lon="6.87573">
        <ele>50</ele>
        <time>2019-10-13T06:49:13Z</time>
      </trkpt>
      <trkpt lat="43.45237" lon="6.87567">
        <ele>50.6</ele>
        <time>2019-10-13T06:49:15Z</time>
      </trkpt>
      <trkpt lat="43.45245" lon="6.87558">
        <ele>51.2</ele>
        <time>2019-10-13T06:49:18Z</time>
      </trkpt>
      <trkpt lat="43.45252" lon="6.87554">
        <ele>51.6</ele>
        <time>2019-10-13T06:49:20Z</time>
      </trkpt>
      <trkpt lat="43.45265" lon="6.87554">
        <ele>52.8</ele>
        <time>2019-10-13T06:49:24Z</time>
      </trkpt>
      <trkpt lat="43.45273" lon="6.87561">
        <ele>53.8</ele>
        <time>2019-10-13T06:49:27Z</time>
      </trkpt>
      <trkpt lat="43.45275" lon="6.87565">
        <ele>54.4</ele>
        <time>2019-10-13T06:49:28Z</time>
      </trkpt>
      <trkpt lat="43.45275" lon="6.87574">
        <ele>55</ele>
        <time>2019-10-13T06:49:30Z</time>
      </trkpt>
      <trkpt lat="43.45274" lon="6.87582">
        <ele>55.8</ele>
        <time>2019-10-13T06:49:32Z</time>
      </trkpt>
      <trkpt lat="43.45273" lon="6.87586">
        <ele>56.2</ele>
        <time>2019-10-13T06:49:33Z</time>
      </trkpt>
      <trkpt lat="43.45272" lon="6.87601">
        <ele>57.4</ele>
        <time>2019-10-13T06:49:37Z</time>
      </trkpt>
      <trkpt lat="43.45271" lon="6.8761">
        <ele>58.4</ele>
        <time>2019-10-13T06:49:39Z</time>
      </trkpt>
      <trkpt lat="43.45271" lon="6.87614">
        <ele>59</ele>
        <time>2019-10-13T06:49:40Z</time>
      </trkpt>
      <trkpt lat="43.45271" lon="6.87622">
        <ele>59.8</ele>
        <time>2019-10-13T06:49:42Z</time>
      </trkpt>
      <trkpt lat="43.4527" lon="6.87638">
        <ele>60.8</ele>
        <time>2019-10-13T06:49:46Z</time>
      </trkpt>
      <trkpt lat="43.4527" lon="6.87642">
        <ele>61.2</ele>
        <time>2019-10-13T06:49:47Z</time>
      </trkpt>
      <trkpt lat="43.4527" lon="6.87654">
        <ele>62</ele>
        <time>2019-10-13T06:49:50Z</time>
      </trkpt>
      <trkpt lat="43.45271" lon="6.8767">
        <ele>63</ele>
        <time>2019-10-13T06:49:54Z</time>
      </trkpt>
      <trkpt lat="43.45271" lon="6.87674">
        <ele>63.2</ele>
        <time>2019-10-13T06:49:55Z</time>
      </trkpt>
      <trkpt lat="43.4527" lon="6.87694">
        <ele>64</ele>
        <time>2019-10-13T06:50:00Z</time>
      </trkpt>
      <trkpt lat="43.45269" lon="6.87706">
        <ele>65</ele>
        <time>2019-10-13T06:50:03Z</time>
      </trkpt>
      <trkpt lat="43.45268" lon="6.8771">
        <ele>65.2</ele>
        <time>2019-10-13T06:50:04Z</time>
      </trkpt>
      <trkpt lat="43.45265" lon="6.87731">
        <ele>66.2</ele>
        <time>2019-10-13T06:50:09Z</time>
      </trkpt>
      <trkpt lat="43.45263" lon="6.87744">
        <ele>66.8</ele>
        <time>2019-10-13T06:50:12Z</time>
      </trkpt>
      <trkpt lat="43.45263" lon="6.87753">
        <ele>67.4</ele>
        <time>2019-10-13T06:50:14Z</time>
      </trkpt>
      <trkpt lat="43.45266" lon="6.87775">
        <ele>68.6</ele>
        <time>2019-10-13T06:50:19Z</time>
      </trkpt>
      <trkpt lat="43.45273" lon="6.87799">
        <ele>69.6</ele>
        <time>2019-10-13T06:50:25Z</time>
      </trkpt>
      <trkpt lat="43.45276" lon="6.87808">
        <ele>70.2</ele>
        <time>2019-10-13T06:50:27Z</time>
      </trkpt>
      <trkpt lat="43.45287" lon="6.87832">
        <ele>70.8</ele>
        <time>2019-10-13T06:50:33Z</time>
      </trkpt>
      <trkpt lat="43.45288" lon="6.87836">
        <ele>70.8</ele>
        <time>2019-10-13T06:50:34Z</time>
      </trkpt>
      <trkpt lat="43.45296" lon="6.87861">
        <ele>71.8</ele>
        <time>2019-10-13T06:50:40Z</time>
      </trkpt>
      <trkpt lat="43.45301" lon="6.87882">
        <ele>72.2</ele>
        <time>2019-10-13T06:50:46Z</time>
      </trkpt>
      <trkpt lat="43.45298" lon="6.8788">
        <ele>72.2</ele>
        <time>2019-10-13T06:50:47Z</time>
      </trkpt>
      <trkpt lat="43.45295" lon="6.87878">
        <ele>72.2</ele>
        <time>2019-10-13T06:50:48Z</time>
      </trkpt>
      <trkpt lat="43.45287" lon="6.87866">
        <ele>72.4</ele>
        <time>2019-10-13T06:50:51Z</time>
      </trkpt>
      <trkpt lat="43.45285" lon="6.87861">
        <ele>72.6</ele>
        <time>2019-10-13T06:50:52Z</time>
      </trkpt>
      <trkpt lat="43.45275" lon="6.87838">
        <ele>73</ele>
        <time>2019-10-13T06:50:57Z</time>
      </trkpt>
      <trkpt lat="43.45272" lon="6.87834">
        <ele>73.4</ele>
        <time>2019-10-13T06:50:58Z</time>
      </trkpt>
      <trkpt lat="43.45266" lon="6.87827">
        <ele>74.2</ele>
        <time>2019-10-13T06:51:00Z</time>
      </trkpt>
      <trkpt lat="43.45254" lon="6.87822">
        <ele>75.2</ele>
        <time>2019-10-13T06:51:03Z</time>
      </trkpt>
      <trkpt lat="43.45239" lon="6.87826">
        <ele>76.4</ele>
        <time>2019-10-13T06:51:07Z</time>
      </trkpt>
      <trkpt lat="43.45236" lon="6.87829">
        <ele>76.6</ele>
        <time>2019-10-13T06:51:08Z</time>
      </trkpt>
      <trkpt lat="43.45226" lon="6.87838">
        <ele>77.6</ele>
        <time>2019-10-13T06:51:11Z</time>
      </trkpt>
      <trkpt lat="43.45217" lon="6.87844">
        <ele>78</ele>
        <time>2019-10-13T06:51:14Z</time>
      </trkpt>
      <trkpt lat="43.45204" lon="6.87838">
        <ele>79</ele>
        <time>2019-10-13T06:51:18Z</time>
      </trkpt>
      <trkpt lat="43.45194" lon="6.87824">
        <ele>80</ele>
        <time>2019-10-13T06:51:22Z</time>
      </trkpt>
      <trkpt lat="43.45189" lon="6.87817">
        <ele>80.6</ele>
        <time>2019-10-13T06:51:24Z</time>
      </trkpt>
      <trkpt lat="43.45177" lon="6.87807">
        <ele>81.2</ele>
        <time>2019-10-13T06:51:28Z</time>
      </trkpt>
      <trkpt lat="43.4517" lon="6.87803">
        <ele>81.6</ele>
        <time>2019-10-13T06:51:30Z</time>
      </trkpt>
      <trkpt lat="43.45163" lon="6.87799">
        <ele>82.4</ele>
        <time>2019-10-13T06:51:32Z</time>
      </trkpt>
      <trkpt lat="43.45148" lon="6.87785">
        <ele>83.4</ele>
        <time>2019-10-13T06:51:37Z</time>
      </trkpt>
      <trkpt lat="43.45145" lon="6.87781">
        <ele>83.8</ele>
        <time>2019-10-13T06:51:38Z</time>
      </trkpt>
      <trkpt lat="43.45133" lon="6.87762">
        <ele>84.4</ele>
        <time>2019-10-13T06:51:43Z</time>
      </trkpt>
      <trkpt lat="43.45125" lon="6.87751">
        <ele>85.4</ele>
        <time>2019-10-13T06:51:46Z</time>
      </trkpt>
      <trkpt lat="43.45122" lon="6.87748">
        <ele>85.6</ele>
        <time>2019-10-13T06:51:47Z</time>
      </trkpt>
      <trkpt lat="43.45102" lon="6.87735">
        <ele>86.6</ele>
        <time>2019-10-13T06:51:53Z</time>
      </trkpt>
      <trkpt lat="43.45083" lon="6.87739">
        <ele>87.6</ele>
        <time>2019-10-13T06:51:58Z</time>
      </trkpt>
      <trkpt lat="43.4508" lon="6.87742">
        <ele>88</ele>
        <time>2019-10-13T06:51:59Z</time>
      </trkpt>
      <trkpt lat="43.45078" lon="6.87745">
        <ele>88.2</ele>
        <time>2019-10-13T06:52:00Z</time>
      </trkpt>
      <trkpt lat="43.45069" lon="6.87756">
        <ele>88.4</ele>
        <time>2019-10-13T06:52:03Z</time>
      </trkpt>
      <trkpt lat="43.45062" lon="6.87767">
        <ele>89</ele>
        <time>2019-10-13T06:52:06Z</time>
      </trkpt>
      <trkpt lat="43.45054" lon="6.87786">
        <ele>89.4</ele>
        <time>2019-10-13T06:52:10Z</time>
      </trkpt>
      <trkpt lat="43.45047" lon="6.87801">
        <ele>90</ele>
        <time>2019-10-13T06:52:13Z</time>
      </trkpt>
      <trkpt lat="43.45036" lon="6.87825">
        <ele>91.2</ele>
        <time>2019-10-13T06:52:18Z</time>
      </trkpt>
      <trkpt lat="43.45026" lon="6.8785">
        <ele>92.2</ele>
        <time>2019-10-13T06:52:23Z</time>
      </trkpt>
      <trkpt lat="43.45021" lon="6.87859">
        <ele>92.6</ele>
        <time>2019-10-13T06:52:25Z</time>
      </trkpt>
      <trkpt lat="43.45018" lon="6.87863">
        <ele>92.8</ele>
        <time>2019-10-13T06:52:26Z</time>
      </trkpt>
      <trkpt lat="43.4501" lon="6.87876">
        <ele>93.4</ele>
        <time>2019-10-13T06:52:29Z</time>
      </trkpt>
      <trkpt lat="43.44995" lon="6.87895">
        <ele>94.6</ele>
        <time>2019-10-13T06:52:34Z</time>
      </trkpt>
      <trkpt lat="43.44987" lon="6.87907">
        <ele>95.6</ele>
        <time>2019-10-13T06:52:37Z</time>
      </trkpt>
      <trkpt lat="43.44979" lon="6.87919">
        <ele>96.6</ele>
        <time>2019-10-13T06:52:40Z</time>
      </trkpt>
      <trkpt lat="43.44974" lon="6.87927">
        <ele>97.2</ele>
        <time>2019-10-13T06:52:42Z</time>
      </trkpt>
      <trkpt lat="43.44969" lon="6.87937">
        <ele>97.6</ele>
        <time>2019-10-13T06:52:44Z</time>
      </trkpt>
      <trkpt lat="43.4496" lon="6.87956">
        <ele>98.8</ele>
        <time>2019-10-13T06:52:48Z</time>
      </trkpt>
      <trkpt lat="43.44958" lon="6.8796">
        <ele>99</ele>
        <time>2019-10-13T06:52:49Z</time>
      </trkpt>
      <trkpt lat="43.44955" lon="6.87965">
        <ele>99.2</ele>
        <time>2019-10-13T06:52:50Z</time>
      </trkpt>
      <trkpt lat="43.4495" lon="6.8798">
        <ele>100</ele>
        <time>2019-10-13T06:52:53Z</time>
      </trkpt>
      <trkpt lat="43.44948" lon="6.87986">
        <ele>100.4</ele>
        <time>2019-10-13T06:52:54Z</time>
      </trkpt>
      <trkpt lat="43.44947" lon="6.87992">
        <ele>100.6</ele>
        <time>2019-10-13T06:52:55Z</time>
      </trkpt>
      <trkpt lat="43.44944" lon="6.88002">
        <ele>101</ele>
        <time>2019-10-13T06:52:57Z</time>
      </trkpt>
      <trkpt lat="43.44936" lon="6.88024">
        <ele>102.2</ele>
        <time>2019-10-13T06:53:01Z</time>
      </trkpt>
      <trkpt lat="43.44934" lon="6.88029">
        <ele>102.4</ele>
        <time>2019-10-13T06:53:02Z</time>
      </trkpt>
      <trkpt lat="43.44926" lon="6.88043">
        <ele>103.2</ele>
        <time>2019-10-13T06:53:05Z</time>
      </trkpt>
      <trkpt lat="43.44923" lon="6.88046">
        <ele>103.4</ele>
        <time>2019-10-13T06:53:06Z</time>
      </trkpt>
      <trkpt lat="43.44916" lon="6.88052">
        <ele>103.8</ele>
        <time>2019-10-13T06:53:08Z</time>
      </trkpt>
      <trkpt lat="43.4491" lon="6.88059">
        <ele>104.4</ele>
        <time>2019-10-13T06:53:10Z</time>
      </trkpt>
      <trkpt lat="43.44907" lon="6.88063">
        <ele>104.6</ele>
        <time>2019-10-13T06:53:11Z</time>
      </trkpt>
      <trkpt lat="43.44904" lon="6.88073">
        <ele>105</ele>
        <time>2019-10-13T06:53:13Z</time>
      </trkpt>
      <trkpt lat="43.44902" lon="6.88083">
        <ele>105.6</ele>
        <time>2019-10-13T06:53:15Z</time>
      </trkpt>
      <trkpt lat="43.449" lon="6.88103">
        <ele>106.2</ele>
        <time>2019-10-13T06:53:19Z</time>
      </trkpt>
      <trkpt lat="43.44898" lon="6.88112">
        <ele>106.6</ele>
        <time>2019-10-13T06:53:21Z</time>
      </trkpt>
      <trkpt lat="43.44898" lon="6.88136">
        <ele>107.8</ele>
        <time>2019-10-13T06:53:26Z</time>
      </trkpt>
      <trkpt lat="43.44898" lon="6.88141">
        <ele>108</ele>
        <time>2019-10-13T06:53:27Z</time>
      </trkpt>
      <trkpt lat="43.44897" lon="6.8816">
        <ele>109</ele>
        <time>2019-10-13T06:53:31Z</time>
      </trkpt>
      <trkpt lat="43.44897" lon="6.88174">
        <ele>109.8</ele>
        <time>2019-10-13T06:53:34Z</time>
      </trkpt>
      <trkpt lat="43.44896" lon="6.88184">
        <ele>110.6</ele>
        <time>2019-10-13T06:53:36Z</time>
      </trkpt>
      <trkpt lat="43.44893" lon="6.88198">
        <ele>111.8</ele>
        <time>2019-10-13T06:53:39Z</time>
      </trkpt>
      <trkpt lat="43.4489" lon="6.88207">
        <ele>112.4</ele>
        <time>2019-10-13T06:53:41Z</time>
      </trkpt>
      <trkpt lat="43.44885" lon="6.88219">
        <ele>112.8</ele>
        <time>2019-10-13T06:53:44Z</time>
      </trkpt>
      <trkpt lat="43.44878" lon="6.88235">
        <ele>114</ele>
        <time>2019-10-13T06:53:48Z</time>
      </trkpt>
      <trkpt lat="43.44875" lon="6.88243">
        <ele>114.4</ele>
        <time>2019-10-13T06:53:50Z</time>
      </trkpt>
      <trkpt lat="43.44873" lon="6.88256">
        <ele>115.2</ele>
        <time>2019-10-13T06:53:53Z</time>
      </trkpt>
      <trkpt lat="43.44873" lon="6.88275">
        <ele>115.8</ele>
        <time>2019-10-13T06:53:57Z</time>
      </trkpt>
      <trkpt lat="43.44873" lon="6.88284">
        <ele>116.4</ele>
        <time>2019-10-13T06:53:59Z</time>
      </trkpt>
      <trkpt lat="43.44879" lon="6.88312">
        <ele>117.4</ele>
        <time>2019-10-13T06:54:05Z</time>
      </trkpt>
      <trkpt lat="43.4489" lon="6.88337">
        <ele>118.4</ele>
        <time>2019-10-13T06:54:11Z</time>
      </trkpt>
      <trkpt lat="43.44892" lon="6.88342">
        <ele>118.6</ele>
        <time>2019-10-13T06:54:12Z</time>
      </trkpt>
      <trkpt lat="43.44894" lon="6.88353">
        <ele>118.8</ele>
        <time>2019-10-13T06:54:14Z</time>
      </trkpt>
      <trkpt lat="43.44892" lon="6.88358">
        <ele>118.8</ele>
        <time>2019-10-13T06:54:15Z</time>
      </trkpt>
      <trkpt lat="43.44883" lon="6.88369">
        <ele>119.2</ele>
        <time>2019-10-13T06:54:18Z</time>
      </trkpt>
      <trkpt lat="43.44873" lon="6.88377">
        <ele>119.8</ele>
        <time>2019-10-13T06:54:21Z</time>
      </trkpt>
      <trkpt lat="43.44867" lon="6.88382">
        <ele>120.2</ele>
        <time>2019-10-13T06:54:23Z</time>
      </trkpt>
      <trkpt lat="43.44862" lon="6.88388">
        <ele>121</ele>
        <time>2019-10-13T06:54:25Z</time>
      </trkpt>
      <trkpt lat="43.44855" lon="6.88405">
        <ele>121.4</ele>
        <time>2019-10-13T06:54:29Z</time>
      </trkpt>
      <trkpt lat="43.44856" lon="6.88423">
        <ele>122</ele>
        <time>2019-10-13T06:54:33Z</time>
      </trkpt>
      <trkpt lat="43.44856" lon="6.88428">
        <ele>122.4</ele>
        <time>2019-10-13T06:54:34Z</time>
      </trkpt>
      <trkpt lat="43.44855" lon="6.88447">
        <ele>123.2</ele>
        <time>2019-10-13T06:54:38Z</time>
      </trkpt>
      <trkpt lat="43.44853" lon="6.88456">
        <ele>124</ele>
        <time>2019-10-13T06:54:40Z</time>
      </trkpt>
      <trkpt lat="43.4485" lon="6.8846">
        <ele>124</ele>
        <time>2019-10-13T06:54:41Z</time>
      </trkpt>
      <trkpt lat="43.44845" lon="6.88466">
        <ele>124.4</ele>
        <time>2019-10-13T06:54:43Z</time>
      </trkpt>
      <trkpt lat="43.44834" lon="6.8847">
        <ele>125.4</ele>
        <time>2019-10-13T06:54:46Z</time>
      </trkpt>
      <trkpt lat="43.44826" lon="6.88469">
        <ele>125.8</ele>
        <time>2019-10-13T06:54:48Z</time>
      </trkpt>
      <trkpt lat="43.44809" lon="6.88466">
        <ele>126.6</ele>
        <time>2019-10-13T06:54:52Z</time>
      </trkpt>
      <trkpt lat="43.44802" lon="6.88469">
        <ele>126.6</ele>
        <time>2019-10-13T06:54:54Z</time>
      </trkpt>
      <trkpt lat="43.44791" lon="6.88487">
        <ele>127.4</ele>
        <time>2019-10-13T06:54:58Z</time>
      </trkpt>
      <trkpt lat="43.44789" lon="6.88492">
        <ele>127.6</ele>
        <time>2019-10-13T06:54:59Z</time>
      </trkpt>
      <trkpt lat="43.44783" lon="6.88506">
        <ele>128.8</ele>
        <time>2019-10-13T06:55:02Z</time>
      </trkpt>
      <trkpt lat="43.44778" lon="6.88526">
        <ele>129.8</ele>
        <time>2019-10-13T06:55:06Z</time>
      </trkpt>
      <trkpt lat="43.44773" lon="6.88548">
        <ele>130</ele>
        <time>2019-10-13T06:55:10Z</time>
      </trkpt>
      <trkpt lat="43.44771" lon="6.8857">
        <ele>131</ele>
        <time>2019-10-13T06:55:14Z</time>
      </trkpt>
      <trkpt lat="43.44763" lon="6.8861">
        <ele>132</ele>
        <time>2019-10-13T06:55:21Z</time>
      </trkpt>
      <trkpt lat="43.4476" lon="6.88621">
        <ele>132.2</ele>
        <time>2019-10-13T06:55:23Z</time>
      </trkpt>
      <trkpt lat="43.44755" lon="6.88642">
        <ele>133</ele>
        <time>2019-10-13T06:55:27Z</time>
      </trkpt>
      <trkpt lat="43.4475" lon="6.88658">
        <ele>133.8</ele>
        <time>2019-10-13T06:55:30Z</time>
      </trkpt>
      <trkpt lat="43.44748" lon="6.88663">
        <ele>134</ele>
        <time>2019-10-13T06:55:31Z</time>
      </trkpt>
      <trkpt lat="43.44744" lon="6.88673">
        <ele>134.2</ele>
        <time>2019-10-13T06:55:33Z</time>
      </trkpt>
      <trkpt lat="43.4474" lon="6.88689">
        <ele>134.6</ele>
        <time>2019-10-13T06:55:36Z</time>
      </trkpt>
      <trkpt lat="43.44739" lon="6.88695">
        <ele>134.8</ele>
        <time>2019-10-13T06:55:37Z</time>
      </trkpt>
      <trkpt lat="43.44735" lon="6.88739">
        <ele>134.8</ele>
        <time>2019-10-13T06:55:44Z</time>
      </trkpt>
      <trkpt lat="43.44733" lon="6.8876">
        <ele>135</ele>
        <time>2019-10-13T06:55:47Z</time>
      </trkpt>
      <trkpt lat="43.4473" lon="6.88766">
        <ele>135.2</ele>
        <time>2019-10-13T06:55:48Z</time>
      </trkpt>
      <trkpt lat="43.44727" lon="6.88771">
        <ele>135.4</ele>
        <time>2019-10-13T06:55:49Z</time>
      </trkpt>
      <trkpt lat="43.44722" lon="6.88774">
        <ele>135.4</ele>
        <time>2019-10-13T06:55:50Z</time>
      </trkpt>
      <trkpt lat="43.44712" lon="6.88773">
        <ele>135</ele>
        <time>2019-10-13T06:55:52Z</time>
      </trkpt>
      <trkpt lat="43.44702" lon="6.88769">
        <ele>135.2</ele>
        <time>2019-10-13T06:55:54Z</time>
      </trkpt>
      <trkpt lat="43.44686" lon="6.88767">
        <ele>134.8</ele>
        <time>2019-10-13T06:55:57Z</time>
      </trkpt>
      <trkpt lat="43.44681" lon="6.88768">
        <ele>135</ele>
        <time>2019-10-13T06:55:58Z</time>
      </trkpt>
      <trkpt lat="43.44668" lon="6.8878">
        <ele>135.2</ele>
        <time>2019-10-13T06:56:01Z</time>
      </trkpt>
      <trkpt lat="43.44662" lon="6.88793">
        <ele>135.6</ele>
        <time>2019-10-13T06:56:03Z</time>
      </trkpt>
      <trkpt lat="43.44653" lon="6.88819">
        <ele>135.4</ele>
        <time>2019-10-13T06:56:07Z</time>
      </trkpt>
      <trkpt lat="43.44633" lon="6.88853">
        <ele>135.4</ele>
        <time>2019-10-13T06:56:13Z</time>
      </trkpt>
      <trkpt lat="43.44597" lon="6.88904">
        <ele>135.4</ele>
        <time>2019-10-13T06:56:23Z</time>
      </trkpt>
      <trkpt lat="43.44568" lon="6.88946">
        <ele>136</ele>
        <time>2019-10-13T06:56:31Z</time>
      </trkpt>
      <trkpt lat="43.44566" lon="6.88952">
        <ele>136.2</ele>
        <time>2019-10-13T06:56:32Z</time>
      </trkpt>
      <trkpt lat="43.44558" lon="6.88978">
        <ele>136</ele>
        <time>2019-10-13T06:56:36Z</time>
      </trkpt>
      <trkpt lat="43.44556" lon="6.88985">
        <ele>135.8</ele>
        <time>2019-10-13T06:56:37Z</time>
      </trkpt>
      <trkpt lat="43.44552" lon="6.88997">
        <ele>135.6</ele>
        <time>2019-10-13T06:56:39Z</time>
      </trkpt>
      <trkpt lat="43.44546" lon="6.89023">
        <ele>135.8</ele>
        <time>2019-10-13T06:56:43Z</time>
      </trkpt>
      <trkpt lat="43.44544" lon="6.89049">
        <ele>136.2</ele>
        <time>2019-10-13T06:56:47Z</time>
      </trkpt>
      <trkpt lat="43.44544" lon="6.89054">
        <ele>136.4</ele>
        <time>2019-10-13T06:56:48Z</time>
      </trkpt>
      <trkpt lat="43.44545" lon="6.89075">
        <ele>137.4</ele>
        <time>2019-10-13T06:56:53Z</time>
      </trkpt>
      <trkpt lat="43.44545" lon="6.89077">
        <ele>137.4</ele>
        <time>2019-10-13T06:56:54Z</time>
      </trkpt>
      <trkpt lat="43.44542" lon="6.89078">
        <ele>137.8</ele>
        <time>2019-10-13T06:56:57Z</time>
      </trkpt>
      <trkpt lat="43.44544" lon="6.89071">
        <ele>137</ele>
        <time>2019-10-13T06:57:02Z</time>
      </trkpt>
      <trkpt lat="43.44544" lon="6.89058">
        <ele>137</ele>
        <time>2019-10-13T06:57:06Z</time>
      </trkpt>
      <trkpt lat="43.44546" lon="6.89044">
        <ele>136.8</ele>
        <time>2019-10-13T06:57:11Z</time>
      </trkpt>
      <trkpt lat="43.44547" lon="6.89043">
        <ele>136.8</ele>
        <time>2019-10-13T06:57:15Z</time>
      </trkpt>
      <trkpt lat="43.44547" lon="6.89043">
        <ele>137</ele>
        <time>2019-10-13T06:57:31Z</time>
      </trkpt>
      <trkpt lat="43.44547" lon="6.89043">
        <ele>137.8</ele>
        <time>2019-10-13T06:57:46Z</time>
      </trkpt>
      <trkpt lat="43.44547" lon="6.89043">
        <ele>137.8</ele>
        <time>2019-10-13T06:58:00Z</time>
      </trkpt>
      <trkpt lat="43.44547" lon="6.89043">
        <ele>137.8</ele>
        <time>2019-10-13T06:58:17Z</time>
      </trkpt>
      <trkpt lat="43.44547" lon="6.89043">
        <ele>137.4</ele>
        <time>2019-10-13T06:58:31Z</time>
      </trkpt>
      <trkpt lat="43.44546" lon="6.89043">
        <ele>138.2</ele>
        <time>2019-10-13T06:58:43Z</time>
      </trkpt>
      <trkpt lat="43.44546" lon="6.89043">
        <ele>138.2</ele>
        <time>2019-10-13T06:58:46Z</time>
      </trkpt>
      <trkpt lat="43.44546" lon="6.89041">
        <ele>137.8</ele>
        <time>2019-10-13T06:58:58Z</time>
      </trkpt>
      <trkpt lat="43.44545" lon="6.89041">
        <ele>137.6</ele>
        <time>2019-10-13T06:58:59Z</time>
      </trkpt>
      <trkpt lat="43.44543" lon="6.89048">
        <ele>137.6</ele>
        <time>2019-10-13T06:59:03Z</time>
      </trkpt>
      <trkpt lat="43.44545" lon="6.89066">
        <ele>138</ele>
        <time>2019-10-13T06:59:07Z</time>
      </trkpt>
      <trkpt lat="43.44546" lon="6.89071">
        <ele>137.8</ele>
        <time>2019-10-13T06:59:08Z</time>
      </trkpt>
      <trkpt lat="43.44549" lon="6.89089">
        <ele>137.4</ele>
        <time>2019-10-13T06:59:12Z</time>
      </trkpt>
      <trkpt lat="43.44551" lon="6.89091">
        <ele>137.4</ele>
        <time>2019-10-13T06:59:13Z</time>
      </trkpt>
      <trkpt lat="43.44562" lon="6.89108">
        <ele>138.2</ele>
        <time>2019-10-13T06:59:17Z</time>
      </trkpt>
      <trkpt lat="43.4457" lon="6.89116">
        <ele>138</ele>
        <time>2019-10-13T06:59:19Z</time>
      </trkpt>
      <trkpt lat="43.44581" lon="6.89128">
        <ele>138</ele>
        <time>2019-10-13T06:59:22Z</time>
      </trkpt>
      <trkpt lat="43.44584" lon="6.89133">
        <ele>138</ele>
        <time>2019-10-13T06:59:23Z</time>
      </trkpt>
      <trkpt lat="43.44594" lon="6.89156">
        <ele>138.6</ele>
        <time>2019-10-13T06:59:27Z</time>
      </trkpt>
      <trkpt lat="43.44599" lon="6.89167">
        <ele>139</ele>
        <time>2019-10-13T06:59:29Z</time>
      </trkpt>
      <trkpt lat="43.44602" lon="6.89173">
        <ele>139.2</ele>
        <time>2019-10-13T06:59:30Z</time>
      </trkpt>
      <trkpt lat="43.44607" lon="6.89183">
        <ele>139</ele>
        <time>2019-10-13T06:59:32Z</time>
      </trkpt>
      <trkpt lat="43.44614" lon="6.89192">
        <ele>139</ele>
        <time>2019-10-13T06:59:34Z</time>
      </trkpt>
      <trkpt lat="43.44617" lon="6.89195">
        <ele>139.2</ele>
        <time>2019-10-13T06:59:35Z</time>
      </trkpt>
      <trkpt lat="43.44623" lon="6.89202">
        <ele>139.6</ele>
        <time>2019-10-13T06:59:37Z</time>
      </trkpt>
      <trkpt lat="43.44627" lon="6.89205">
        <ele>139.4</ele>
        <time>2019-10-13T06:59:38Z</time>
      </trkpt>
      <trkpt lat="43.44631" lon="6.89207">
        <ele>139.4</ele>
        <time>2019-10-13T06:59:39Z</time>
      </trkpt>
      <trkpt lat="43.44635" lon="6.89209">
        <ele>139.2</ele>
        <time>2019-10-13T06:59:40Z</time>
      </trkpt>
      <trkpt lat="43.44658" lon="6.89219">
        <ele>139.8</ele>
        <time>2019-10-13T06:59:46Z</time>
      </trkpt>
      <trkpt lat="43.44687" lon="6.89234">
        <ele>139.6</ele>
        <time>2019-10-13T06:59:54Z</time>
      </trkpt>
      <trkpt lat="43.44703" lon="6.89242">
        <ele>139.6</ele>
        <time>2019-10-13T06:59:59Z</time>
      </trkpt>
      <trkpt lat="43.44721" lon="6.89259">
        <ele>139</ele>
        <time>2019-10-13T07:00:04Z</time>
      </trkpt>
      <trkpt lat="43.44726" lon="6.89265">
        <ele>138.4</ele>
        <time>2019-10-13T07:00:06Z</time>
      </trkpt>
      <trkpt lat="43.44732" lon="6.89274">
        <ele>138.8</ele>
        <time>2019-10-13T07:00:09Z</time>
      </trkpt>
      <trkpt lat="43.44736" lon="6.89279">
        <ele>139.6</ele>
        <time>2019-10-13T07:00:11Z</time>
      </trkpt>
      <trkpt lat="43.4474" lon="6.89283">
        <ele>140.2</ele>
        <time>2019-10-13T07:00:15Z</time>
      </trkpt>
      <trkpt lat="43.4474" lon="6.89283">
        <ele>140.6</ele>
        <time>2019-10-13T07:00:21Z</time>
      </trkpt>
      <trkpt lat="43.44741" lon="6.89282">
        <ele>139.6</ele>
        <time>2019-10-13T07:00:33Z</time>
      </trkpt>
      <trkpt lat="43.4474" lon="6.89279">
        <ele>138.6</ele>
        <time>2019-10-13T07:00:36Z</time>
      </trkpt>
      <trkpt lat="43.44739" lon="6.89278">
        <ele>138.8</ele>
        <time>2019-10-13T07:00:37Z</time>
      </trkpt>
      <trkpt lat="43.44731" lon="6.89271">
        <ele>139.8</ele>
        <time>2019-10-13T07:00:40Z</time>
      </trkpt>
      <trkpt lat="43.44728" lon="6.89267">
        <ele>140</ele>
        <time>2019-10-13T07:00:41Z</time>
      </trkpt>
      <trkpt lat="43.44724" lon="6.89263">
        <ele>140.2</ele>
        <time>2019-10-13T07:00:42Z</time>
      </trkpt>
      <trkpt lat="43.44714" lon="6.8925">
        <ele>140</ele>
        <time>2019-10-13T07:00:45Z</time>
      </trkpt>
      <trkpt lat="43.4471" lon="6.89246">
        <ele>139.6</ele>
        <time>2019-10-13T07:00:46Z</time>
      </trkpt>
      <trkpt lat="43.44702" lon="6.8924">
        <ele>139.6</ele>
        <time>2019-10-13T07:00:48Z</time>
      </trkpt>
      <trkpt lat="43.44688" lon="6.89231">
        <ele>139.8</ele>
        <time>2019-10-13T07:00:51Z</time>
      </trkpt>
      <trkpt lat="43.44657" lon="6.89215">
        <ele>139.2</ele>
        <time>2019-10-13T07:00:57Z</time>
      </trkpt>
      <trkpt lat="43.44624" lon="6.89192">
        <ele>139</ele>
        <time>2019-10-13T07:01:04Z</time>
      </trkpt>
      <trkpt lat="43.44619" lon="6.89188">
        <ele>139.2</ele>
        <time>2019-10-13T07:01:05Z</time>
      </trkpt>
      <trkpt lat="43.44599" lon="6.89161">
        <ele>139</ele>
        <time>2019-10-13T07:01:10Z</time>
      </trkpt>
      <trkpt lat="43.44582" lon="6.89123">
        <ele>138.6</ele>
        <time>2019-10-13T07:01:16Z</time>
      </trkpt>
      <trkpt lat="43.44578" lon="6.89118">
        <ele>138.4</ele>
        <time>2019-10-13T07:01:17Z</time>
      </trkpt>
      <trkpt lat="43.44556" lon="6.89094">
        <ele>138.6</ele>
        <time>2019-10-13T07:01:22Z</time>
      </trkpt>
      <trkpt lat="43.44549" lon="6.89083">
        <ele>138.6</ele>
        <time>2019-10-13T07:01:24Z</time>
      </trkpt>
      <trkpt lat="43.44548" lon="6.8907">
        <ele>138.6</ele>
        <time>2019-10-13T07:01:26Z</time>
      </trkpt>
      <trkpt lat="43.44547" lon="6.89057">
        <ele>138.4</ele>
        <time>2019-10-13T07:01:28Z</time>
      </trkpt>
      <trkpt lat="43.44546" lon="6.89034">
        <ele>138.2</ele>
        <time>2019-10-13T07:01:31Z</time>
      </trkpt>
      <trkpt lat="43.44547" lon="6.89027">
        <ele>138.2</ele>
        <time>2019-10-13T07:01:32Z</time>
      </trkpt>
      <trkpt lat="43.44548" lon="6.89019">
        <ele>138.2</ele>
        <time>2019-10-13T07:01:33Z</time>
      </trkpt>
      <trkpt lat="43.44554" lon="6.8899">
        <ele>138</ele>
        <time>2019-10-13T07:01:37Z</time>
      </trkpt>
      <trkpt lat="43.44566" lon="6.88954">
        <ele>137.6</ele>
        <time>2019-10-13T07:01:42Z</time>
      </trkpt>
      <trkpt lat="43.44571" lon="6.8894">
        <ele>137.6</ele>
        <time>2019-10-13T07:01:44Z</time>
      </trkpt>
      <trkpt lat="43.44574" lon="6.88933">
        <ele>137.6</ele>
        <time>2019-10-13T07:01:45Z</time>
      </trkpt>
      <trkpt lat="43.4459" lon="6.88909">
        <ele>138</ele>
        <time>2019-10-13T07:01:49Z</time>
      </trkpt>
      <trkpt lat="43.44612" lon="6.88883">
        <ele>136.4</ele>
        <time>2019-10-13T07:01:54Z</time>
      </trkpt>
      <trkpt lat="43.44624" lon="6.88865">
        <ele>136.8</ele>
        <time>2019-10-13T07:01:57Z</time>
      </trkpt>
      <trkpt lat="43.44648" lon="6.8883">
        <ele>137</ele>
        <time>2019-10-13T07:02:03Z</time>
      </trkpt>
      <trkpt lat="43.44655" lon="6.88817">
        <ele>136.6</ele>
        <time>2019-10-13T07:02:05Z</time>
      </trkpt>
      <trkpt lat="43.44662" lon="6.88796">
        <ele>136</ele>
        <time>2019-10-13T07:02:08Z</time>
      </trkpt>
      <trkpt lat="43.4467" lon="6.88775">
        <ele>135.8</ele>
        <time>2019-10-13T07:02:11Z</time>
      </trkpt>
      <trkpt lat="43.44685" lon="6.88765">
        <ele>135.4</ele>
        <time>2019-10-13T07:02:14Z</time>
      </trkpt>
      <trkpt lat="43.44696" lon="6.88765">
        <ele>135.2</ele>
        <time>2019-10-13T07:02:16Z</time>
      </trkpt>
      <trkpt lat="43.44702" lon="6.88767">
        <ele>135</ele>
        <time>2019-10-13T07:02:17Z</time>
      </trkpt>
      <trkpt lat="43.44708" lon="6.88768">
        <ele>135</ele>
        <time>2019-10-13T07:02:18Z</time>
      </trkpt>
      <trkpt lat="43.44724" lon="6.88772">
        <ele>135.8</ele>
        <time>2019-10-13T07:02:21Z</time>
      </trkpt>
      <trkpt lat="43.4473" lon="6.88769">
        <ele>135.6</ele>
        <time>2019-10-13T07:02:22Z</time>
      </trkpt>
      <trkpt lat="43.44737" lon="6.8875">
        <ele>135</ele>
        <time>2019-10-13T07:02:25Z</time>
      </trkpt>
      <trkpt lat="43.44737" lon="6.88742">
        <ele>135.4</ele>
        <time>2019-10-13T07:02:26Z</time>
      </trkpt>
      <trkpt lat="43.44742" lon="6.88683">
        <ele>135.2</ele>
        <time>2019-10-13T07:02:33Z</time>
      </trkpt>
      <trkpt lat="43.44744" lon="6.88675">
        <ele>135.2</ele>
        <time>2019-10-13T07:02:34Z</time>
      </trkpt>
      <trkpt lat="43.44752" lon="6.88651">
        <ele>135</ele>
        <time>2019-10-13T07:02:37Z</time>
      </trkpt>
      <trkpt lat="43.4476" lon="6.88624">
        <ele>133.4</ele>
        <time>2019-10-13T07:02:40Z</time>
      </trkpt>
      <trkpt lat="43.44765" lon="6.88605">
        <ele>132.2</ele>
        <time>2019-10-13T07:02:42Z</time>
      </trkpt>
      <trkpt lat="43.44767" lon="6.88595">
        <ele>131.8</ele>
        <time>2019-10-13T07:02:43Z</time>
      </trkpt>
      <trkpt lat="43.44771" lon="6.88575">
        <ele>131.2</ele>
        <time>2019-10-13T07:02:45Z</time>
      </trkpt>
      <trkpt lat="43.44773" lon="6.88554">
        <ele>130</ele>
        <time>2019-10-13T07:02:47Z</time>
      </trkpt>
      <trkpt lat="43.44775" lon="6.88543">
        <ele>129.6</ele>
        <time>2019-10-13T07:02:48Z</time>
      </trkpt>
      <trkpt lat="43.44776" lon="6.88532">
        <ele>129.4</ele>
        <time>2019-10-13T07:02:49Z</time>
      </trkpt>
      <trkpt lat="43.44781" lon="6.88511">
        <ele>128.8</ele>
        <time>2019-10-13T07:02:51Z</time>
      </trkpt>
      <trkpt lat="43.44788" lon="6.88489">
        <ele>128.2</ele>
        <time>2019-10-13T07:02:53Z</time>
      </trkpt>
      <trkpt lat="43.44795" lon="6.88469">
        <ele>127.8</ele>
        <time>2019-10-13T07:02:55Z</time>
      </trkpt>
      <trkpt lat="43.448" lon="6.88462">
        <ele>127.6</ele>
        <time>2019-10-13T07:02:56Z</time>
      </trkpt>
      <trkpt lat="43.44808" lon="6.88458">
        <ele>127.2</ele>
        <time>2019-10-13T07:02:57Z</time>
      </trkpt>
      <trkpt lat="43.44817" lon="6.88459">
        <ele>126.6</ele>
        <time>2019-10-13T07:02:58Z</time>
      </trkpt>
      <trkpt lat="43.44826" lon="6.88461">
        <ele>126.2</ele>
        <time>2019-10-13T07:02:59Z</time>
      </trkpt>
      <trkpt lat="43.44836" lon="6.88461">
        <ele>126</ele>
        <time>2019-10-13T07:03:00Z</time>
      </trkpt>
      <trkpt lat="43.44851" lon="6.88454">
        <ele>125.4</ele>
        <time>2019-10-13T07:03:02Z</time>
      </trkpt>
      <trkpt lat="43.44859" lon="6.88436">
        <ele>124.4</ele>
        <time>2019-10-13T07:03:04Z</time>
      </trkpt>
      <trkpt lat="43.44859" lon="6.88413">
        <ele>123</ele>
        <time>2019-10-13T07:03:06Z</time>
      </trkpt>
      <trkpt lat="43.44859" lon="6.884">
        <ele>122.2</ele>
        <time>2019-10-13T07:03:07Z</time>
      </trkpt>
      <trkpt lat="43.44862" lon="6.88388">
        <ele>121.4</ele>
        <time>2019-10-13T07:03:08Z</time>
      </trkpt>
      <trkpt lat="43.44866" lon="6.88378">
        <ele>120.4</ele>
        <time>2019-10-13T07:03:09Z</time>
      </trkpt>
      <trkpt lat="43.44872" lon="6.8837">
        <ele>119.6</ele>
        <time>2019-10-13T07:03:10Z</time>
      </trkpt>
      <trkpt lat="43.44886" lon="6.88353">
        <ele>118.4</ele>
        <time>2019-10-13T07:03:12Z</time>
      </trkpt>
      <trkpt lat="43.44889" lon="6.88333">
        <ele>117.2</ele>
        <time>2019-10-13T07:03:14Z</time>
      </trkpt>
      <trkpt lat="43.44878" lon="6.88306">
        <ele>116.6</ele>
        <time>2019-10-13T07:03:17Z</time>
      </trkpt>
      <trkpt lat="43.44872" lon="6.88284">
        <ele>116.4</ele>
        <time>2019-10-13T07:03:19Z</time>
      </trkpt>
      <trkpt lat="43.4487" lon="6.88272">
        <ele>116</ele>
        <time>2019-10-13T07:03:20Z</time>
      </trkpt>
      <trkpt lat="43.44869" lon="6.8826">
        <ele>115.4</ele>
        <time>2019-10-13T07:03:21Z</time>
      </trkpt>
      <trkpt lat="43.4487" lon="6.88248">
        <ele>114.8</ele>
        <time>2019-10-13T07:03:22Z</time>
      </trkpt>
      <trkpt lat="43.44877" lon="6.88223">
        <ele>113.2</ele>
        <time>2019-10-13T07:03:24Z</time>
      </trkpt>
      <trkpt lat="43.44881" lon="6.88211">
        <ele>112.4</ele>
        <time>2019-10-13T07:03:25Z</time>
      </trkpt>
      <trkpt lat="43.44885" lon="6.88198">
        <ele>111.8</ele>
        <time>2019-10-13T07:03:26Z</time>
      </trkpt>
      <trkpt lat="43.44893" lon="6.88172">
        <ele>109.8</ele>
        <time>2019-10-13T07:03:28Z</time>
      </trkpt>
      <trkpt lat="43.44895" lon="6.88157">
        <ele>109</ele>
        <time>2019-10-13T07:03:29Z</time>
      </trkpt>
      <trkpt lat="43.44896" lon="6.88143">
        <ele>108.2</ele>
        <time>2019-10-13T07:03:30Z</time>
      </trkpt>
      <trkpt lat="43.44896" lon="6.88128">
        <ele>107</ele>
        <time>2019-10-13T07:03:31Z</time>
      </trkpt>
      <trkpt lat="43.44897" lon="6.88113">
        <ele>105.8</ele>
        <time>2019-10-13T07:03:32Z</time>
      </trkpt>
      <trkpt lat="43.44897" lon="6.88098">
        <ele>104.8</ele>
        <time>2019-10-13T07:03:33Z</time>
      </trkpt>
      <trkpt lat="43.44901" lon="6.88068">
        <ele>102.8</ele>
        <time>2019-10-13T07:03:35Z</time>
      </trkpt>
      <trkpt lat="43.44906" lon="6.88055">
        <ele>102.2</ele>
        <time>2019-10-13T07:03:36Z</time>
      </trkpt>
      <trkpt lat="43.44913" lon="6.88044">
        <ele>101.4</ele>
        <time>2019-10-13T07:03:37Z</time>
      </trkpt>
      <trkpt lat="43.44922" lon="6.88035">
        <ele>100.8</ele>
        <time>2019-10-13T07:03:38Z</time>
      </trkpt>
      <trkpt lat="43.4493" lon="6.88024">
        <ele>100</ele>
        <time>2019-10-13T07:03:39Z</time>
      </trkpt>
      <trkpt lat="43.44935" lon="6.8801">
        <ele>99</ele>
        <time>2019-10-13T07:03:40Z</time>
      </trkpt>
      <trkpt lat="43.4494" lon="6.87997">
        <ele>98.2</ele>
        <time>2019-10-13T07:03:41Z</time>
      </trkpt>
      <trkpt lat="43.44949" lon="6.8797">
        <ele>97</ele>
        <time>2019-10-13T07:03:43Z</time>
      </trkpt>
      <trkpt lat="43.44965" lon="6.87932">
        <ele>96.2</ele>
        <time>2019-10-13T07:03:46Z</time>
      </trkpt>
      <trkpt lat="43.44971" lon="6.8792">
        <ele>95.6</ele>
        <time>2019-10-13T07:03:47Z</time>
      </trkpt>
      <trkpt lat="43.44992" lon="6.87888">
        <ele>94.4</ele>
        <time>2019-10-13T07:03:50Z</time>
      </trkpt>
      <trkpt lat="43.45008" lon="6.87868">
        <ele>92.8</ele>
        <time>2019-10-13T07:03:52Z</time>
      </trkpt>
      <trkpt lat="43.45022" lon="6.87847">
        <ele>91.8</ele>
        <time>2019-10-13T07:03:54Z</time>
      </trkpt>
      <trkpt lat="43.45038" lon="6.87811">
        <ele>90.2</ele>
        <time>2019-10-13T07:03:57Z</time>
      </trkpt>
      <trkpt lat="43.45044" lon="6.878">
        <ele>89.8</ele>
        <time>2019-10-13T07:03:58Z</time>
      </trkpt>
      <trkpt lat="43.45054" lon="6.87776">
        <ele>89.2</ele>
        <time>2019-10-13T07:04:00Z</time>
      </trkpt>
      <trkpt lat="43.45065" lon="6.87754">
        <ele>88.2</ele>
        <time>2019-10-13T07:04:02Z</time>
      </trkpt>
      <trkpt lat="43.45072" lon="6.87744">
        <ele>87.8</ele>
        <time>2019-10-13T07:04:03Z</time>
      </trkpt>
      <trkpt lat="43.45097" lon="6.8773">
        <ele>86.6</ele>
        <time>2019-10-13T07:04:06Z</time>
      </trkpt>
      <trkpt lat="43.45115" lon="6.87738">
        <ele>85.6</ele>
        <time>2019-10-13T07:04:08Z</time>
      </trkpt>
      <trkpt lat="43.45123" lon="6.87747">
        <ele>85</ele>
        <time>2019-10-13T07:04:09Z</time>
      </trkpt>
      <trkpt lat="43.45131" lon="6.87757">
        <ele>84.4</ele>
        <time>2019-10-13T07:04:10Z</time>
      </trkpt>
      <trkpt lat="43.45137" lon="6.87767">
        <ele>83.6</ele>
        <time>2019-10-13T07:04:11Z</time>
      </trkpt>
      <trkpt lat="43.45144" lon="6.87778">
        <ele>82.8</ele>
        <time>2019-10-13T07:04:12Z</time>
      </trkpt>
      <trkpt lat="43.45152" lon="6.87787">
        <ele>82.4</ele>
        <time>2019-10-13T07:04:13Z</time>
      </trkpt>
      <trkpt lat="43.45169" lon="6.878">
        <ele>81.6</ele>
        <time>2019-10-13T07:04:15Z</time>
      </trkpt>
      <trkpt lat="43.45178" lon="6.87806">
        <ele>80.2</ele>
        <time>2019-10-13T07:04:16Z</time>
      </trkpt>
      <trkpt lat="43.45194" lon="6.87821">
        <ele>78.8</ele>
        <time>2019-10-13T07:04:18Z</time>
      </trkpt>
      <trkpt lat="43.45201" lon="6.87831">
        <ele>78.2</ele>
        <time>2019-10-13T07:04:19Z</time>
      </trkpt>
      <trkpt lat="43.45208" lon="6.87839">
        <ele>77.4</ele>
        <time>2019-10-13T07:04:20Z</time>
      </trkpt>
      <trkpt lat="43.45223" lon="6.87843">
        <ele>76.4</ele>
        <time>2019-10-13T07:04:22Z</time>
      </trkpt>
      <trkpt lat="43.4523" lon="6.87838">
        <ele>76.2</ele>
        <time>2019-10-13T07:04:23Z</time>
      </trkpt>
      <trkpt lat="43.45245" lon="6.87825">
        <ele>75.4</ele>
        <time>2019-10-13T07:04:25Z</time>
      </trkpt>
      <trkpt lat="43.45253" lon="6.87822">
        <ele>75</ele>
        <time>2019-10-13T07:04:26Z</time>
      </trkpt>
      <trkpt lat="43.45262" lon="6.87823">
        <ele>74.4</ele>
        <time>2019-10-13T07:04:27Z</time>
      </trkpt>
      <trkpt lat="43.4527" lon="6.87828">
        <ele>73.6</ele>
        <time>2019-10-13T07:04:28Z</time>
      </trkpt>
      <trkpt lat="43.45277" lon="6.87836">
        <ele>73</ele>
        <time>2019-10-13T07:04:29Z</time>
      </trkpt>
      <trkpt lat="43.45283" lon="6.87847">
        <ele>72.2</ele>
        <time>2019-10-13T07:04:30Z</time>
      </trkpt>
      <trkpt lat="43.4529" lon="6.87872">
        <ele>70.4</ele>
        <time>2019-10-13T07:04:32Z</time>
      </trkpt>
      <trkpt lat="43.45293" lon="6.87884">
        <ele>69.4</ele>
        <time>2019-10-13T07:04:33Z</time>
      </trkpt>
      <trkpt lat="43.45295" lon="6.87897">
        <ele>68.6</ele>
        <time>2019-10-13T07:04:34Z</time>
      </trkpt>
      <trkpt lat="43.45298" lon="6.87924">
        <ele>67.6</ele>
        <time>2019-10-13T07:04:36Z</time>
      </trkpt>
      <trkpt lat="43.45301" lon="6.87938">
        <ele>67</ele>
        <time>2019-10-13T07:04:37Z</time>
      </trkpt>
      <trkpt lat="43.45304" lon="6.87951">
        <ele>66.4</ele>
        <time>2019-10-13T07:04:38Z</time>
      </trkpt>
      <trkpt lat="43.45308" lon="6.87978">
        <ele>64.6</ele>
        <time>2019-10-13T07:04:40Z</time>
      </trkpt>
      <trkpt lat="43.45311" lon="6.88006">
        <ele>63.4</ele>
        <time>2019-10-13T07:04:42Z</time>
      </trkpt>
      <trkpt lat="43.45313" lon="6.88032">
        <ele>62.2</ele>
        <time>2019-10-13T07:04:44Z</time>
      </trkpt>
      <trkpt lat="43.45316" lon="6.88042">
        <ele>61.8</ele>
        <time>2019-10-13T07:04:45Z</time>
      </trkpt>
      <trkpt lat="43.45321" lon="6.88046">
        <ele>61.8</ele>
        <time>2019-10-13T07:04:46Z</time>
      </trkpt>
      <trkpt lat="43.45331" lon="6.88044">
        <ele>62.6</ele>
        <time>2019-10-13T07:04:48Z</time>
      </trkpt>
      <trkpt lat="43.45344" lon="6.88025">
        <ele>62.2</ele>
        <time>2019-10-13T07:04:51Z</time>
      </trkpt>
      <trkpt lat="43.45355" lon="6.88004">
        <ele>61.2</ele>
        <time>2019-10-13T07:04:53Z</time>
      </trkpt>
      <trkpt lat="43.45368" lon="6.87986">
        <ele>59.8</ele>
        <time>2019-10-13T07:04:55Z</time>
      </trkpt>
      <trkpt lat="43.45386" lon="6.87977">
        <ele>58.2</ele>
        <time>2019-10-13T07:04:57Z</time>
      </trkpt>
      <trkpt lat="43.45395" lon="6.87978">
        <ele>57.4</ele>
        <time>2019-10-13T07:04:58Z</time>
      </trkpt>
      <trkpt lat="43.45404" lon="6.87982">
        <ele>56.4</ele>
        <time>2019-10-13T07:04:59Z</time>
      </trkpt>
      <trkpt lat="43.45413" lon="6.87987">
        <ele>55.4</ele>
        <time>2019-10-13T07:05:00Z</time>
      </trkpt>
      <trkpt lat="43.45421" lon="6.87993">
        <ele>54.6</ele>
        <time>2019-10-13T07:05:01Z</time>
      </trkpt>
      <trkpt lat="43.45428" lon="6.88002">
        <ele>53.6</ele>
        <time>2019-10-13T07:05:02Z</time>
      </trkpt>
      <trkpt lat="43.45437" lon="6.8802">
        <ele>53</ele>
        <time>2019-10-13T07:05:04Z</time>
      </trkpt>
      <trkpt lat="43.4544" lon="6.88029">
        <ele>53.8</ele>
        <time>2019-10-13T07:05:05Z</time>
      </trkpt>
      <trkpt lat="43.45444" lon="6.88046">
        <ele>55.4</ele>
        <time>2019-10-13T07:05:07Z</time>
      </trkpt>
      <trkpt lat="43.45446" lon="6.88054">
        <ele>56</ele>
        <time>2019-10-13T07:05:08Z</time>
      </trkpt>
      <trkpt lat="43.45447" lon="6.88061">
        <ele>56.6</ele>
        <time>2019-10-13T07:05:09Z</time>
      </trkpt>
      <trkpt lat="43.45448" lon="6.88069">
        <ele>57</ele>
        <time>2019-10-13T07:05:10Z</time>
      </trkpt>
      <trkpt lat="43.4545" lon="6.88083">
        <ele>58</ele>
        <time>2019-10-13T07:05:12Z</time>
      </trkpt>
      <trkpt lat="43.4545" lon="6.8809">
        <ele>58.4</ele>
        <time>2019-10-13T07:05:13Z</time>
      </trkpt>
      <trkpt lat="43.4545" lon="6.88103">
        <ele>59</ele>
        <time>2019-10-13T07:05:15Z</time>
      </trkpt>
      <trkpt lat="43.4545" lon="6.88127">
        <ele>60.2</ele>
        <time>2019-10-13T07:05:19Z</time>
      </trkpt>
      <trkpt lat="43.45449" lon="6.88138">
        <ele>60.8</ele>
        <time>2019-10-13T07:05:21Z</time>
      </trkpt>
      <trkpt lat="43.45448" lon="6.88149">
        <ele>61.6</ele>
        <time>2019-10-13T07:05:23Z</time>
      </trkpt>
      <trkpt lat="43.45444" lon="6.88175">
        <ele>63.2</ele>
        <time>2019-10-13T07:05:28Z</time>
      </trkpt>
      <trkpt lat="43.45438" lon="6.88198">
        <ele>64.2</ele>
        <time>2019-10-13T07:05:33Z</time>
      </trkpt>
      <trkpt lat="43.45437" lon="6.88203">
        <ele>64.6</ele>
        <time>2019-10-13T07:05:34Z</time>
      </trkpt>
      <trkpt lat="43.45431" lon="6.8822">
        <ele>65.6</ele>
        <time>2019-10-13T07:05:38Z</time>
      </trkpt>
      <trkpt lat="43.45428" lon="6.88234">
        <ele>66.4</ele>
        <time>2019-10-13T07:05:41Z</time>
      </trkpt>
      <trkpt lat="43.45427" lon="6.88239">
        <ele>66.6</ele>
        <time>2019-10-13T07:05:42Z</time>
      </trkpt>
      <trkpt lat="43.45429" lon="6.88243">
        <ele>66.8</ele>
        <time>2019-10-13T07:05:43Z</time>
      </trkpt>
      <trkpt lat="43.45431" lon="6.88246">
        <ele>67</ele>
        <time>2019-10-13T07:05:44Z</time>
      </trkpt>
      <trkpt lat="43.45441" lon="6.88246">
        <ele>67.2</ele>
        <time>2019-10-13T07:05:47Z</time>
      </trkpt>
      <trkpt lat="43.45446" lon="6.8824">
        <ele>67.8</ele>
        <time>2019-10-13T07:05:49Z</time>
      </trkpt>
      <trkpt lat="43.45448" lon="6.88237">
        <ele>68</ele>
        <time>2019-10-13T07:05:50Z</time>
      </trkpt>
      <trkpt lat="43.45451" lon="6.88233">
        <ele>68</ele>
        <time>2019-10-13T07:05:51Z</time>
      </trkpt>
      <trkpt lat="43.45462" lon="6.88221">
        <ele>68.8</ele>
        <time>2019-10-13T07:05:55Z</time>
      </trkpt>
      <trkpt lat="43.45469" lon="6.88216">
        <ele>69.2</ele>
        <time>2019-10-13T07:05:57Z</time>
      </trkpt>
      <trkpt lat="43.45489" lon="6.88211">
        <ele>70</ele>
        <time>2019-10-13T07:06:03Z</time>
      </trkpt>
      <trkpt lat="43.45492" lon="6.88212">
        <ele>70.2</ele>
        <time>2019-10-13T07:06:04Z</time>
      </trkpt>
      <trkpt lat="43.45508" lon="6.88226">
        <ele>71</ele>
        <time>2019-10-13T07:06:09Z</time>
      </trkpt>
      <trkpt lat="43.45517" lon="6.88234">
        <ele>72</ele>
        <time>2019-10-13T07:06:12Z</time>
      </trkpt>
      <trkpt lat="43.45528" lon="6.88237">
        <ele>73</ele>
        <time>2019-10-13T07:06:15Z</time>
      </trkpt>
      <trkpt lat="43.45531" lon="6.88238">
        <ele>73.4</ele>
        <time>2019-10-13T07:06:16Z</time>
      </trkpt>
      <trkpt lat="43.45548" lon="6.88236">
        <ele>74.4</ele>
        <time>2019-10-13T07:06:21Z</time>
      </trkpt>
      <trkpt lat="43.4556" lon="6.88228">
        <ele>75.8</ele>
        <time>2019-10-13T07:06:25Z</time>
      </trkpt>
      <trkpt lat="43.4557" lon="6.88224">
        <ele>76.2</ele>
        <time>2019-10-13T07:06:28Z</time>
      </trkpt>
      <trkpt lat="43.45583" lon="6.88225">
        <ele>77</ele>
        <time>2019-10-13T07:06:32Z</time>
      </trkpt>
      <trkpt lat="43.45586" lon="6.88227">
        <ele>77.2</ele>
        <time>2019-10-13T07:06:33Z</time>
      </trkpt>
      <trkpt lat="43.45591" lon="6.88239">
        <ele>78</ele>
        <time>2019-10-13T07:06:36Z</time>
      </trkpt>
      <trkpt lat="43.4559" lon="6.88243">
        <ele>78.6</ele>
        <time>2019-10-13T07:06:37Z</time>
      </trkpt>
      <trkpt lat="43.45589" lon="6.88251">
        <ele>79.2</ele>
        <time>2019-10-13T07:06:39Z</time>
      </trkpt>
      <trkpt lat="43.45586" lon="6.88264">
        <ele>80.4</ele>
        <time>2019-10-13T07:06:42Z</time>
      </trkpt>
      <trkpt lat="43.45586" lon="6.88273">
        <ele>80.6</ele>
        <time>2019-10-13T07:06:44Z</time>
      </trkpt>
      <trkpt lat="43.45587" lon="6.88289">
        <ele>81.6</ele>
        <time>2019-10-13T07:06:48Z</time>
      </trkpt>
      <trkpt lat="43.4559" lon="6.88296">
        <ele>82.4</ele>
        <time>2019-10-13T07:06:50Z</time>
      </trkpt>
      <trkpt lat="43.45593" lon="6.88304">
        <ele>82.8</ele>
        <time>2019-10-13T07:06:52Z</time>
      </trkpt>
      <trkpt lat="43.45602" lon="6.88318">
        <ele>83.6</ele>
        <time>2019-10-13T07:06:56Z</time>
      </trkpt>
      <trkpt lat="43.45604" lon="6.88321">
        <ele>84</ele>
        <time>2019-10-13T07:06:57Z</time>
      </trkpt>
      <trkpt lat="43.45614" lon="6.88339">
        <ele>85</ele>
        <time>2019-10-13T07:07:02Z</time>
      </trkpt>
      <trkpt lat="43.45618" lon="6.88345">
        <ele>85.4</ele>
        <time>2019-10-13T07:07:04Z</time>
      </trkpt>
      <trkpt lat="43.45627" lon="6.88359">
        <ele>86.4</ele>
        <time>2019-10-13T07:07:08Z</time>
      </trkpt>
      <trkpt lat="43.45632" lon="6.88366">
        <ele>87.2</ele>
        <time>2019-10-13T07:07:10Z</time>
      </trkpt>
      <trkpt lat="43.45637" lon="6.88374">
        <ele>87.4</ele>
        <time>2019-10-13T07:07:12Z</time>
      </trkpt>
      <trkpt lat="43.45644" lon="6.88384">
        <ele>88.6</ele>
        <time>2019-10-13T07:07:15Z</time>
      </trkpt>
      <trkpt lat="43.45652" lon="6.88397">
        <ele>89.2</ele>
        <time>2019-10-13T07:07:19Z</time>
      </trkpt>
      <trkpt lat="43.45657" lon="6.88403">
        <ele>89.6</ele>
        <time>2019-10-13T07:07:21Z</time>
      </trkpt>
      <trkpt lat="43.45669" lon="6.88425">
        <ele>90.4</ele>
        <time>2019-10-13T07:07:27Z</time>
      </trkpt>
      <trkpt lat="43.45671" lon="6.88429">
        <ele>90.6</ele>
        <time>2019-10-13T07:07:28Z</time>
      </trkpt>
      <trkpt lat="43.45678" lon="6.88445">
        <ele>91.8</ele>
        <time>2019-10-13T07:07:32Z</time>
      </trkpt>
      <trkpt lat="43.45683" lon="6.88457">
        <ele>92.4</ele>
        <time>2019-10-13T07:07:35Z</time>
      </trkpt>
      <trkpt lat="43.45689" lon="6.88474">
        <ele>93.2</ele>
        <time>2019-10-13T07:07:39Z</time>
      </trkpt>
      <trkpt lat="43.45696" lon="6.88493">
        <ele>93.6</ele>
        <time>2019-10-13T07:07:44Z</time>
      </trkpt>
      <trkpt lat="43.457" lon="6.88506">
        <ele>94.2</ele>
        <time>2019-10-13T07:07:47Z</time>
      </trkpt>
      <trkpt lat="43.45708" lon="6.88527">
        <ele>95.2</ele>
        <time>2019-10-13T07:07:52Z</time>
      </trkpt>
      <trkpt lat="43.45709" lon="6.88531">
        <ele>95.6</ele>
        <time>2019-10-13T07:07:53Z</time>
      </trkpt>
      <trkpt lat="43.45719" lon="6.88556">
        <ele>96.6</ele>
        <time>2019-10-13T07:07:59Z</time>
      </trkpt>
      <trkpt lat="43.45723" lon="6.88569">
        <ele>97.2</ele>
        <time>2019-10-13T07:08:02Z</time>
      </trkpt>
      <trkpt lat="43.45727" lon="6.88585">
        <ele>97.8</ele>
        <time>2019-10-13T07:08:06Z</time>
      </trkpt>
      <trkpt lat="43.45728" lon="6.88604">
        <ele>98.6</ele>
        <time>2019-10-13T07:08:10Z</time>
      </trkpt>
      <trkpt lat="43.45718" lon="6.8863">
        <ele>98.4</ele>
        <time>2019-10-13T07:08:16Z</time>
      </trkpt>
      <trkpt lat="43.45713" lon="6.88643">
        <ele>98.8</ele>
        <time>2019-10-13T07:08:19Z</time>
      </trkpt>
      <trkpt lat="43.45701" lon="6.88664">
        <ele>100</ele>
        <time>2019-10-13T07:08:24Z</time>
      </trkpt>
      <trkpt lat="43.45696" lon="6.88672">
        <ele>100.6</ele>
        <time>2019-10-13T07:08:26Z</time>
      </trkpt>
      <trkpt lat="43.45688" lon="6.8868">
        <ele>101</ele>
        <time>2019-10-13T07:08:29Z</time>
      </trkpt>
      <trkpt lat="43.4568" lon="6.88683">
        <ele>101</ele>
        <time>2019-10-13T07:08:31Z</time>
      </trkpt>
      <trkpt lat="43.45651" lon="6.88694">
        <ele>101.6</ele>
        <time>2019-10-13T07:08:39Z</time>
      </trkpt>
      <trkpt lat="43.45644" lon="6.88697">
        <ele>102</ele>
        <time>2019-10-13T07:08:41Z</time>
      </trkpt>
      <trkpt lat="43.45626" lon="6.88708">
        <ele>103</ele>
        <time>2019-10-13T07:08:46Z</time>
      </trkpt>
      <trkpt lat="43.45623" lon="6.88712">
        <ele>103.2</ele>
        <time>2019-10-13T07:08:47Z</time>
      </trkpt>
      <trkpt lat="43.4562" lon="6.88733">
        <ele>103.6</ele>
        <time>2019-10-13T07:08:51Z</time>
      </trkpt>
      <trkpt lat="43.45623" lon="6.88743">
        <ele>103.8</ele>
        <time>2019-10-13T07:08:53Z</time>
      </trkpt>
      <trkpt lat="43.45624" lon="6.88765">
        <ele>103.8</ele>
        <time>2019-10-13T07:08:57Z</time>
      </trkpt>
      <trkpt lat="43.45622" lon="6.88775">
        <ele>104.4</ele>
        <time>2019-10-13T07:08:59Z</time>
      </trkpt>
      <trkpt lat="43.45617" lon="6.8879">
        <ele>104.8</ele>
        <time>2019-10-13T07:09:02Z</time>
      </trkpt>
      <trkpt lat="43.4561" lon="6.88804">
        <ele>105.6</ele>
        <time>2019-10-13T07:09:05Z</time>
      </trkpt>
      <trkpt lat="43.456" lon="6.88829">
        <ele>105.6</ele>
        <time>2019-10-13T07:09:10Z</time>
      </trkpt>
      <trkpt lat="43.45582" lon="6.88869">
        <ele>106.8</ele>
        <time>2019-10-13T07:09:18Z</time>
      </trkpt>
      <trkpt lat="43.45575" lon="6.88891">
        <ele>107</ele>
        <time>2019-10-13T07:09:22Z</time>
      </trkpt>
      <trkpt lat="43.45571" lon="6.88901">
        <ele>107.4</ele>
        <time>2019-10-13T07:09:24Z</time>
      </trkpt>
      <trkpt lat="43.45568" lon="6.88905">
        <ele>107.4</ele>
        <time>2019-10-13T07:09:25Z</time>
      </trkpt>
      <trkpt lat="43.45559" lon="6.88915">
        <ele>107.4</ele>
        <time>2019-10-13T07:09:28Z</time>
      </trkpt>
      <trkpt lat="43.45548" lon="6.88918">
        <ele>108</ele>
        <time>2019-10-13T07:09:31Z</time>
      </trkpt>
      <trkpt lat="43.45544" lon="6.88919">
        <ele>108.2</ele>
        <time>2019-10-13T07:09:32Z</time>
      </trkpt>
      <trkpt lat="43.4554" lon="6.8892">
        <ele>108.6</ele>
        <time>2019-10-13T07:09:33Z</time>
      </trkpt>
      <trkpt lat="43.45536" lon="6.88922">
        <ele>109</ele>
        <time>2019-10-13T07:09:34Z</time>
      </trkpt>
      <trkpt lat="43.45525" lon="6.88933">
        <ele>109.8</ele>
        <time>2019-10-13T07:09:37Z</time>
      </trkpt>
      <trkpt lat="43.45521" lon="6.8895">
        <ele>110</ele>
        <time>2019-10-13T07:09:40Z</time>
      </trkpt>
      <trkpt lat="43.45523" lon="6.88955">
        <ele>110.2</ele>
        <time>2019-10-13T07:09:41Z</time>
      </trkpt>
      <trkpt lat="43.45529" lon="6.88965">
        <ele>110.4</ele>
        <time>2019-10-13T07:09:43Z</time>
      </trkpt>
      <trkpt lat="43.45532" lon="6.8897">
        <ele>110.2</ele>
        <time>2019-10-13T07:09:44Z</time>
      </trkpt>
      <trkpt lat="43.45538" lon="6.8898">
        <ele>110.4</ele>
        <time>2019-10-13T07:09:46Z</time>
      </trkpt>
      <trkpt lat="43.45545" lon="6.88989">
        <ele>111.6</ele>
        <time>2019-10-13T07:09:48Z</time>
      </trkpt>
      <trkpt lat="43.45551" lon="6.88999">
        <ele>111.8</ele>
        <time>2019-10-13T07:09:50Z</time>
      </trkpt>
      <trkpt lat="43.45556" lon="6.89009">
        <ele>112</ele>
        <time>2019-10-13T07:09:52Z</time>
      </trkpt>
      <trkpt lat="43.45559" lon="6.89027">
        <ele>111.4</ele>
        <time>2019-10-13T07:09:55Z</time>
      </trkpt>
      <trkpt lat="43.45559" lon="6.89033">
        <ele>111.2</ele>
        <time>2019-10-13T07:09:56Z</time>
      </trkpt>
      <trkpt lat="43.4556" lon="6.89055">
        <ele>112.6</ele>
        <time>2019-10-13T07:10:00Z</time>
      </trkpt>
      <trkpt lat="43.45563" lon="6.89072">
        <ele>113</ele>
        <time>2019-10-13T07:10:03Z</time>
      </trkpt>
      <trkpt lat="43.45567" lon="6.89095">
        <ele>113.8</ele>
        <time>2019-10-13T07:10:07Z</time>
      </trkpt>
      <trkpt lat="43.4557" lon="6.89117">
        <ele>114.6</ele>
        <time>2019-10-13T07:10:11Z</time>
      </trkpt>
      <trkpt lat="43.4557" lon="6.89132">
        <ele>114.8</ele>
        <time>2019-10-13T07:10:14Z</time>
      </trkpt>
      <trkpt lat="43.45569" lon="6.89148">
        <ele>115.4</ele>
        <time>2019-10-13T07:10:17Z</time>
      </trkpt>
      <trkpt lat="43.45567" lon="6.89165">
        <ele>115.4</ele>
        <time>2019-10-13T07:10:20Z</time>
      </trkpt>
      <trkpt lat="43.45562" lon="6.89175">
        <ele>115.8</ele>
        <time>2019-10-13T07:10:22Z</time>
      </trkpt>
      <trkpt lat="43.45553" lon="6.89188">
        <ele>116.4</ele>
        <time>2019-10-13T07:10:25Z</time>
      </trkpt>
      <trkpt lat="43.45544" lon="6.89202">
        <ele>117</ele>
        <time>2019-10-13T07:10:28Z</time>
      </trkpt>
      <trkpt lat="43.45526" lon="6.89235">
        <ele>117.8</ele>
        <time>2019-10-13T07:10:34Z</time>
      </trkpt>
      <trkpt lat="43.45517" lon="6.89251">
        <ele>118</ele>
        <time>2019-10-13T07:10:37Z</time>
      </trkpt>
      <trkpt lat="43.45515" lon="6.89256">
        <ele>118.2</ele>
        <time>2019-10-13T07:10:38Z</time>
      </trkpt>
      <trkpt lat="43.45508" lon="6.89266">
        <ele>118.8</ele>
        <time>2019-10-13T07:10:40Z</time>
      </trkpt>
      <trkpt lat="43.45506" lon="6.89271">
        <ele>119</ele>
        <time>2019-10-13T07:10:41Z</time>
      </trkpt>
      <trkpt lat="43.45505" lon="6.89291">
        <ele>119.4</ele>
        <time>2019-10-13T07:10:44Z</time>
      </trkpt>
      <trkpt lat="43.45513" lon="6.89297">
        <ele>119.6</ele>
        <time>2019-10-13T07:10:46Z</time>
      </trkpt>
      <trkpt lat="43.45523" lon="6.89296">
        <ele>120</ele>
        <time>2019-10-13T07:10:48Z</time>
      </trkpt>
      <trkpt lat="43.45533" lon="6.89295">
        <ele>120.2</ele>
        <time>2019-10-13T07:10:50Z</time>
      </trkpt>
      <trkpt lat="43.45538" lon="6.89295">
        <ele>120.4</ele>
        <time>2019-10-13T07:10:51Z</time>
      </trkpt>
      <trkpt lat="43.45556" lon="6.8929">
        <ele>121.4</ele>
        <time>2019-10-13T07:10:55Z</time>
      </trkpt>
      <trkpt lat="43.4556" lon="6.8929">
        <ele>121.6</ele>
        <time>2019-10-13T07:10:56Z</time>
      </trkpt>
      <trkpt lat="43.45565" lon="6.8929">
        <ele>121.8</ele>
        <time>2019-10-13T07:10:57Z</time>
      </trkpt>
      <trkpt lat="43.45574" lon="6.89289">
        <ele>121.8</ele>
        <time>2019-10-13T07:10:59Z</time>
      </trkpt>
      <trkpt lat="43.45592" lon="6.89284">
        <ele>122.2</ele>
        <time>2019-10-13T07:11:03Z</time>
      </trkpt>
      <trkpt lat="43.45596" lon="6.89282">
        <ele>122.4</ele>
        <time>2019-10-13T07:11:04Z</time>
      </trkpt>
      <trkpt lat="43.45606" lon="6.89273">
        <ele>123.2</ele>
        <time>2019-10-13T07:11:07Z</time>
      </trkpt>
      <trkpt lat="43.45614" lon="6.89268">
        <ele>123.6</ele>
        <time>2019-10-13T07:11:09Z</time>
      </trkpt>
      <trkpt lat="43.4563" lon="6.89261">
        <ele>124.2</ele>
        <time>2019-10-13T07:11:13Z</time>
      </trkpt>
      <trkpt lat="43.45634" lon="6.8926">
        <ele>124.2</ele>
        <time>2019-10-13T07:11:14Z</time>
      </trkpt>
      <trkpt lat="43.45649" lon="6.89261">
        <ele>124.8</ele>
        <time>2019-10-13T07:11:18Z</time>
      </trkpt>
      <trkpt lat="43.45653" lon="6.89263">
        <ele>125.2</ele>
        <time>2019-10-13T07:11:19Z</time>
      </trkpt>
      <trkpt lat="43.45659" lon="6.8927">
        <ele>126</ele>
        <time>2019-10-13T07:11:21Z</time>
      </trkpt>
      <trkpt lat="43.45667" lon="6.89281">
        <ele>126.4</ele>
        <time>2019-10-13T07:11:24Z</time>
      </trkpt>
      <trkpt lat="43.45671" lon="6.89289">
        <ele>127.2</ele>
        <time>2019-10-13T07:11:26Z</time>
      </trkpt>
      <trkpt lat="43.45675" lon="6.89303">
        <ele>128.8</ele>
        <time>2019-10-13T07:11:29Z</time>
      </trkpt>
      <trkpt lat="43.45677" lon="6.89313">
        <ele>129</ele>
        <time>2019-10-13T07:11:31Z</time>
      </trkpt>
      <trkpt lat="43.45679" lon="6.89322">
        <ele>129.8</ele>
        <time>2019-10-13T07:11:33Z</time>
      </trkpt>
      <trkpt lat="43.45685" lon="6.8935">
        <ele>130.4</ele>
        <time>2019-10-13T07:11:39Z</time>
      </trkpt>
      <trkpt lat="43.45687" lon="6.89355">
        <ele>130.8</ele>
        <time>2019-10-13T07:11:40Z</time>
      </trkpt>
      <trkpt lat="43.4569" lon="6.89363">
        <ele>132</ele>
        <time>2019-10-13T07:11:42Z</time>
      </trkpt>
      <trkpt lat="43.45695" lon="6.89376">
        <ele>133.2</ele>
        <time>2019-10-13T07:11:45Z</time>
      </trkpt>
      <trkpt lat="43.45698" lon="6.89384">
        <ele>133.6</ele>
        <time>2019-10-13T07:11:47Z</time>
      </trkpt>
      <trkpt lat="43.457" lon="6.89393">
        <ele>134.4</ele>
        <time>2019-10-13T07:11:49Z</time>
      </trkpt>
      <trkpt lat="43.45706" lon="6.89412">
        <ele>135</ele>
        <time>2019-10-13T07:11:53Z</time>
      </trkpt>
      <trkpt lat="43.45711" lon="6.89431">
        <ele>135.4</ele>
        <time>2019-10-13T07:11:57Z</time>
      </trkpt>
      <trkpt lat="43.45712" lon="6.89446">
        <ele>135.8</ele>
        <time>2019-10-13T07:12:00Z</time>
      </trkpt>
      <trkpt lat="43.45712" lon="6.89456">
        <ele>136.4</ele>
        <time>2019-10-13T07:12:02Z</time>
      </trkpt>
      <trkpt lat="43.45714" lon="6.89472">
        <ele>137</ele>
        <time>2019-10-13T07:12:05Z</time>
      </trkpt>
      <trkpt lat="43.45716" lon="6.89475">
        <ele>137.2</ele>
        <time>2019-10-13T07:12:06Z</time>
      </trkpt>
      <trkpt lat="43.45719" lon="6.89479">
        <ele>137.4</ele>
        <time>2019-10-13T07:12:07Z</time>
      </trkpt>
      <trkpt lat="43.45724" lon="6.89485">
        <ele>137.8</ele>
        <time>2019-10-13T07:12:09Z</time>
      </trkpt>
      <trkpt lat="43.45736" lon="6.89497">
        <ele>138.6</ele>
        <time>2019-10-13T07:12:13Z</time>
      </trkpt>
      <trkpt lat="43.45746" lon="6.89509">
        <ele>139.6</ele>
        <time>2019-10-13T07:12:17Z</time>
      </trkpt>
      <trkpt lat="43.45748" lon="6.89513">
        <ele>140</ele>
        <time>2019-10-13T07:12:18Z</time>
      </trkpt>
      <trkpt lat="43.45751" lon="6.89531">
        <ele>141</ele>
        <time>2019-10-13T07:12:22Z</time>
      </trkpt>
      <trkpt lat="43.45747" lon="6.89544">
        <ele>142.4</ele>
        <time>2019-10-13T07:12:25Z</time>
      </trkpt>
      <trkpt lat="43.45743" lon="6.89551">
        <ele>142.8</ele>
        <time>2019-10-13T07:12:27Z</time>
      </trkpt>
      <trkpt lat="43.45735" lon="6.89566">
        <ele>143.6</ele>
        <time>2019-10-13T07:12:31Z</time>
      </trkpt>
      <trkpt lat="43.4573" lon="6.89577">
        <ele>143.6</ele>
        <time>2019-10-13T07:12:34Z</time>
      </trkpt>
      <trkpt lat="43.45721" lon="6.89601">
        <ele>144.4</ele>
        <time>2019-10-13T07:12:40Z</time>
      </trkpt>
      <trkpt lat="43.45719" lon="6.89605">
        <ele>145</ele>
        <time>2019-10-13T07:12:41Z</time>
      </trkpt>
      <trkpt lat="43.45713" lon="6.89623">
        <ele>146.2</ele>
        <time>2019-10-13T07:12:45Z</time>
      </trkpt>
      <trkpt lat="43.45712" lon="6.89633">
        <ele>146.8</ele>
        <time>2019-10-13T07:12:47Z</time>
      </trkpt>
      <trkpt lat="43.4571" lon="6.89642">
        <ele>147.2</ele>
        <time>2019-10-13T07:12:49Z</time>
      </trkpt>
      <trkpt lat="43.45706" lon="6.89666">
        <ele>148.4</ele>
        <time>2019-10-13T07:12:54Z</time>
      </trkpt>
      <trkpt lat="43.45705" lon="6.89675">
        <ele>148.8</ele>
        <time>2019-10-13T07:12:56Z</time>
      </trkpt>
      <trkpt lat="43.45703" lon="6.8969">
        <ele>149.6</ele>
        <time>2019-10-13T07:12:59Z</time>
      </trkpt>
      <trkpt lat="43.45698" lon="6.89706">
        <ele>150.4</ele>
        <time>2019-10-13T07:13:03Z</time>
      </trkpt>
      <trkpt lat="43.45696" lon="6.8971">
        <ele>150.6</ele>
        <time>2019-10-13T07:13:04Z</time>
      </trkpt>
      <trkpt lat="43.45689" lon="6.89727">
        <ele>151.4</ele>
        <time>2019-10-13T07:13:08Z</time>
      </trkpt>
      <trkpt lat="43.45687" lon="6.89735">
        <ele>151.8</ele>
        <time>2019-10-13T07:13:10Z</time>
      </trkpt>
      <trkpt lat="43.45677" lon="6.8976">
        <ele>152.8</ele>
        <time>2019-10-13T07:13:16Z</time>
      </trkpt>
      <trkpt lat="43.45676" lon="6.89765">
        <ele>153</ele>
        <time>2019-10-13T07:13:17Z</time>
      </trkpt>
      <trkpt lat="43.45674" lon="6.89779">
        <ele>154</ele>
        <time>2019-10-13T07:13:20Z</time>
      </trkpt>
      <trkpt lat="43.45676" lon="6.89788">
        <ele>154</ele>
        <time>2019-10-13T07:13:22Z</time>
      </trkpt>
      <trkpt lat="43.45679" lon="6.89789">
        <ele>154.2</ele>
        <time>2019-10-13T07:13:23Z</time>
      </trkpt>
      <trkpt lat="43.45683" lon="6.8979">
        <ele>154.4</ele>
        <time>2019-10-13T07:13:24Z</time>
      </trkpt>
      <trkpt lat="43.45695" lon="6.89787">
        <ele>155</ele>
        <time>2019-10-13T07:13:27Z</time>
      </trkpt>
      <trkpt lat="43.45704" lon="6.89784">
        <ele>156</ele>
        <time>2019-10-13T07:13:30Z</time>
      </trkpt>
      <trkpt lat="43.45722" lon="6.89781">
        <ele>157.2</ele>
        <time>2019-10-13T07:13:35Z</time>
      </trkpt>
      <trkpt lat="43.4573" lon="6.8978">
        <ele>157.4</ele>
        <time>2019-10-13T07:13:37Z</time>
      </trkpt>
      <trkpt lat="43.45756" lon="6.89778">
        <ele>158.2</ele>
        <time>2019-10-13T07:13:44Z</time>
      </trkpt>
      <trkpt lat="43.45764" lon="6.89776">
        <ele>158.2</ele>
        <time>2019-10-13T07:13:46Z</time>
      </trkpt>
      <trkpt lat="43.4578" lon="6.89769">
        <ele>158.8</ele>
        <time>2019-10-13T07:13:50Z</time>
      </trkpt>
      <trkpt lat="43.45792" lon="6.8976">
        <ele>158.8</ele>
        <time>2019-10-13T07:13:53Z</time>
      </trkpt>
      <trkpt lat="43.45797" lon="6.89751">
        <ele>158.8</ele>
        <time>2019-10-13T07:13:55Z</time>
      </trkpt>
      <trkpt lat="43.4581" lon="6.89728">
        <ele>159</ele>
        <time>2019-10-13T07:14:00Z</time>
      </trkpt>
      <trkpt lat="43.4582" lon="6.89717">
        <ele>159.2</ele>
        <time>2019-10-13T07:14:03Z</time>
      </trkpt>
      <trkpt lat="43.45836" lon="6.89705">
        <ele>159.8</ele>
        <time>2019-10-13T07:14:07Z</time>
      </trkpt>
      <trkpt lat="43.45845" lon="6.89702">
        <ele>159.8</ele>
        <time>2019-10-13T07:14:09Z</time>
      </trkpt>
      <trkpt lat="43.45863" lon="6.89701">
        <ele>159.4</ele>
        <time>2019-10-13T07:14:13Z</time>
      </trkpt>
      <trkpt lat="43.45872" lon="6.89703">
        <ele>159.4</ele>
        <time>2019-10-13T07:14:15Z</time>
      </trkpt>
      <trkpt lat="43.45886" lon="6.89709">
        <ele>159.6</ele>
        <time>2019-10-13T07:14:18Z</time>
      </trkpt>
      <trkpt lat="43.45893" lon="6.89718">
        <ele>160</ele>
        <time>2019-10-13T07:14:20Z</time>
      </trkpt>
      <trkpt lat="43.45899" lon="6.89745">
        <ele>160</ele>
        <time>2019-10-13T07:14:24Z</time>
      </trkpt>
      <trkpt lat="43.459" lon="6.89752">
        <ele>160</ele>
        <time>2019-10-13T07:14:25Z</time>
      </trkpt>
      <trkpt lat="43.45898" lon="6.89789">
        <ele>159.4</ele>
        <time>2019-10-13T07:14:30Z</time>
      </trkpt>
      <trkpt lat="43.459" lon="6.89834">
        <ele>159.6</ele>
        <time>2019-10-13T07:14:36Z</time>
      </trkpt>
      <trkpt lat="43.45901" lon="6.89873">
        <ele>158.2</ele>
        <time>2019-10-13T07:14:41Z</time>
      </trkpt>
      <trkpt lat="43.45902" lon="6.89881">
        <ele>158</ele>
        <time>2019-10-13T07:14:42Z</time>
      </trkpt>
      <trkpt lat="43.45908" lon="6.89919">
        <ele>157.2</ele>
        <time>2019-10-13T07:14:47Z</time>
      </trkpt>
      <trkpt lat="43.45909" lon="6.89928">
        <ele>156.8</ele>
        <time>2019-10-13T07:14:48Z</time>
      </trkpt>
      <trkpt lat="43.45918" lon="6.89991">
        <ele>156.8</ele>
        <time>2019-10-13T07:14:56Z</time>
      </trkpt>
      <trkpt lat="43.45932" lon="6.90015">
        <ele>157.2</ele>
        <time>2019-10-13T07:15:00Z</time>
      </trkpt>
      <trkpt lat="43.45949" lon="6.90022">
        <ele>157.2</ele>
        <time>2019-10-13T07:15:03Z</time>
      </trkpt>
      <trkpt lat="43.45988" lon="6.9004">
        <ele>156.4</ele>
        <time>2019-10-13T07:15:10Z</time>
      </trkpt>
      <trkpt lat="43.46009" lon="6.90057">
        <ele>156</ele>
        <time>2019-10-13T07:15:14Z</time>
      </trkpt>
      <trkpt lat="43.46023" lon="6.90072">
        <ele>155.6</ele>
        <time>2019-10-13T07:15:17Z</time>
      </trkpt>
      <trkpt lat="43.46028" lon="6.90093">
        <ele>155.2</ele>
        <time>2019-10-13T07:15:20Z</time>
      </trkpt>
      <trkpt lat="43.46023" lon="6.90106">
        <ele>154.8</ele>
        <time>2019-10-13T07:15:22Z</time>
      </trkpt>
      <trkpt lat="43.46019" lon="6.90111">
        <ele>154.6</ele>
        <time>2019-10-13T07:15:23Z</time>
      </trkpt>
      <trkpt lat="43.46008" lon="6.90119">
        <ele>154.2</ele>
        <time>2019-10-13T07:15:25Z</time>
      </trkpt>
      <trkpt lat="43.45988" lon="6.90133">
        <ele>155.2</ele>
        <time>2019-10-13T07:15:29Z</time>
      </trkpt>
      <trkpt lat="43.4598" lon="6.90143">
        <ele>155.2</ele>
        <time>2019-10-13T07:15:31Z</time>
      </trkpt>
      <trkpt lat="43.45978" lon="6.9015">
        <ele>155.2</ele>
        <time>2019-10-13T07:15:32Z</time>
      </trkpt>
      <trkpt lat="43.45981" lon="6.90164">
        <ele>155</ele>
        <time>2019-10-13T07:15:34Z</time>
      </trkpt>
      <trkpt lat="43.45988" lon="6.90175">
        <ele>155</ele>
        <time>2019-10-13T07:15:36Z</time>
      </trkpt>
      <trkpt lat="43.45998" lon="6.90194">
        <ele>155</ele>
        <time>2019-10-13T07:15:39Z</time>
      </trkpt>
      <trkpt lat="43.46007" lon="6.90214">
        <ele>155</ele>
        <time>2019-10-13T07:15:42Z</time>
      </trkpt>
      <trkpt lat="43.46012" lon="6.90235">
        <ele>154.6</ele>
        <time>2019-10-13T07:15:45Z</time>
      </trkpt>
      <trkpt lat="43.46007" lon="6.90258">
        <ele>154.6</ele>
        <time>2019-10-13T07:15:48Z</time>
      </trkpt>
      <trkpt lat="43.46004" lon="6.90265">
        <ele>154.6</ele>
        <time>2019-10-13T07:15:49Z</time>
      </trkpt>
      <trkpt lat="43.46002" lon="6.90273">
        <ele>154.8</ele>
        <time>2019-10-13T07:15:50Z</time>
      </trkpt>
      <trkpt lat="43.46005" lon="6.90288">
        <ele>155</ele>
        <time>2019-10-13T07:15:52Z</time>
      </trkpt>
      <trkpt lat="43.46011" lon="6.903">
        <ele>154.8</ele>
        <time>2019-10-13T07:15:54Z</time>
      </trkpt>
      <trkpt lat="43.4602" lon="6.9032">
        <ele>154.6</ele>
        <time>2019-10-13T07:15:57Z</time>
      </trkpt>
      <trkpt lat="43.46025" lon="6.90341">
        <ele>154.8</ele>
        <time>2019-10-13T07:16:00Z</time>
      </trkpt>
      <trkpt lat="43.46026" lon="6.90364">
        <ele>154.6</ele>
        <time>2019-10-13T07:16:03Z</time>
      </trkpt>
      <trkpt lat="43.46025" lon="6.90379">
        <ele>154.6</ele>
        <time>2019-10-13T07:16:05Z</time>
      </trkpt>
      <trkpt lat="43.46026" lon="6.90393">
        <ele>155</ele>
        <time>2019-10-13T07:16:07Z</time>
      </trkpt>
      <trkpt lat="43.46029" lon="6.90399">
        <ele>155</ele>
        <time>2019-10-13T07:16:08Z</time>
      </trkpt>
      <trkpt lat="43.46045" lon="6.90409">
        <ele>155.6</ele>
        <time>2019-10-13T07:16:11Z</time>
      </trkpt>
      <trkpt lat="43.46051" lon="6.90411">
        <ele>155.6</ele>
        <time>2019-10-13T07:16:12Z</time>
      </trkpt>
      <trkpt lat="43.46073" lon="6.90421">
        <ele>155.4</ele>
        <time>2019-10-13T07:16:17Z</time>
      </trkpt>
      <trkpt lat="43.46083" lon="6.90429">
        <ele>155.8</ele>
        <time>2019-10-13T07:16:19Z</time>
      </trkpt>
      <trkpt lat="43.46086" lon="6.90444">
        <ele>155.6</ele>
        <time>2019-10-13T07:16:21Z</time>
      </trkpt>
      <trkpt lat="43.46083" lon="6.9047">
        <ele>154.4</ele>
        <time>2019-10-13T07:16:24Z</time>
      </trkpt>
      <trkpt lat="43.46081" lon="6.90479">
        <ele>154.2</ele>
        <time>2019-10-13T07:16:25Z</time>
      </trkpt>
      <trkpt lat="43.46078" lon="6.90496">
        <ele>153.6</ele>
        <time>2019-10-13T07:16:27Z</time>
      </trkpt>
      <trkpt lat="43.46075" lon="6.90514">
        <ele>152</ele>
        <time>2019-10-13T07:16:29Z</time>
      </trkpt>
      <trkpt lat="43.46072" lon="6.90531">
        <ele>151.4</ele>
        <time>2019-10-13T07:16:31Z</time>
      </trkpt>
      <trkpt lat="43.46066" lon="6.90547">
        <ele>151.2</ele>
        <time>2019-10-13T07:16:33Z</time>
      </trkpt>
      <trkpt lat="43.46057" lon="6.9056">
        <ele>151.6</ele>
        <time>2019-10-13T07:16:35Z</time>
      </trkpt>
      <trkpt lat="43.46045" lon="6.90573">
        <ele>151.8</ele>
        <time>2019-10-13T07:16:37Z</time>
      </trkpt>
      <trkpt lat="43.46035" lon="6.90587">
        <ele>151.6</ele>
        <time>2019-10-13T07:16:39Z</time>
      </trkpt>
      <trkpt lat="43.4603" lon="6.90615">
        <ele>151.4</ele>
        <time>2019-10-13T07:16:42Z</time>
      </trkpt>
      <trkpt lat="43.46032" lon="6.90621">
        <ele>150.6</ele>
        <time>2019-10-13T07:16:43Z</time>
      </trkpt>
      <trkpt lat="43.46042" lon="6.90629">
        <ele>150.2</ele>
        <time>2019-10-13T07:16:45Z</time>
      </trkpt>
      <trkpt lat="43.46075" lon="6.90629">
        <ele>150.8</ele>
        <time>2019-10-13T07:16:49Z</time>
      </trkpt>
      <trkpt lat="43.46093" lon="6.90638">
        <ele>151.6</ele>
        <time>2019-10-13T07:16:52Z</time>
      </trkpt>
      <trkpt lat="43.46109" lon="6.9065">
        <ele>151.2</ele>
        <time>2019-10-13T07:16:55Z</time>
      </trkpt>
      <trkpt lat="43.46138" lon="6.90683">
        <ele>151.4</ele>
        <time>2019-10-13T07:17:02Z</time>
      </trkpt>
      <trkpt lat="43.46161" lon="6.9071">
        <ele>150.2</ele>
        <time>2019-10-13T07:17:07Z</time>
      </trkpt>
      <trkpt lat="43.46167" lon="6.90716">
        <ele>149.8</ele>
        <time>2019-10-13T07:17:08Z</time>
      </trkpt>
      <trkpt lat="43.46178" lon="6.90727">
        <ele>148.8</ele>
        <time>2019-10-13T07:17:10Z</time>
      </trkpt>
      <trkpt lat="43.46196" lon="6.90745">
        <ele>147.8</ele>
        <time>2019-10-13T07:17:13Z</time>
      </trkpt>
      <trkpt lat="43.46202" lon="6.90751">
        <ele>147.2</ele>
        <time>2019-10-13T07:17:14Z</time>
      </trkpt>
      <trkpt lat="43.46208" lon="6.90757">
        <ele>146.6</ele>
        <time>2019-10-13T07:17:15Z</time>
      </trkpt>
      <trkpt lat="43.46228" lon="6.90776">
        <ele>145</ele>
        <time>2019-10-13T07:17:18Z</time>
      </trkpt>
      <trkpt lat="43.46241" lon="6.90791">
        <ele>143.2</ele>
        <time>2019-10-13T07:17:20Z</time>
      </trkpt>
      <trkpt lat="43.46247" lon="6.90799">
        <ele>142.6</ele>
        <time>2019-10-13T07:17:21Z</time>
      </trkpt>
      <trkpt lat="43.46252" lon="6.90807">
        <ele>142</ele>
        <time>2019-10-13T07:17:22Z</time>
      </trkpt>
      <trkpt lat="43.46266" lon="6.90837">
        <ele>140.4</ele>
        <time>2019-10-13T07:17:25Z</time>
      </trkpt>
      <trkpt lat="43.46278" lon="6.9087">
        <ele>139.2</ele>
        <time>2019-10-13T07:17:28Z</time>
      </trkpt>
      <trkpt lat="43.46281" lon="6.90894">
        <ele>138.2</ele>
        <time>2019-10-13T07:17:30Z</time>
      </trkpt>
      <trkpt lat="43.46283" lon="6.90907">
        <ele>136.8</ele>
        <time>2019-10-13T07:17:31Z</time>
      </trkpt>
      <trkpt lat="43.46287" lon="6.90932">
        <ele>135.4</ele>
        <time>2019-10-13T07:17:33Z</time>
      </trkpt>
      <trkpt lat="43.4629" lon="6.90944">
        <ele>134.6</ele>
        <time>2019-10-13T07:17:34Z</time>
      </trkpt>
      <trkpt lat="43.46295" lon="6.90954">
        <ele>134</ele>
        <time>2019-10-13T07:17:35Z</time>
      </trkpt>
      <trkpt lat="43.4631" lon="6.90967">
        <ele>133</ele>
        <time>2019-10-13T07:17:37Z</time>
      </trkpt>
      <trkpt lat="43.46337" lon="6.90977">
        <ele>132.2</ele>
        <time>2019-10-13T07:17:40Z</time>
      </trkpt>
      <trkpt lat="43.46344" lon="6.90985">
        <ele>131.6</ele>
        <time>2019-10-13T07:17:41Z</time>
      </trkpt>
      <trkpt lat="43.4635" lon="6.90995">
        <ele>131.2</ele>
        <time>2019-10-13T07:17:42Z</time>
      </trkpt>
      <trkpt lat="43.46355" lon="6.91006">
        <ele>130.4</ele>
        <time>2019-10-13T07:17:43Z</time>
      </trkpt>
      <trkpt lat="43.4636" lon="6.9103">
        <ele>128.8</ele>
        <time>2019-10-13T07:17:45Z</time>
      </trkpt>
      <trkpt lat="43.46363" lon="6.91055">
        <ele>127.6</ele>
        <time>2019-10-13T07:17:47Z</time>
      </trkpt>
      <trkpt lat="43.46364" lon="6.91082">
        <ele>126.2</ele>
        <time>2019-10-13T07:17:49Z</time>
      </trkpt>
      <trkpt lat="43.46364" lon="6.91094">
        <ele>125.2</ele>
        <time>2019-10-13T07:17:50Z</time>
      </trkpt>
      <trkpt lat="43.46364" lon="6.91107">
        <ele>124.4</ele>
        <time>2019-10-13T07:17:51Z</time>
      </trkpt>
      <trkpt lat="43.46361" lon="6.91128">
        <ele>123.6</ele>
        <time>2019-10-13T07:17:53Z</time>
      </trkpt>
      <trkpt lat="43.46359" lon="6.91136">
        <ele>124</ele>
        <time>2019-10-13T07:17:54Z</time>
      </trkpt>
      <trkpt lat="43.46358" lon="6.91144">
        <ele>125.6</ele>
        <time>2019-10-13T07:17:55Z</time>
      </trkpt>
      <trkpt lat="43.46355" lon="6.91158">
        <ele>127.4</ele>
        <time>2019-10-13T07:17:57Z</time>
      </trkpt>
      <trkpt lat="43.46354" lon="6.9117">
        <ele>128.8</ele>
        <time>2019-10-13T07:17:59Z</time>
      </trkpt>
      <trkpt lat="43.46355" lon="6.91182">
        <ele>130</ele>
        <time>2019-10-13T07:18:01Z</time>
      </trkpt>
      <trkpt lat="43.46357" lon="6.91187">
        <ele>130.4</ele>
        <time>2019-10-13T07:18:02Z</time>
      </trkpt>
      <trkpt lat="43.46359" lon="6.91191">
        <ele>131.2</ele>
        <time>2019-10-13T07:18:03Z</time>
      </trkpt>
      <trkpt lat="43.46365" lon="6.91198">
        <ele>132.6</ele>
        <time>2019-10-13T07:18:05Z</time>
      </trkpt>
      <trkpt lat="43.46369" lon="6.91201">
        <ele>133.4</ele>
        <time>2019-10-13T07:18:06Z</time>
      </trkpt>
      <trkpt lat="43.46371" lon="6.91204">
        <ele>133.8</ele>
        <time>2019-10-13T07:18:07Z</time>
      </trkpt>
      <trkpt lat="43.46377" lon="6.9121">
        <ele>134.4</ele>
        <time>2019-10-13T07:18:09Z</time>
      </trkpt>
      <trkpt lat="43.4638" lon="6.91212">
        <ele>135</ele>
        <time>2019-10-13T07:18:10Z</time>
      </trkpt>
      <trkpt lat="43.46397" lon="6.91228">
        <ele>136.2</ele>
        <time>2019-10-13T07:18:16Z</time>
      </trkpt>
      <trkpt lat="43.464" lon="6.9123">
        <ele>136.6</ele>
        <time>2019-10-13T07:18:17Z</time>
      </trkpt>
      <trkpt lat="43.46405" lon="6.91236">
        <ele>137.2</ele>
        <time>2019-10-13T07:18:19Z</time>
      </trkpt>
      <trkpt lat="43.46412" lon="6.91244">
        <ele>138.4</ele>
        <time>2019-10-13T07:18:22Z</time>
      </trkpt>
      <trkpt lat="43.46417" lon="6.91251">
        <ele>139.2</ele>
        <time>2019-10-13T07:18:24Z</time>
      </trkpt>
      <trkpt lat="43.46419" lon="6.91254">
        <ele>139.6</ele>
        <time>2019-10-13T07:18:25Z</time>
      </trkpt>
      <trkpt lat="43.46424" lon="6.91265">
        <ele>140.6</ele>
        <time>2019-10-13T07:18:28Z</time>
      </trkpt>
      <trkpt lat="43.46426" lon="6.91273">
        <ele>141.2</ele>
        <time>2019-10-13T07:18:30Z</time>
      </trkpt>
      <trkpt lat="43.46428" lon="6.91282">
        <ele>142</ele>
        <time>2019-10-13T07:18:32Z</time>
      </trkpt>
      <trkpt lat="43.46428" lon="6.91302">
        <ele>143.2</ele>
        <time>2019-10-13T07:18:37Z</time>
      </trkpt>
      <trkpt lat="43.46422" lon="6.91323">
        <ele>144.4</ele>
        <time>2019-10-13T07:18:43Z</time>
      </trkpt>
      <trkpt lat="43.46421" lon="6.91327">
        <ele>144.6</ele>
        <time>2019-10-13T07:18:44Z</time>
      </trkpt>
      <trkpt lat="43.46416" lon="6.91341">
        <ele>145.4</ele>
        <time>2019-10-13T07:18:48Z</time>
      </trkpt>
      <trkpt lat="43.46409" lon="6.91358">
        <ele>146.6</ele>
        <time>2019-10-13T07:18:53Z</time>
      </trkpt>
      <trkpt lat="43.46406" lon="6.91368">
        <ele>147.6</ele>
        <time>2019-10-13T07:18:56Z</time>
      </trkpt>
      <trkpt lat="43.46402" lon="6.91386">
        <ele>148.6</ele>
        <time>2019-10-13T07:19:01Z</time>
      </trkpt>
      <trkpt lat="43.46401" lon="6.91389">
        <ele>148.6</ele>
        <time>2019-10-13T07:19:02Z</time>
      </trkpt>
      <trkpt lat="43.46396" lon="6.91406">
        <ele>149.8</ele>
        <time>2019-10-13T07:19:07Z</time>
      </trkpt>
      <trkpt lat="43.46394" lon="6.91417">
        <ele>150.6</ele>
        <time>2019-10-13T07:19:10Z</time>
      </trkpt>
      <trkpt lat="43.46392" lon="6.91428">
        <ele>151</ele>
        <time>2019-10-13T07:19:13Z</time>
      </trkpt>
      <trkpt lat="43.46392" lon="6.91439">
        <ele>151.6</ele>
        <time>2019-10-13T07:19:16Z</time>
      </trkpt>
      <trkpt lat="43.46393" lon="6.91447">
        <ele>152.4</ele>
        <time>2019-10-13T07:19:18Z</time>
      </trkpt>
      <trkpt lat="43.46397" lon="6.91469">
        <ele>153.4</ele>
        <time>2019-10-13T07:19:24Z</time>
      </trkpt>
      <trkpt lat="43.464" lon="6.91488">
        <ele>154.4</ele>
        <time>2019-10-13T07:19:29Z</time>
      </trkpt>
      <trkpt lat="43.46403" lon="6.91507">
        <ele>155.2</ele>
        <time>2019-10-13T07:19:34Z</time>
      </trkpt>
      <trkpt lat="43.46403" lon="6.91511">
        <ele>155.4</ele>
        <time>2019-10-13T07:19:35Z</time>
      </trkpt>
      <trkpt lat="43.46407" lon="6.91529">
        <ele>156.8</ele>
        <time>2019-10-13T07:19:40Z</time>
      </trkpt>
      <trkpt lat="43.46409" lon="6.91536">
        <ele>157.2</ele>
        <time>2019-10-13T07:19:42Z</time>
      </trkpt>
      <trkpt lat="43.46414" lon="6.91545">
        <ele>158</ele>
        <time>2019-10-13T07:19:45Z</time>
      </trkpt>
      <trkpt lat="43.46418" lon="6.91555">
        <ele>159</ele>
        <time>2019-10-13T07:19:48Z</time>
      </trkpt>
      <trkpt lat="43.4642" lon="6.91561">
        <ele>160</ele>
        <time>2019-10-13T07:19:50Z</time>
      </trkpt>
      <trkpt lat="43.46422" lon="6.91565">
        <ele>160.2</ele>
        <time>2019-10-13T07:19:51Z</time>
      </trkpt>
      <trkpt lat="43.46426" lon="6.91576">
        <ele>161.2</ele>
        <time>2019-10-13T07:19:54Z</time>
      </trkpt>
      <trkpt lat="43.46431" lon="6.91594">
        <ele>162.2</ele>
        <time>2019-10-13T07:19:59Z</time>
      </trkpt>
      <trkpt lat="43.46432" lon="6.91597">
        <ele>162.6</ele>
        <time>2019-10-13T07:20:00Z</time>
      </trkpt>
      <trkpt lat="43.46444" lon="6.91617">
        <ele>163.4</ele>
        <time>2019-10-13T07:20:06Z</time>
      </trkpt>
      <trkpt lat="43.46446" lon="6.9162">
        <ele>163.8</ele>
        <time>2019-10-13T07:20:07Z</time>
      </trkpt>
      <trkpt lat="43.46456" lon="6.91636">
        <ele>164.8</ele>
        <time>2019-10-13T07:20:12Z</time>
      </trkpt>
      <trkpt lat="43.4646" lon="6.91643">
        <ele>165.2</ele>
        <time>2019-10-13T07:20:14Z</time>
      </trkpt>
      <trkpt lat="43.46464" lon="6.91649">
        <ele>165.8</ele>
        <time>2019-10-13T07:20:16Z</time>
      </trkpt>
      <trkpt lat="43.46467" lon="6.91653">
        <ele>167</ele>
        <time>2019-10-13T07:20:19Z</time>
      </trkpt>
      <trkpt lat="43.46468" lon="6.91654">
        <ele>167.2</ele>
        <time>2019-10-13T07:20:20Z</time>
      </trkpt>
      <trkpt lat="43.46477" lon="6.91661">
        <ele>167.8</ele>
        <time>2019-10-13T07:20:25Z</time>
      </trkpt>
      <trkpt lat="43.46482" lon="6.91665">
        <ele>168</ele>
        <time>2019-10-13T07:20:27Z</time>
      </trkpt>
      <trkpt lat="43.46494" lon="6.91673">
        <ele>169.2</ele>
        <time>2019-10-13T07:20:32Z</time>
      </trkpt>
      <trkpt lat="43.46517" lon="6.91689">
        <ele>170.4</ele>
        <time>2019-10-13T07:20:41Z</time>
      </trkpt>
      <trkpt lat="43.46519" lon="6.91692">
        <ele>170.8</ele>
        <time>2019-10-13T07:20:42Z</time>
      </trkpt>
      <trkpt lat="43.46527" lon="6.91698">
        <ele>171.6</ele>
        <time>2019-10-13T07:20:45Z</time>
      </trkpt>
      <trkpt lat="43.46536" lon="6.91704">
        <ele>172.4</ele>
        <time>2019-10-13T07:20:49Z</time>
      </trkpt>
      <trkpt lat="43.46538" lon="6.91705">
        <ele>172.8</ele>
        <time>2019-10-13T07:20:50Z</time>
      </trkpt>
      <trkpt lat="43.46552" lon="6.91709">
        <ele>173.8</ele>
        <time>2019-10-13T07:20:55Z</time>
      </trkpt>
      <trkpt lat="43.46566" lon="6.91713">
        <ele>175</ele>
        <time>2019-10-13T07:21:00Z</time>
      </trkpt>
      <trkpt lat="43.46577" lon="6.91717">
        <ele>175.6</ele>
        <time>2019-10-13T07:21:04Z</time>
      </trkpt>
      <trkpt lat="43.46584" lon="6.9172">
        <ele>176.4</ele>
        <time>2019-10-13T07:21:07Z</time>
      </trkpt>
      <trkpt lat="43.46595" lon="6.91724">
        <ele>177.4</ele>
        <time>2019-10-13T07:21:11Z</time>
      </trkpt>
      <trkpt lat="43.466" lon="6.91725">
        <ele>177.6</ele>
        <time>2019-10-13T07:21:13Z</time>
      </trkpt>
      <trkpt lat="43.46608" lon="6.91727">
        <ele>178.4</ele>
        <time>2019-10-13T07:21:16Z</time>
      </trkpt>
      <trkpt lat="43.46625" lon="6.9173">
        <ele>179.6</ele>
        <time>2019-10-13T07:21:22Z</time>
      </trkpt>
      <trkpt lat="43.46638" lon="6.91733">
        <ele>180.8</ele>
        <time>2019-10-13T07:21:27Z</time>
      </trkpt>
      <trkpt lat="43.46649" lon="6.91734">
        <ele>182</ele>
        <time>2019-10-13T07:21:31Z</time>
      </trkpt>
      <trkpt lat="43.46662" lon="6.91736">
        <ele>183</ele>
        <time>2019-10-13T07:21:36Z</time>
      </trkpt>
      <trkpt lat="43.46668" lon="6.91736">
        <ele>183.4</ele>
        <time>2019-10-13T07:21:38Z</time>
      </trkpt>
      <trkpt lat="43.46676" lon="6.91736">
        <ele>184</ele>
        <time>2019-10-13T07:21:41Z</time>
      </trkpt>
      <trkpt lat="43.46697" lon="6.91736">
        <ele>185.2</ele>
        <time>2019-10-13T07:21:48Z</time>
      </trkpt>
      <trkpt lat="43.46708" lon="6.91735">
        <ele>186.2</ele>
        <time>2019-10-13T07:21:52Z</time>
      </trkpt>
      <trkpt lat="43.46723" lon="6.91733">
        <ele>187.2</ele>
        <time>2019-10-13T07:21:57Z</time>
      </trkpt>
      <trkpt lat="43.46726" lon="6.91732">
        <ele>187.6</ele>
        <time>2019-10-13T07:21:58Z</time>
      </trkpt>
      <trkpt lat="43.46736" lon="6.91729">
        <ele>188.8</ele>
        <time>2019-10-13T07:22:02Z</time>
      </trkpt>
      <trkpt lat="43.46745" lon="6.91726">
        <ele>190</ele>
        <time>2019-10-13T07:22:05Z</time>
      </trkpt>
      <trkpt lat="43.4675" lon="6.91725">
        <ele>190.8</ele>
        <time>2019-10-13T07:22:07Z</time>
      </trkpt>
      <trkpt lat="43.46755" lon="6.91724">
        <ele>191.2</ele>
        <time>2019-10-13T07:22:09Z</time>
      </trkpt>
      <trkpt lat="43.46765" lon="6.91721">
        <ele>192.4</ele>
        <time>2019-10-13T07:22:13Z</time>
      </trkpt>
      <trkpt lat="43.46772" lon="6.91719">
        <ele>192.6</ele>
        <time>2019-10-13T07:22:16Z</time>
      </trkpt>
      <trkpt lat="43.46779" lon="6.91717">
        <ele>193.6</ele>
        <time>2019-10-13T07:22:19Z</time>
      </trkpt>
      <trkpt lat="43.46789" lon="6.91714">
        <ele>194.2</ele>
        <time>2019-10-13T07:22:25Z</time>
      </trkpt>
      <trkpt lat="43.46792" lon="6.91714">
        <ele>194.4</ele>
        <time>2019-10-13T07:22:27Z</time>
      </trkpt>
      <trkpt lat="43.46794" lon="6.91715">
        <ele>194.6</ele>
        <time>2019-10-13T07:22:28Z</time>
      </trkpt>
      <trkpt lat="43.46797" lon="6.91715">
        <ele>194.8</ele>
        <time>2019-10-13T07:22:30Z</time>
      </trkpt>
      <trkpt lat="43.46798" lon="6.91709">
        <ele>194.8</ele>
        <time>2019-10-13T07:22:35Z</time>
      </trkpt>
      <trkpt lat="43.46797" lon="6.91706">
        <ele>195</ele>
        <time>2019-10-13T07:22:37Z</time>
      </trkpt>
      <trkpt lat="43.46796" lon="6.91697">
        <ele>195.6</ele>
        <time>2019-10-13T07:22:41Z</time>
      </trkpt>
      <trkpt lat="43.46794" lon="6.91677">
        <ele>196.6</ele>
        <time>2019-10-13T07:22:47Z</time>
      </trkpt>
      <trkpt lat="43.46794" lon="6.91673">
        <ele>196.8</ele>
        <time>2019-10-13T07:22:48Z</time>
      </trkpt>
      <trkpt lat="43.4679" lon="6.91646">
        <ele>198</ele>
        <time>2019-10-13T07:22:55Z</time>
      </trkpt>
      <trkpt lat="43.46789" lon="6.91642">
        <ele>198</ele>
        <time>2019-10-13T07:22:56Z</time>
      </trkpt>
      <trkpt lat="43.46786" lon="6.9163">
        <ele>199</ele>
        <time>2019-10-13T07:22:59Z</time>
      </trkpt>
      <trkpt lat="43.46781" lon="6.9161">
        <ele>200</ele>
        <time>2019-10-13T07:23:04Z</time>
      </trkpt>
      <trkpt lat="43.46777" lon="6.91594">
        <ele>201.4</ele>
        <time>2019-10-13T07:23:08Z</time>
      </trkpt>
      <trkpt lat="43.46774" lon="6.91581">
        <ele>202.6</ele>
        <time>2019-10-13T07:23:11Z</time>
      </trkpt>
      <trkpt lat="43.46774" lon="6.91572">
        <ele>203</ele>
        <time>2019-10-13T07:23:13Z</time>
      </trkpt>
      <trkpt lat="43.46774" lon="6.91563">
        <ele>203.6</ele>
        <time>2019-10-13T07:23:15Z</time>
      </trkpt>
      <trkpt lat="43.46775" lon="6.91545">
        <ele>204.8</ele>
        <time>2019-10-13T07:23:19Z</time>
      </trkpt>
      <trkpt lat="43.46775" lon="6.91532">
        <ele>206.2</ele>
        <time>2019-10-13T07:23:22Z</time>
      </trkpt>
      <trkpt lat="43.46775" lon="6.91527">
        <ele>206.6</ele>
        <time>2019-10-13T07:23:23Z</time>
      </trkpt>
      <trkpt lat="43.46776" lon="6.91518">
        <ele>207.2</ele>
        <time>2019-10-13T07:23:25Z</time>
      </trkpt>
      <trkpt lat="43.46776" lon="6.91501">
        <ele>208.2</ele>
        <time>2019-10-13T07:23:29Z</time>
      </trkpt>
      <trkpt lat="43.46776" lon="6.91496">
        <ele>208.6</ele>
        <time>2019-10-13T07:23:30Z</time>
      </trkpt>
      <trkpt lat="43.46778" lon="6.91483">
        <ele>210</ele>
        <time>2019-10-13T07:23:33Z</time>
      </trkpt>
      <trkpt lat="43.4678" lon="6.91474">
        <ele>210.2</ele>
        <time>2019-10-13T07:23:35Z</time>
      </trkpt>
      <trkpt lat="43.46784" lon="6.91456">
        <ele>211</ele>
        <time>2019-10-13T07:23:39Z</time>
      </trkpt>
      <trkpt lat="43.46788" lon="6.91439">
        <ele>212.2</ele>
        <time>2019-10-13T07:23:43Z</time>
      </trkpt>
      <trkpt lat="43.46789" lon="6.9143">
        <ele>212.6</ele>
        <time>2019-10-13T07:23:45Z</time>
      </trkpt>
      <trkpt lat="43.46787" lon="6.91413">
        <ele>213.6</ele>
        <time>2019-10-13T07:23:49Z</time>
      </trkpt>
      <trkpt lat="43.46784" lon="6.91399">
        <ele>214.2</ele>
        <time>2019-10-13T07:23:52Z</time>
      </trkpt>
      <trkpt lat="43.46781" lon="6.91385">
        <ele>214.6</ele>
        <time>2019-10-13T07:23:55Z</time>
      </trkpt>
      <trkpt lat="43.46778" lon="6.91367">
        <ele>215.8</ele>
        <time>2019-10-13T07:23:59Z</time>
      </trkpt>
      <trkpt lat="43.46776" lon="6.91354">
        <ele>216.4</ele>
        <time>2019-10-13T07:24:02Z</time>
      </trkpt>
      <trkpt lat="43.46774" lon="6.91345">
        <ele>217</ele>
        <time>2019-10-13T07:24:04Z</time>
      </trkpt>
      <trkpt lat="43.46766" lon="6.91318">
        <ele>218</ele>
        <time>2019-10-13T07:24:10Z</time>
      </trkpt>
      <trkpt lat="43.46757" lon="6.91296">
        <ele>219.2</ele>
        <time>2019-10-13T07:24:15Z</time>
      </trkpt>
      <trkpt lat="43.46752" lon="6.91283">
        <ele>219.8</ele>
        <time>2019-10-13T07:24:18Z</time>
      </trkpt>
      <trkpt lat="43.46748" lon="6.91274">
        <ele>220.2</ele>
        <time>2019-10-13T07:24:20Z</time>
      </trkpt>
      <trkpt lat="43.46739" lon="6.91248">
        <ele>221.4</ele>
        <time>2019-10-13T07:24:26Z</time>
      </trkpt>
      <trkpt lat="43.46737" lon="6.91244">
        <ele>221.6</ele>
        <time>2019-10-13T07:24:27Z</time>
      </trkpt>
      <trkpt lat="43.46731" lon="6.91228">
        <ele>222.6</ele>
        <time>2019-10-13T07:24:31Z</time>
      </trkpt>
      <trkpt lat="43.46727" lon="6.9121">
        <ele>223.4</ele>
        <time>2019-10-13T07:24:35Z</time>
      </trkpt>
      <trkpt lat="43.46727" lon="6.91201">
        <ele>223.8</ele>
        <time>2019-10-13T07:24:37Z</time>
      </trkpt>
      <trkpt lat="43.4673" lon="6.91179">
        <ele>225</ele>
        <time>2019-10-13T07:24:42Z</time>
      </trkpt>
      <trkpt lat="43.46732" lon="6.91166">
        <ele>226.2</ele>
        <time>2019-10-13T07:24:45Z</time>
      </trkpt>
      <trkpt lat="43.46736" lon="6.9115">
        <ele>227</ele>
        <time>2019-10-13T07:24:49Z</time>
      </trkpt>
      <trkpt lat="43.46738" lon="6.91146">
        <ele>227.4</ele>
        <time>2019-10-13T07:24:50Z</time>
      </trkpt>
      <trkpt lat="43.46745" lon="6.91127">
        <ele>228.4</ele>
        <time>2019-10-13T07:24:55Z</time>
      </trkpt>
      <trkpt lat="43.46749" lon="6.9112">
        <ele>228.8</ele>
        <time>2019-10-13T07:24:57Z</time>
      </trkpt>
      <trkpt lat="43.46752" lon="6.91114">
        <ele>229.4</ele>
        <time>2019-10-13T07:24:59Z</time>
      </trkpt>
      <trkpt lat="43.46764" lon="6.911">
        <ele>230.6</ele>
        <time>2019-10-13T07:25:04Z</time>
      </trkpt>
      <trkpt lat="43.46766" lon="6.91098">
        <ele>230.8</ele>
        <time>2019-10-13T07:25:05Z</time>
      </trkpt>
      <trkpt lat="43.4678" lon="6.91086">
        <ele>231.8</ele>
        <time>2019-10-13T07:25:10Z</time>
      </trkpt>
      <trkpt lat="43.46783" lon="6.91084">
        <ele>232</ele>
        <time>2019-10-13T07:25:11Z</time>
      </trkpt>
      <trkpt lat="43.46798" lon="6.91072">
        <ele>233</ele>
        <time>2019-10-13T07:25:16Z</time>
      </trkpt>
      <trkpt lat="43.46801" lon="6.91069">
        <ele>233.2</ele>
        <time>2019-10-13T07:25:17Z</time>
      </trkpt>
      <trkpt lat="43.46808" lon="6.91062">
        <ele>234</ele>
        <time>2019-10-13T07:25:20Z</time>
      </trkpt>
      <trkpt lat="43.4682" lon="6.91047">
        <ele>235.2</ele>
        <time>2019-10-13T07:25:25Z</time>
      </trkpt>
      <trkpt lat="43.46832" lon="6.91026">
        <ele>236.2</ele>
        <time>2019-10-13T07:25:31Z</time>
      </trkpt>
      <trkpt lat="43.46839" lon="6.91016">
        <ele>237.4</ele>
        <time>2019-10-13T07:25:34Z</time>
      </trkpt>
      <trkpt lat="43.46844" lon="6.9101">
        <ele>238</ele>
        <time>2019-10-13T07:25:36Z</time>
      </trkpt>
      <trkpt lat="43.46852" lon="6.91002">
        <ele>238.4</ele>
        <time>2019-10-13T07:25:39Z</time>
      </trkpt>
      <trkpt lat="43.46868" lon="6.90992">
        <ele>239.8</ele>
        <time>2019-10-13T07:25:44Z</time>
      </trkpt>
      <trkpt lat="43.46877" lon="6.90988">
        <ele>240.8</ele>
        <time>2019-10-13T07:25:47Z</time>
      </trkpt>
      <trkpt lat="43.4689" lon="6.90984">
        <ele>241.6</ele>
        <time>2019-10-13T07:25:51Z</time>
      </trkpt>
      <trkpt lat="43.46893" lon="6.90984">
        <ele>242</ele>
        <time>2019-10-13T07:25:52Z</time>
      </trkpt>
      <trkpt lat="43.46907" lon="6.9098">
        <ele>243.2</ele>
        <time>2019-10-13T07:25:56Z</time>
      </trkpt>
      <trkpt lat="43.46913" lon="6.90976">
        <ele>243.6</ele>
        <time>2019-10-13T07:25:58Z</time>
      </trkpt>
      <trkpt lat="43.46921" lon="6.90969">
        <ele>244.2</ele>
        <time>2019-10-13T07:26:01Z</time>
      </trkpt>
      <trkpt lat="43.46936" lon="6.90955">
        <ele>245.4</ele>
        <time>2019-10-13T07:26:06Z</time>
      </trkpt>
      <trkpt lat="43.46949" lon="6.90943">
        <ele>246.6</ele>
        <time>2019-10-13T07:26:11Z</time>
      </trkpt>
      <trkpt lat="43.46955" lon="6.90938">
        <ele>247.2</ele>
        <time>2019-10-13T07:26:13Z</time>
      </trkpt>
      <trkpt lat="43.46961" lon="6.90932">
        <ele>247.8</ele>
        <time>2019-10-13T07:26:15Z</time>
      </trkpt>
      <trkpt lat="43.46974" lon="6.90918">
        <ele>249</ele>
        <time>2019-10-13T07:26:20Z</time>
      </trkpt>
      <trkpt lat="43.46981" lon="6.90908">
        <ele>249.8</ele>
        <time>2019-10-13T07:26:23Z</time>
      </trkpt>
      <trkpt lat="43.46984" lon="6.90905">
        <ele>250</ele>
        <time>2019-10-13T07:26:24Z</time>
      </trkpt>
      <trkpt lat="43.4699" lon="6.90897">
        <ele>251.2</ele>
        <time>2019-10-13T07:26:27Z</time>
      </trkpt>
      <trkpt lat="43.46998" lon="6.90884">
        <ele>252.4</ele>
        <time>2019-10-13T07:26:31Z</time>
      </trkpt>
      <trkpt lat="43.47004" lon="6.90881">
        <ele>253.2</ele>
        <time>2019-10-13T07:26:35Z</time>
      </trkpt>
      <trkpt lat="43.47006" lon="6.90881">
        <ele>253.4</ele>
        <time>2019-10-13T07:26:36Z</time>
      </trkpt>
      <trkpt lat="43.47016" lon="6.90888">
        <ele>253.8</ele>
        <time>2019-10-13T07:26:40Z</time>
      </trkpt>
      <trkpt lat="43.47018" lon="6.90892">
        <ele>254.2</ele>
        <time>2019-10-13T07:26:41Z</time>
      </trkpt>
      <trkpt lat="43.47024" lon="6.90898">
        <ele>254.4</ele>
        <time>2019-10-13T07:26:43Z</time>
      </trkpt>
      <trkpt lat="43.47032" lon="6.90909">
        <ele>254.4</ele>
        <time>2019-10-13T07:26:46Z</time>
      </trkpt>
      <trkpt lat="43.47046" lon="6.90929">
        <ele>255.4</ele>
        <time>2019-10-13T07:26:52Z</time>
      </trkpt>
      <trkpt lat="43.47049" lon="6.90932">
        <ele>255.6</ele>
        <time>2019-10-13T07:26:53Z</time>
      </trkpt>
      <trkpt lat="43.47064" lon="6.90954">
        <ele>256.2</ele>
        <time>2019-10-13T07:26:59Z</time>
      </trkpt>
      <trkpt lat="43.47074" lon="6.90969">
        <ele>256.8</ele>
        <time>2019-10-13T07:27:03Z</time>
      </trkpt>
      <trkpt lat="43.47084" lon="6.90985">
        <ele>257.4</ele>
        <time>2019-10-13T07:27:07Z</time>
      </trkpt>
      <trkpt lat="43.47105" lon="6.91017">
        <ele>257.4</ele>
        <time>2019-10-13T07:27:15Z</time>
      </trkpt>
      <trkpt lat="43.47113" lon="6.91028">
        <ele>257.8</ele>
        <time>2019-10-13T07:27:18Z</time>
      </trkpt>
      <trkpt lat="43.47121" lon="6.9104">
        <ele>258.2</ele>
        <time>2019-10-13T07:27:21Z</time>
      </trkpt>
      <trkpt lat="43.47146" lon="6.91071">
        <ele>258.6</ele>
        <time>2019-10-13T07:27:30Z</time>
      </trkpt>
      <trkpt lat="43.47154" lon="6.91076">
        <ele>259</ele>
        <time>2019-10-13T07:27:32Z</time>
      </trkpt>
      <trkpt lat="43.47165" lon="6.91078">
        <ele>259.8</ele>
        <time>2019-10-13T07:27:35Z</time>
      </trkpt>
      <trkpt lat="43.47173" lon="6.91077">
        <ele>260.2</ele>
        <time>2019-10-13T07:27:37Z</time>
      </trkpt>
      <trkpt lat="43.47176" lon="6.91076">
        <ele>260.4</ele>
        <time>2019-10-13T07:27:38Z</time>
      </trkpt>
      <trkpt lat="43.47183" lon="6.91072">
        <ele>260.6</ele>
        <time>2019-10-13T07:27:40Z</time>
      </trkpt>
      <trkpt lat="43.47206" lon="6.91055">
        <ele>261</ele>
        <time>2019-10-13T07:27:47Z</time>
      </trkpt>
      <trkpt lat="43.47209" lon="6.91053">
        <ele>261.4</ele>
        <time>2019-10-13T07:27:48Z</time>
      </trkpt>
      <trkpt lat="43.47229" lon="6.91039">
        <ele>262.4</ele>
        <time>2019-10-13T07:27:54Z</time>
      </trkpt>
      <trkpt lat="43.47236" lon="6.91036">
        <ele>263.4</ele>
        <time>2019-10-13T07:27:56Z</time>
      </trkpt>
      <trkpt lat="43.4724" lon="6.91035">
        <ele>263.6</ele>
        <time>2019-10-13T07:27:57Z</time>
      </trkpt>
      <trkpt lat="43.47265" lon="6.91028">
        <ele>264.4</ele>
        <time>2019-10-13T07:28:03Z</time>
      </trkpt>
      <trkpt lat="43.47279" lon="6.91024">
        <ele>264.8</ele>
        <time>2019-10-13T07:28:06Z</time>
      </trkpt>
      <trkpt lat="43.47293" lon="6.91021">
        <ele>266</ele>
        <time>2019-10-13T07:28:09Z</time>
      </trkpt>
      <trkpt lat="43.47296" lon="6.9102">
        <ele>266.2</ele>
        <time>2019-10-13T07:28:10Z</time>
      </trkpt>
      <trkpt lat="43.47309" lon="6.91018">
        <ele>267</ele>
        <time>2019-10-13T07:28:13Z</time>
      </trkpt>
      <trkpt lat="43.47313" lon="6.91019">
        <ele>267</ele>
        <time>2019-10-13T07:28:14Z</time>
      </trkpt>
      <trkpt lat="43.47321" lon="6.91022">
        <ele>267.2</ele>
        <time>2019-10-13T07:28:16Z</time>
      </trkpt>
      <trkpt lat="43.47337" lon="6.91032">
        <ele>268</ele>
        <time>2019-10-13T07:28:20Z</time>
      </trkpt>
      <trkpt lat="43.4734" lon="6.91035">
        <ele>268.2</ele>
        <time>2019-10-13T07:28:21Z</time>
      </trkpt>
      <trkpt lat="43.47347" lon="6.91043">
        <ele>268.4</ele>
        <time>2019-10-13T07:28:23Z</time>
      </trkpt>
      <trkpt lat="43.47354" lon="6.91064">
        <ele>268.2</ele>
        <time>2019-10-13T07:28:27Z</time>
      </trkpt>
      <trkpt lat="43.47354" lon="6.91091">
        <ele>268.4</ele>
        <time>2019-10-13T07:28:32Z</time>
      </trkpt>
      <trkpt lat="43.47354" lon="6.91121">
        <ele>269.2</ele>
        <time>2019-10-13T07:28:37Z</time>
      </trkpt>
      <trkpt lat="43.47355" lon="6.91127">
        <ele>269.8</ele>
        <time>2019-10-13T07:28:38Z</time>
      </trkpt>
      <trkpt lat="43.47355" lon="6.91133">
        <ele>270.2</ele>
        <time>2019-10-13T07:28:39Z</time>
      </trkpt>
      <trkpt lat="43.47362" lon="6.9117">
        <ele>271.4</ele>
        <time>2019-10-13T07:28:45Z</time>
      </trkpt>
      <trkpt lat="43.47364" lon="6.91176">
        <ele>271.2</ele>
        <time>2019-10-13T07:28:46Z</time>
      </trkpt>
      <trkpt lat="43.47375" lon="6.91198">
        <ele>270.4</ele>
        <time>2019-10-13T07:28:50Z</time>
      </trkpt>
      <trkpt lat="43.47397" lon="6.91225">
        <ele>271.8</ele>
        <time>2019-10-13T07:28:56Z</time>
      </trkpt>
      <trkpt lat="43.47401" lon="6.9123">
        <ele>272</ele>
        <time>2019-10-13T07:28:57Z</time>
      </trkpt>
      <trkpt lat="43.47406" lon="6.9125">
        <ele>272.2</ele>
        <time>2019-10-13T07:29:00Z</time>
      </trkpt>
      <trkpt lat="43.47405" lon="6.9127">
        <ele>272</ele>
        <time>2019-10-13T07:29:03Z</time>
      </trkpt>
      <trkpt lat="43.47406" lon="6.91285">
        <ele>271.8</ele>
        <time>2019-10-13T07:29:05Z</time>
      </trkpt>
      <trkpt lat="43.47413" lon="6.9134">
        <ele>272.2</ele>
        <time>2019-10-13T07:29:13Z</time>
      </trkpt>
      <trkpt lat="43.47417" lon="6.91366">
        <ele>272.4</ele>
        <time>2019-10-13T07:29:17Z</time>
      </trkpt>
      <trkpt lat="43.47421" lon="6.91389">
        <ele>273.2</ele>
        <time>2019-10-13T07:29:21Z</time>
      </trkpt>
      <trkpt lat="43.47422" lon="6.91394">
        <ele>273.4</ele>
        <time>2019-10-13T07:29:22Z</time>
      </trkpt>
      <trkpt lat="43.47421" lon="6.91407">
        <ele>273.8</ele>
        <time>2019-10-13T07:29:25Z</time>
      </trkpt>
      <trkpt lat="43.4742" lon="6.91411">
        <ele>274.4</ele>
        <time>2019-10-13T07:29:26Z</time>
      </trkpt>
      <trkpt lat="43.4742" lon="6.91414">
        <ele>274.6</ele>
        <time>2019-10-13T07:29:27Z</time>
      </trkpt>
      <trkpt lat="43.47421" lon="6.91429">
        <ele>275.2</ele>
        <time>2019-10-13T07:29:32Z</time>
      </trkpt>
      <trkpt lat="43.47424" lon="6.91431">
        <ele>275.2</ele>
        <time>2019-10-13T07:29:34Z</time>
      </trkpt>
      <trkpt lat="43.47427" lon="6.9143">
        <ele>275.2</ele>
        <time>2019-10-13T07:29:36Z</time>
      </trkpt>
      <trkpt lat="43.4743" lon="6.91422">
        <ele>275.6</ele>
        <time>2019-10-13T07:29:40Z</time>
      </trkpt>
      <trkpt lat="43.47429" lon="6.91421">
        <ele>275.6</ele>
        <time>2019-10-13T07:29:41Z</time>
      </trkpt>
      <trkpt lat="43.47424" lon="6.91415">
        <ele>276</ele>
        <time>2019-10-13T07:29:44Z</time>
      </trkpt>
      <trkpt lat="43.47421" lon="6.91414">
        <ele>275.8</ele>
        <time>2019-10-13T07:29:45Z</time>
      </trkpt>
      <trkpt lat="43.47419" lon="6.91421">
        <ele>275.4</ele>
        <time>2019-10-13T07:29:47Z</time>
      </trkpt>
      <trkpt lat="43.47423" lon="6.91428">
        <ele>275.2</ele>
        <time>2019-10-13T07:29:51Z</time>
      </trkpt>
      <trkpt lat="43.47428" lon="6.91421">
        <ele>275.6</ele>
        <time>2019-10-13T07:29:57Z</time>
      </trkpt>
      <trkpt lat="43.4742" lon="6.9142">
        <ele>275.2</ele>
        <time>2019-10-13T07:30:01Z</time>
      </trkpt>
      <trkpt lat="43.4742" lon="6.91428">
        <ele>274.8</ele>
        <time>2019-10-13T07:30:04Z</time>
      </trkpt>
      <trkpt lat="43.47426" lon="6.91429">
        <ele>274.8</ele>
        <time>2019-10-13T07:30:08Z</time>
      </trkpt>
      <trkpt lat="43.47428" lon="6.91428">
        <ele>274.8</ele>
        <time>2019-10-13T07:30:09Z</time>
      </trkpt>
      <trkpt lat="43.47431" lon="6.91427">
        <ele>275</ele>
        <time>2019-10-13T07:30:11Z</time>
      </trkpt>
      <trkpt lat="43.47435" lon="6.91427">
        <ele>275</ele>
        <time>2019-10-13T07:30:14Z</time>
      </trkpt>
      <trkpt lat="43.47438" lon="6.9143">
        <ele>275.2</ele>
        <time>2019-10-13T07:30:16Z</time>
      </trkpt>
      <trkpt lat="43.47441" lon="6.91431">
        <ele>275.4</ele>
        <time>2019-10-13T07:30:17Z</time>
      </trkpt>
      <trkpt lat="43.47444" lon="6.9143">
        <ele>275.6</ele>
        <time>2019-10-13T07:30:19Z</time>
      </trkpt>
      <trkpt lat="43.47448" lon="6.91428">
        <ele>276.2</ele>
        <time>2019-10-13T07:30:23Z</time>
      </trkpt>
      <trkpt lat="43.47449" lon="6.91427">
        <ele>276.2</ele>
        <time>2019-10-13T07:30:24Z</time>
      </trkpt>
      <trkpt lat="43.47461" lon="6.91429">
        <ele>276</ele>
        <time>2019-10-13T07:30:29Z</time>
      </trkpt>
      <trkpt lat="43.47482" lon="6.91437">
        <ele>276.6</ele>
        <time>2019-10-13T07:30:35Z</time>
      </trkpt>
      <trkpt lat="43.47494" lon="6.91437">
        <ele>276.8</ele>
        <time>2019-10-13T07:30:38Z</time>
      </trkpt>
      <trkpt lat="43.47502" lon="6.91435">
        <ele>277.4</ele>
        <time>2019-10-13T07:30:40Z</time>
      </trkpt>
      <trkpt lat="43.47512" lon="6.91427">
        <ele>277.8</ele>
        <time>2019-10-13T07:30:43Z</time>
      </trkpt>
      <trkpt lat="43.47515" lon="6.91423">
        <ele>278.2</ele>
        <time>2019-10-13T07:30:44Z</time>
      </trkpt>
      <trkpt lat="43.47518" lon="6.91419">
        <ele>278.2</ele>
        <time>2019-10-13T07:30:45Z</time>
      </trkpt>
      <trkpt lat="43.47532" lon="6.91399">
        <ele>279.2</ele>
        <time>2019-10-13T07:30:50Z</time>
      </trkpt>
      <trkpt lat="43.47544" lon="6.91385">
        <ele>280</ele>
        <time>2019-10-13T07:30:54Z</time>
      </trkpt>
      <trkpt lat="43.4755" lon="6.91378">
        <ele>280.4</ele>
        <time>2019-10-13T07:30:56Z</time>
      </trkpt>
      <trkpt lat="43.4756" lon="6.9137">
        <ele>281.4</ele>
        <time>2019-10-13T07:30:59Z</time>
      </trkpt>
      <trkpt lat="43.47563" lon="6.91368">
        <ele>281.6</ele>
        <time>2019-10-13T07:31:00Z</time>
      </trkpt>
      <trkpt lat="43.47571" lon="6.91371">
        <ele>281.8</ele>
        <time>2019-10-13T07:31:02Z</time>
      </trkpt>
      <trkpt lat="43.47576" lon="6.91375">
        <ele>282</ele>
        <time>2019-10-13T07:31:03Z</time>
      </trkpt>
      <trkpt lat="43.47594" lon="6.91394">
        <ele>282.6</ele>
        <time>2019-10-13T07:31:08Z</time>
      </trkpt>
      <trkpt lat="43.47605" lon="6.91403">
        <ele>283</ele>
        <time>2019-10-13T07:31:11Z</time>
      </trkpt>
      <trkpt lat="43.47612" lon="6.91409">
        <ele>283.6</ele>
        <time>2019-10-13T07:31:13Z</time>
      </trkpt>
      <trkpt lat="43.47626" lon="6.91416">
        <ele>284.4</ele>
        <time>2019-10-13T07:31:17Z</time>
      </trkpt>
      <trkpt lat="43.47633" lon="6.91419">
        <ele>284.6</ele>
        <time>2019-10-13T07:31:19Z</time>
      </trkpt>
      <trkpt lat="43.4766" lon="6.91429">
        <ele>285.4</ele>
        <time>2019-10-13T07:31:26Z</time>
      </trkpt>
      <trkpt lat="43.47668" lon="6.91431">
        <ele>285.8</ele>
        <time>2019-10-13T07:31:28Z</time>
      </trkpt>
      <trkpt lat="43.47683" lon="6.91434">
        <ele>287</ele>
        <time>2019-10-13T07:31:32Z</time>
      </trkpt>
      <trkpt lat="43.47703" lon="6.91439">
        <ele>287.4</ele>
        <time>2019-10-13T07:31:37Z</time>
      </trkpt>
      <trkpt lat="43.47711" lon="6.91439">
        <ele>287.6</ele>
        <time>2019-10-13T07:31:39Z</time>
      </trkpt>
      <trkpt lat="43.47722" lon="6.91437">
        <ele>288</ele>
        <time>2019-10-13T07:31:42Z</time>
      </trkpt>
      <trkpt lat="43.47732" lon="6.9143">
        <ele>289.2</ele>
        <time>2019-10-13T07:31:45Z</time>
      </trkpt>
      <trkpt lat="43.47741" lon="6.91414">
        <ele>290.4</ele>
        <time>2019-10-13T07:31:49Z</time>
      </trkpt>
      <trkpt lat="43.47745" lon="6.91405">
        <ele>291</ele>
        <time>2019-10-13T07:31:51Z</time>
      </trkpt>
      <trkpt lat="43.47749" lon="6.91396">
        <ele>291.4</ele>
        <time>2019-10-13T07:31:53Z</time>
      </trkpt>
      <trkpt lat="43.47756" lon="6.91375">
        <ele>292.6</ele>
        <time>2019-10-13T07:31:57Z</time>
      </trkpt>
      <trkpt lat="43.4776" lon="6.9136">
        <ele>293.2</ele>
        <time>2019-10-13T07:32:00Z</time>
      </trkpt>
      <trkpt lat="43.47765" lon="6.91351">
        <ele>293.6</ele>
        <time>2019-10-13T07:32:02Z</time>
      </trkpt>
      <trkpt lat="43.47771" lon="6.91338">
        <ele>294.2</ele>
        <time>2019-10-13T07:32:05Z</time>
      </trkpt>
      <trkpt lat="43.47778" lon="6.9133">
        <ele>294.4</ele>
        <time>2019-10-13T07:32:07Z</time>
      </trkpt>
      <trkpt lat="43.47781" lon="6.91326">
        <ele>294.8</ele>
        <time>2019-10-13T07:32:08Z</time>
      </trkpt>
      <trkpt lat="43.47798" lon="6.91307">
        <ele>295</ele>
        <time>2019-10-13T07:32:13Z</time>
      </trkpt>
      <trkpt lat="43.47811" lon="6.91293">
        <ele>295.8</ele>
        <time>2019-10-13T07:32:17Z</time>
      </trkpt>
      <trkpt lat="43.47824" lon="6.91277">
        <ele>297</ele>
        <time>2019-10-13T07:32:21Z</time>
      </trkpt>
      <trkpt lat="43.47836" lon="6.91262">
        <ele>298</ele>
        <time>2019-10-13T07:32:25Z</time>
      </trkpt>
      <trkpt lat="43.47851" lon="6.91242">
        <ele>299</ele>
        <time>2019-10-13T07:32:30Z</time>
      </trkpt>
      <trkpt lat="43.47871" lon="6.91208">
        <ele>300</ele>
        <time>2019-10-13T07:32:38Z</time>
      </trkpt>
      <trkpt lat="43.47874" lon="6.91205">
        <ele>300.2</ele>
        <time>2019-10-13T07:32:39Z</time>
      </trkpt>
      <trkpt lat="43.47887" lon="6.91186">
        <ele>301.2</ele>
        <time>2019-10-13T07:32:44Z</time>
      </trkpt>
      <trkpt lat="43.4789" lon="6.91183">
        <ele>302</ele>
        <time>2019-10-13T07:32:45Z</time>
      </trkpt>
      <trkpt lat="43.47894" lon="6.91179">
        <ele>302.2</ele>
        <time>2019-10-13T07:32:46Z</time>
      </trkpt>
      <trkpt lat="43.47906" lon="6.91166">
        <ele>303.4</ele>
        <time>2019-10-13T07:32:50Z</time>
      </trkpt>
      <trkpt lat="43.47922" lon="6.91157">
        <ele>304.2</ele>
        <time>2019-10-13T07:32:54Z</time>
      </trkpt>
      <trkpt lat="43.47934" lon="6.91155">
        <ele>304.4</ele>
        <time>2019-10-13T07:32:57Z</time>
      </trkpt>
      <trkpt lat="43.47943" lon="6.91155">
        <ele>305</ele>
        <time>2019-10-13T07:32:59Z</time>
      </trkpt>
      <trkpt lat="43.47959" lon="6.91158">
        <ele>305.4</ele>
        <time>2019-10-13T07:33:03Z</time>
      </trkpt>
      <trkpt lat="43.47971" lon="6.91164">
        <ele>306.2</ele>
        <time>2019-10-13T07:33:06Z</time>
      </trkpt>
      <trkpt lat="43.47979" lon="6.91168">
        <ele>306.8</ele>
        <time>2019-10-13T07:33:08Z</time>
      </trkpt>
      <trkpt lat="43.48004" lon="6.9118">
        <ele>307.6</ele>
        <time>2019-10-13T07:33:15Z</time>
      </trkpt>
      <trkpt lat="43.48007" lon="6.91181">
        <ele>308</ele>
        <time>2019-10-13T07:33:16Z</time>
      </trkpt>
      <trkpt lat="43.48023" lon="6.91183">
        <ele>309.2</ele>
        <time>2019-10-13T07:33:21Z</time>
      </trkpt>
      <trkpt lat="43.48028" lon="6.91183">
        <ele>310.2</ele>
        <time>2019-10-13T07:33:25Z</time>
      </trkpt>
      <trkpt lat="43.48029" lon="6.91184">
        <ele>310.2</ele>
        <time>2019-10-13T07:33:26Z</time>
      </trkpt>
      <trkpt lat="43.48033" lon="6.91183">
        <ele>310.8</ele>
        <time>2019-10-13T07:33:30Z</time>
      </trkpt>
      <trkpt lat="43.48048" lon="6.9118">
        <ele>311.2</ele>
        <time>2019-10-13T07:33:37Z</time>
      </trkpt>
      <trkpt lat="43.48051" lon="6.91176">
        <ele>311.4</ele>
        <time>2019-10-13T07:33:39Z</time>
      </trkpt>
      <trkpt lat="43.48052" lon="6.91173">
        <ele>311.6</ele>
        <time>2019-10-13T07:33:40Z</time>
      </trkpt>
      <trkpt lat="43.48051" lon="6.91172">
        <ele>311.6</ele>
        <time>2019-10-13T07:33:41Z</time>
      </trkpt>
      <trkpt lat="43.48046" lon="6.9116">
        <ele>311.8</ele>
        <time>2019-10-13T07:33:46Z</time>
      </trkpt>
      <trkpt lat="43.48044" lon="6.91158">
        <ele>312</ele>
        <time>2019-10-13T07:33:48Z</time>
      </trkpt>
      <trkpt lat="43.48042" lon="6.91156">
        <ele>312.2</ele>
        <time>2019-10-13T07:33:53Z</time>
      </trkpt>
      <trkpt lat="43.48042" lon="6.91159">
        <ele>311.4</ele>
        <time>2019-10-13T07:34:03Z</time>
      </trkpt>
      <trkpt lat="43.48041" lon="6.91168">
        <ele>311</ele>
        <time>2019-10-13T07:34:08Z</time>
      </trkpt>
      <trkpt lat="43.48051" lon="6.91172">
        <ele>311.4</ele>
        <time>2019-10-13T07:34:13Z</time>
      </trkpt>
      <trkpt lat="43.48054" lon="6.91186">
        <ele>310.8</ele>
        <time>2019-10-13T07:34:17Z</time>
      </trkpt>
      <trkpt lat="43.4805" lon="6.91192">
        <ele>310.6</ele>
        <time>2019-10-13T07:34:20Z</time>
      </trkpt>
      <trkpt lat="43.48049" lon="6.91194">
        <ele>310.6</ele>
        <time>2019-10-13T07:34:21Z</time>
      </trkpt>
      <trkpt lat="43.48048" lon="6.91196">
        <ele>310.6</ele>
        <time>2019-10-13T07:34:25Z</time>
      </trkpt>
      <trkpt lat="43.48048" lon="6.91196">
        <ele>310.2</ele>
        <time>2019-10-13T07:34:33Z</time>
      </trkpt>
      <trkpt lat="43.48048" lon="6.91196">
        <ele>310.4</ele>
        <time>2019-10-13T07:34:35Z</time>
      </trkpt>
      <trkpt lat="43.48048" lon="6.91196">
        <ele>310.6</ele>
        <time>2019-10-13T07:34:47Z</time>
      </trkpt>
      <trkpt lat="43.48051" lon="6.91192">
        <ele>310.6</ele>
        <time>2019-10-13T07:34:52Z</time>
      </trkpt>
      <trkpt lat="43.48056" lon="6.91181">
        <ele>310.6</ele>
        <time>2019-10-13T07:34:57Z</time>
      </trkpt>
      <trkpt lat="43.48062" lon="6.91161">
        <ele>310.6</ele>
        <time>2019-10-13T07:35:05Z</time>
      </trkpt>
      <trkpt lat="43.48071" lon="6.91146">
        <ele>309.6</ele>
        <time>2019-10-13T07:35:13Z</time>
      </trkpt>
      <trkpt lat="43.48071" lon="6.91145">
        <ele>309.8</ele>
        <time>2019-10-13T07:35:18Z</time>
      </trkpt>
      <trkpt lat="43.48071" lon="6.91145">
        <ele>309.6</ele>
        <time>2019-10-13T07:35:28Z</time>
      </trkpt>
      <trkpt lat="43.48071" lon="6.91145">
        <ele>309.6</ele>
        <time>2019-10-13T07:35:42Z</time>
      </trkpt>
      <trkpt lat="43.48071" lon="6.91145">
        <ele>309.6</ele>
        <time>2019-10-13T07:35:57Z</time>
      </trkpt>
      <trkpt lat="43.48071" lon="6.91146">
        <ele>309.2</ele>
        <time>2019-10-13T07:36:01Z</time>
      </trkpt>
      <trkpt lat="43.48071" lon="6.91146">
        <ele>309.8</ele>
        <time>2019-10-13T07:36:15Z</time>
      </trkpt>
      <trkpt lat="43.48071" lon="6.91146">
        <ele>309.2</ele>
        <time>2019-10-13T07:36:32Z</time>
      </trkpt>
      <trkpt lat="43.48071" lon="6.91146">
        <ele>309.4</ele>
        <time>2019-10-13T07:36:45Z</time>
      </trkpt>
      <trkpt lat="43.48071" lon="6.91146">
        <ele>309.6</ele>
        <time>2019-10-13T07:37:01Z</time>
      </trkpt>
      <trkpt lat="43.48071" lon="6.91147">
        <ele>310</ele>
        <time>2019-10-13T07:37:21Z</time>
      </trkpt>
      <trkpt lat="43.48073" lon="6.91147">
        <ele>310</ele>
        <time>2019-10-13T07:37:26Z</time>
      </trkpt>
      <trkpt lat="43.48075" lon="6.91149">
        <ele>309.8</ele>
        <time>2019-10-13T07:37:27Z</time>
      </trkpt>
      <trkpt lat="43.48071" lon="6.91152">
        <ele>309.6</ele>
        <time>2019-10-13T07:37:30Z</time>
      </trkpt>
      <trkpt lat="43.48066" lon="6.9115">
        <ele>309.8</ele>
        <time>2019-10-13T07:37:33Z</time>
      </trkpt>
      <trkpt lat="43.48061" lon="6.91152">
        <ele>309.8</ele>
        <time>2019-10-13T07:37:35Z</time>
      </trkpt>
      <trkpt lat="43.48052" lon="6.91155">
        <ele>310.4</ele>
        <time>2019-10-13T07:37:38Z</time>
      </trkpt>
      <trkpt lat="43.4804" lon="6.91157">
        <ele>310.8</ele>
        <time>2019-10-13T07:37:43Z</time>
      </trkpt>
      <trkpt lat="43.48037" lon="6.91159">
        <ele>311.4</ele>
        <time>2019-10-13T07:37:48Z</time>
      </trkpt>
      <trkpt lat="43.48036" lon="6.91158">
        <ele>311.4</ele>
        <time>2019-10-13T07:37:55Z</time>
      </trkpt>
      <trkpt lat="43.48038" lon="6.9116">
        <ele>311.4</ele>
        <time>2019-10-13T07:38:09Z</time>
      </trkpt>
      <trkpt lat="43.48039" lon="6.9116">
        <ele>311.4</ele>
        <time>2019-10-13T07:38:10Z</time>
      </trkpt>
      <trkpt lat="43.48046" lon="6.91166">
        <ele>311.4</ele>
        <time>2019-10-13T07:38:14Z</time>
      </trkpt>
      <trkpt lat="43.48055" lon="6.91188">
        <ele>311</ele>
        <time>2019-10-13T07:38:22Z</time>
      </trkpt>
      <trkpt lat="43.48056" lon="6.91191">
        <ele>310.8</ele>
        <time>2019-10-13T07:38:24Z</time>
      </trkpt>
      <trkpt lat="43.48058" lon="6.91191">
        <ele>310.6</ele>
        <time>2019-10-13T07:38:27Z</time>
      </trkpt>
      <trkpt lat="43.48059" lon="6.91188">
        <ele>310.6</ele>
        <time>2019-10-13T07:38:38Z</time>
      </trkpt>
      <trkpt lat="43.48056" lon="6.91176">
        <ele>310.8</ele>
        <time>2019-10-13T07:38:44Z</time>
      </trkpt>
      <trkpt lat="43.48053" lon="6.91167">
        <ele>311</ele>
        <time>2019-10-13T07:38:48Z</time>
      </trkpt>
      <trkpt lat="43.4805" lon="6.91161">
        <ele>310.8</ele>
        <time>2019-10-13T07:38:52Z</time>
      </trkpt>
      <trkpt lat="43.48049" lon="6.9116">
        <ele>311</ele>
        <time>2019-10-13T07:38:53Z</time>
      </trkpt>
      <trkpt lat="43.48043" lon="6.91157">
        <ele>311.2</ele>
        <time>2019-10-13T07:38:58Z</time>
      </trkpt>
      <trkpt lat="43.48042" lon="6.91157">
        <ele>311.4</ele>
        <time>2019-10-13T07:39:04Z</time>
      </trkpt>
      <trkpt lat="43.48042" lon="6.91157">
        <ele>311.8</ele>
        <time>2019-10-13T07:39:16Z</time>
      </trkpt>
      <trkpt lat="43.48042" lon="6.91157">
        <ele>312.2</ele>
        <time>2019-10-13T07:39:37Z</time>
      </trkpt>
      <trkpt lat="43.48042" lon="6.91157">
        <ele>311.6</ele>
        <time>2019-10-13T07:39:52Z</time>
      </trkpt>
      <trkpt lat="43.48042" lon="6.91157">
        <ele>311.4</ele>
        <time>2019-10-13T07:40:11Z</time>
      </trkpt>
      <trkpt lat="43.48042" lon="6.91157">
        <ele>311.4</ele>
        <time>2019-10-13T07:40:33Z</time>
      </trkpt>
      <trkpt lat="43.48042" lon="6.91157">
        <ele>311</ele>
        <time>2019-10-13T07:40:46Z</time>
      </trkpt>
      <trkpt lat="43.48042" lon="6.91157">
        <ele>311</ele>
        <time>2019-10-13T07:41:06Z</time>
      </trkpt>
      <trkpt lat="43.48042" lon="6.91157">
        <ele>311.2</ele>
        <time>2019-10-13T07:41:20Z</time>
      </trkpt>
      <trkpt lat="43.48042" lon="6.91157">
        <ele>310.8</ele>
        <time>2019-10-13T07:41:38Z</time>
      </trkpt>
      <trkpt lat="43.48042" lon="6.91157">
        <ele>310.8</ele>
        <time>2019-10-13T07:41:55Z</time>
      </trkpt>
      <trkpt lat="43.48038" lon="6.91158">
        <ele>310.6</ele>
        <time>2019-10-13T07:42:01Z</time>
      </trkpt>
      <trkpt lat="43.48037" lon="6.91158">
        <ele>310.6</ele>
        <time>2019-10-13T07:42:06Z</time>
      </trkpt>
      <trkpt lat="43.48037" lon="6.91158">
        <ele>310.4</ele>
        <time>2019-10-13T07:42:12Z</time>
      </trkpt>
      <trkpt lat="43.48037" lon="6.91158">
        <ele>310.6</ele>
        <time>2019-10-13T07:42:29Z</time>
      </trkpt>
      <trkpt lat="43.48038" lon="6.91158">
        <ele>310.2</ele>
        <time>2019-10-13T07:42:37Z</time>
      </trkpt>
      <trkpt lat="43.48038" lon="6.91158">
        <ele>310.4</ele>
        <time>2019-10-13T07:43:02Z</time>
      </trkpt>
      <trkpt lat="43.48038" lon="6.91158">
        <ele>310</ele>
        <time>2019-10-13T07:43:22Z</time>
      </trkpt>
      <trkpt lat="43.48038" lon="6.91158">
        <ele>310.2</ele>
        <time>2019-10-13T07:43:45Z</time>
      </trkpt>
      <trkpt lat="43.48038" lon="6.91158">
        <ele>309.8</ele>
        <time>2019-10-13T07:44:00Z</time>
      </trkpt>
      <trkpt lat="43.48038" lon="6.91158">
        <ele>309.8</ele>
        <time>2019-10-13T07:44:20Z</time>
      </trkpt>
      <trkpt lat="43.48038" lon="6.91158">
        <ele>309.8</ele>
        <time>2019-10-13T07:44:33Z</time>
      </trkpt>
      <trkpt lat="43.48038" lon="6.91158">
        <ele>310</ele>
        <time>2019-10-13T07:44:49Z</time>
      </trkpt>
      <trkpt lat="43.48038" lon="6.91158">
        <ele>310</ele>
        <time>2019-10-13T07:45:08Z</time>
      </trkpt>
      <trkpt lat="43.48038" lon="6.91158">
        <ele>310</ele>
        <time>2019-10-13T07:45:22Z</time>
      </trkpt>
      <trkpt lat="43.48038" lon="6.91158">
        <ele>310.4</ele>
        <time>2019-10-13T07:45:38Z</time>
      </trkpt>
      <trkpt lat="43.48038" lon="6.91158">
        <ele>310</ele>
        <time>2019-10-13T07:45:55Z</time>
      </trkpt>
      <trkpt lat="43.48038" lon="6.91158">
        <ele>310</ele>
        <time>2019-10-13T07:46:17Z</time>
      </trkpt>
      <trkpt lat="43.48038" lon="6.91158">
        <ele>310</ele>
        <time>2019-10-13T07:46:34Z</time>
      </trkpt>
      <trkpt lat="43.48038" lon="6.91158">
        <ele>310</ele>
        <time>2019-10-13T07:46:51Z</time>
      </trkpt>
      <trkpt lat="43.48038" lon="6.91158">
        <ele>309.8</ele>
        <time>2019-10-13T07:47:04Z</time>
      </trkpt>
      <trkpt lat="43.48034" lon="6.91153">
        <ele>309.8</ele>
        <time>2019-10-13T07:47:08Z</time>
      </trkpt>
      <trkpt lat="43.48021" lon="6.91142">
        <ele>310.6</ele>
        <time>2019-10-13T07:47:13Z</time>
      </trkpt>
      <trkpt lat="43.48006" lon="6.91132">
        <ele>310.8</ele>
        <time>2019-10-13T07:47:18Z</time>
      </trkpt>
      <trkpt lat="43.4799" lon="6.91117">
        <ele>311.6</ele>
        <time>2019-10-13T07:47:24Z</time>
      </trkpt>
      <trkpt lat="43.47988" lon="6.91115">
        <ele>311.6</ele>
        <time>2019-10-13T07:47:25Z</time>
      </trkpt>
      <trkpt lat="43.47977" lon="6.91104">
        <ele>312.8</ele>
        <time>2019-10-13T07:47:30Z</time>
      </trkpt>
      <trkpt lat="43.47967" lon="6.91086">
        <ele>313.4</ele>
        <time>2019-10-13T07:47:35Z</time>
      </trkpt>
      <trkpt lat="43.47958" lon="6.91073">
        <ele>314</ele>
        <time>2019-10-13T07:47:39Z</time>
      </trkpt>
      <trkpt lat="43.47957" lon="6.9107">
        <ele>314.2</ele>
        <time>2019-10-13T07:47:40Z</time>
      </trkpt>
      <trkpt lat="43.47946" lon="6.91056">
        <ele>315</ele>
        <time>2019-10-13T07:47:45Z</time>
      </trkpt>
      <trkpt lat="43.47938" lon="6.91047">
        <ele>315.4</ele>
        <time>2019-10-13T07:47:48Z</time>
      </trkpt>
      <trkpt lat="43.47933" lon="6.91043">
        <ele>316</ele>
        <time>2019-10-13T07:47:50Z</time>
      </trkpt>
      <trkpt lat="43.47917" lon="6.91032">
        <ele>317</ele>
        <time>2019-10-13T07:47:55Z</time>
      </trkpt>
      <trkpt lat="43.47901" lon="6.91019">
        <ele>318.2</ele>
        <time>2019-10-13T07:48:00Z</time>
      </trkpt>
      <trkpt lat="43.47893" lon="6.91012">
        <ele>318.6</ele>
        <time>2019-10-13T07:48:03Z</time>
      </trkpt>
      <trkpt lat="43.47884" lon="6.91004">
        <ele>319.2</ele>
        <time>2019-10-13T07:48:06Z</time>
      </trkpt>
      <trkpt lat="43.47876" lon="6.90995">
        <ele>319.8</ele>
        <time>2019-10-13T07:48:09Z</time>
      </trkpt>
      <trkpt lat="43.47868" lon="6.90986">
        <ele>320.2</ele>
        <time>2019-10-13T07:48:12Z</time>
      </trkpt>
      <trkpt lat="43.47854" lon="6.90971">
        <ele>321.2</ele>
        <time>2019-10-13T07:48:17Z</time>
      </trkpt>
      <trkpt lat="43.47851" lon="6.90968">
        <ele>321.4</ele>
        <time>2019-10-13T07:48:18Z</time>
      </trkpt>
      <trkpt lat="43.47845" lon="6.90966">
        <ele>321.8</ele>
        <time>2019-10-13T07:48:20Z</time>
      </trkpt>
      <trkpt lat="43.47838" lon="6.90966">
        <ele>322.2</ele>
        <time>2019-10-13T07:48:22Z</time>
      </trkpt>
      <trkpt lat="43.47828" lon="6.90957">
        <ele>322.2</ele>
        <time>2019-10-13T07:48:25Z</time>
      </trkpt>
      <trkpt lat="43.47825" lon="6.90953">
        <ele>322.6</ele>
        <time>2019-10-13T07:48:26Z</time>
      </trkpt>
      <trkpt lat="43.47813" lon="6.90939">
        <ele>323.2</ele>
        <time>2019-10-13T07:48:30Z</time>
      </trkpt>
      <trkpt lat="43.47809" lon="6.90929">
        <ele>323.6</ele>
        <time>2019-10-13T07:48:32Z</time>
      </trkpt>
      <trkpt lat="43.47804" lon="6.90913">
        <ele>324.2</ele>
        <time>2019-10-13T07:48:35Z</time>
      </trkpt>
      <trkpt lat="43.47803" lon="6.90903">
        <ele>324.8</ele>
        <time>2019-10-13T07:48:37Z</time>
      </trkpt>
      <trkpt lat="43.47804" lon="6.90885">
        <ele>325.2</ele>
        <time>2019-10-13T07:48:41Z</time>
      </trkpt>
      <trkpt lat="43.47801" lon="6.90867">
        <ele>325.8</ele>
        <time>2019-10-13T07:48:45Z</time>
      </trkpt>
      <trkpt lat="43.478" lon="6.90865">
        <ele>326</ele>
        <time>2019-10-13T07:48:46Z</time>
      </trkpt>
      <trkpt lat="43.47798" lon="6.90858">
        <ele>327</ele>
        <time>2019-10-13T07:48:48Z</time>
      </trkpt>
      <trkpt lat="43.47798" lon="6.90853">
        <ele>326.8</ele>
        <time>2019-10-13T07:48:49Z</time>
      </trkpt>
      <trkpt lat="43.47796" lon="6.90845">
        <ele>327</ele>
        <time>2019-10-13T07:48:51Z</time>
      </trkpt>
      <trkpt lat="43.47791" lon="6.90831">
        <ele>328</ele>
        <time>2019-10-13T07:48:55Z</time>
      </trkpt>
      <trkpt lat="43.47788" lon="6.90824">
        <ele>328</ele>
        <time>2019-10-13T07:48:57Z</time>
      </trkpt>
      <trkpt lat="43.47787" lon="6.90817">
        <ele>328.4</ele>
        <time>2019-10-13T07:48:59Z</time>
      </trkpt>
      <trkpt lat="43.47789" lon="6.90809">
        <ele>328.6</ele>
        <time>2019-10-13T07:49:01Z</time>
      </trkpt>
      <trkpt lat="43.47786" lon="6.90796">
        <ele>329</ele>
        <time>2019-10-13T07:49:05Z</time>
      </trkpt>
      <trkpt lat="43.47785" lon="6.90793">
        <ele>329</ele>
        <time>2019-10-13T07:49:06Z</time>
      </trkpt>
      <trkpt lat="43.47783" lon="6.90791">
        <ele>329.2</ele>
        <time>2019-10-13T07:49:07Z</time>
      </trkpt>
      <trkpt lat="43.47775" lon="6.90785">
        <ele>330.2</ele>
        <time>2019-10-13T07:49:10Z</time>
      </trkpt>
      <trkpt lat="43.47761" lon="6.90775">
        <ele>330.8</ele>
        <time>2019-10-13T07:49:15Z</time>
      </trkpt>
      <trkpt lat="43.47756" lon="6.90762">
        <ele>331.2</ele>
        <time>2019-10-13T07:49:18Z</time>
      </trkpt>
      <trkpt lat="43.47755" lon="6.90758">
        <ele>331.4</ele>
        <time>2019-10-13T07:49:19Z</time>
      </trkpt>
      <trkpt lat="43.47755" lon="6.90754">
        <ele>331.4</ele>
        <time>2019-10-13T07:49:20Z</time>
      </trkpt>
      <trkpt lat="43.47758" lon="6.90749">
        <ele>332</ele>
        <time>2019-10-13T07:49:22Z</time>
      </trkpt>
      <trkpt lat="43.47764" lon="6.90744">
        <ele>332.2</ele>
        <time>2019-10-13T07:49:24Z</time>
      </trkpt>
      <trkpt lat="43.47771" lon="6.90734">
        <ele>332.6</ele>
        <time>2019-10-13T07:49:27Z</time>
      </trkpt>
      <trkpt lat="43.47773" lon="6.90731">
        <ele>332.8</ele>
        <time>2019-10-13T07:49:28Z</time>
      </trkpt>
      <trkpt lat="43.47782" lon="6.90712">
        <ele>333.2</ele>
        <time>2019-10-13T07:49:33Z</time>
      </trkpt>
      <trkpt lat="43.47783" lon="6.90708">
        <ele>333.2</ele>
        <time>2019-10-13T07:49:34Z</time>
      </trkpt>
      <trkpt lat="43.47791" lon="6.90701">
        <ele>334.4</ele>
        <time>2019-10-13T07:49:37Z</time>
      </trkpt>
      <trkpt lat="43.47798" lon="6.90694">
        <ele>334.6</ele>
        <time>2019-10-13T07:49:40Z</time>
      </trkpt>
      <trkpt lat="43.478" lon="6.90694">
        <ele>334.6</ele>
        <time>2019-10-13T07:49:41Z</time>
      </trkpt>
      <trkpt lat="43.47807" lon="6.9069">
        <ele>335.6</ele>
        <time>2019-10-13T07:49:44Z</time>
      </trkpt>
      <trkpt lat="43.47816" lon="6.90687">
        <ele>336.6</ele>
        <time>2019-10-13T07:49:47Z</time>
      </trkpt>
      <trkpt lat="43.47818" lon="6.90687">
        <ele>337</ele>
        <time>2019-10-13T07:49:48Z</time>
      </trkpt>
      <trkpt lat="43.47828" lon="6.90681">
        <ele>337.8</ele>
        <time>2019-10-13T07:49:52Z</time>
      </trkpt>
      <trkpt lat="43.4783" lon="6.90679">
        <ele>338</ele>
        <time>2019-10-13T07:49:53Z</time>
      </trkpt>
      <trkpt lat="43.47836" lon="6.9067">
        <ele>339</ele>
        <time>2019-10-13T07:49:57Z</time>
      </trkpt>
      <trkpt lat="43.47842" lon="6.90662">
        <ele>340.2</ele>
        <time>2019-10-13T07:50:00Z</time>
      </trkpt>
      <trkpt lat="43.47857" lon="6.90648">
        <ele>341.4</ele>
        <time>2019-10-13T07:50:06Z</time>
      </trkpt>
      <trkpt lat="43.47865" lon="6.90638">
        <ele>342.6</ele>
        <time>2019-10-13T07:50:10Z</time>
      </trkpt>
      <trkpt lat="43.47869" lon="6.9063">
        <ele>343.8</ele>
        <time>2019-10-13T07:50:13Z</time>
      </trkpt>
      <trkpt lat="43.47873" lon="6.90618">
        <ele>345</ele>
        <time>2019-10-13T07:50:17Z</time>
      </trkpt>
      <trkpt lat="43.47875" lon="6.90612">
        <ele>345.6</ele>
        <time>2019-10-13T07:50:19Z</time>
      </trkpt>
      <trkpt lat="43.47878" lon="6.90606">
        <ele>346</ele>
        <time>2019-10-13T07:50:21Z</time>
      </trkpt>
      <trkpt lat="43.47881" lon="6.90597">
        <ele>347</ele>
        <time>2019-10-13T07:50:24Z</time>
      </trkpt>
      <trkpt lat="43.47882" lon="6.90594">
        <ele>347.4</ele>
        <time>2019-10-13T07:50:25Z</time>
      </trkpt>
      <trkpt lat="43.47885" lon="6.90585">
        <ele>348</ele>
        <time>2019-10-13T07:50:28Z</time>
      </trkpt>
      <trkpt lat="43.47889" lon="6.90572">
        <ele>349.2</ele>
        <time>2019-10-13T07:50:32Z</time>
      </trkpt>
      <trkpt lat="43.47893" lon="6.90557">
        <ele>350.4</ele>
        <time>2019-10-13T07:50:37Z</time>
      </trkpt>
      <trkpt lat="43.47895" lon="6.90545">
        <ele>351.4</ele>
        <time>2019-10-13T07:50:41Z</time>
      </trkpt>
      <trkpt lat="43.47895" lon="6.90537">
        <ele>351.6</ele>
        <time>2019-10-13T07:50:43Z</time>
      </trkpt>
      <trkpt lat="43.47894" lon="6.90519">
        <ele>353</ele>
        <time>2019-10-13T07:50:48Z</time>
      </trkpt>
      <trkpt lat="43.47893" lon="6.90505">
        <ele>354</ele>
        <time>2019-10-13T07:50:53Z</time>
      </trkpt>
      <trkpt lat="43.47893" lon="6.90502">
        <ele>354.4</ele>
        <time>2019-10-13T07:50:54Z</time>
      </trkpt>
      <trkpt lat="43.47892" lon="6.9049">
        <ele>355.2</ele>
        <time>2019-10-13T07:50:58Z</time>
      </trkpt>
      <trkpt lat="43.47891" lon="6.90484">
        <ele>355.6</ele>
        <time>2019-10-13T07:51:00Z</time>
      </trkpt>
      <trkpt lat="43.4789" lon="6.90477">
        <ele>356.2</ele>
        <time>2019-10-13T07:51:02Z</time>
      </trkpt>
      <trkpt lat="43.47889" lon="6.90463">
        <ele>357.2</ele>
        <time>2019-10-13T07:51:06Z</time>
      </trkpt>
      <trkpt lat="43.47888" lon="6.9046">
        <ele>357.4</ele>
        <time>2019-10-13T07:51:07Z</time>
      </trkpt>
      <trkpt lat="43.47888" lon="6.9045">
        <ele>358.2</ele>
        <time>2019-10-13T07:51:10Z</time>
      </trkpt>
      <trkpt lat="43.47888" lon="6.90439">
        <ele>358.6</ele>
        <time>2019-10-13T07:51:14Z</time>
      </trkpt>
      <trkpt lat="43.47889" lon="6.90434">
        <ele>359.4</ele>
        <time>2019-10-13T07:51:16Z</time>
      </trkpt>
      <trkpt lat="43.4789" lon="6.90423">
        <ele>360.4</ele>
        <time>2019-10-13T07:51:20Z</time>
      </trkpt>
      <trkpt lat="43.4789" lon="6.9042">
        <ele>360.8</ele>
        <time>2019-10-13T07:51:21Z</time>
      </trkpt>
      <trkpt lat="43.47891" lon="6.90413">
        <ele>361.6</ele>
        <time>2019-10-13T07:51:24Z</time>
      </trkpt>
      <trkpt lat="43.47896" lon="6.90397">
        <ele>362.8</ele>
        <time>2019-10-13T07:51:29Z</time>
      </trkpt>
      <trkpt lat="43.47902" lon="6.9038">
        <ele>363.8</ele>
        <time>2019-10-13T07:51:34Z</time>
      </trkpt>
      <trkpt lat="43.47903" lon="6.90378">
        <ele>364.2</ele>
        <time>2019-10-13T07:51:35Z</time>
      </trkpt>
      <trkpt lat="43.47906" lon="6.9037">
        <ele>364.8</ele>
        <time>2019-10-13T07:51:39Z</time>
      </trkpt>
      <trkpt lat="43.4791" lon="6.90364">
        <ele>365.2</ele>
        <time>2019-10-13T07:51:42Z</time>
      </trkpt>
      <trkpt lat="43.47911" lon="6.90363">
        <ele>365.2</ele>
        <time>2019-10-13T07:51:43Z</time>
      </trkpt>
      <trkpt lat="43.47912" lon="6.9036">
        <ele>365.6</ele>
        <time>2019-10-13T07:51:45Z</time>
      </trkpt>
      <trkpt lat="43.47913" lon="6.90359">
        <ele>365.6</ele>
        <time>2019-10-13T07:51:46Z</time>
      </trkpt>
      <trkpt lat="43.47914" lon="6.90359">
        <ele>365.8</ele>
        <time>2019-10-13T07:51:47Z</time>
      </trkpt>
      <trkpt lat="43.47914" lon="6.90359">
        <ele>366</ele>
        <time>2019-10-13T07:51:53Z</time>
      </trkpt>
      <trkpt lat="43.47914" lon="6.90358">
        <ele>366.4</ele>
        <time>2019-10-13T07:51:58Z</time>
      </trkpt>
      <trkpt lat="43.47914" lon="6.90358">
        <ele>366.2</ele>
        <time>2019-10-13T07:52:07Z</time>
      </trkpt>
      <trkpt lat="43.47914" lon="6.90357">
        <ele>366.6</ele>
        <time>2019-10-13T07:52:09Z</time>
      </trkpt>
      <trkpt lat="43.47917" lon="6.90351">
        <ele>366.6</ele>
        <time>2019-10-13T07:52:12Z</time>
      </trkpt>
      <trkpt lat="43.47923" lon="6.90346">
        <ele>367.2</ele>
        <time>2019-10-13T07:52:15Z</time>
      </trkpt>
      <trkpt lat="43.47929" lon="6.90341">
        <ele>368</ele>
        <time>2019-10-13T07:52:18Z</time>
      </trkpt>
      <trkpt lat="43.47933" lon="6.90338">
        <ele>368.6</ele>
        <time>2019-10-13T07:52:20Z</time>
      </trkpt>
      <trkpt lat="43.47933" lon="6.90336">
        <ele>368.8</ele>
        <time>2019-10-13T07:52:21Z</time>
      </trkpt>
      <trkpt lat="43.47932" lon="6.90333">
        <ele>368.6</ele>
        <time>2019-10-13T07:52:23Z</time>
      </trkpt>
      <trkpt lat="43.47932" lon="6.90331">
        <ele>369.8</ele>
        <time>2019-10-13T07:52:25Z</time>
      </trkpt>
      <trkpt lat="43.47931" lon="6.90329">
        <ele>370.2</ele>
        <time>2019-10-13T07:52:28Z</time>
      </trkpt>
      <trkpt lat="43.47927" lon="6.90324">
        <ele>370.6</ele>
        <time>2019-10-13T07:52:32Z</time>
      </trkpt>
      <trkpt lat="43.4792" lon="6.90316">
        <ele>369.6</ele>
        <time>2019-10-13T07:52:35Z</time>
      </trkpt>
      <trkpt lat="43.47904" lon="6.90314">
        <ele>369</ele>
        <time>2019-10-13T07:52:39Z</time>
      </trkpt>
      <trkpt lat="43.479" lon="6.90312">
        <ele>368.6</ele>
        <time>2019-10-13T07:52:40Z</time>
      </trkpt>
      <trkpt lat="43.47894" lon="6.90311">
        <ele>368.2</ele>
        <time>2019-10-13T07:52:41Z</time>
      </trkpt>
      <trkpt lat="43.47883" lon="6.90307">
        <ele>367.4</ele>
        <time>2019-10-13T07:52:43Z</time>
      </trkpt>
      <trkpt lat="43.47876" lon="6.90304">
        <ele>367</ele>
        <time>2019-10-13T07:52:44Z</time>
      </trkpt>
      <trkpt lat="43.47863" lon="6.90296">
        <ele>365.8</ele>
        <time>2019-10-13T07:52:46Z</time>
      </trkpt>
      <trkpt lat="43.47851" lon="6.9029">
        <ele>364.4</ele>
        <time>2019-10-13T07:52:48Z</time>
      </trkpt>
      <trkpt lat="43.47845" lon="6.9029">
        <ele>364.2</ele>
        <time>2019-10-13T07:52:49Z</time>
      </trkpt>
      <trkpt lat="43.47832" lon="6.90291">
        <ele>363.4</ele>
        <time>2019-10-13T07:52:51Z</time>
      </trkpt>
      <trkpt lat="43.47826" lon="6.90293">
        <ele>363</ele>
        <time>2019-10-13T07:52:52Z</time>
      </trkpt>
      <trkpt lat="43.47819" lon="6.90294">
        <ele>362.8</ele>
        <time>2019-10-13T07:52:53Z</time>
      </trkpt>
      <trkpt lat="43.47805" lon="6.90297">
        <ele>362</ele>
        <time>2019-10-13T07:52:55Z</time>
      </trkpt>
      <trkpt lat="43.47799" lon="6.90298">
        <ele>361.4</ele>
        <time>2019-10-13T07:52:56Z</time>
      </trkpt>
      <trkpt lat="43.47792" lon="6.90297">
        <ele>360.8</ele>
        <time>2019-10-13T07:52:57Z</time>
      </trkpt>
      <trkpt lat="43.47785" lon="6.90296">
        <ele>360.4</ele>
        <time>2019-10-13T07:52:58Z</time>
      </trkpt>
      <trkpt lat="43.47777" lon="6.90296">
        <ele>359.8</ele>
        <time>2019-10-13T07:52:59Z</time>
      </trkpt>
      <trkpt lat="43.4777" lon="6.90297">
        <ele>359.4</ele>
        <time>2019-10-13T07:53:00Z</time>
      </trkpt>
      <trkpt lat="43.47763" lon="6.90297">
        <ele>359.2</ele>
        <time>2019-10-13T07:53:01Z</time>
      </trkpt>
      <trkpt lat="43.47756" lon="6.90296">
        <ele>358.6</ele>
        <time>2019-10-13T07:53:02Z</time>
      </trkpt>
      <trkpt lat="43.47749" lon="6.90295">
        <ele>358</ele>
        <time>2019-10-13T07:53:03Z</time>
      </trkpt>
      <trkpt lat="43.47742" lon="6.90292">
        <ele>357.6</ele>
        <time>2019-10-13T07:53:04Z</time>
      </trkpt>
      <trkpt lat="43.4773" lon="6.90282">
        <ele>357</ele>
        <time>2019-10-13T07:53:06Z</time>
      </trkpt>
      <trkpt lat="43.47714" lon="6.90261">
        <ele>355.6</ele>
        <time>2019-10-13T07:53:10Z</time>
      </trkpt>
      <trkpt lat="43.47704" lon="6.90244">
        <ele>354.6</ele>
        <time>2019-10-13T07:53:14Z</time>
      </trkpt>
      <trkpt lat="43.47701" lon="6.90238">
        <ele>354.6</ele>
        <time>2019-10-13T07:53:15Z</time>
      </trkpt>
      <trkpt lat="43.47696" lon="6.90219">
        <ele>353.4</ele>
        <time>2019-10-13T07:53:18Z</time>
      </trkpt>
      <trkpt lat="43.47696" lon="6.90212">
        <ele>353</ele>
        <time>2019-10-13T07:53:19Z</time>
      </trkpt>
      <trkpt lat="43.47696" lon="6.90205">
        <ele>352.6</ele>
        <time>2019-10-13T07:53:20Z</time>
      </trkpt>
      <trkpt lat="43.47697" lon="6.90199">
        <ele>352.4</ele>
        <time>2019-10-13T07:53:21Z</time>
      </trkpt>
      <trkpt lat="43.47699" lon="6.90191">
        <ele>351.2</ele>
        <time>2019-10-13T07:53:23Z</time>
      </trkpt>
      <trkpt lat="43.477" lon="6.90184">
        <ele>350.6</ele>
        <time>2019-10-13T07:53:25Z</time>
      </trkpt>
      <trkpt lat="43.477" lon="6.90178">
        <ele>350.2</ele>
        <time>2019-10-13T07:53:27Z</time>
      </trkpt>
      <trkpt lat="43.47696" lon="6.90168">
        <ele>349.2</ele>
        <time>2019-10-13T07:53:31Z</time>
      </trkpt>
      <trkpt lat="43.47696" lon="6.90169">
        <ele>348.8</ele>
        <time>2019-10-13T07:53:32Z</time>
      </trkpt>
      <trkpt lat="43.47695" lon="6.90167">
        <ele>348.4</ele>
        <time>2019-10-13T07:53:35Z</time>
      </trkpt>
      <trkpt lat="43.47695" lon="6.90167">
        <ele>347.8</ele>
        <time>2019-10-13T07:53:41Z</time>
      </trkpt>
      <trkpt lat="43.47695" lon="6.90167">
        <ele>347.6</ele>
        <time>2019-10-13T07:53:47Z</time>
      </trkpt>
      <trkpt lat="43.47695" lon="6.90166">
        <ele>347.6</ele>
        <time>2019-10-13T07:53:52Z</time>
      </trkpt>
      <trkpt lat="43.47693" lon="6.9016">
        <ele>347.8</ele>
        <time>2019-10-13T07:53:54Z</time>
      </trkpt>
      <trkpt lat="43.4769" lon="6.90153">
        <ele>347.4</ele>
        <time>2019-10-13T07:53:56Z</time>
      </trkpt>
      <trkpt lat="43.47686" lon="6.90143">
        <ele>346.2</ele>
        <time>2019-10-13T07:53:58Z</time>
      </trkpt>
      <trkpt lat="43.47684" lon="6.90137">
        <ele>345.6</ele>
        <time>2019-10-13T07:53:59Z</time>
      </trkpt>
      <trkpt lat="43.4768" lon="6.90132">
        <ele>344.6</ele>
        <time>2019-10-13T07:54:00Z</time>
      </trkpt>
      <trkpt lat="43.47673" lon="6.90119">
        <ele>342.8</ele>
        <time>2019-10-13T07:54:02Z</time>
      </trkpt>
      <trkpt lat="43.4767" lon="6.90113">
        <ele>341.4</ele>
        <time>2019-10-13T07:54:03Z</time>
      </trkpt>
      <trkpt lat="43.47667" lon="6.90107">
        <ele>340.6</ele>
        <time>2019-10-13T07:54:04Z</time>
      </trkpt>
      <trkpt lat="43.47665" lon="6.90101">
        <ele>339.6</ele>
        <time>2019-10-13T07:54:05Z</time>
      </trkpt>
      <trkpt lat="43.4766" lon="6.90094">
        <ele>338.4</ele>
        <time>2019-10-13T07:54:07Z</time>
      </trkpt>
      <trkpt lat="43.47658" lon="6.9009">
        <ele>337.8</ele>
        <time>2019-10-13T07:54:08Z</time>
      </trkpt>
      <trkpt lat="43.47655" lon="6.90085">
        <ele>337.2</ele>
        <time>2019-10-13T07:54:09Z</time>
      </trkpt>
      <trkpt lat="43.47651" lon="6.90073">
        <ele>335.4</ele>
        <time>2019-10-13T07:54:11Z</time>
      </trkpt>
      <trkpt lat="43.47648" lon="6.90068">
        <ele>334.8</ele>
        <time>2019-10-13T07:54:12Z</time>
      </trkpt>
      <trkpt lat="43.47645" lon="6.90064">
        <ele>334.4</ele>
        <time>2019-10-13T07:54:13Z</time>
      </trkpt>
      <trkpt lat="43.47644" lon="6.90063">
        <ele>334.4</ele>
        <time>2019-10-13T07:54:15Z</time>
      </trkpt>
      <trkpt lat="43.47643" lon="6.90062">
        <ele>334.8</ele>
        <time>2019-10-13T07:54:26Z</time>
      </trkpt>
      <trkpt lat="43.47642" lon="6.9006">
        <ele>335</ele>
        <time>2019-10-13T07:54:42Z</time>
      </trkpt>
      <trkpt lat="43.47635" lon="6.90041">
        <ele>335</ele>
        <time>2019-10-13T07:54:46Z</time>
      </trkpt>
      <trkpt lat="43.47628" lon="6.90015">
        <ele>334.8</ele>
        <time>2019-10-13T07:54:50Z</time>
      </trkpt>
      <trkpt lat="43.47627" lon="6.90008">
        <ele>334.6</ele>
        <time>2019-10-13T07:54:51Z</time>
      </trkpt>
      <trkpt lat="43.47623" lon="6.89966">
        <ele>334.4</ele>
        <time>2019-10-13T07:54:57Z</time>
      </trkpt>
      <trkpt lat="43.47618" lon="6.89919">
        <ele>334.4</ele>
        <time>2019-10-13T07:55:04Z</time>
      </trkpt>
      <trkpt lat="43.47618" lon="6.89886">
        <ele>334.4</ele>
        <time>2019-10-13T07:55:09Z</time>
      </trkpt>
      <trkpt lat="43.47626" lon="6.89839">
        <ele>334.6</ele>
        <time>2019-10-13T07:55:15Z</time>
      </trkpt>
      <trkpt lat="43.47627" lon="6.89831">
        <ele>334.8</ele>
        <time>2019-10-13T07:55:16Z</time>
      </trkpt>
      <trkpt lat="43.47624" lon="6.8981">
        <ele>335</ele>
        <time>2019-10-13T07:55:19Z</time>
      </trkpt>
      <trkpt lat="43.47614" lon="6.89778">
        <ele>335.2</ele>
        <time>2019-10-13T07:55:24Z</time>
      </trkpt>
      <trkpt lat="43.47613" lon="6.89773">
        <ele>335</ele>
        <time>2019-10-13T07:55:25Z</time>
      </trkpt>
      <trkpt lat="43.47612" lon="6.89768">
        <ele>335.4</ele>
        <time>2019-10-13T07:55:26Z</time>
      </trkpt>
      <trkpt lat="43.4761" lon="6.89753">
        <ele>336.6</ele>
        <time>2019-10-13T07:55:29Z</time>
      </trkpt>
      <trkpt lat="43.47611" lon="6.89744">
        <ele>337.2</ele>
        <time>2019-10-13T07:55:31Z</time>
      </trkpt>
      <trkpt lat="43.47613" lon="6.89736">
        <ele>338</ele>
        <time>2019-10-13T07:55:33Z</time>
      </trkpt>
      <trkpt lat="43.47617" lon="6.89725">
        <ele>339.2</ele>
        <time>2019-10-13T07:55:36Z</time>
      </trkpt>
      <trkpt lat="43.47619" lon="6.89721">
        <ele>339.2</ele>
        <time>2019-10-13T07:55:37Z</time>
      </trkpt>
      <trkpt lat="43.47622" lon="6.89713">
        <ele>339</ele>
        <time>2019-10-13T07:55:41Z</time>
      </trkpt>
      <trkpt lat="43.47622" lon="6.89712">
        <ele>339</ele>
        <time>2019-10-13T07:55:51Z</time>
      </trkpt>
      <trkpt lat="43.47622" lon="6.89711">
        <ele>338.6</ele>
        <time>2019-10-13T07:56:07Z</time>
      </trkpt>
      <trkpt lat="43.47624" lon="6.89704">
        <ele>338.6</ele>
        <time>2019-10-13T07:56:09Z</time>
      </trkpt>
      <trkpt lat="43.47622" lon="6.89694">
        <ele>338.4</ele>
        <time>2019-10-13T07:56:11Z</time>
      </trkpt>
      <trkpt lat="43.47622" lon="6.89683">
        <ele>338.2</ele>
        <time>2019-10-13T07:56:13Z</time>
      </trkpt>
      <trkpt lat="43.47622" lon="6.89676">
        <ele>338</ele>
        <time>2019-10-13T07:56:15Z</time>
      </trkpt>
      <trkpt lat="43.47622" lon="6.89674">
        <ele>337.8</ele>
        <time>2019-10-13T07:56:18Z</time>
      </trkpt>
      <trkpt lat="43.47623" lon="6.89673">
        <ele>338.6</ele>
        <time>2019-10-13T07:56:22Z</time>
      </trkpt>
      <trkpt lat="43.47623" lon="6.8967">
        <ele>338.4</ele>
        <time>2019-10-13T07:56:24Z</time>
      </trkpt>
      <trkpt lat="43.4762" lon="6.89653">
        <ele>339.2</ele>
        <time>2019-10-13T07:56:30Z</time>
      </trkpt>
      <trkpt lat="43.4762" lon="6.89646">
        <ele>339.8</ele>
        <time>2019-10-13T07:56:32Z</time>
      </trkpt>
      <trkpt lat="43.47622" lon="6.89639">
        <ele>340.4</ele>
        <time>2019-10-13T07:56:34Z</time>
      </trkpt>
      <trkpt lat="43.47623" lon="6.89636">
        <ele>340.6</ele>
        <time>2019-10-13T07:56:35Z</time>
      </trkpt>
      <trkpt lat="43.47622" lon="6.8963">
        <ele>341.6</ele>
        <time>2019-10-13T07:56:38Z</time>
      </trkpt>
      <trkpt lat="43.47621" lon="6.89629">
        <ele>341.8</ele>
        <time>2019-10-13T07:56:39Z</time>
      </trkpt>
      <trkpt lat="43.47614" lon="6.89632">
        <ele>342</ele>
        <time>2019-10-13T07:56:43Z</time>
      </trkpt>
      <trkpt lat="43.47612" lon="6.89633">
        <ele>342.2</ele>
        <time>2019-10-13T07:56:44Z</time>
      </trkpt>
      <trkpt lat="43.47599" lon="6.89643">
        <ele>341</ele>
        <time>2019-10-13T07:56:48Z</time>
      </trkpt>
      <trkpt lat="43.4759" lon="6.89647">
        <ele>340.4</ele>
        <time>2019-10-13T07:56:50Z</time>
      </trkpt>
      <trkpt lat="43.47579" lon="6.89651">
        <ele>339.4</ele>
        <time>2019-10-13T07:56:52Z</time>
      </trkpt>
      <trkpt lat="43.47575" lon="6.89653">
        <ele>338.6</ele>
        <time>2019-10-13T07:56:53Z</time>
      </trkpt>
      <trkpt lat="43.47571" lon="6.89657">
        <ele>338</ele>
        <time>2019-10-13T07:56:54Z</time>
      </trkpt>
      <trkpt lat="43.47568" lon="6.89661">
        <ele>337.2</ele>
        <time>2019-10-13T07:56:55Z</time>
      </trkpt>
      <trkpt lat="43.47564" lon="6.89664">
        <ele>336.6</ele>
        <time>2019-10-13T07:56:56Z</time>
      </trkpt>
      <trkpt lat="43.4756" lon="6.89666">
        <ele>336</ele>
        <time>2019-10-13T07:56:57Z</time>
      </trkpt>
      <trkpt lat="43.47553" lon="6.89673">
        <ele>334.8</ele>
        <time>2019-10-13T07:56:59Z</time>
      </trkpt>
      <trkpt lat="43.47539" lon="6.89683">
        <ele>332.8</ele>
        <time>2019-10-13T07:57:02Z</time>
      </trkpt>
      <trkpt lat="43.47535" lon="6.89684">
        <ele>331.6</ele>
        <time>2019-10-13T07:57:03Z</time>
      </trkpt>
      <trkpt lat="43.4753" lon="6.89685">
        <ele>330.6</ele>
        <time>2019-10-13T07:57:04Z</time>
      </trkpt>
      <trkpt lat="43.4752" lon="6.89688">
        <ele>329.2</ele>
        <time>2019-10-13T07:57:06Z</time>
      </trkpt>
      <trkpt lat="43.47515" lon="6.89689">
        <ele>328.2</ele>
        <time>2019-10-13T07:57:07Z</time>
      </trkpt>
      <trkpt lat="43.47509" lon="6.89691">
        <ele>327.4</ele>
        <time>2019-10-13T07:57:08Z</time>
      </trkpt>
      <trkpt lat="43.47504" lon="6.89691">
        <ele>326.6</ele>
        <time>2019-10-13T07:57:09Z</time>
      </trkpt>
      <trkpt lat="43.475" lon="6.89691">
        <ele>325.8</ele>
        <time>2019-10-13T07:57:10Z</time>
      </trkpt>
      <trkpt lat="43.47496" lon="6.89692">
        <ele>325</ele>
        <time>2019-10-13T07:57:11Z</time>
      </trkpt>
      <trkpt lat="43.47492" lon="6.89692">
        <ele>323.6</ele>
        <time>2019-10-13T07:57:12Z</time>
      </trkpt>
      <trkpt lat="43.47489" lon="6.89694">
        <ele>323</ele>
        <time>2019-10-13T07:57:13Z</time>
      </trkpt>
      <trkpt lat="43.47487" lon="6.89693">
        <ele>322.4</ele>
        <time>2019-10-13T07:57:14Z</time>
      </trkpt>
      <trkpt lat="43.47487" lon="6.89688">
        <ele>321.2</ele>
        <time>2019-10-13T07:57:17Z</time>
      </trkpt>
      <trkpt lat="43.47497" lon="6.89675">
        <ele>319.6</ele>
        <time>2019-10-13T07:57:20Z</time>
      </trkpt>
      <trkpt lat="43.47501" lon="6.89669">
        <ele>318.6</ele>
        <time>2019-10-13T07:57:21Z</time>
      </trkpt>
      <trkpt lat="43.47505" lon="6.89664">
        <ele>317.6</ele>
        <time>2019-10-13T07:57:22Z</time>
      </trkpt>
      <trkpt lat="43.47514" lon="6.89651">
        <ele>315.8</ele>
        <time>2019-10-13T07:57:24Z</time>
      </trkpt>
      <trkpt lat="43.47518" lon="6.89644">
        <ele>314.8</ele>
        <time>2019-10-13T07:57:25Z</time>
      </trkpt>
      <trkpt lat="43.47522" lon="6.89636">
        <ele>314.2</ele>
        <time>2019-10-13T07:57:26Z</time>
      </trkpt>
      <trkpt lat="43.47529" lon="6.8962">
        <ele>312.4</ele>
        <time>2019-10-13T07:57:28Z</time>
      </trkpt>
      <trkpt lat="43.47535" lon="6.89608">
        <ele>310.8</ele>
        <time>2019-10-13T07:57:30Z</time>
      </trkpt>
      <trkpt lat="43.47542" lon="6.89599">
        <ele>309.4</ele>
        <time>2019-10-13T07:57:32Z</time>
      </trkpt>
      <trkpt lat="43.47547" lon="6.89586">
        <ele>308.2</ele>
        <time>2019-10-13T07:57:34Z</time>
      </trkpt>
      <trkpt lat="43.47552" lon="6.89573">
        <ele>305.2</ele>
        <time>2019-10-13T07:57:36Z</time>
      </trkpt>
      <trkpt lat="43.47555" lon="6.89566">
        <ele>304.2</ele>
        <time>2019-10-13T07:57:37Z</time>
      </trkpt>
      <trkpt lat="43.47556" lon="6.89559">
        <ele>303.2</ele>
        <time>2019-10-13T07:57:38Z</time>
      </trkpt>
      <trkpt lat="43.47558" lon="6.89552">
        <ele>302.4</ele>
        <time>2019-10-13T07:57:39Z</time>
      </trkpt>
      <trkpt lat="43.47562" lon="6.89535">
        <ele>300.8</ele>
        <time>2019-10-13T07:57:41Z</time>
      </trkpt>
      <trkpt lat="43.47564" lon="6.89529">
        <ele>299.8</ele>
        <time>2019-10-13T07:57:42Z</time>
      </trkpt>
      <trkpt lat="43.47565" lon="6.89525">
        <ele>299</ele>
        <time>2019-10-13T07:57:43Z</time>
      </trkpt>
      <trkpt lat="43.47566" lon="6.89521">
        <ele>297.6</ele>
        <time>2019-10-13T07:57:45Z</time>
      </trkpt>
      <trkpt lat="43.47565" lon="6.8952">
        <ele>297.2</ele>
        <time>2019-10-13T07:57:46Z</time>
      </trkpt>
      <trkpt lat="43.47565" lon="6.8952">
        <ele>296.6</ele>
        <time>2019-10-13T07:57:48Z</time>
      </trkpt>
      <trkpt lat="43.47564" lon="6.89522">
        <ele>296.2</ele>
        <time>2019-10-13T07:57:50Z</time>
      </trkpt>
      <trkpt lat="43.47554" lon="6.89535">
        <ele>295.2</ele>
        <time>2019-10-13T07:57:54Z</time>
      </trkpt>
      <trkpt lat="43.4755" lon="6.8954">
        <ele>294.8</ele>
        <time>2019-10-13T07:57:55Z</time>
      </trkpt>
      <trkpt lat="43.47546" lon="6.89546">
        <ele>294.2</ele>
        <time>2019-10-13T07:57:56Z</time>
      </trkpt>
      <trkpt lat="43.47537" lon="6.89554">
        <ele>292.6</ele>
        <time>2019-10-13T07:57:58Z</time>
      </trkpt>
      <trkpt lat="43.47527" lon="6.89563">
        <ele>290.2</ele>
        <time>2019-10-13T07:58:00Z</time>
      </trkpt>
      <trkpt lat="43.47516" lon="6.89574">
        <ele>288.6</ele>
        <time>2019-10-13T07:58:02Z</time>
      </trkpt>
      <trkpt lat="43.47509" lon="6.89579">
        <ele>287.8</ele>
        <time>2019-10-13T07:58:03Z</time>
      </trkpt>
      <trkpt lat="43.47503" lon="6.89583">
        <ele>287</ele>
        <time>2019-10-13T07:58:04Z</time>
      </trkpt>
      <trkpt lat="43.47491" lon="6.89589">
        <ele>285.4</ele>
        <time>2019-10-13T07:58:06Z</time>
      </trkpt>
      <trkpt lat="43.47482" lon="6.89592">
        <ele>284</ele>
        <time>2019-10-13T07:58:08Z</time>
      </trkpt>
      <trkpt lat="43.47478" lon="6.89594">
        <ele>283.6</ele>
        <time>2019-10-13T07:58:09Z</time>
      </trkpt>
      <trkpt lat="43.47473" lon="6.89596">
        <ele>283.2</ele>
        <time>2019-10-13T07:58:10Z</time>
      </trkpt>
      <trkpt lat="43.47469" lon="6.89599">
        <ele>282.6</ele>
        <time>2019-10-13T07:58:11Z</time>
      </trkpt>
      <trkpt lat="43.47459" lon="6.89605">
        <ele>281.4</ele>
        <time>2019-10-13T07:58:13Z</time>
      </trkpt>
      <trkpt lat="43.47453" lon="6.89607">
        <ele>280.8</ele>
        <time>2019-10-13T07:58:14Z</time>
      </trkpt>
      <trkpt lat="43.47447" lon="6.89609">
        <ele>280</ele>
        <time>2019-10-13T07:58:15Z</time>
      </trkpt>
      <trkpt lat="43.47435" lon="6.89611">
        <ele>278.6</ele>
        <time>2019-10-13T07:58:17Z</time>
      </trkpt>
      <trkpt lat="43.47424" lon="6.89613">
        <ele>277.4</ele>
        <time>2019-10-13T07:58:19Z</time>
      </trkpt>
      <trkpt lat="43.4742" lon="6.89615">
        <ele>276.8</ele>
        <time>2019-10-13T07:58:20Z</time>
      </trkpt>
      <trkpt lat="43.47412" lon="6.89619">
        <ele>276</ele>
        <time>2019-10-13T07:58:22Z</time>
      </trkpt>
      <trkpt lat="43.47409" lon="6.89621">
        <ele>275.8</ele>
        <time>2019-10-13T07:58:23Z</time>
      </trkpt>
      <trkpt lat="43.47398" lon="6.89625">
        <ele>276.8</ele>
        <time>2019-10-13T07:58:28Z</time>
      </trkpt>
      <trkpt lat="43.47396" lon="6.89626">
        <ele>277.2</ele>
        <time>2019-10-13T07:58:29Z</time>
      </trkpt>
      <trkpt lat="43.47385" lon="6.89627">
        <ele>278.2</ele>
        <time>2019-10-13T07:58:34Z</time>
      </trkpt>
      <trkpt lat="43.47373" lon="6.89622">
        <ele>279.4</ele>
        <time>2019-10-13T07:58:39Z</time>
      </trkpt>
      <trkpt lat="43.47371" lon="6.8962">
        <ele>279.6</ele>
        <time>2019-10-13T07:58:40Z</time>
      </trkpt>
      <trkpt lat="43.47366" lon="6.89612">
        <ele>280.2</ele>
        <time>2019-10-13T07:58:44Z</time>
      </trkpt>
      <trkpt lat="43.47365" lon="6.8961">
        <ele>280.4</ele>
        <time>2019-10-13T07:58:45Z</time>
      </trkpt>
      <trkpt lat="43.47361" lon="6.89605">
        <ele>281.6</ele>
        <time>2019-10-13T07:58:48Z</time>
      </trkpt>
      <trkpt lat="43.47358" lon="6.89601">
        <ele>282.2</ele>
        <time>2019-10-13T07:58:50Z</time>
      </trkpt>
      <trkpt lat="43.47355" lon="6.89597">
        <ele>282.8</ele>
        <time>2019-10-13T07:58:53Z</time>
      </trkpt>
      <trkpt lat="43.47355" lon="6.89595">
        <ele>282.8</ele>
        <time>2019-10-13T07:58:54Z</time>
      </trkpt>
      <trkpt lat="43.47352" lon="6.89591">
        <ele>283.6</ele>
        <time>2019-10-13T07:58:56Z</time>
      </trkpt>
      <trkpt lat="43.47351" lon="6.89588">
        <ele>283.8</ele>
        <time>2019-10-13T07:58:57Z</time>
      </trkpt>
      <trkpt lat="43.47346" lon="6.89578">
        <ele>284.2</ele>
        <time>2019-10-13T07:59:01Z</time>
      </trkpt>
      <trkpt lat="43.47344" lon="6.89571">
        <ele>285</ele>
        <time>2019-10-13T07:59:04Z</time>
      </trkpt>
      <trkpt lat="43.4734" lon="6.89563">
        <ele>285.6</ele>
        <time>2019-10-13T07:59:07Z</time>
      </trkpt>
      <trkpt lat="43.47337" lon="6.89557">
        <ele>286</ele>
        <time>2019-10-13T07:59:09Z</time>
      </trkpt>
      <trkpt lat="43.47331" lon="6.89546">
        <ele>286.8</ele>
        <time>2019-10-13T07:59:13Z</time>
      </trkpt>
      <trkpt lat="43.47329" lon="6.89543">
        <ele>287</ele>
        <time>2019-10-13T07:59:14Z</time>
      </trkpt>
      <trkpt lat="43.47323" lon="6.89536">
        <ele>287.8</ele>
        <time>2019-10-13T07:59:18Z</time>
      </trkpt>
      <trkpt lat="43.47319" lon="6.89535">
        <ele>288</ele>
        <time>2019-10-13T07:59:20Z</time>
      </trkpt>
      <trkpt lat="43.47318" lon="6.89535">
        <ele>288</ele>
        <time>2019-10-13T07:59:21Z</time>
      </trkpt>
      <trkpt lat="43.47316" lon="6.89539">
        <ele>288.2</ele>
        <time>2019-10-13T07:59:25Z</time>
      </trkpt>
      <trkpt lat="43.47315" lon="6.89545">
        <ele>288</ele>
        <time>2019-10-13T07:59:30Z</time>
      </trkpt>
      <trkpt lat="43.47315" lon="6.89545">
        <ele>287.8</ele>
        <time>2019-10-13T07:59:43Z</time>
      </trkpt>
      <trkpt lat="43.47315" lon="6.89545">
        <ele>287.8</ele>
        <time>2019-10-13T07:59:56Z</time>
      </trkpt>
      <trkpt lat="43.47312" lon="6.8955">
        <ele>287.4</ele>
        <time>2019-10-13T08:00:04Z</time>
      </trkpt>
      <trkpt lat="43.47305" lon="6.89563">
        <ele>287</ele>
        <time>2019-10-13T08:00:08Z</time>
      </trkpt>
      <trkpt lat="43.47303" lon="6.89565">
        <ele>286.8</ele>
        <time>2019-10-13T08:00:09Z</time>
      </trkpt>
      <trkpt lat="43.47299" lon="6.8957">
        <ele>285.8</ele>
        <time>2019-10-13T08:00:13Z</time>
      </trkpt>
      <trkpt lat="43.47299" lon="6.8957">
        <ele>285.8</ele>
        <time>2019-10-13T08:00:14Z</time>
      </trkpt>
      <trkpt lat="43.47299" lon="6.8957">
        <ele>285.6</ele>
        <time>2019-10-13T08:00:31Z</time>
      </trkpt>
      <trkpt lat="43.47292" lon="6.89579">
        <ele>285</ele>
        <time>2019-10-13T08:00:35Z</time>
      </trkpt>
      <trkpt lat="43.4729" lon="6.89582">
        <ele>285</ele>
        <time>2019-10-13T08:00:36Z</time>
      </trkpt>
      <trkpt lat="43.47287" lon="6.89585">
        <ele>284.8</ele>
        <time>2019-10-13T08:00:37Z</time>
      </trkpt>
      <trkpt lat="43.47276" lon="6.89599">
        <ele>284</ele>
        <time>2019-10-13T08:00:41Z</time>
      </trkpt>
      <trkpt lat="43.47273" lon="6.89602">
        <ele>283.6</ele>
        <time>2019-10-13T08:00:42Z</time>
      </trkpt>
      <trkpt lat="43.47266" lon="6.8961">
        <ele>282.8</ele>
        <time>2019-10-13T08:00:45Z</time>
      </trkpt>
      <trkpt lat="43.47262" lon="6.89613">
        <ele>282.6</ele>
        <time>2019-10-13T08:00:46Z</time>
      </trkpt>
      <trkpt lat="43.47255" lon="6.8962">
        <ele>281.2</ele>
        <time>2019-10-13T08:00:48Z</time>
      </trkpt>
      <trkpt lat="43.47252" lon="6.89624">
        <ele>280.6</ele>
        <time>2019-10-13T08:00:49Z</time>
      </trkpt>
      <trkpt lat="43.47249" lon="6.89628">
        <ele>280.2</ele>
        <time>2019-10-13T08:00:50Z</time>
      </trkpt>
      <trkpt lat="43.4724" lon="6.89641">
        <ele>279</ele>
        <time>2019-10-13T08:00:53Z</time>
      </trkpt>
      <trkpt lat="43.47234" lon="6.89646">
        <ele>278</ele>
        <time>2019-10-13T08:00:55Z</time>
      </trkpt>
      <trkpt lat="43.47232" lon="6.89648">
        <ele>277.6</ele>
        <time>2019-10-13T08:00:56Z</time>
      </trkpt>
      <trkpt lat="43.47229" lon="6.89652">
        <ele>276.4</ele>
        <time>2019-10-13T08:00:59Z</time>
      </trkpt>
      <trkpt lat="43.47221" lon="6.89662">
        <ele>275.8</ele>
        <time>2019-10-13T08:01:03Z</time>
      </trkpt>
      <trkpt lat="43.47216" lon="6.89668">
        <ele>275</ele>
        <time>2019-10-13T08:01:05Z</time>
      </trkpt>
      <trkpt lat="43.47209" lon="6.8968">
        <ele>273.8</ele>
        <time>2019-10-13T08:01:08Z</time>
      </trkpt>
      <trkpt lat="43.47202" lon="6.89696">
        <ele>272.2</ele>
        <time>2019-10-13T08:01:11Z</time>
      </trkpt>
      <trkpt lat="43.472" lon="6.89708">
        <ele>270.8</ele>
        <time>2019-10-13T08:01:13Z</time>
      </trkpt>
      <trkpt lat="43.47195" lon="6.89726">
        <ele>269.8</ele>
        <time>2019-10-13T08:01:16Z</time>
      </trkpt>
      <trkpt lat="43.47194" lon="6.89732">
        <ele>269.4</ele>
        <time>2019-10-13T08:01:17Z</time>
      </trkpt>
      <trkpt lat="43.47193" lon="6.89738">
        <ele>269</ele>
        <time>2019-10-13T08:01:18Z</time>
      </trkpt>
      <trkpt lat="43.47192" lon="6.89745">
        <ele>268.6</ele>
        <time>2019-10-13T08:01:19Z</time>
      </trkpt>
      <trkpt lat="43.47187" lon="6.89774">
        <ele>267.8</ele>
        <time>2019-10-13T08:01:23Z</time>
      </trkpt>
      <trkpt lat="43.47186" lon="6.89781">
        <ele>267.4</ele>
        <time>2019-10-13T08:01:24Z</time>
      </trkpt>
      <trkpt lat="43.47182" lon="6.89795">
        <ele>266.4</ele>
        <time>2019-10-13T08:01:27Z</time>
      </trkpt>
      <trkpt lat="43.47182" lon="6.89798">
        <ele>266.4</ele>
        <time>2019-10-13T08:01:28Z</time>
      </trkpt>
      <trkpt lat="43.47178" lon="6.89817">
        <ele>266.2</ele>
        <time>2019-10-13T08:01:32Z</time>
      </trkpt>
      <trkpt lat="43.47178" lon="6.89839">
        <ele>264.8</ele>
        <time>2019-10-13T08:01:36Z</time>
      </trkpt>
      <trkpt lat="43.4718" lon="6.89844">
        <ele>264.8</ele>
        <time>2019-10-13T08:01:37Z</time>
      </trkpt>
      <trkpt lat="43.4719" lon="6.89852">
        <ele>263.8</ele>
        <time>2019-10-13T08:01:41Z</time>
      </trkpt>
      <trkpt lat="43.47195" lon="6.89855">
        <ele>263.8</ele>
        <time>2019-10-13T08:01:43Z</time>
      </trkpt>
      <trkpt lat="43.47204" lon="6.89859">
        <ele>262.8</ele>
        <time>2019-10-13T08:01:46Z</time>
      </trkpt>
      <trkpt lat="43.47227" lon="6.89871">
        <ele>261.4</ele>
        <time>2019-10-13T08:01:51Z</time>
      </trkpt>
      <trkpt lat="43.47244" lon="6.89881">
        <ele>260</ele>
        <time>2019-10-13T08:01:54Z</time>
      </trkpt>
      <trkpt lat="43.47259" lon="6.89889">
        <ele>258.6</ele>
        <time>2019-10-13T08:01:57Z</time>
      </trkpt>
      <trkpt lat="43.47269" lon="6.89904">
        <ele>257.6</ele>
        <time>2019-10-13T08:02:00Z</time>
      </trkpt>
      <trkpt lat="43.47273" lon="6.89908">
        <ele>257.6</ele>
        <time>2019-10-13T08:02:01Z</time>
      </trkpt>
      <trkpt lat="43.47276" lon="6.89913">
        <ele>257.4</ele>
        <time>2019-10-13T08:02:02Z</time>
      </trkpt>
      <trkpt lat="43.47281" lon="6.89927">
        <ele>257.2</ele>
        <time>2019-10-13T08:02:05Z</time>
      </trkpt>
      <trkpt lat="43.47283" lon="6.89932">
        <ele>257</ele>
        <time>2019-10-13T08:02:06Z</time>
      </trkpt>
      <trkpt lat="43.47288" lon="6.89955">
        <ele>257.2</ele>
        <time>2019-10-13T08:02:11Z</time>
      </trkpt>
      <trkpt lat="43.47291" lon="6.89958">
        <ele>257.2</ele>
        <time>2019-10-13T08:02:12Z</time>
      </trkpt>
      <trkpt lat="43.47295" lon="6.89968">
        <ele>257.2</ele>
        <time>2019-10-13T08:02:14Z</time>
      </trkpt>
      <trkpt lat="43.473" lon="6.89999">
        <ele>256.6</ele>
        <time>2019-10-13T08:02:19Z</time>
      </trkpt>
      <trkpt lat="43.47301" lon="6.90006">
        <ele>256.4</ele>
        <time>2019-10-13T08:02:20Z</time>
      </trkpt>
      <trkpt lat="43.47307" lon="6.90025">
        <ele>256.2</ele>
        <time>2019-10-13T08:02:23Z</time>
      </trkpt>
      <trkpt lat="43.47309" lon="6.90031">
        <ele>256.2</ele>
        <time>2019-10-13T08:02:24Z</time>
      </trkpt>
      <trkpt lat="43.47316" lon="6.90049">
        <ele>256.4</ele>
        <time>2019-10-13T08:02:27Z</time>
      </trkpt>
      <trkpt lat="43.47325" lon="6.90055">
        <ele>256.2</ele>
        <time>2019-10-13T08:02:29Z</time>
      </trkpt>
      <trkpt lat="43.47339" lon="6.90069">
        <ele>256</ele>
        <time>2019-10-13T08:02:33Z</time>
      </trkpt>
      <trkpt lat="43.47335" lon="6.90088">
        <ele>256</ele>
        <time>2019-10-13T08:02:36Z</time>
      </trkpt>
      <trkpt lat="43.47334" lon="6.90094">
        <ele>256.2</ele>
        <time>2019-10-13T08:02:37Z</time>
      </trkpt>
      <trkpt lat="43.47337" lon="6.90106">
        <ele>256.2</ele>
        <time>2019-10-13T08:02:39Z</time>
      </trkpt>
      <trkpt lat="43.47342" lon="6.90116">
        <ele>255.6</ele>
        <time>2019-10-13T08:02:41Z</time>
      </trkpt>
      <trkpt lat="43.47344" lon="6.90122">
        <ele>255.6</ele>
        <time>2019-10-13T08:02:42Z</time>
      </trkpt>
      <trkpt lat="43.47347" lon="6.90127">
        <ele>255.6</ele>
        <time>2019-10-13T08:02:43Z</time>
      </trkpt>
      <trkpt lat="43.47354" lon="6.90138">
        <ele>255.8</ele>
        <time>2019-10-13T08:02:46Z</time>
      </trkpt>
      <trkpt lat="43.47354" lon="6.90144">
        <ele>255.8</ele>
        <time>2019-10-13T08:02:47Z</time>
      </trkpt>
      <trkpt lat="43.4735" lon="6.9015">
        <ele>255</ele>
        <time>2019-10-13T08:02:49Z</time>
      </trkpt>
      <trkpt lat="43.47348" lon="6.90152">
        <ele>254.8</ele>
        <time>2019-10-13T08:02:50Z</time>
      </trkpt>
      <trkpt lat="43.47335" lon="6.90156">
        <ele>254.6</ele>
        <time>2019-10-13T08:02:53Z</time>
      </trkpt>
      <trkpt lat="43.47324" lon="6.9016">
        <ele>254</ele>
        <time>2019-10-13T08:02:55Z</time>
      </trkpt>
      <trkpt lat="43.47317" lon="6.9017">
        <ele>253.4</ele>
        <time>2019-10-13T08:02:57Z</time>
      </trkpt>
      <trkpt lat="43.47305" lon="6.90179">
        <ele>252.8</ele>
        <time>2019-10-13T08:03:00Z</time>
      </trkpt>
      <trkpt lat="43.47292" lon="6.90172">
        <ele>252</ele>
        <time>2019-10-13T08:03:03Z</time>
      </trkpt>
      <trkpt lat="43.4728" lon="6.90177">
        <ele>251.6</ele>
        <time>2019-10-13T08:03:06Z</time>
      </trkpt>
      <trkpt lat="43.47276" lon="6.90179">
        <ele>251.6</ele>
        <time>2019-10-13T08:03:07Z</time>
      </trkpt>
      <trkpt lat="43.47248" lon="6.90195">
        <ele>250.8</ele>
        <time>2019-10-13T08:03:13Z</time>
      </trkpt>
      <trkpt lat="43.47238" lon="6.902">
        <ele>250.6</ele>
        <time>2019-10-13T08:03:15Z</time>
      </trkpt>
      <trkpt lat="43.47216" lon="6.90213">
        <ele>250</ele>
        <time>2019-10-13T08:03:20Z</time>
      </trkpt>
      <trkpt lat="43.47211" lon="6.90216">
        <ele>250.2</ele>
        <time>2019-10-13T08:03:21Z</time>
      </trkpt>
      <trkpt lat="43.47199" lon="6.90231">
        <ele>250.2</ele>
        <time>2019-10-13T08:03:24Z</time>
      </trkpt>
      <trkpt lat="43.47191" lon="6.90256">
        <ele>250.4</ele>
        <time>2019-10-13T08:03:28Z</time>
      </trkpt>
      <trkpt lat="43.4719" lon="6.90278">
        <ele>249.6</ele>
        <time>2019-10-13T08:03:31Z</time>
      </trkpt>
      <trkpt lat="43.4719" lon="6.90285">
        <ele>249.4</ele>
        <time>2019-10-13T08:03:32Z</time>
      </trkpt>
      <trkpt lat="43.4719" lon="6.90293">
        <ele>249.4</ele>
        <time>2019-10-13T08:03:33Z</time>
      </trkpt>
      <trkpt lat="43.47193" lon="6.90314">
        <ele>249.6</ele>
        <time>2019-10-13T08:03:36Z</time>
      </trkpt>
      <trkpt lat="43.47198" lon="6.90336">
        <ele>249.6</ele>
        <time>2019-10-13T08:03:39Z</time>
      </trkpt>
      <trkpt lat="43.47203" lon="6.90365">
        <ele>248.8</ele>
        <time>2019-10-13T08:03:43Z</time>
      </trkpt>
      <trkpt lat="43.47203" lon="6.90373">
        <ele>248.6</ele>
        <time>2019-10-13T08:03:44Z</time>
      </trkpt>
      <trkpt lat="43.47198" lon="6.9039">
        <ele>248.4</ele>
        <time>2019-10-13T08:03:47Z</time>
      </trkpt>
      <trkpt lat="43.47192" lon="6.90406">
        <ele>249</ele>
        <time>2019-10-13T08:03:50Z</time>
      </trkpt>
      <trkpt lat="43.4719" lon="6.90412">
        <ele>249</ele>
        <time>2019-10-13T08:03:51Z</time>
      </trkpt>
      <trkpt lat="43.47188" lon="6.90419">
        <ele>249.2</ele>
        <time>2019-10-13T08:03:53Z</time>
      </trkpt>
      <trkpt lat="43.47185" lon="6.90437">
        <ele>249.4</ele>
        <time>2019-10-13T08:03:57Z</time>
      </trkpt>
      <trkpt lat="43.47187" lon="6.90454">
        <ele>249.6</ele>
        <time>2019-10-13T08:04:01Z</time>
      </trkpt>
      <trkpt lat="43.47198" lon="6.9048">
        <ele>249.2</ele>
        <time>2019-10-13T08:04:05Z</time>
      </trkpt>
      <trkpt lat="43.47219" lon="6.90523">
        <ele>249.6</ele>
        <time>2019-10-13T08:04:11Z</time>
      </trkpt>
      <trkpt lat="43.47244" lon="6.9057">
        <ele>249.2</ele>
        <time>2019-10-13T08:04:18Z</time>
      </trkpt>
      <trkpt lat="43.47252" lon="6.90588">
        <ele>249.6</ele>
        <time>2019-10-13T08:04:21Z</time>
      </trkpt>
      <trkpt lat="43.47257" lon="6.90598">
        <ele>249.6</ele>
        <time>2019-10-13T08:04:23Z</time>
      </trkpt>
      <trkpt lat="43.47262" lon="6.90618">
        <ele>249.4</ele>
        <time>2019-10-13T08:04:27Z</time>
      </trkpt>
      <trkpt lat="43.47254" lon="6.90627">
        <ele>249</ele>
        <time>2019-10-13T08:04:31Z</time>
      </trkpt>
      <trkpt lat="43.47251" lon="6.9063">
        <ele>248.8</ele>
        <time>2019-10-13T08:04:32Z</time>
      </trkpt>
      <trkpt lat="43.47238" lon="6.90637">
        <ele>248.6</ele>
        <time>2019-10-13T08:04:36Z</time>
      </trkpt>
      <trkpt lat="43.4722" lon="6.90641">
        <ele>249.4</ele>
        <time>2019-10-13T08:04:41Z</time>
      </trkpt>
      <trkpt lat="43.47206" lon="6.90647">
        <ele>249</ele>
        <time>2019-10-13T08:04:44Z</time>
      </trkpt>
      <trkpt lat="43.47198" lon="6.90649">
        <ele>248.8</ele>
        <time>2019-10-13T08:04:46Z</time>
      </trkpt>
      <trkpt lat="43.47175" lon="6.90657">
        <ele>249</ele>
        <time>2019-10-13T08:04:51Z</time>
      </trkpt>
      <trkpt lat="43.47171" lon="6.90659">
        <ele>249</ele>
        <time>2019-10-13T08:04:52Z</time>
      </trkpt>
      <trkpt lat="43.47142" lon="6.90667">
        <ele>249.4</ele>
        <time>2019-10-13T08:04:58Z</time>
      </trkpt>
      <trkpt lat="43.47117" lon="6.90677">
        <ele>249.2</ele>
        <time>2019-10-13T08:05:03Z</time>
      </trkpt>
      <trkpt lat="43.47103" lon="6.90687">
        <ele>249.2</ele>
        <time>2019-10-13T08:05:06Z</time>
      </trkpt>
      <trkpt lat="43.47089" lon="6.90706">
        <ele>248.8</ele>
        <time>2019-10-13T08:05:10Z</time>
      </trkpt>
      <trkpt lat="43.47086" lon="6.90711">
        <ele>249</ele>
        <time>2019-10-13T08:05:11Z</time>
      </trkpt>
      <trkpt lat="43.47069" lon="6.90749">
        <ele>249.2</ele>
        <time>2019-10-13T08:05:17Z</time>
      </trkpt>
      <trkpt lat="43.47051" lon="6.9079">
        <ele>248.8</ele>
        <time>2019-10-13T08:05:24Z</time>
      </trkpt>
      <trkpt lat="43.47038" lon="6.90815">
        <ele>249.8</ele>
        <time>2019-10-13T08:05:30Z</time>
      </trkpt>
      <trkpt lat="43.47029" lon="6.90839">
        <ele>250.2</ele>
        <time>2019-10-13T08:05:36Z</time>
      </trkpt>
      <trkpt lat="43.47024" lon="6.90846">
        <ele>250.6</ele>
        <time>2019-10-13T08:05:38Z</time>
      </trkpt>
      <trkpt lat="43.47016" lon="6.90855">
        <ele>250.4</ele>
        <time>2019-10-13T08:05:41Z</time>
      </trkpt>
      <trkpt lat="43.47007" lon="6.9087">
        <ele>250.6</ele>
        <time>2019-10-13T08:05:46Z</time>
      </trkpt>
      <trkpt lat="43.47003" lon="6.9088">
        <ele>250.6</ele>
        <time>2019-10-13T08:05:50Z</time>
      </trkpt>
      <trkpt lat="43.47001" lon="6.90881">
        <ele>250.4</ele>
        <time>2019-10-13T08:05:51Z</time>
      </trkpt>
      <trkpt lat="43.46998" lon="6.90877">
        <ele>250.2</ele>
        <time>2019-10-13T08:05:56Z</time>
      </trkpt>
      <trkpt lat="43.46998" lon="6.90875">
        <ele>250</ele>
        <time>2019-10-13T08:05:57Z</time>
      </trkpt>
      <trkpt lat="43.47" lon="6.90868">
        <ele>249.6</ele>
        <time>2019-10-13T08:06:02Z</time>
      </trkpt>
      <trkpt lat="43.47" lon="6.90868">
        <ele>249.6</ele>
        <time>2019-10-13T08:06:03Z</time>
      </trkpt>
      <trkpt lat="43.47" lon="6.90868">
        <ele>250.2</ele>
        <time>2019-10-13T08:06:13Z</time>
      </trkpt>
      <trkpt lat="43.47" lon="6.90868">
        <ele>250.6</ele>
        <time>2019-10-13T08:06:18Z</time>
      </trkpt>
      <trkpt lat="43.47" lon="6.90868">
        <ele>251.4</ele>
        <time>2019-10-13T08:06:31Z</time>
      </trkpt>
      <trkpt lat="43.47" lon="6.90867">
        <ele>251</ele>
        <time>2019-10-13T08:06:35Z</time>
      </trkpt>
      <trkpt lat="43.46996" lon="6.90863">
        <ele>251</ele>
        <time>2019-10-13T08:06:37Z</time>
      </trkpt>
      <trkpt lat="43.46987" lon="6.90851">
        <ele>250.4</ele>
        <time>2019-10-13T08:06:40Z</time>
      </trkpt>
      <trkpt lat="43.46983" lon="6.90847">
        <ele>250.2</ele>
        <time>2019-10-13T08:06:41Z</time>
      </trkpt>
      <trkpt lat="43.46976" lon="6.90837">
        <ele>249.6</ele>
        <time>2019-10-13T08:06:43Z</time>
      </trkpt>
      <trkpt lat="43.46964" lon="6.90823">
        <ele>248.6</ele>
        <time>2019-10-13T08:06:46Z</time>
      </trkpt>
      <trkpt lat="43.46951" lon="6.90807">
        <ele>248</ele>
        <time>2019-10-13T08:06:49Z</time>
      </trkpt>
      <trkpt lat="43.46947" lon="6.90801">
        <ele>247</ele>
        <time>2019-10-13T08:06:50Z</time>
      </trkpt>
      <trkpt lat="43.46938" lon="6.90788">
        <ele>246</ele>
        <time>2019-10-13T08:06:52Z</time>
      </trkpt>
      <trkpt lat="43.46919" lon="6.90762">
        <ele>244.8</ele>
        <time>2019-10-13T08:06:56Z</time>
      </trkpt>
      <trkpt lat="43.46895" lon="6.90727">
        <ele>243.4</ele>
        <time>2019-10-13T08:07:01Z</time>
      </trkpt>
      <trkpt lat="43.46882" lon="6.90705">
        <ele>242.8</ele>
        <time>2019-10-13T08:07:04Z</time>
      </trkpt>
      <trkpt lat="43.46866" lon="6.90673">
        <ele>242.2</ele>
        <time>2019-10-13T08:07:08Z</time>
      </trkpt>
      <trkpt lat="43.46849" lon="6.90645">
        <ele>241.2</ele>
        <time>2019-10-13T08:07:12Z</time>
      </trkpt>
      <trkpt lat="43.46833" lon="6.90628">
        <ele>240.2</ele>
        <time>2019-10-13T08:07:15Z</time>
      </trkpt>
      <trkpt lat="43.46821" lon="6.90619">
        <ele>240</ele>
        <time>2019-10-13T08:07:17Z</time>
      </trkpt>
      <trkpt lat="43.46789" lon="6.90599">
        <ele>238.8</ele>
        <time>2019-10-13T08:07:22Z</time>
      </trkpt>
      <trkpt lat="43.46782" lon="6.90596">
        <ele>238.2</ele>
        <time>2019-10-13T08:07:23Z</time>
      </trkpt>
      <trkpt lat="43.46775" lon="6.90592">
        <ele>237.4</ele>
        <time>2019-10-13T08:07:24Z</time>
      </trkpt>
      <trkpt lat="43.46761" lon="6.90584">
        <ele>236.2</ele>
        <time>2019-10-13T08:07:26Z</time>
      </trkpt>
      <trkpt lat="43.46749" lon="6.90573">
        <ele>235.2</ele>
        <time>2019-10-13T08:07:28Z</time>
      </trkpt>
      <trkpt lat="43.46745" lon="6.90568">
        <ele>234.8</ele>
        <time>2019-10-13T08:07:29Z</time>
      </trkpt>
      <trkpt lat="43.46737" lon="6.90559">
        <ele>235</ele>
        <time>2019-10-13T08:07:32Z</time>
      </trkpt>
      <trkpt lat="43.46736" lon="6.90558">
        <ele>235.6</ele>
        <time>2019-10-13T08:07:36Z</time>
      </trkpt>
      <trkpt lat="43.46736" lon="6.90558">
        <ele>235.8</ele>
        <time>2019-10-13T08:07:46Z</time>
      </trkpt>
      <trkpt lat="43.46736" lon="6.90558">
        <ele>236.2</ele>
        <time>2019-10-13T08:07:50Z</time>
      </trkpt>
      <trkpt lat="43.46736" lon="6.90559">
        <ele>236.6</ele>
        <time>2019-10-13T08:07:55Z</time>
      </trkpt>
      <trkpt lat="43.46736" lon="6.90562">
        <ele>236.6</ele>
        <time>2019-10-13T08:07:56Z</time>
      </trkpt>
      <trkpt lat="43.46738" lon="6.90581">
        <ele>235</ele>
        <time>2019-10-13T08:08:00Z</time>
      </trkpt>
      <trkpt lat="43.46738" lon="6.90588">
        <ele>234.2</ele>
        <time>2019-10-13T08:08:01Z</time>
      </trkpt>
      <trkpt lat="43.46739" lon="6.90595">
        <ele>232.4</ele>
        <time>2019-10-13T08:08:02Z</time>
      </trkpt>
      <trkpt lat="43.46742" lon="6.90607">
        <ele>230.8</ele>
        <time>2019-10-13T08:08:04Z</time>
      </trkpt>
      <trkpt lat="43.46743" lon="6.90614">
        <ele>230.4</ele>
        <time>2019-10-13T08:08:05Z</time>
      </trkpt>
      <trkpt lat="43.46744" lon="6.90621">
        <ele>229.6</ele>
        <time>2019-10-13T08:08:06Z</time>
      </trkpt>
      <trkpt lat="43.46745" lon="6.90632">
        <ele>228.2</ele>
        <time>2019-10-13T08:08:08Z</time>
      </trkpt>
      <trkpt lat="43.46747" lon="6.90642">
        <ele>227.2</ele>
        <time>2019-10-13T08:08:10Z</time>
      </trkpt>
      <trkpt lat="43.46747" lon="6.90648">
        <ele>226.6</ele>
        <time>2019-10-13T08:08:11Z</time>
      </trkpt>
      <trkpt lat="43.46747" lon="6.90653">
        <ele>226.2</ele>
        <time>2019-10-13T08:08:12Z</time>
      </trkpt>
      <trkpt lat="43.46746" lon="6.90662">
        <ele>225.4</ele>
        <time>2019-10-13T08:08:14Z</time>
      </trkpt>
      <trkpt lat="43.46745" lon="6.90676">
        <ele>224</ele>
        <time>2019-10-13T08:08:17Z</time>
      </trkpt>
      <trkpt lat="43.46743" lon="6.90684">
        <ele>223</ele>
        <time>2019-10-13T08:08:20Z</time>
      </trkpt>
      <trkpt lat="43.46742" lon="6.90688">
        <ele>222.6</ele>
        <time>2019-10-13T08:08:21Z</time>
      </trkpt>
      <trkpt lat="43.46738" lon="6.90697">
        <ele>221.8</ele>
        <time>2019-10-13T08:08:23Z</time>
      </trkpt>
      <trkpt lat="43.4673" lon="6.90709">
        <ele>219.8</ele>
        <time>2019-10-13T08:08:26Z</time>
      </trkpt>
      <trkpt lat="43.46718" lon="6.90719">
        <ele>218.2</ele>
        <time>2019-10-13T08:08:29Z</time>
      </trkpt>
      <trkpt lat="43.46714" lon="6.90721">
        <ele>217.4</ele>
        <time>2019-10-13T08:08:30Z</time>
      </trkpt>
      <trkpt lat="43.46711" lon="6.90723">
        <ele>216.6</ele>
        <time>2019-10-13T08:08:31Z</time>
      </trkpt>
      <trkpt lat="43.46699" lon="6.90724">
        <ele>215.4</ele>
        <time>2019-10-13T08:08:34Z</time>
      </trkpt>
      <trkpt lat="43.46692" lon="6.90724">
        <ele>214.2</ele>
        <time>2019-10-13T08:08:36Z</time>
      </trkpt>
      <trkpt lat="43.4668" lon="6.90725">
        <ele>212.8</ele>
        <time>2019-10-13T08:08:39Z</time>
      </trkpt>
      <trkpt lat="43.46674" lon="6.90724">
        <ele>211.6</ele>
        <time>2019-10-13T08:08:41Z</time>
      </trkpt>
      <trkpt lat="43.4667" lon="6.90725">
        <ele>210.8</ele>
        <time>2019-10-13T08:08:43Z</time>
      </trkpt>
      <trkpt lat="43.46668" lon="6.90725">
        <ele>210.6</ele>
        <time>2019-10-13T08:08:44Z</time>
      </trkpt>
      <trkpt lat="43.46662" lon="6.90725">
        <ele>210</ele>
        <time>2019-10-13T08:08:46Z</time>
      </trkpt>
      <trkpt lat="43.46658" lon="6.90725">
        <ele>209.2</ele>
        <time>2019-10-13T08:08:48Z</time>
      </trkpt>
      <trkpt lat="43.46654" lon="6.90725">
        <ele>207.8</ele>
        <time>2019-10-13T08:08:50Z</time>
      </trkpt>
      <trkpt lat="43.46648" lon="6.90722">
        <ele>206.8</ele>
        <time>2019-10-13T08:08:52Z</time>
      </trkpt>
      <trkpt lat="43.46644" lon="6.90721">
        <ele>206.4</ele>
        <time>2019-10-13T08:08:53Z</time>
      </trkpt>
      <trkpt lat="43.46633" lon="6.90715">
        <ele>205.2</ele>
        <time>2019-10-13T08:08:56Z</time>
      </trkpt>
      <trkpt lat="43.46627" lon="6.9071">
        <ele>203.6</ele>
        <time>2019-10-13T08:08:58Z</time>
      </trkpt>
      <trkpt lat="43.4662" lon="6.90705">
        <ele>202.4</ele>
        <time>2019-10-13T08:09:00Z</time>
      </trkpt>
      <trkpt lat="43.4661" lon="6.90701">
        <ele>200.8</ele>
        <time>2019-10-13T08:09:03Z</time>
      </trkpt>
      <trkpt lat="43.46607" lon="6.907">
        <ele>200.4</ele>
        <time>2019-10-13T08:09:04Z</time>
      </trkpt>
      <trkpt lat="43.46603" lon="6.90698">
        <ele>199.8</ele>
        <time>2019-10-13T08:09:05Z</time>
      </trkpt>
      <trkpt lat="43.46598" lon="6.90697">
        <ele>199.2</ele>
        <time>2019-10-13T08:09:06Z</time>
      </trkpt>
      <trkpt lat="43.46588" lon="6.90694">
        <ele>198.4</ele>
        <time>2019-10-13T08:09:08Z</time>
      </trkpt>
      <trkpt lat="43.46582" lon="6.90693">
        <ele>198</ele>
        <time>2019-10-13T08:09:09Z</time>
      </trkpt>
      <trkpt lat="43.46578" lon="6.90693">
        <ele>197.6</ele>
        <time>2019-10-13T08:09:10Z</time>
      </trkpt>
      <trkpt lat="43.46573" lon="6.90693">
        <ele>197</ele>
        <time>2019-10-13T08:09:11Z</time>
      </trkpt>
      <trkpt lat="43.46566" lon="6.90694">
        <ele>196.2</ele>
        <time>2019-10-13T08:09:13Z</time>
      </trkpt>
      <trkpt lat="43.46562" lon="6.90694">
        <ele>195.4</ele>
        <time>2019-10-13T08:09:14Z</time>
      </trkpt>
      <trkpt lat="43.46554" lon="6.90693">
        <ele>194.4</ele>
        <time>2019-10-13T08:09:16Z</time>
      </trkpt>
      <trkpt lat="43.4655" lon="6.90693">
        <ele>193.8</ele>
        <time>2019-10-13T08:09:17Z</time>
      </trkpt>
      <trkpt lat="43.4654" lon="6.90692">
        <ele>192.8</ele>
        <time>2019-10-13T08:09:19Z</time>
      </trkpt>
      <trkpt lat="43.46535" lon="6.90692">
        <ele>191.8</ele>
        <time>2019-10-13T08:09:21Z</time>
      </trkpt>
      <trkpt lat="43.46525" lon="6.90692">
        <ele>190.6</ele>
        <time>2019-10-13T08:09:24Z</time>
      </trkpt>
      <trkpt lat="43.46517" lon="6.90693">
        <ele>189.4</ele>
        <time>2019-10-13T08:09:26Z</time>
      </trkpt>
      <trkpt lat="43.46508" lon="6.90695">
        <ele>188.4</ele>
        <time>2019-10-13T08:09:29Z</time>
      </trkpt>
      <trkpt lat="43.46505" lon="6.90696">
        <ele>188</ele>
        <time>2019-10-13T08:09:30Z</time>
      </trkpt>
      <trkpt lat="43.46498" lon="6.907">
        <ele>187</ele>
        <time>2019-10-13T08:09:32Z</time>
      </trkpt>
      <trkpt lat="43.46491" lon="6.90705">
        <ele>186.4</ele>
        <time>2019-10-13T08:09:34Z</time>
      </trkpt>
      <trkpt lat="43.46488" lon="6.90708">
        <ele>185.8</ele>
        <time>2019-10-13T08:09:35Z</time>
      </trkpt>
      <trkpt lat="43.46482" lon="6.90715">
        <ele>184.8</ele>
        <time>2019-10-13T08:09:37Z</time>
      </trkpt>
      <trkpt lat="43.46479" lon="6.90721">
        <ele>184</ele>
        <time>2019-10-13T08:09:39Z</time>
      </trkpt>
      <trkpt lat="43.46476" lon="6.90729">
        <ele>183.6</ele>
        <time>2019-10-13T08:09:41Z</time>
      </trkpt>
      <trkpt lat="43.46473" lon="6.90735">
        <ele>182.6</ele>
        <time>2019-10-13T08:09:43Z</time>
      </trkpt>
      <trkpt lat="43.4647" lon="6.9074">
        <ele>181.8</ele>
        <time>2019-10-13T08:09:45Z</time>
      </trkpt>
      <trkpt lat="43.46469" lon="6.90744">
        <ele>181.4</ele>
        <time>2019-10-13T08:09:46Z</time>
      </trkpt>
      <trkpt lat="43.46467" lon="6.9075">
        <ele>181</ele>
        <time>2019-10-13T08:09:47Z</time>
      </trkpt>
      <trkpt lat="43.46465" lon="6.90762">
        <ele>180.2</ele>
        <time>2019-10-13T08:09:49Z</time>
      </trkpt>
      <trkpt lat="43.46463" lon="6.90776">
        <ele>179</ele>
        <time>2019-10-13T08:09:51Z</time>
      </trkpt>
      <trkpt lat="43.46462" lon="6.90785">
        <ele>178.2</ele>
        <time>2019-10-13T08:09:52Z</time>
      </trkpt>
      <trkpt lat="43.46461" lon="6.90793">
        <ele>177</ele>
        <time>2019-10-13T08:09:53Z</time>
      </trkpt>
      <trkpt lat="43.4646" lon="6.90805">
        <ele>175.4</ele>
        <time>2019-10-13T08:09:55Z</time>
      </trkpt>
      <trkpt lat="43.4646" lon="6.90808">
        <ele>174.6</ele>
        <time>2019-10-13T08:09:56Z</time>
      </trkpt>
      <trkpt lat="43.4646" lon="6.90812">
        <ele>174</ele>
        <time>2019-10-13T08:09:57Z</time>
      </trkpt>
      <trkpt lat="43.46458" lon="6.90827">
        <ele>173</ele>
        <time>2019-10-13T08:10:00Z</time>
      </trkpt>
      <trkpt lat="43.46457" lon="6.90832">
        <ele>172.6</ele>
        <time>2019-10-13T08:10:01Z</time>
      </trkpt>
      <trkpt lat="43.46456" lon="6.90836">
        <ele>171.4</ele>
        <time>2019-10-13T08:10:02Z</time>
      </trkpt>
      <trkpt lat="43.46454" lon="6.9085">
        <ele>170</ele>
        <time>2019-10-13T08:10:05Z</time>
      </trkpt>
      <trkpt lat="43.46454" lon="6.90854">
        <ele>169.6</ele>
        <time>2019-10-13T08:10:06Z</time>
      </trkpt>
      <trkpt lat="43.46453" lon="6.90863">
        <ele>168.8</ele>
        <time>2019-10-13T08:10:08Z</time>
      </trkpt>
      <trkpt lat="43.46448" lon="6.90874">
        <ele>167.2</ele>
        <time>2019-10-13T08:10:11Z</time>
      </trkpt>
      <trkpt lat="43.46445" lon="6.90881">
        <ele>166</ele>
        <time>2019-10-13T08:10:13Z</time>
      </trkpt>
      <trkpt lat="43.46441" lon="6.90887">
        <ele>164.8</ele>
        <time>2019-10-13T08:10:15Z</time>
      </trkpt>
      <trkpt lat="43.4644" lon="6.90891">
        <ele>164</ele>
        <time>2019-10-13T08:10:16Z</time>
      </trkpt>
      <trkpt lat="43.46439" lon="6.90895">
        <ele>163.2</ele>
        <time>2019-10-13T08:10:17Z</time>
      </trkpt>
      <trkpt lat="43.46434" lon="6.90905">
        <ele>161.6</ele>
        <time>2019-10-13T08:10:19Z</time>
      </trkpt>
      <trkpt lat="43.46431" lon="6.90911">
        <ele>160.8</ele>
        <time>2019-10-13T08:10:20Z</time>
      </trkpt>
      <trkpt lat="43.46428" lon="6.90917">
        <ele>159.8</ele>
        <time>2019-10-13T08:10:21Z</time>
      </trkpt>
      <trkpt lat="43.46425" lon="6.90924">
        <ele>158.8</ele>
        <time>2019-10-13T08:10:22Z</time>
      </trkpt>
      <trkpt lat="43.46422" lon="6.9093">
        <ele>158</ele>
        <time>2019-10-13T08:10:23Z</time>
      </trkpt>
      <trkpt lat="43.46417" lon="6.90935">
        <ele>157.2</ele>
        <time>2019-10-13T08:10:24Z</time>
      </trkpt>
      <trkpt lat="43.46411" lon="6.90936">
        <ele>156.8</ele>
        <time>2019-10-13T08:10:25Z</time>
      </trkpt>
      <trkpt lat="43.46405" lon="6.90936">
        <ele>155.2</ele>
        <time>2019-10-13T08:10:26Z</time>
      </trkpt>
      <trkpt lat="43.46393" lon="6.90931">
        <ele>153.4</ele>
        <time>2019-10-13T08:10:28Z</time>
      </trkpt>
      <trkpt lat="43.46386" lon="6.90924">
        <ele>152</ele>
        <time>2019-10-13T08:10:30Z</time>
      </trkpt>
      <trkpt lat="43.46385" lon="6.9092">
        <ele>151.6</ele>
        <time>2019-10-13T08:10:31Z</time>
      </trkpt>
      <trkpt lat="43.46388" lon="6.9091">
        <ele>151.6</ele>
        <time>2019-10-13T08:10:35Z</time>
      </trkpt>
      <trkpt lat="43.46391" lon="6.90901">
        <ele>151</ele>
        <time>2019-10-13T08:10:38Z</time>
      </trkpt>
      <trkpt lat="43.46391" lon="6.90891">
        <ele>149.2</ele>
        <time>2019-10-13T08:10:40Z</time>
      </trkpt>
      <trkpt lat="43.4639" lon="6.90884">
        <ele>148.2</ele>
        <time>2019-10-13T08:10:41Z</time>
      </trkpt>
      <trkpt lat="43.46389" lon="6.90877">
        <ele>147</ele>
        <time>2019-10-13T08:10:42Z</time>
      </trkpt>
      <trkpt lat="43.46387" lon="6.90869">
        <ele>145.8</ele>
        <time>2019-10-13T08:10:43Z</time>
      </trkpt>
      <trkpt lat="43.46386" lon="6.9086">
        <ele>144.8</ele>
        <time>2019-10-13T08:10:44Z</time>
      </trkpt>
      <trkpt lat="43.46384" lon="6.9085">
        <ele>144</ele>
        <time>2019-10-13T08:10:45Z</time>
      </trkpt>
      <trkpt lat="43.46383" lon="6.90839">
        <ele>143.2</ele>
        <time>2019-10-13T08:10:46Z</time>
      </trkpt>
      <trkpt lat="43.46383" lon="6.90829">
        <ele>142.4</ele>
        <time>2019-10-13T08:10:47Z</time>
      </trkpt>
      <trkpt lat="43.46381" lon="6.90811">
        <ele>140.8</ele>
        <time>2019-10-13T08:10:49Z</time>
      </trkpt>
      <trkpt lat="43.46379" lon="6.90802">
        <ele>139.2</ele>
        <time>2019-10-13T08:10:50Z</time>
      </trkpt>
      <trkpt lat="43.46379" lon="6.90788">
        <ele>137.6</ele>
        <time>2019-10-13T08:10:52Z</time>
      </trkpt>
      <trkpt lat="43.46379" lon="6.90782">
        <ele>137</ele>
        <time>2019-10-13T08:10:53Z</time>
      </trkpt>
      <trkpt lat="43.46379" lon="6.90775">
        <ele>136.4</ele>
        <time>2019-10-13T08:10:54Z</time>
      </trkpt>
      <trkpt lat="43.46379" lon="6.90766">
        <ele>135.8</ele>
        <time>2019-10-13T08:10:55Z</time>
      </trkpt>
      <trkpt lat="43.46379" lon="6.90759">
        <ele>135</ele>
        <time>2019-10-13T08:10:56Z</time>
      </trkpt>
      <trkpt lat="43.46378" lon="6.90751">
        <ele>134.2</ele>
        <time>2019-10-13T08:10:57Z</time>
      </trkpt>
      <trkpt lat="43.46375" lon="6.90744">
        <ele>133.6</ele>
        <time>2019-10-13T08:10:58Z</time>
      </trkpt>
      <trkpt lat="43.4637" lon="6.90727">
        <ele>132.4</ele>
        <time>2019-10-13T08:11:00Z</time>
      </trkpt>
      <trkpt lat="43.4637" lon="6.90719">
        <ele>131.4</ele>
        <time>2019-10-13T08:11:01Z</time>
      </trkpt>
      <trkpt lat="43.46369" lon="6.9071">
        <ele>130.6</ele>
        <time>2019-10-13T08:11:02Z</time>
      </trkpt>
      <trkpt lat="43.46367" lon="6.90694">
        <ele>129</ele>
        <time>2019-10-13T08:11:04Z</time>
      </trkpt>
      <trkpt lat="43.46365" lon="6.90685">
        <ele>127.4</ele>
        <time>2019-10-13T08:11:06Z</time>
      </trkpt>
      <trkpt lat="43.46365" lon="6.90685">
        <ele>126.4</ele>
        <time>2019-10-13T08:11:09Z</time>
      </trkpt>
      <trkpt lat="43.46366" lon="6.90686">
        <ele>126.2</ele>
        <time>2019-10-13T08:11:10Z</time>
      </trkpt>
      <trkpt lat="43.46368" lon="6.90686">
        <ele>126</ele>
        <time>2019-10-13T08:11:11Z</time>
      </trkpt>
      <trkpt lat="43.46372" lon="6.90681">
        <ele>125.8</ele>
        <time>2019-10-13T08:11:13Z</time>
      </trkpt>
      <trkpt lat="43.46373" lon="6.90666">
        <ele>125.6</ele>
        <time>2019-10-13T08:11:16Z</time>
      </trkpt>
      <trkpt lat="43.4637" lon="6.90645">
        <ele>125</ele>
        <time>2019-10-13T08:11:19Z</time>
      </trkpt>
      <trkpt lat="43.46372" lon="6.90637">
        <ele>124.4</ele>
        <time>2019-10-13T08:11:20Z</time>
      </trkpt>
      <trkpt lat="43.46373" lon="6.9063">
        <ele>124.2</ele>
        <time>2019-10-13T08:11:21Z</time>
      </trkpt>
      <trkpt lat="43.46373" lon="6.90623">
        <ele>123.8</ele>
        <time>2019-10-13T08:11:22Z</time>
      </trkpt>
      <trkpt lat="43.46373" lon="6.90615">
        <ele>123.6</ele>
        <time>2019-10-13T08:11:23Z</time>
      </trkpt>
      <trkpt lat="43.46374" lon="6.90599">
        <ele>122.8</ele>
        <time>2019-10-13T08:11:25Z</time>
      </trkpt>
      <trkpt lat="43.46381" lon="6.90591">
        <ele>122.4</ele>
        <time>2019-10-13T08:11:27Z</time>
      </trkpt>
      <trkpt lat="43.46381" lon="6.90584">
        <ele>121.8</ele>
        <time>2019-10-13T08:11:29Z</time>
      </trkpt>
      <trkpt lat="43.4638" lon="6.90583">
        <ele>121.4</ele>
        <time>2019-10-13T08:11:30Z</time>
      </trkpt>
      <trkpt lat="43.46373" lon="6.90579">
        <ele>120.8</ele>
        <time>2019-10-13T08:11:33Z</time>
      </trkpt>
      <trkpt lat="43.4637" lon="6.90576">
        <ele>120.8</ele>
        <time>2019-10-13T08:11:34Z</time>
      </trkpt>
      <trkpt lat="43.46361" lon="6.90565">
        <ele>119.8</ele>
        <time>2019-10-13T08:11:38Z</time>
      </trkpt>
      <trkpt lat="43.46359" lon="6.90561">
        <ele>119.4</ele>
        <time>2019-10-13T08:11:39Z</time>
      </trkpt>
      <trkpt lat="43.46354" lon="6.90547">
        <ele>118.2</ele>
        <time>2019-10-13T08:11:43Z</time>
      </trkpt>
      <trkpt lat="43.4635" lon="6.90532">
        <ele>117.2</ele>
        <time>2019-10-13T08:11:49Z</time>
      </trkpt>
      <trkpt lat="43.46349" lon="6.90529">
        <ele>117</ele>
        <time>2019-10-13T08:11:50Z</time>
      </trkpt>
      <trkpt lat="43.46347" lon="6.90519">
        <ele>116.2</ele>
        <time>2019-10-13T08:11:55Z</time>
      </trkpt>
      <trkpt lat="43.46345" lon="6.90514">
        <ele>116</ele>
        <time>2019-10-13T08:12:00Z</time>
      </trkpt>
      <trkpt lat="43.46345" lon="6.90514">
        <ele>116</ele>
        <time>2019-10-13T08:12:06Z</time>
      </trkpt>
      <trkpt lat="43.46345" lon="6.90508">
        <ele>116</ele>
        <time>2019-10-13T08:12:17Z</time>
      </trkpt>
      <trkpt lat="43.46339" lon="6.90495">
        <ele>115.4</ele>
        <time>2019-10-13T08:12:23Z</time>
      </trkpt>
      <trkpt lat="43.46336" lon="6.90486">
        <ele>115.2</ele>
        <time>2019-10-13T08:12:26Z</time>
      </trkpt>
      <trkpt lat="43.46333" lon="6.90485">
        <ele>115</ele>
        <time>2019-10-13T08:12:27Z</time>
      </trkpt>
      <trkpt lat="43.4632" lon="6.90471">
        <ele>114.2</ele>
        <time>2019-10-13T08:12:31Z</time>
      </trkpt>
      <trkpt lat="43.46316" lon="6.90467">
        <ele>113.8</ele>
        <time>2019-10-13T08:12:32Z</time>
      </trkpt>
      <trkpt lat="43.46312" lon="6.90463">
        <ele>113.4</ele>
        <time>2019-10-13T08:12:33Z</time>
      </trkpt>
      <trkpt lat="43.46303" lon="6.90456">
        <ele>112.6</ele>
        <time>2019-10-13T08:12:35Z</time>
      </trkpt>
      <trkpt lat="43.46299" lon="6.90451">
        <ele>112.6</ele>
        <time>2019-10-13T08:12:36Z</time>
      </trkpt>
      <trkpt lat="43.4629" lon="6.90423">
        <ele>111.8</ele>
        <time>2019-10-13T08:12:40Z</time>
      </trkpt>
      <trkpt lat="43.46286" lon="6.90419">
        <ele>111.4</ele>
        <time>2019-10-13T08:12:41Z</time>
      </trkpt>
      <trkpt lat="43.46276" lon="6.90414">
        <ele>111</ele>
        <time>2019-10-13T08:12:43Z</time>
      </trkpt>
      <trkpt lat="43.46273" lon="6.9041">
        <ele>111</ele>
        <time>2019-10-13T08:12:44Z</time>
      </trkpt>
      <trkpt lat="43.46268" lon="6.90398">
        <ele>110.4</ele>
        <time>2019-10-13T08:12:46Z</time>
      </trkpt>
      <trkpt lat="43.46269" lon="6.90391">
        <ele>110</ele>
        <time>2019-10-13T08:12:47Z</time>
      </trkpt>
      <trkpt lat="43.46265" lon="6.90379">
        <ele>109.2</ele>
        <time>2019-10-13T08:12:49Z</time>
      </trkpt>
      <trkpt lat="43.46262" lon="6.90374">
        <ele>108.8</ele>
        <time>2019-10-13T08:12:50Z</time>
      </trkpt>
      <trkpt lat="43.46257" lon="6.90354">
        <ele>108.4</ele>
        <time>2019-10-13T08:12:53Z</time>
      </trkpt>
      <trkpt lat="43.46255" lon="6.90338">
        <ele>108.2</ele>
        <time>2019-10-13T08:12:55Z</time>
      </trkpt>
      <trkpt lat="43.46252" lon="6.90305">
        <ele>107.8</ele>
        <time>2019-10-13T08:12:59Z</time>
      </trkpt>
      <trkpt lat="43.46251" lon="6.90297">
        <ele>107.6</ele>
        <time>2019-10-13T08:13:00Z</time>
      </trkpt>
      <trkpt lat="43.46246" lon="6.90274">
        <ele>107.2</ele>
        <time>2019-10-13T08:13:03Z</time>
      </trkpt>
      <trkpt lat="43.46243" lon="6.90266">
        <ele>107.2</ele>
        <time>2019-10-13T08:13:04Z</time>
      </trkpt>
      <trkpt lat="43.46236" lon="6.90252">
        <ele>106.6</ele>
        <time>2019-10-13T08:13:06Z</time>
      </trkpt>
      <trkpt lat="43.46234" lon="6.90244">
        <ele>106.2</ele>
        <time>2019-10-13T08:13:07Z</time>
      </trkpt>
      <trkpt lat="43.4623" lon="6.90227">
        <ele>105.4</ele>
        <time>2019-10-13T08:13:09Z</time>
      </trkpt>
      <trkpt lat="43.46228" lon="6.90217">
        <ele>105</ele>
        <time>2019-10-13T08:13:10Z</time>
      </trkpt>
      <trkpt lat="43.46226" lon="6.90198">
        <ele>104.2</ele>
        <time>2019-10-13T08:13:12Z</time>
      </trkpt>
      <trkpt lat="43.46227" lon="6.90178">
        <ele>102.8</ele>
        <time>2019-10-13T08:13:14Z</time>
      </trkpt>
      <trkpt lat="43.46227" lon="6.90168">
        <ele>101.6</ele>
        <time>2019-10-13T08:13:15Z</time>
      </trkpt>
      <trkpt lat="43.46225" lon="6.90158">
        <ele>101</ele>
        <time>2019-10-13T08:13:16Z</time>
      </trkpt>
      <trkpt lat="43.46224" lon="6.90148">
        <ele>100.4</ele>
        <time>2019-10-13T08:13:17Z</time>
      </trkpt>
      <trkpt lat="43.4622" lon="6.90129">
        <ele>99.6</ele>
        <time>2019-10-13T08:13:19Z</time>
      </trkpt>
      <trkpt lat="43.46218" lon="6.9012">
        <ele>99</ele>
        <time>2019-10-13T08:13:20Z</time>
      </trkpt>
      <trkpt lat="43.46215" lon="6.90111">
        <ele>98.6</ele>
        <time>2019-10-13T08:13:21Z</time>
      </trkpt>
      <trkpt lat="43.46211" lon="6.90094">
        <ele>98</ele>
        <time>2019-10-13T08:13:23Z</time>
      </trkpt>
      <trkpt lat="43.46208" lon="6.90075">
        <ele>97.2</ele>
        <time>2019-10-13T08:13:25Z</time>
      </trkpt>
      <trkpt lat="43.46208" lon="6.90065">
        <ele>97</ele>
        <time>2019-10-13T08:13:26Z</time>
      </trkpt>
      <trkpt lat="43.46208" lon="6.90036">
        <ele>95.6</ele>
        <time>2019-10-13T08:13:29Z</time>
      </trkpt>
      <trkpt lat="43.46206" lon="6.90026">
        <ele>95</ele>
        <time>2019-10-13T08:13:30Z</time>
      </trkpt>
      <trkpt lat="43.46206" lon="6.90016">
        <ele>94.6</ele>
        <time>2019-10-13T08:13:31Z</time>
      </trkpt>
      <trkpt lat="43.46203" lon="6.89997">
        <ele>93.8</ele>
        <time>2019-10-13T08:13:33Z</time>
      </trkpt>
      <trkpt lat="43.46201" lon="6.89988">
        <ele>93.6</ele>
        <time>2019-10-13T08:13:34Z</time>
      </trkpt>
      <trkpt lat="43.46198" lon="6.89969">
        <ele>92.8</ele>
        <time>2019-10-13T08:13:36Z</time>
      </trkpt>
      <trkpt lat="43.46196" lon="6.8996">
        <ele>92.4</ele>
        <time>2019-10-13T08:13:37Z</time>
      </trkpt>
      <trkpt lat="43.46193" lon="6.89946">
        <ele>91.2</ele>
        <time>2019-10-13T08:13:39Z</time>
      </trkpt>
      <trkpt lat="43.46191" lon="6.89942">
        <ele>90.8</ele>
        <time>2019-10-13T08:13:40Z</time>
      </trkpt>
      <trkpt lat="43.46192" lon="6.89939">
        <ele>90.2</ele>
        <time>2019-10-13T08:13:41Z</time>
      </trkpt>
      <trkpt lat="43.46189" lon="6.89933">
        <ele>90</ele>
        <time>2019-10-13T08:13:43Z</time>
      </trkpt>
      <trkpt lat="43.46185" lon="6.8992">
        <ele>89.6</ele>
        <time>2019-10-13T08:13:45Z</time>
      </trkpt>
      <trkpt lat="43.46183" lon="6.89912">
        <ele>89.2</ele>
        <time>2019-10-13T08:13:46Z</time>
      </trkpt>
      <trkpt lat="43.46182" lon="6.89904">
        <ele>88.8</ele>
        <time>2019-10-13T08:13:47Z</time>
      </trkpt>
      <trkpt lat="43.46181" lon="6.89896">
        <ele>88.2</ele>
        <time>2019-10-13T08:13:48Z</time>
      </trkpt>
      <trkpt lat="43.4618" lon="6.89891">
        <ele>87.6</ele>
        <time>2019-10-13T08:13:49Z</time>
      </trkpt>
      <trkpt lat="43.46177" lon="6.89887">
        <ele>87.2</ele>
        <time>2019-10-13T08:13:50Z</time>
      </trkpt>
      <trkpt lat="43.46166" lon="6.8988">
        <ele>86.6</ele>
        <time>2019-10-13T08:13:53Z</time>
      </trkpt>
      <trkpt lat="43.46162" lon="6.89876">
        <ele>86.4</ele>
        <time>2019-10-13T08:13:54Z</time>
      </trkpt>
      <trkpt lat="43.46151" lon="6.89862">
        <ele>85.8</ele>
        <time>2019-10-13T08:13:57Z</time>
      </trkpt>
      <trkpt lat="43.46148" lon="6.89846">
        <ele>85.2</ele>
        <time>2019-10-13T08:13:59Z</time>
      </trkpt>
      <trkpt lat="43.46147" lon="6.89829">
        <ele>84.4</ele>
        <time>2019-10-13T08:14:01Z</time>
      </trkpt>
      <trkpt lat="43.46147" lon="6.8982">
        <ele>84</ele>
        <time>2019-10-13T08:14:02Z</time>
      </trkpt>
      <trkpt lat="43.46149" lon="6.89801">
        <ele>82.8</ele>
        <time>2019-10-13T08:14:04Z</time>
      </trkpt>
      <trkpt lat="43.46148" lon="6.89793">
        <ele>82.4</ele>
        <time>2019-10-13T08:14:05Z</time>
      </trkpt>
      <trkpt lat="43.46145" lon="6.89775">
        <ele>81.6</ele>
        <time>2019-10-13T08:14:07Z</time>
      </trkpt>
      <trkpt lat="43.46138" lon="6.89748">
        <ele>80.6</ele>
        <time>2019-10-13T08:14:10Z</time>
      </trkpt>
      <trkpt lat="43.46135" lon="6.8974">
        <ele>80</ele>
        <time>2019-10-13T08:14:11Z</time>
      </trkpt>
      <trkpt lat="43.4613" lon="6.89734">
        <ele>79.6</ele>
        <time>2019-10-13T08:14:12Z</time>
      </trkpt>
      <trkpt lat="43.4612" lon="6.89725">
        <ele>78.6</ele>
        <time>2019-10-13T08:14:14Z</time>
      </trkpt>
      <trkpt lat="43.46115" lon="6.8972">
        <ele>78.2</ele>
        <time>2019-10-13T08:14:15Z</time>
      </trkpt>
      <trkpt lat="43.46106" lon="6.89708">
        <ele>77.8</ele>
        <time>2019-10-13T08:14:17Z</time>
      </trkpt>
      <trkpt lat="43.46103" lon="6.897">
        <ele>78</ele>
        <time>2019-10-13T08:14:18Z</time>
      </trkpt>
      <trkpt lat="43.46095" lon="6.89684">
        <ele>77</ele>
        <time>2019-10-13T08:14:20Z</time>
      </trkpt>
      <trkpt lat="43.46091" lon="6.89676">
        <ele>76.4</ele>
        <time>2019-10-13T08:14:21Z</time>
      </trkpt>
      <trkpt lat="43.46087" lon="6.89657">
        <ele>75.8</ele>
        <time>2019-10-13T08:14:23Z</time>
      </trkpt>
      <trkpt lat="43.46086" lon="6.89647">
        <ele>75.8</ele>
        <time>2019-10-13T08:14:24Z</time>
      </trkpt>
      <trkpt lat="43.46084" lon="6.89628">
        <ele>74.8</ele>
        <time>2019-10-13T08:14:26Z</time>
      </trkpt>
      <trkpt lat="43.46084" lon="6.89612">
        <ele>73.6</ele>
        <time>2019-10-13T08:14:28Z</time>
      </trkpt>
      <trkpt lat="43.4608" lon="6.89586">
        <ele>72.4</ele>
        <time>2019-10-13T08:14:31Z</time>
      </trkpt>
      <trkpt lat="43.46076" lon="6.89569">
        <ele>71.8</ele>
        <time>2019-10-13T08:14:33Z</time>
      </trkpt>
      <trkpt lat="43.46072" lon="6.89543">
        <ele>71.4</ele>
        <time>2019-10-13T08:14:36Z</time>
      </trkpt>
      <trkpt lat="43.46073" lon="6.89526">
        <ele>71.4</ele>
        <time>2019-10-13T08:14:38Z</time>
      </trkpt>
      <trkpt lat="43.46073" lon="6.89518">
        <ele>71.4</ele>
        <time>2019-10-13T08:14:39Z</time>
      </trkpt>
      <trkpt lat="43.46069" lon="6.89478">
        <ele>71</ele>
        <time>2019-10-13T08:14:44Z</time>
      </trkpt>
      <trkpt lat="43.46061" lon="6.89439">
        <ele>71</ele>
        <time>2019-10-13T08:14:49Z</time>
      </trkpt>
      <trkpt lat="43.46061" lon="6.89432">
        <ele>71</ele>
        <time>2019-10-13T08:14:50Z</time>
      </trkpt>
      <trkpt lat="43.46071" lon="6.89408">
        <ele>71</ele>
        <time>2019-10-13T08:14:54Z</time>
      </trkpt>
      <trkpt lat="43.46071" lon="6.89394">
        <ele>71.2</ele>
        <time>2019-10-13T08:14:57Z</time>
      </trkpt>
      <trkpt lat="43.46059" lon="6.89384">
        <ele>71.4</ele>
        <time>2019-10-13T08:15:00Z</time>
      </trkpt>
      <trkpt lat="43.46058" lon="6.89364">
        <ele>71.6</ele>
        <time>2019-10-13T08:15:03Z</time>
      </trkpt>
      <trkpt lat="43.46061" lon="6.8935">
        <ele>71.6</ele>
        <time>2019-10-13T08:15:05Z</time>
      </trkpt>
      <trkpt lat="43.46065" lon="6.89329">
        <ele>71.6</ele>
        <time>2019-10-13T08:15:08Z</time>
      </trkpt>
      <trkpt lat="43.46072" lon="6.89308">
        <ele>71.4</ele>
        <time>2019-10-13T08:15:11Z</time>
      </trkpt>
      <trkpt lat="43.46077" lon="6.89299">
        <ele>71.2</ele>
        <time>2019-10-13T08:15:13Z</time>
      </trkpt>
      <trkpt lat="43.46078" lon="6.89297">
        <ele>71.8</ele>
        <time>2019-10-13T08:15:16Z</time>
      </trkpt>
      <trkpt lat="43.46078" lon="6.89297">
        <ele>71.8</ele>
        <time>2019-10-13T08:15:31Z</time>
      </trkpt>
      <trkpt lat="43.46079" lon="6.89296">
        <ele>72</ele>
        <time>2019-10-13T08:15:41Z</time>
      </trkpt>
      <trkpt lat="43.46083" lon="6.89293">
        <ele>72</ele>
        <time>2019-10-13T08:15:43Z</time>
      </trkpt>
      <trkpt lat="43.46091" lon="6.89291">
        <ele>71.6</ele>
        <time>2019-10-13T08:15:45Z</time>
      </trkpt>
      <trkpt lat="43.46097" lon="6.89291">
        <ele>71.6</ele>
        <time>2019-10-13T08:15:46Z</time>
      </trkpt>
      <trkpt lat="43.46118" lon="6.89285">
        <ele>71.4</ele>
        <time>2019-10-13T08:15:51Z</time>
      </trkpt>
      <trkpt lat="43.46119" lon="6.8928">
        <ele>71.4</ele>
        <time>2019-10-13T08:15:52Z</time>
      </trkpt>
      <trkpt lat="43.46111" lon="6.89271">
        <ele>71.4</ele>
        <time>2019-10-13T08:15:55Z</time>
      </trkpt>
      <trkpt lat="43.46107" lon="6.89269">
        <ele>71.4</ele>
        <time>2019-10-13T08:15:56Z</time>
      </trkpt>
      <trkpt lat="43.46099" lon="6.89263">
        <ele>71.6</ele>
        <time>2019-10-13T08:15:58Z</time>
      </trkpt>
      <trkpt lat="43.46092" lon="6.89254">
        <ele>71.6</ele>
        <time>2019-10-13T08:16:00Z</time>
      </trkpt>
      <trkpt lat="43.46085" lon="6.89244">
        <ele>71.6</ele>
        <time>2019-10-13T08:16:02Z</time>
      </trkpt>
      <trkpt lat="43.46086" lon="6.89231">
        <ele>71.8</ele>
        <time>2019-10-13T08:16:04Z</time>
      </trkpt>
      <trkpt lat="43.46087" lon="6.89226">
        <ele>71.8</ele>
        <time>2019-10-13T08:16:07Z</time>
      </trkpt>
      <trkpt lat="43.46087" lon="6.89227">
        <ele>72</ele>
        <time>2019-10-13T08:16:13Z</time>
      </trkpt>
      <trkpt lat="43.46086" lon="6.89229">
        <ele>71.8</ele>
        <time>2019-10-13T08:16:15Z</time>
      </trkpt>
      <trkpt lat="43.46086" lon="6.89229">
        <ele>72</ele>
        <time>2019-10-13T08:16:19Z</time>
      </trkpt>
      <trkpt lat="43.46086" lon="6.89229">
        <ele>71.8</ele>
        <time>2019-10-13T08:16:26Z</time>
      </trkpt>
      <trkpt lat="43.46086" lon="6.8923">
        <ele>71.6</ele>
        <time>2019-10-13T08:16:43Z</time>
      </trkpt>
      <trkpt lat="43.46088" lon="6.89223">
        <ele>72</ele>
        <time>2019-10-13T08:16:47Z</time>
      </trkpt>
      <trkpt lat="43.46091" lon="6.89205">
        <ele>71.8</ele>
        <time>2019-10-13T08:16:51Z</time>
      </trkpt>
      <trkpt lat="43.46088" lon="6.89185">
        <ele>72</ele>
        <time>2019-10-13T08:16:55Z</time>
      </trkpt>
      <trkpt lat="43.46087" lon="6.89169">
        <ele>72</ele>
        <time>2019-10-13T08:16:58Z</time>
      </trkpt>
      <trkpt lat="43.46089" lon="6.89157">
        <ele>71.8</ele>
        <time>2019-10-13T08:17:00Z</time>
      </trkpt>
      <trkpt lat="43.46091" lon="6.89145">
        <ele>71.8</ele>
        <time>2019-10-13T08:17:02Z</time>
      </trkpt>
      <trkpt lat="43.46091" lon="6.89146">
        <ele>71.8</ele>
        <time>2019-10-13T08:17:04Z</time>
      </trkpt>
      <trkpt lat="43.46091" lon="6.89149">
        <ele>71.8</ele>
        <time>2019-10-13T08:17:10Z</time>
      </trkpt>
      <trkpt lat="43.4609" lon="6.89149">
        <ele>71.6</ele>
        <time>2019-10-13T08:17:16Z</time>
      </trkpt>
      <trkpt lat="43.4609" lon="6.89149">
        <ele>71.6</ele>
        <time>2019-10-13T08:17:24Z</time>
      </trkpt>
      <trkpt lat="43.4609" lon="6.89149">
        <ele>71.4</ele>
        <time>2019-10-13T08:17:34Z</time>
      </trkpt>
      <trkpt lat="43.4609" lon="6.89149">
        <ele>71.2</ele>
        <time>2019-10-13T08:17:48Z</time>
      </trkpt>
      <trkpt lat="43.4609" lon="6.89147">
        <ele>71</ele>
        <time>2019-10-13T08:18:00Z</time>
      </trkpt>
      <trkpt lat="43.46091" lon="6.89145">
        <ele>71.2</ele>
        <time>2019-10-13T08:18:01Z</time>
      </trkpt>
      <trkpt lat="43.46096" lon="6.89124">
        <ele>70.8</ele>
        <time>2019-10-13T08:18:05Z</time>
      </trkpt>
      <trkpt lat="43.46101" lon="6.89106">
        <ele>70.2</ele>
        <time>2019-10-13T08:18:08Z</time>
      </trkpt>
      <trkpt lat="43.46111" lon="6.89078">
        <ele>70</ele>
        <time>2019-10-13T08:18:13Z</time>
      </trkpt>
      <trkpt lat="43.46122" lon="6.8906">
        <ele>69.8</ele>
        <time>2019-10-13T08:18:17Z</time>
      </trkpt>
      <trkpt lat="43.46122" lon="6.89055">
        <ele>69.8</ele>
        <time>2019-10-13T08:18:18Z</time>
      </trkpt>
      <trkpt lat="43.46116" lon="6.89048">
        <ele>69.6</ele>
        <time>2019-10-13T08:18:20Z</time>
      </trkpt>
      <trkpt lat="43.46109" lon="6.89043">
        <ele>69.4</ele>
        <time>2019-10-13T08:18:22Z</time>
      </trkpt>
      <trkpt lat="43.46105" lon="6.8904">
        <ele>69.6</ele>
        <time>2019-10-13T08:18:23Z</time>
      </trkpt>
      <trkpt lat="43.46102" lon="6.89036">
        <ele>69.6</ele>
        <time>2019-10-13T08:18:24Z</time>
      </trkpt>
      <trkpt lat="43.46092" lon="6.89016">
        <ele>69.4</ele>
        <time>2019-10-13T08:18:28Z</time>
      </trkpt>
      <trkpt lat="43.4609" lon="6.89011">
        <ele>69.4</ele>
        <time>2019-10-13T08:18:29Z</time>
      </trkpt>
      <trkpt lat="43.46087" lon="6.89006">
        <ele>69.4</ele>
        <time>2019-10-13T08:18:30Z</time>
      </trkpt>
      <trkpt lat="43.46084" lon="6.88994">
        <ele>69.2</ele>
        <time>2019-10-13T08:18:32Z</time>
      </trkpt>
      <trkpt lat="43.46081" lon="6.88983">
        <ele>69</ele>
        <time>2019-10-13T08:18:34Z</time>
      </trkpt>
      <trkpt lat="43.46077" lon="6.88958">
        <ele>68.8</ele>
        <time>2019-10-13T08:18:38Z</time>
      </trkpt>
      <trkpt lat="43.46075" lon="6.88933">
        <ele>68.4</ele>
        <time>2019-10-13T08:18:42Z</time>
      </trkpt>
      <trkpt lat="43.46075" lon="6.88926">
        <ele>68.4</ele>
        <time>2019-10-13T08:18:43Z</time>
      </trkpt>
      <trkpt lat="43.46069" lon="6.88902">
        <ele>68.4</ele>
        <time>2019-10-13T08:18:47Z</time>
      </trkpt>
      <trkpt lat="43.4606" lon="6.8888">
        <ele>68.2</ele>
        <time>2019-10-13T08:18:51Z</time>
      </trkpt>
      <trkpt lat="43.46059" lon="6.88874">
        <ele>68</ele>
        <time>2019-10-13T08:18:52Z</time>
      </trkpt>
      <trkpt lat="43.46053" lon="6.88857">
        <ele>67.6</ele>
        <time>2019-10-13T08:18:55Z</time>
      </trkpt>
      <trkpt lat="43.46044" lon="6.8884">
        <ele>67</ele>
        <time>2019-10-13T08:18:58Z</time>
      </trkpt>
      <trkpt lat="43.46041" lon="6.88835">
        <ele>66.8</ele>
        <time>2019-10-13T08:18:59Z</time>
      </trkpt>
      <trkpt lat="43.46036" lon="6.88831">
        <ele>66.6</ele>
        <time>2019-10-13T08:19:00Z</time>
      </trkpt>
      <trkpt lat="43.46023" lon="6.88813">
        <ele>66.2</ele>
        <time>2019-10-13T08:19:04Z</time>
      </trkpt>
      <trkpt lat="43.46021" lon="6.88807">
        <ele>66</ele>
        <time>2019-10-13T08:19:05Z</time>
      </trkpt>
      <trkpt lat="43.46018" lon="6.88795">
        <ele>66</ele>
        <time>2019-10-13T08:19:07Z</time>
      </trkpt>
      <trkpt lat="43.46017" lon="6.88789">
        <ele>66</ele>
        <time>2019-10-13T08:19:08Z</time>
      </trkpt>
      <trkpt lat="43.46016" lon="6.88782">
        <ele>65.8</ele>
        <time>2019-10-13T08:19:09Z</time>
      </trkpt>
      <trkpt lat="43.46015" lon="6.88763">
        <ele>66</ele>
        <time>2019-10-13T08:19:12Z</time>
      </trkpt>
      <trkpt lat="43.46015" lon="6.88756">
        <ele>66</ele>
        <time>2019-10-13T08:19:13Z</time>
      </trkpt>
      <trkpt lat="43.46015" lon="6.8875">
        <ele>66</ele>
        <time>2019-10-13T08:19:14Z</time>
      </trkpt>
      <trkpt lat="43.46014" lon="6.88731">
        <ele>66</ele>
        <time>2019-10-13T08:19:17Z</time>
      </trkpt>
      <trkpt lat="43.4601" lon="6.887">
        <ele>66.2</ele>
        <time>2019-10-13T08:19:22Z</time>
      </trkpt>
      <trkpt lat="43.46007" lon="6.88665">
        <ele>66</ele>
        <time>2019-10-13T08:19:27Z</time>
      </trkpt>
      <trkpt lat="43.46004" lon="6.88659">
        <ele>65.8</ele>
        <time>2019-10-13T08:19:28Z</time>
      </trkpt>
      <trkpt lat="43.46002" lon="6.88646">
        <ele>65.4</ele>
        <time>2019-10-13T08:19:30Z</time>
      </trkpt>
      <trkpt lat="43.45997" lon="6.88636">
        <ele>66</ele>
        <time>2019-10-13T08:19:32Z</time>
      </trkpt>
      <trkpt lat="43.45993" lon="6.88623">
        <ele>67.2</ele>
        <time>2019-10-13T08:19:35Z</time>
      </trkpt>
      <trkpt lat="43.45992" lon="6.88618">
        <ele>67.4</ele>
        <time>2019-10-13T08:19:36Z</time>
      </trkpt>
      <trkpt lat="43.4599" lon="6.88606">
        <ele>68.4</ele>
        <time>2019-10-13T08:19:39Z</time>
      </trkpt>
      <trkpt lat="43.45991" lon="6.88596">
        <ele>68.8</ele>
        <time>2019-10-13T08:19:41Z</time>
      </trkpt>
      <trkpt lat="43.45992" lon="6.88584">
        <ele>69.4</ele>
        <time>2019-10-13T08:19:44Z</time>
      </trkpt>
      <trkpt lat="43.4599" lon="6.88565">
        <ele>69.8</ele>
        <time>2019-10-13T08:19:48Z</time>
      </trkpt>
      <trkpt lat="43.45988" lon="6.88546">
        <ele>70.6</ele>
        <time>2019-10-13T08:19:52Z</time>
      </trkpt>
      <trkpt lat="43.45987" lon="6.8854">
        <ele>70.6</ele>
        <time>2019-10-13T08:19:53Z</time>
      </trkpt>
      <trkpt lat="43.45984" lon="6.88513">
        <ele>69.6</ele>
        <time>2019-10-13T08:19:57Z</time>
      </trkpt>
      <trkpt lat="43.45983" lon="6.88506">
        <ele>69.4</ele>
        <time>2019-10-13T08:19:58Z</time>
      </trkpt>
      <trkpt lat="43.45985" lon="6.88501">
        <ele>69</ele>
        <time>2019-10-13T08:19:59Z</time>
      </trkpt>
      <trkpt lat="43.45991" lon="6.88492">
        <ele>68.6</ele>
        <time>2019-10-13T08:20:01Z</time>
      </trkpt>
      <trkpt lat="43.45998" lon="6.88485">
        <ele>67.8</ele>
        <time>2019-10-13T08:20:03Z</time>
      </trkpt>
      <trkpt lat="43.46001" lon="6.88482">
        <ele>67.6</ele>
        <time>2019-10-13T08:20:04Z</time>
      </trkpt>
      <trkpt lat="43.46004" lon="6.88477">
        <ele>67.2</ele>
        <time>2019-10-13T08:20:06Z</time>
      </trkpt>
      <trkpt lat="43.46005" lon="6.88474">
        <ele>67</ele>
        <time>2019-10-13T08:20:10Z</time>
      </trkpt>
      <trkpt lat="43.46005" lon="6.88473">
        <ele>67.2</ele>
        <time>2019-10-13T08:20:17Z</time>
      </trkpt>
      <trkpt lat="43.46005" lon="6.88473">
        <ele>67</ele>
        <time>2019-10-13T08:20:27Z</time>
      </trkpt>
      <trkpt lat="43.46006" lon="6.88474">
        <ele>67</ele>
        <time>2019-10-13T08:20:43Z</time>
      </trkpt>
      <trkpt lat="43.46007" lon="6.88477">
        <ele>67</ele>
        <time>2019-10-13T08:20:45Z</time>
      </trkpt>
      <trkpt lat="43.46012" lon="6.88482">
        <ele>67</ele>
        <time>2019-10-13T08:20:47Z</time>
      </trkpt>
      <trkpt lat="43.46015" lon="6.88486">
        <ele>66.8</ele>
        <time>2019-10-13T08:20:48Z</time>
      </trkpt>
      <trkpt lat="43.46019" lon="6.88491">
        <ele>66.4</ele>
        <time>2019-10-13T08:20:49Z</time>
      </trkpt>
      <trkpt lat="43.46028" lon="6.88499">
        <ele>65.4</ele>
        <time>2019-10-13T08:20:51Z</time>
      </trkpt>
      <trkpt lat="43.46047" lon="6.88505">
        <ele>64.2</ele>
        <time>2019-10-13T08:20:54Z</time>
      </trkpt>
      <trkpt lat="43.46054" lon="6.88507">
        <ele>63.8</ele>
        <time>2019-10-13T08:20:55Z</time>
      </trkpt>
      <trkpt lat="43.4606" lon="6.8851">
        <ele>63.2</ele>
        <time>2019-10-13T08:20:56Z</time>
      </trkpt>
      <trkpt lat="43.4608" lon="6.88517">
        <ele>61.8</ele>
        <time>2019-10-13T08:20:59Z</time>
      </trkpt>
      <trkpt lat="43.46111" lon="6.88524">
        <ele>60.8</ele>
        <time>2019-10-13T08:21:04Z</time>
      </trkpt>
      <trkpt lat="43.46116" lon="6.88527">
        <ele>60.6</ele>
        <time>2019-10-13T08:21:05Z</time>
      </trkpt>
      <trkpt lat="43.46132" lon="6.88535">
        <ele>59.6</ele>
        <time>2019-10-13T08:21:08Z</time>
      </trkpt>
      <trkpt lat="43.46149" lon="6.88541">
        <ele>58.6</ele>
        <time>2019-10-13T08:21:11Z</time>
      </trkpt>
      <trkpt lat="43.46154" lon="6.88543">
        <ele>58.2</ele>
        <time>2019-10-13T08:21:12Z</time>
      </trkpt>
      <trkpt lat="43.46159" lon="6.88544">
        <ele>57.6</ele>
        <time>2019-10-13T08:21:13Z</time>
      </trkpt>
      <trkpt lat="43.46165" lon="6.88544">
        <ele>57.2</ele>
        <time>2019-10-13T08:21:14Z</time>
      </trkpt>
      <trkpt lat="43.46177" lon="6.88543">
        <ele>56.4</ele>
        <time>2019-10-13T08:21:16Z</time>
      </trkpt>
      <trkpt lat="43.46181" lon="6.88544">
        <ele>56</ele>
        <time>2019-10-13T08:21:17Z</time>
      </trkpt>
      <trkpt lat="43.46184" lon="6.88546">
        <ele>55.8</ele>
        <time>2019-10-13T08:21:19Z</time>
      </trkpt>
      <trkpt lat="43.46186" lon="6.88546">
        <ele>56</ele>
        <time>2019-10-13T08:21:20Z</time>
      </trkpt>
      <trkpt lat="43.46188" lon="6.88535">
        <ele>55.8</ele>
        <time>2019-10-13T08:21:23Z</time>
      </trkpt>
      <trkpt lat="43.46184" lon="6.88528">
        <ele>55.8</ele>
        <time>2019-10-13T08:21:26Z</time>
      </trkpt>
      <trkpt lat="43.46177" lon="6.88523">
        <ele>56</ele>
        <time>2019-10-13T08:21:28Z</time>
      </trkpt>
      <trkpt lat="43.46157" lon="6.88508">
        <ele>56.4</ele>
        <time>2019-10-13T08:21:33Z</time>
      </trkpt>
      <trkpt lat="43.46147" lon="6.88497">
        <ele>56.8</ele>
        <time>2019-10-13T08:21:37Z</time>
      </trkpt>
      <trkpt lat="43.46138" lon="6.88487">
        <ele>57.2</ele>
        <time>2019-10-13T08:21:40Z</time>
      </trkpt>
      <trkpt lat="43.46131" lon="6.88478">
        <ele>57.2</ele>
        <time>2019-10-13T08:21:42Z</time>
      </trkpt>
      <trkpt lat="43.46121" lon="6.88465">
        <ele>57.4</ele>
        <time>2019-10-13T08:21:45Z</time>
      </trkpt>
      <trkpt lat="43.46117" lon="6.88461">
        <ele>57.6</ele>
        <time>2019-10-13T08:21:46Z</time>
      </trkpt>
      <trkpt lat="43.46108" lon="6.88455">
        <ele>57.8</ele>
        <time>2019-10-13T08:21:48Z</time>
      </trkpt>
      <trkpt lat="43.46101" lon="6.88448">
        <ele>57.6</ele>
        <time>2019-10-13T08:21:50Z</time>
      </trkpt>
      <trkpt lat="43.46093" lon="6.88444">
        <ele>57.8</ele>
        <time>2019-10-13T08:21:52Z</time>
      </trkpt>
      <trkpt lat="43.46084" lon="6.88444">
        <ele>58</ele>
        <time>2019-10-13T08:21:54Z</time>
      </trkpt>
      <trkpt lat="43.46081" lon="6.88443">
        <ele>58.2</ele>
        <time>2019-10-13T08:21:55Z</time>
      </trkpt>
      <trkpt lat="43.46077" lon="6.88441">
        <ele>58.4</ele>
        <time>2019-10-13T08:21:56Z</time>
      </trkpt>
      <trkpt lat="43.46074" lon="6.88437">
        <ele>58.4</ele>
        <time>2019-10-13T08:21:57Z</time>
      </trkpt>
      <trkpt lat="43.46067" lon="6.8843">
        <ele>59</ele>
        <time>2019-10-13T08:21:59Z</time>
      </trkpt>
      <trkpt lat="43.46064" lon="6.88425">
        <ele>59</ele>
        <time>2019-10-13T08:22:00Z</time>
      </trkpt>
      <trkpt lat="43.46059" lon="6.88416">
        <ele>58.8</ele>
        <time>2019-10-13T08:22:02Z</time>
      </trkpt>
      <trkpt lat="43.46056" lon="6.88411">
        <ele>58.6</ele>
        <time>2019-10-13T08:22:03Z</time>
      </trkpt>
      <trkpt lat="43.4605" lon="6.88396">
        <ele>58.6</ele>
        <time>2019-10-13T08:22:06Z</time>
      </trkpt>
      <trkpt lat="43.46038" lon="6.88384">
        <ele>59.2</ele>
        <time>2019-10-13T08:22:10Z</time>
      </trkpt>
      <trkpt lat="43.46025" lon="6.88385">
        <ele>59.4</ele>
        <time>2019-10-13T08:22:13Z</time>
      </trkpt>
      <trkpt lat="43.4602" lon="6.88386">
        <ele>59.6</ele>
        <time>2019-10-13T08:22:14Z</time>
      </trkpt>
      <trkpt lat="43.46016" lon="6.88385">
        <ele>59.8</ele>
        <time>2019-10-13T08:22:15Z</time>
      </trkpt>
      <trkpt lat="43.45999" lon="6.88378">
        <ele>59.8</ele>
        <time>2019-10-13T08:22:19Z</time>
      </trkpt>
      <trkpt lat="43.45995" lon="6.88375">
        <ele>59.8</ele>
        <time>2019-10-13T08:22:20Z</time>
      </trkpt>
      <trkpt lat="43.45984" lon="6.88365">
        <ele>60.2</ele>
        <time>2019-10-13T08:22:23Z</time>
      </trkpt>
      <trkpt lat="43.45978" lon="6.88357">
        <ele>60.4</ele>
        <time>2019-10-13T08:22:25Z</time>
      </trkpt>
      <trkpt lat="43.45978" lon="6.88351">
        <ele>60.8</ele>
        <time>2019-10-13T08:22:26Z</time>
      </trkpt>
      <trkpt lat="43.45979" lon="6.88337">
        <ele>61</ele>
        <time>2019-10-13T08:22:28Z</time>
      </trkpt>
      <trkpt lat="43.45983" lon="6.88312">
        <ele>59.4</ele>
        <time>2019-10-13T08:22:31Z</time>
      </trkpt>
      <trkpt lat="43.45984" lon="6.88303">
        <ele>58.8</ele>
        <time>2019-10-13T08:22:32Z</time>
      </trkpt>
      <trkpt lat="43.45985" lon="6.88294">
        <ele>58.4</ele>
        <time>2019-10-13T08:22:33Z</time>
      </trkpt>
      <trkpt lat="43.45989" lon="6.88276">
        <ele>57.2</ele>
        <time>2019-10-13T08:22:35Z</time>
      </trkpt>
      <trkpt lat="43.45992" lon="6.88258">
        <ele>56.4</ele>
        <time>2019-10-13T08:22:37Z</time>
      </trkpt>
      <trkpt lat="43.45992" lon="6.8825">
        <ele>56</ele>
        <time>2019-10-13T08:22:38Z</time>
      </trkpt>
      <trkpt lat="43.45991" lon="6.88224">
        <ele>54.6</ele>
        <time>2019-10-13T08:22:41Z</time>
      </trkpt>
      <trkpt lat="43.4599" lon="6.88204">
        <ele>52.6</ele>
        <time>2019-10-13T08:22:43Z</time>
      </trkpt>
      <trkpt lat="43.45989" lon="6.88194">
        <ele>51.8</ele>
        <time>2019-10-13T08:22:44Z</time>
      </trkpt>
      <trkpt lat="43.45988" lon="6.88185">
        <ele>51</ele>
        <time>2019-10-13T08:22:45Z</time>
      </trkpt>
      <trkpt lat="43.4599" lon="6.88164">
        <ele>49.4</ele>
        <time>2019-10-13T08:22:47Z</time>
      </trkpt>
      <trkpt lat="43.45992" lon="6.88143">
        <ele>47.8</ele>
        <time>2019-10-13T08:22:49Z</time>
      </trkpt>
      <trkpt lat="43.45993" lon="6.88122">
        <ele>46.2</ele>
        <time>2019-10-13T08:22:51Z</time>
      </trkpt>
      <trkpt lat="43.45992" lon="6.88104">
        <ele>45.4</ele>
        <time>2019-10-13T08:22:53Z</time>
      </trkpt>
      <trkpt lat="43.45992" lon="6.88095">
        <ele>45</ele>
        <time>2019-10-13T08:22:54Z</time>
      </trkpt>
      <trkpt lat="43.45992" lon="6.88076">
        <ele>43.8</ele>
        <time>2019-10-13T08:22:56Z</time>
      </trkpt>
      <trkpt lat="43.45993" lon="6.88066">
        <ele>43.2</ele>
        <time>2019-10-13T08:22:57Z</time>
      </trkpt>
      <trkpt lat="43.45995" lon="6.88057">
        <ele>42.4</ele>
        <time>2019-10-13T08:22:58Z</time>
      </trkpt>
      <trkpt lat="43.45993" lon="6.88038">
        <ele>41</ele>
        <time>2019-10-13T08:23:00Z</time>
      </trkpt>
      <trkpt lat="43.45992" lon="6.88029">
        <ele>40.4</ele>
        <time>2019-10-13T08:23:01Z</time>
      </trkpt>
      <trkpt lat="43.45993" lon="6.8802">
        <ele>40</ele>
        <time>2019-10-13T08:23:02Z</time>
      </trkpt>
      <trkpt lat="43.45994" lon="6.88011">
        <ele>39.8</ele>
        <time>2019-10-13T08:23:03Z</time>
      </trkpt>
      <trkpt lat="43.45994" lon="6.87993">
        <ele>38.8</ele>
        <time>2019-10-13T08:23:05Z</time>
      </trkpt>
      <trkpt lat="43.45995" lon="6.87984">
        <ele>38.4</ele>
        <time>2019-10-13T08:23:06Z</time>
      </trkpt>
      <trkpt lat="43.45998" lon="6.87979">
        <ele>38</ele>
        <time>2019-10-13T08:23:07Z</time>
      </trkpt>
      <trkpt lat="43.46002" lon="6.87976">
        <ele>37.4</ele>
        <time>2019-10-13T08:23:08Z</time>
      </trkpt>
      <trkpt lat="43.46008" lon="6.87976">
        <ele>37</ele>
        <time>2019-10-13T08:23:09Z</time>
      </trkpt>
      <trkpt lat="43.46021" lon="6.8798">
        <ele>36.2</ele>
        <time>2019-10-13T08:23:11Z</time>
      </trkpt>
      <trkpt lat="43.46029" lon="6.87981">
        <ele>35.8</ele>
        <time>2019-10-13T08:23:12Z</time>
      </trkpt>
      <trkpt lat="43.46037" lon="6.87981">
        <ele>35.2</ele>
        <time>2019-10-13T08:23:13Z</time>
      </trkpt>
      <trkpt lat="43.46044" lon="6.87981">
        <ele>34.8</ele>
        <time>2019-10-13T08:23:14Z</time>
      </trkpt>
      <trkpt lat="43.46058" lon="6.87978">
        <ele>33.6</ele>
        <time>2019-10-13T08:23:16Z</time>
      </trkpt>
      <trkpt lat="43.46071" lon="6.87972">
        <ele>32.4</ele>
        <time>2019-10-13T08:23:18Z</time>
      </trkpt>
      <trkpt lat="43.46084" lon="6.87968">
        <ele>31.4</ele>
        <time>2019-10-13T08:23:20Z</time>
      </trkpt>
      <trkpt lat="43.46088" lon="6.87962">
        <ele>30.8</ele>
        <time>2019-10-13T08:23:21Z</time>
      </trkpt>
      <trkpt lat="43.46092" lon="6.87957">
        <ele>30.4</ele>
        <time>2019-10-13T08:23:22Z</time>
      </trkpt>
      <trkpt lat="43.46103" lon="6.87943">
        <ele>29.4</ele>
        <time>2019-10-13T08:23:25Z</time>
      </trkpt>
      <trkpt lat="43.46107" lon="6.87938">
        <ele>28.8</ele>
        <time>2019-10-13T08:23:26Z</time>
      </trkpt>
      <trkpt lat="43.46114" lon="6.87926">
        <ele>27.8</ele>
        <time>2019-10-13T08:23:28Z</time>
      </trkpt>
      <trkpt lat="43.46117" lon="6.8792">
        <ele>27.4</ele>
        <time>2019-10-13T08:23:29Z</time>
      </trkpt>
      <trkpt lat="43.46122" lon="6.87906">
        <ele>26.6</ele>
        <time>2019-10-13T08:23:31Z</time>
      </trkpt>
      <trkpt lat="43.46127" lon="6.8789">
        <ele>25.4</ele>
        <time>2019-10-13T08:23:33Z</time>
      </trkpt>
      <trkpt lat="43.4613" lon="6.87881">
        <ele>24.8</ele>
        <time>2019-10-13T08:23:34Z</time>
      </trkpt>
      <trkpt lat="43.46133" lon="6.87873">
        <ele>24.2</ele>
        <time>2019-10-13T08:23:35Z</time>
      </trkpt>
      <trkpt lat="43.46139" lon="6.87856">
        <ele>23</ele>
        <time>2019-10-13T08:23:37Z</time>
      </trkpt>
      <trkpt lat="43.46145" lon="6.87844">
        <ele>22</ele>
        <time>2019-10-13T08:23:39Z</time>
      </trkpt>
      <trkpt lat="43.46148" lon="6.8784">
        <ele>21.4</ele>
        <time>2019-10-13T08:23:40Z</time>
      </trkpt>
      <trkpt lat="43.46154" lon="6.87829">
        <ele>20.8</ele>
        <time>2019-10-13T08:23:43Z</time>
      </trkpt>
      <trkpt lat="43.46155" lon="6.87827">
        <ele>20.4</ele>
        <time>2019-10-13T08:23:44Z</time>
      </trkpt>
      <trkpt lat="43.46155" lon="6.87825">
        <ele>20.2</ele>
        <time>2019-10-13T08:23:45Z</time>
      </trkpt>
      <trkpt lat="43.46151" lon="6.87823">
        <ele>19.8</ele>
        <time>2019-10-13T08:23:47Z</time>
      </trkpt>
      <trkpt lat="43.46149" lon="6.87824">
        <ele>19.4</ele>
        <time>2019-10-13T08:23:48Z</time>
      </trkpt>
      <trkpt lat="43.46144" lon="6.87826">
        <ele>19.2</ele>
        <time>2019-10-13T08:23:49Z</time>
      </trkpt>
      <trkpt lat="43.46139" lon="6.87829">
        <ele>18.8</ele>
        <time>2019-10-13T08:23:50Z</time>
      </trkpt>
      <trkpt lat="43.46134" lon="6.87834">
        <ele>18.4</ele>
        <time>2019-10-13T08:23:51Z</time>
      </trkpt>
      <trkpt lat="43.46125" lon="6.87847">
        <ele>17</ele>
        <time>2019-10-13T08:23:53Z</time>
      </trkpt>
      <trkpt lat="43.46118" lon="6.87863">
        <ele>15.4</ele>
        <time>2019-10-13T08:23:55Z</time>
      </trkpt>
      <trkpt lat="43.4611" lon="6.87878">
        <ele>13.8</ele>
        <time>2019-10-13T08:23:57Z</time>
      </trkpt>
      <trkpt lat="43.46104" lon="6.87884">
        <ele>13</ele>
        <time>2019-10-13T08:23:58Z</time>
      </trkpt>
      <trkpt lat="43.46098" lon="6.87888">
        <ele>12.2</ele>
        <time>2019-10-13T08:23:59Z</time>
      </trkpt>
      <trkpt lat="43.46088" lon="6.87895">
        <ele>11.6</ele>
        <time>2019-10-13T08:24:01Z</time>
      </trkpt>
      <trkpt lat="43.46076" lon="6.87899">
        <ele>13.4</ele>
        <time>2019-10-13T08:24:04Z</time>
      </trkpt>
      <trkpt lat="43.46072" lon="6.87899">
        <ele>13.8</ele>
        <time>2019-10-13T08:24:05Z</time>
      </trkpt>
      <trkpt lat="43.46064" lon="6.87898">
        <ele>14.6</ele>
        <time>2019-10-13T08:24:07Z</time>
      </trkpt>
      <trkpt lat="43.46053" lon="6.87895">
        <ele>15.6</ele>
        <time>2019-10-13T08:24:10Z</time>
      </trkpt>
      <trkpt lat="43.46051" lon="6.87892">
        <ele>15.8</ele>
        <time>2019-10-13T08:24:11Z</time>
      </trkpt>
      <trkpt lat="43.46043" lon="6.87874">
        <ele>17</ele>
        <time>2019-10-13T08:24:15Z</time>
      </trkpt>
      <trkpt lat="43.46043" lon="6.87864">
        <ele>17.6</ele>
        <time>2019-10-13T08:24:17Z</time>
      </trkpt>
      <trkpt lat="43.46041" lon="6.87849">
        <ele>18</ele>
        <time>2019-10-13T08:24:20Z</time>
      </trkpt>
      <trkpt lat="43.4604" lon="6.87844">
        <ele>18.2</ele>
        <time>2019-10-13T08:24:21Z</time>
      </trkpt>
      <trkpt lat="43.4603" lon="6.87819">
        <ele>19</ele>
        <time>2019-10-13T08:24:27Z</time>
      </trkpt>
      <trkpt lat="43.46027" lon="6.87816">
        <ele>19.2</ele>
        <time>2019-10-13T08:24:28Z</time>
      </trkpt>
      <trkpt lat="43.46017" lon="6.87797">
        <ele>19.8</ele>
        <time>2019-10-13T08:24:33Z</time>
      </trkpt>
      <trkpt lat="43.46009" lon="6.87779">
        <ele>20.2</ele>
        <time>2019-10-13T08:24:37Z</time>
      </trkpt>
      <trkpt lat="43.46005" lon="6.8777">
        <ele>20.6</ele>
        <time>2019-10-13T08:24:39Z</time>
      </trkpt>
      <trkpt lat="43.45995" lon="6.87753">
        <ele>21.4</ele>
        <time>2019-10-13T08:24:43Z</time>
      </trkpt>
      <trkpt lat="43.4599" lon="6.87745">
        <ele>21.6</ele>
        <time>2019-10-13T08:24:45Z</time>
      </trkpt>
      <trkpt lat="43.45975" lon="6.87718">
        <ele>22.4</ele>
        <time>2019-10-13T08:24:51Z</time>
      </trkpt>
      <trkpt lat="43.45968" lon="6.87706">
        <ele>22.8</ele>
        <time>2019-10-13T08:24:54Z</time>
      </trkpt>
      <trkpt lat="43.45954" lon="6.87687">
        <ele>23.4</ele>
        <time>2019-10-13T08:24:59Z</time>
      </trkpt>
      <trkpt lat="43.45945" lon="6.87675">
        <ele>23.6</ele>
        <time>2019-10-13T08:25:02Z</time>
      </trkpt>
      <trkpt lat="43.45933" lon="6.87648">
        <ele>24.2</ele>
        <time>2019-10-13T08:25:08Z</time>
      </trkpt>
      <trkpt lat="43.4593" lon="6.87638">
        <ele>24.4</ele>
        <time>2019-10-13T08:25:10Z</time>
      </trkpt>
      <trkpt lat="43.45918" lon="6.87616">
        <ele>25</ele>
        <time>2019-10-13T08:25:15Z</time>
      </trkpt>
      <trkpt lat="43.45907" lon="6.876">
        <ele>25.4</ele>
        <time>2019-10-13T08:25:19Z</time>
      </trkpt>
      <trkpt lat="43.45901" lon="6.87594">
        <ele>25.8</ele>
        <time>2019-10-13T08:25:21Z</time>
      </trkpt>
      <trkpt lat="43.45881" lon="6.87586">
        <ele>26.4</ele>
        <time>2019-10-13T08:25:26Z</time>
      </trkpt>
      <trkpt lat="43.45877" lon="6.87586">
        <ele>26.6</ele>
        <time>2019-10-13T08:25:27Z</time>
      </trkpt>
      <trkpt lat="43.45855" lon="6.8758">
        <ele>27.6</ele>
        <time>2019-10-13T08:25:32Z</time>
      </trkpt>
      <trkpt lat="43.45846" lon="6.87579">
        <ele>28.2</ele>
        <time>2019-10-13T08:25:34Z</time>
      </trkpt>
      <trkpt lat="43.45842" lon="6.87578">
        <ele>28.4</ele>
        <time>2019-10-13T08:25:35Z</time>
      </trkpt>
      <trkpt lat="43.45838" lon="6.87577">
        <ele>28.6</ele>
        <time>2019-10-13T08:25:36Z</time>
      </trkpt>
      <trkpt lat="43.4583" lon="6.87573">
        <ele>28.8</ele>
        <time>2019-10-13T08:25:38Z</time>
      </trkpt>
      <trkpt lat="43.45822" lon="6.87567">
        <ele>29.6</ele>
        <time>2019-10-13T08:25:40Z</time>
      </trkpt>
      <trkpt lat="43.45819" lon="6.87563">
        <ele>29.8</ele>
        <time>2019-10-13T08:25:41Z</time>
      </trkpt>
      <trkpt lat="43.45811" lon="6.87549">
        <ele>29.6</ele>
        <time>2019-10-13T08:25:44Z</time>
      </trkpt>
      <trkpt lat="43.45809" lon="6.87544">
        <ele>29.8</ele>
        <time>2019-10-13T08:25:45Z</time>
      </trkpt>
      <trkpt lat="43.45794" lon="6.8751">
        <ele>30.8</ele>
        <time>2019-10-13T08:25:52Z</time>
      </trkpt>
      <trkpt lat="43.45792" lon="6.87504">
        <ele>31</ele>
        <time>2019-10-13T08:25:53Z</time>
      </trkpt>
      <trkpt lat="43.45782" lon="6.8747">
        <ele>31.8</ele>
        <time>2019-10-13T08:25:59Z</time>
      </trkpt>
      <trkpt lat="43.4578" lon="6.87465">
        <ele>31.8</ele>
        <time>2019-10-13T08:26:00Z</time>
      </trkpt>
      <trkpt lat="43.45778" lon="6.87459">
        <ele>32</ele>
        <time>2019-10-13T08:26:01Z</time>
      </trkpt>
      <trkpt lat="43.45767" lon="6.87427">
        <ele>33.2</ele>
        <time>2019-10-13T08:26:07Z</time>
      </trkpt>
      <trkpt lat="43.45763" lon="6.87416">
        <ele>33.6</ele>
        <time>2019-10-13T08:26:09Z</time>
      </trkpt>
      <trkpt lat="43.45751" lon="6.87378">
        <ele>34.4</ele>
        <time>2019-10-13T08:26:16Z</time>
      </trkpt>
      <trkpt lat="43.45749" lon="6.87373">
        <ele>34.4</ele>
        <time>2019-10-13T08:26:17Z</time>
      </trkpt>
      <trkpt lat="43.45745" lon="6.87362">
        <ele>34.6</ele>
        <time>2019-10-13T08:26:19Z</time>
      </trkpt>
      <trkpt lat="43.45734" lon="6.87353">
        <ele>35.2</ele>
        <time>2019-10-13T08:26:22Z</time>
      </trkpt>
      <trkpt lat="43.45725" lon="6.87351">
        <ele>35.4</ele>
        <time>2019-10-13T08:26:24Z</time>
      </trkpt>
      <trkpt lat="43.45712" lon="6.87347">
        <ele>35.2</ele>
        <time>2019-10-13T08:26:27Z</time>
      </trkpt>
      <trkpt lat="43.45708" lon="6.87346">
        <ele>35.4</ele>
        <time>2019-10-13T08:26:28Z</time>
      </trkpt>
      <trkpt lat="43.45699" lon="6.8734">
        <ele>36</ele>
        <time>2019-10-13T08:26:30Z</time>
      </trkpt>
      <trkpt lat="43.45693" lon="6.87329">
        <ele>36.2</ele>
        <time>2019-10-13T08:26:32Z</time>
      </trkpt>
      <trkpt lat="43.4569" lon="6.87307">
        <ele>35.8</ele>
        <time>2019-10-13T08:26:35Z</time>
      </trkpt>
      <trkpt lat="43.45682" lon="6.8724">
        <ele>35.2</ele>
        <time>2019-10-13T08:26:44Z</time>
      </trkpt>
      <trkpt lat="43.45675" lon="6.87184">
        <ele>35.2</ele>
        <time>2019-10-13T08:26:52Z</time>
      </trkpt>
      <trkpt lat="43.45668" lon="6.87118">
        <ele>35</ele>
        <time>2019-10-13T08:27:01Z</time>
      </trkpt>
      <trkpt lat="43.45662" lon="6.8706">
        <ele>34.8</ele>
        <time>2019-10-13T08:27:09Z</time>
      </trkpt>
      <trkpt lat="43.4566" lon="6.87035">
        <ele>35</ele>
        <time>2019-10-13T08:27:14Z</time>
      </trkpt>
      <trkpt lat="43.45661" lon="6.87031">
        <ele>35.2</ele>
        <time>2019-10-13T08:27:16Z</time>
      </trkpt>
      <trkpt lat="43.45659" lon="6.87034">
        <ele>35.2</ele>
        <time>2019-10-13T08:27:18Z</time>
      </trkpt>
      <trkpt lat="43.45661" lon="6.87045">
        <ele>35.2</ele>
        <time>2019-10-13T08:27:22Z</time>
      </trkpt>
      <trkpt lat="43.45656" lon="6.87045">
        <ele>35</ele>
        <time>2019-10-13T08:27:25Z</time>
      </trkpt>
      <trkpt lat="43.45649" lon="6.87032">
        <ele>34.2</ele>
        <time>2019-10-13T08:27:28Z</time>
      </trkpt>
      <trkpt lat="43.45644" lon="6.87022">
        <ele>33.2</ele>
        <time>2019-10-13T08:27:30Z</time>
      </trkpt>
      <trkpt lat="43.45642" lon="6.87017">
        <ele>32.8</ele>
        <time>2019-10-13T08:27:31Z</time>
      </trkpt>
      <trkpt lat="43.45637" lon="6.87015">
        <ele>32.4</ele>
        <time>2019-10-13T08:27:32Z</time>
      </trkpt>
      <trkpt lat="43.45628" lon="6.8702">
        <ele>31.8</ele>
        <time>2019-10-13T08:27:34Z</time>
      </trkpt>
      <trkpt lat="43.45623" lon="6.87021">
        <ele>31.6</ele>
        <time>2019-10-13T08:27:35Z</time>
      </trkpt>
      <trkpt lat="43.45612" lon="6.87019">
        <ele>30.8</ele>
        <time>2019-10-13T08:27:37Z</time>
      </trkpt>
      <trkpt lat="43.45606" lon="6.8702">
        <ele>30.2</ele>
        <time>2019-10-13T08:27:38Z</time>
      </trkpt>
      <trkpt lat="43.45599" lon="6.87019">
        <ele>29.4</ele>
        <time>2019-10-13T08:27:39Z</time>
      </trkpt>
      <trkpt lat="43.45593" lon="6.87018">
        <ele>28.2</ele>
        <time>2019-10-13T08:27:40Z</time>
      </trkpt>
      <trkpt lat="43.45579" lon="6.87018">
        <ele>27.2</ele>
        <time>2019-10-13T08:27:42Z</time>
      </trkpt>
      <trkpt lat="43.45574" lon="6.87015">
        <ele>26.4</ele>
        <time>2019-10-13T08:27:43Z</time>
      </trkpt>
      <trkpt lat="43.4557" lon="6.87009">
        <ele>25.8</ele>
        <time>2019-10-13T08:27:44Z</time>
      </trkpt>
      <trkpt lat="43.45556" lon="6.87008">
        <ele>24.8</ele>
        <time>2019-10-13T08:27:47Z</time>
      </trkpt>
      <trkpt lat="43.45552" lon="6.8701">
        <ele>24.8</ele>
        <time>2019-10-13T08:27:48Z</time>
      </trkpt>
      <trkpt lat="43.45549" lon="6.87016">
        <ele>24.6</ele>
        <time>2019-10-13T08:27:50Z</time>
      </trkpt>
      <trkpt lat="43.45553" lon="6.87031">
        <ele>23.8</ele>
        <time>2019-10-13T08:27:53Z</time>
      </trkpt>
      <trkpt lat="43.45558" lon="6.87042">
        <ele>22.4</ele>
        <time>2019-10-13T08:27:55Z</time>
      </trkpt>
      <trkpt lat="43.45561" lon="6.87053">
        <ele>21</ele>
        <time>2019-10-13T08:27:57Z</time>
      </trkpt>
      <trkpt lat="43.45561" lon="6.87066">
        <ele>19.2</ele>
        <time>2019-10-13T08:27:59Z</time>
      </trkpt>
      <trkpt lat="43.45563" lon="6.87075">
        <ele>17.8</ele>
        <time>2019-10-13T08:28:01Z</time>
      </trkpt>
      <trkpt lat="43.45564" lon="6.8708">
        <ele>17.2</ele>
        <time>2019-10-13T08:28:02Z</time>
      </trkpt>
      <trkpt lat="43.45566" lon="6.87084">
        <ele>16.6</ele>
        <time>2019-10-13T08:28:03Z</time>
      </trkpt>
      <trkpt lat="43.45567" lon="6.87088">
        <ele>15.4</ele>
        <time>2019-10-13T08:28:04Z</time>
      </trkpt>
      <trkpt lat="43.45567" lon="6.87091">
        <ele>15.2</ele>
        <time>2019-10-13T08:28:05Z</time>
      </trkpt>
      <trkpt lat="43.45567" lon="6.87096">
        <ele>14.8</ele>
        <time>2019-10-13T08:28:06Z</time>
      </trkpt>
      <trkpt lat="43.4557" lon="6.87107">
        <ele>14.2</ele>
        <time>2019-10-13T08:28:08Z</time>
      </trkpt>
      <trkpt lat="43.45566" lon="6.87109">
        <ele>13</ele>
        <time>2019-10-13T08:28:10Z</time>
      </trkpt>
      <trkpt lat="43.45555" lon="6.87103">
        <ele>11.8</ele>
        <time>2019-10-13T08:28:13Z</time>
      </trkpt>
      <trkpt lat="43.4555" lon="6.871">
        <ele>11.4</ele>
        <time>2019-10-13T08:28:14Z</time>
      </trkpt>
      <trkpt lat="43.45545" lon="6.87097">
        <ele>10.8</ele>
        <time>2019-10-13T08:28:15Z</time>
      </trkpt>
      <trkpt lat="43.45541" lon="6.87093">
        <ele>10.2</ele>
        <time>2019-10-13T08:28:16Z</time>
      </trkpt>
      <trkpt lat="43.45536" lon="6.8709">
        <ele>9.6</ele>
        <time>2019-10-13T08:28:17Z</time>
      </trkpt>
      <trkpt lat="43.45528" lon="6.87084">
        <ele>8</ele>
        <time>2019-10-13T08:28:19Z</time>
      </trkpt>
      <trkpt lat="43.45519" lon="6.87076">
        <ele>6.8</ele>
        <time>2019-10-13T08:28:21Z</time>
      </trkpt>
      <trkpt lat="43.45513" lon="6.87068">
        <ele>6</ele>
        <time>2019-10-13T08:28:23Z</time>
      </trkpt>
      <trkpt lat="43.45501" lon="6.8705">
        <ele>6.8</ele>
        <time>2019-10-13T08:28:28Z</time>
      </trkpt>
      <trkpt lat="43.45485" lon="6.87008">
        <ele>6.8</ele>
        <time>2019-10-13T08:28:36Z</time>
      </trkpt>
      <trkpt lat="43.45478" lon="6.86993">
        <ele>6.6</ele>
        <time>2019-10-13T08:28:40Z</time>
      </trkpt>
      <trkpt lat="43.45474" lon="6.86991">
        <ele>6.8</ele>
        <time>2019-10-13T08:28:41Z</time>
      </trkpt>
      <trkpt lat="43.45472" lon="6.86987">
        <ele>6.8</ele>
        <time>2019-10-13T08:28:42Z</time>
      </trkpt>
      <trkpt lat="43.45467" lon="6.86978">
        <ele>6.8</ele>
        <time>2019-10-13T08:28:44Z</time>
      </trkpt>
      <trkpt lat="43.4545" lon="6.86943">
        <ele>6.2</ele>
        <time>2019-10-13T08:28:52Z</time>
      </trkpt>
      <trkpt lat="43.45446" lon="6.86941">
        <ele>5.8</ele>
        <time>2019-10-13T08:28:53Z</time>
      </trkpt>
      <trkpt lat="43.45442" lon="6.86939">
        <ele>5.4</ele>
        <time>2019-10-13T08:28:54Z</time>
      </trkpt>
      <trkpt lat="43.45439" lon="6.86936">
        <ele>4.8</ele>
        <time>2019-10-13T08:28:55Z</time>
      </trkpt>
      <trkpt lat="43.45433" lon="6.8693">
        <ele>4.2</ele>
        <time>2019-10-13T08:28:57Z</time>
      </trkpt>
      <trkpt lat="43.45431" lon="6.86927">
        <ele>4</ele>
        <time>2019-10-13T08:28:58Z</time>
      </trkpt>
      <trkpt lat="43.45419" lon="6.86921">
        <ele>3</ele>
        <time>2019-10-13T08:29:02Z</time>
      </trkpt>
      <trkpt lat="43.45407" lon="6.86909">
        <ele>2.6</ele>
        <time>2019-10-13T08:29:07Z</time>
      </trkpt>
      <trkpt lat="43.45394" lon="6.86897">
        <ele>2.8</ele>
        <time>2019-10-13T08:29:12Z</time>
      </trkpt>
      <trkpt lat="43.45376" lon="6.86889">
        <ele>2.8</ele>
        <time>2019-10-13T08:29:17Z</time>
      </trkpt>
      <trkpt lat="43.45364" lon="6.86877">
        <ele>4.2</ele>
        <time>2019-10-13T08:29:22Z</time>
      </trkpt>
      <trkpt lat="43.45357" lon="6.86867">
        <ele>5</ele>
        <time>2019-10-13T08:29:25Z</time>
      </trkpt>
      <trkpt lat="43.45355" lon="6.86864">
        <ele>5.4</ele>
        <time>2019-10-13T08:29:26Z</time>
      </trkpt>
      <trkpt lat="43.45339" lon="6.86843">
        <ele>6.4</ele>
        <time>2019-10-13T08:29:33Z</time>
      </trkpt>
      <trkpt lat="43.45332" lon="6.86836">
        <ele>7</ele>
        <time>2019-10-13T08:29:36Z</time>
      </trkpt>
      <trkpt lat="43.45326" lon="6.86833">
        <ele>7</ele>
        <time>2019-10-13T08:29:38Z</time>
      </trkpt>
      <trkpt lat="43.45324" lon="6.86829">
        <ele>7</ele>
        <time>2019-10-13T08:29:39Z</time>
      </trkpt>
      <trkpt lat="43.45321" lon="6.8682">
        <ele>6.8</ele>
        <time>2019-10-13T08:29:41Z</time>
      </trkpt>
      <trkpt lat="43.45307" lon="6.86803">
        <ele>6.8</ele>
        <time>2019-10-13T08:29:46Z</time>
      </trkpt>
      <trkpt lat="43.45287" lon="6.86791">
        <ele>6.4</ele>
        <time>2019-10-13T08:29:51Z</time>
      </trkpt>
      <trkpt lat="43.45282" lon="6.86788">
        <ele>6.2</ele>
        <time>2019-10-13T08:29:52Z</time>
      </trkpt>
      <trkpt lat="43.45258" lon="6.86775">
        <ele>5.8</ele>
        <time>2019-10-13T08:29:57Z</time>
      </trkpt>
      <trkpt lat="43.45248" lon="6.86765">
        <ele>5.6</ele>
        <time>2019-10-13T08:30:00Z</time>
      </trkpt>
      <trkpt lat="43.45245" lon="6.86761">
        <ele>5.8</ele>
        <time>2019-10-13T08:30:02Z</time>
      </trkpt>
      <trkpt lat="43.45245" lon="6.86754">
        <ele>6.2</ele>
        <time>2019-10-13T08:30:04Z</time>
      </trkpt>
      <trkpt lat="43.45244" lon="6.86747">
        <ele>6</ele>
        <time>2019-10-13T08:30:07Z</time>
      </trkpt>
      <trkpt lat="43.45242" lon="6.86746">
        <ele>6</ele>
        <time>2019-10-13T08:30:08Z</time>
      </trkpt>
      <trkpt lat="43.45228" lon="6.86744">
        <ele>5.4</ele>
        <time>2019-10-13T08:30:12Z</time>
      </trkpt>
      <trkpt lat="43.45223" lon="6.86744">
        <ele>4.8</ele>
        <time>2019-10-13T08:30:13Z</time>
      </trkpt>
      <trkpt lat="43.45218" lon="6.86742">
        <ele>3.8</ele>
        <time>2019-10-13T08:30:15Z</time>
      </trkpt>
      <trkpt lat="43.45217" lon="6.86733">
        <ele>3.2</ele>
        <time>2019-10-13T08:30:17Z</time>
      </trkpt>
      <trkpt lat="43.45217" lon="6.86719">
        <ele>3</ele>
        <time>2019-10-13T08:30:19Z</time>
      </trkpt>
      <trkpt lat="43.45219" lon="6.86699">
        <ele>2.8</ele>
        <time>2019-10-13T08:30:22Z</time>
      </trkpt>
      <trkpt lat="43.45217" lon="6.86686">
        <ele>2.6</ele>
        <time>2019-10-13T08:30:24Z</time>
      </trkpt>
      <trkpt lat="43.45217" lon="6.86678">
        <ele>2.8</ele>
        <time>2019-10-13T08:30:25Z</time>
      </trkpt>
      <trkpt lat="43.45215" lon="6.86647">
        <ele>2.6</ele>
        <time>2019-10-13T08:30:29Z</time>
      </trkpt>
      <trkpt lat="43.45213" lon="6.86631">
        <ele>2.6</ele>
        <time>2019-10-13T08:30:31Z</time>
      </trkpt>
      <trkpt lat="43.45209" lon="6.86606">
        <ele>2.4</ele>
        <time>2019-10-13T08:30:34Z</time>
      </trkpt>
      <trkpt lat="43.4521" lon="6.86597">
        <ele>2.2</ele>
        <time>2019-10-13T08:30:35Z</time>
      </trkpt>
      <trkpt lat="43.45212" lon="6.86573">
        <ele>1.8</ele>
        <time>2019-10-13T08:30:38Z</time>
      </trkpt>
      <trkpt lat="43.45212" lon="6.86565">
        <ele>1.6</ele>
        <time>2019-10-13T08:30:39Z</time>
      </trkpt>
      <trkpt lat="43.45213" lon="6.86533">
        <ele>1.4</ele>
        <time>2019-10-13T08:30:43Z</time>
      </trkpt>
      <trkpt lat="43.45212" lon="6.86525">
        <ele>1.6</ele>
        <time>2019-10-13T08:30:44Z</time>
      </trkpt>
      <trkpt lat="43.45209" lon="6.865">
        <ele>1.6</ele>
        <time>2019-10-13T08:30:47Z</time>
      </trkpt>
      <trkpt lat="43.45209" lon="6.86484">
        <ele>1.4</ele>
        <time>2019-10-13T08:30:49Z</time>
      </trkpt>
      <trkpt lat="43.45207" lon="6.86469">
        <ele>1.4</ele>
        <time>2019-10-13T08:30:51Z</time>
      </trkpt>
      <trkpt lat="43.45201" lon="6.86455">
        <ele>1.4</ele>
        <time>2019-10-13T08:30:53Z</time>
      </trkpt>
      <trkpt lat="43.45187" lon="6.86444">
        <ele>1</ele>
        <time>2019-10-13T08:30:56Z</time>
      </trkpt>
      <trkpt lat="43.45181" lon="6.86438">
        <ele>1.2</ele>
        <time>2019-10-13T08:30:58Z</time>
      </trkpt>
      <trkpt lat="43.4518" lon="6.86435">
        <ele>1.4</ele>
        <time>2019-10-13T08:30:59Z</time>
      </trkpt>
      <trkpt lat="43.45178" lon="6.86432">
        <ele>1.4</ele>
        <time>2019-10-13T08:31:02Z</time>
      </trkpt>
      <trkpt lat="43.45179" lon="6.86431">
        <ele>1.4</ele>
        <time>2019-10-13T08:31:03Z</time>
      </trkpt>
      <trkpt lat="43.45179" lon="6.86422">
        <ele>1.4</ele>
        <time>2019-10-13T08:31:06Z</time>
      </trkpt>
      <trkpt lat="43.45176" lon="6.86403">
        <ele>1.4</ele>
        <time>2019-10-13T08:31:09Z</time>
      </trkpt>
      <trkpt lat="43.45175" lon="6.86396">
        <ele>1.2</ele>
        <time>2019-10-13T08:31:10Z</time>
      </trkpt>
      <trkpt lat="43.45173" lon="6.86389">
        <ele>1</ele>
        <time>2019-10-13T08:31:11Z</time>
      </trkpt>
      <trkpt lat="43.45169" lon="6.86367">
        <ele>0.8</ele>
        <time>2019-10-13T08:31:14Z</time>
      </trkpt>
      <trkpt lat="43.45168" lon="6.86359">
        <ele>0.6</ele>
        <time>2019-10-13T08:31:15Z</time>
      </trkpt>
      <trkpt lat="43.45161" lon="6.86338">
        <ele>-0.4</ele>
        <time>2019-10-13T08:31:18Z</time>
      </trkpt>
      <trkpt lat="43.45154" lon="6.86327">
        <ele>-0.2</ele>
        <time>2019-10-13T08:31:20Z</time>
      </trkpt>
      <trkpt lat="43.4515" lon="6.86321">
        <ele>-0.2</ele>
        <time>2019-10-13T08:31:21Z</time>
      </trkpt>
      <trkpt lat="43.45143" lon="6.86309">
        <ele>11.4</ele>
        <time>2019-10-13T08:31:23Z</time>
      </trkpt>
      <trkpt lat="43.45107" lon="6.86248">
        <ele>0.6</ele>
        <time>2019-10-13T08:31:33Z</time>
      </trkpt>
      <trkpt lat="43.45093" lon="6.86225">
        <ele>0.6</ele>
        <time>2019-10-13T08:31:37Z</time>
      </trkpt>
      <trkpt lat="43.45089" lon="6.8622">
        <ele>0.6</ele>
        <time>2019-10-13T08:31:38Z</time>
      </trkpt>
      <trkpt lat="43.45085" lon="6.86214">
        <ele>0.8</ele>
        <time>2019-10-13T08:31:39Z</time>
      </trkpt>
      <trkpt lat="43.45082" lon="6.86208">
        <ele>0.6</ele>
        <time>2019-10-13T08:31:40Z</time>
      </trkpt>
      <trkpt lat="43.45064" lon="6.86171">
        <ele>0.4</ele>
        <time>2019-10-13T08:31:46Z</time>
      </trkpt>
      <trkpt lat="43.45059" lon="6.8616">
        <ele>0.4</ele>
        <time>2019-10-13T08:31:48Z</time>
      </trkpt>
      <trkpt lat="43.4505" lon="6.86143">
        <ele>0.8</ele>
        <time>2019-10-13T08:31:52Z</time>
      </trkpt>
      <trkpt lat="43.45047" lon="6.86126">
        <ele>0.8</ele>
        <time>2019-10-13T08:31:56Z</time>
      </trkpt>
      <trkpt lat="43.45053" lon="6.86105">
        <ele>0.6</ele>
        <time>2019-10-13T08:32:00Z</time>
      </trkpt>
      <trkpt lat="43.45062" lon="6.86073">
        <ele>0.8</ele>
        <time>2019-10-13T08:32:05Z</time>
      </trkpt>
      <trkpt lat="43.45065" lon="6.86067">
        <ele>0.8</ele>
        <time>2019-10-13T08:32:06Z</time>
      </trkpt>
      <trkpt lat="43.45075" lon="6.86051">
        <ele>0.6</ele>
        <time>2019-10-13T08:32:09Z</time>
      </trkpt>
      <trkpt lat="43.45082" lon="6.8604">
        <ele>0.4</ele>
        <time>2019-10-13T08:32:11Z</time>
      </trkpt>
      <trkpt lat="43.45085" lon="6.86034">
        <ele>0.4</ele>
        <time>2019-10-13T08:32:12Z</time>
      </trkpt>
      <trkpt lat="43.45092" lon="6.86016">
        <ele>0.6</ele>
        <time>2019-10-13T08:32:15Z</time>
      </trkpt>
      <trkpt lat="43.45095" lon="6.8601">
        <ele>0.4</ele>
        <time>2019-10-13T08:32:16Z</time>
      </trkpt>
      <trkpt lat="43.45108" lon="6.85985">
        <ele>7.9</ele>
        <time>2019-10-13T08:32:20Z</time>
      </trkpt>
      <trkpt lat="43.4511" lon="6.85977">
        <ele>7.9</ele>
        <time>2019-10-13T08:32:21Z</time>
      </trkpt>
      <trkpt lat="43.45112" lon="6.85954">
        <ele>-0.4</ele>
        <time>2019-10-13T08:32:24Z</time>
      </trkpt>
      <trkpt lat="43.4511" lon="6.85939">
        <ele>-0.2</ele>
        <time>2019-10-13T08:32:26Z</time>
      </trkpt>
      <trkpt lat="43.45106" lon="6.85915">
        <ele>-0.2</ele>
        <time>2019-10-13T08:32:29Z</time>
      </trkpt>
      <trkpt lat="43.451" lon="6.859">
        <ele>-0.6</ele>
        <time>2019-10-13T08:32:31Z</time>
      </trkpt>
      <trkpt lat="43.45094" lon="6.85886">
        <ele>-0.4</ele>
        <time>2019-10-13T08:32:33Z</time>
      </trkpt>
      <trkpt lat="43.45087" lon="6.85874">
        <ele>-0.4</ele>
        <time>2019-10-13T08:32:35Z</time>
      </trkpt>
      <trkpt lat="43.45078" lon="6.85852">
        <ele>-0.6</ele>
        <time>2019-10-13T08:32:38Z</time>
      </trkpt>
      <trkpt lat="43.45074" lon="6.85838">
        <ele>-0.4</ele>
        <time>2019-10-13T08:32:40Z</time>
      </trkpt>
      <trkpt lat="43.45065" lon="6.85804">
        <ele>-0.4</ele>
        <time>2019-10-13T08:32:45Z</time>
      </trkpt>
      <trkpt lat="43.45066" lon="6.85778">
        <ele>0.2</ele>
        <time>2019-10-13T08:32:49Z</time>
      </trkpt>
      <trkpt lat="43.45066" lon="6.85772">
        <ele>0.2</ele>
        <time>2019-10-13T08:32:50Z</time>
      </trkpt>
      <trkpt lat="43.45065" lon="6.8576">
        <ele>0.8</ele>
        <time>2019-10-13T08:32:53Z</time>
      </trkpt>
      <trkpt lat="43.45065" lon="6.85758">
        <ele>0.8</ele>
        <time>2019-10-13T08:32:54Z</time>
      </trkpt>
      <trkpt lat="43.45065" lon="6.85743">
        <ele>1.4</ele>
        <time>2019-10-13T08:32:59Z</time>
      </trkpt>
      <trkpt lat="43.45066" lon="6.85731">
        <ele>1.8</ele>
        <time>2019-10-13T08:33:01Z</time>
      </trkpt>
      <trkpt lat="43.45062" lon="6.85717">
        <ele>2</ele>
        <time>2019-10-13T08:33:03Z</time>
      </trkpt>
      <trkpt lat="43.45058" lon="6.85707">
        <ele>1.6</ele>
        <time>2019-10-13T08:33:05Z</time>
      </trkpt>
      <trkpt lat="43.45057" lon="6.85705">
        <ele>1.4</ele>
        <time>2019-10-13T08:33:06Z</time>
      </trkpt>
      <trkpt lat="43.4505" lon="6.85699">
        <ele>1.2</ele>
        <time>2019-10-13T08:33:10Z</time>
      </trkpt>
      <trkpt lat="43.45037" lon="6.85691">
        <ele>1.2</ele>
        <time>2019-10-13T08:33:13Z</time>
      </trkpt>
      <trkpt lat="43.45028" lon="6.85687">
        <ele>1.4</ele>
        <time>2019-10-13T08:33:15Z</time>
      </trkpt>
      <trkpt lat="43.45018" lon="6.85684">
        <ele>0.6</ele>
        <time>2019-10-13T08:33:17Z</time>
      </trkpt>
      <trkpt lat="43.44988" lon="6.85668">
        <ele>0.4</ele>
        <time>2019-10-13T08:33:23Z</time>
      </trkpt>
      <trkpt lat="43.44974" lon="6.85647">
        <ele>0.6</ele>
        <time>2019-10-13T08:33:27Z</time>
      </trkpt>
      <trkpt lat="43.44969" lon="6.85633">
        <ele>0.4</ele>
        <time>2019-10-13T08:33:29Z</time>
      </trkpt>
      <trkpt lat="43.44962" lon="6.85603">
        <ele>0.4</ele>
        <time>2019-10-13T08:33:33Z</time>
      </trkpt>
      <trkpt lat="43.44961" lon="6.85584">
        <ele>0.4</ele>
        <time>2019-10-13T08:33:37Z</time>
      </trkpt>
      <trkpt lat="43.4496" lon="6.85581">
        <ele>0.4</ele>
        <time>2019-10-13T08:33:38Z</time>
      </trkpt>
      <trkpt lat="43.44955" lon="6.85568">
        <ele>0.4</ele>
        <time>2019-10-13T08:33:41Z</time>
      </trkpt>
      <trkpt lat="43.44953" lon="6.85561">
        <ele>0.6</ele>
        <time>2019-10-13T08:33:42Z</time>
      </trkpt>
      <trkpt lat="43.44944" lon="6.85534">
        <ele>0.2</ele>
        <time>2019-10-13T08:33:45Z</time>
      </trkpt>
      <trkpt lat="43.4494" lon="6.85525">
        <ele>0.2</ele>
        <time>2019-10-13T08:33:46Z</time>
      </trkpt>
      <trkpt lat="43.44929" lon="6.8551">
        <ele>-0.2</ele>
        <time>2019-10-13T08:33:48Z</time>
      </trkpt>
      <trkpt lat="43.44923" lon="6.85505">
        <ele>-0.4</ele>
        <time>2019-10-13T08:33:49Z</time>
      </trkpt>
      <trkpt lat="43.44917" lon="6.85499">
        <ele>-0.6</ele>
        <time>2019-10-13T08:33:50Z</time>
      </trkpt>
      <trkpt lat="43.4489" lon="6.85478">
        <ele>-0.2</ele>
        <time>2019-10-13T08:33:54Z</time>
      </trkpt>
      <trkpt lat="43.44843" lon="6.85436">
        <ele>-1.2</ele>
        <time>2019-10-13T08:34:01Z</time>
      </trkpt>
      <trkpt lat="43.44818" lon="6.8541">
        <ele>-1.2</ele>
        <time>2019-10-13T08:34:05Z</time>
      </trkpt>
      <trkpt lat="43.44808" lon="6.85395">
        <ele>-1</ele>
        <time>2019-10-13T08:34:07Z</time>
      </trkpt>
      <trkpt lat="43.44801" lon="6.85377">
        <ele>-1</ele>
        <time>2019-10-13T08:34:09Z</time>
      </trkpt>
      <trkpt lat="43.44792" lon="6.85348">
        <ele>-0.6</ele>
        <time>2019-10-13T08:34:12Z</time>
      </trkpt>
      <trkpt lat="43.44783" lon="6.85292">
        <ele>-1.2</ele>
        <time>2019-10-13T08:34:17Z</time>
      </trkpt>
      <trkpt lat="43.44776" lon="6.85271">
        <ele>-1.4</ele>
        <time>2019-10-13T08:34:19Z</time>
      </trkpt>
      <trkpt lat="43.44765" lon="6.8524">
        <ele>-1.6</ele>
        <time>2019-10-13T08:34:22Z</time>
      </trkpt>
      <trkpt lat="43.44756" lon="6.85209">
        <ele>-1.8</ele>
        <time>2019-10-13T08:34:25Z</time>
      </trkpt>
      <trkpt lat="43.44751" lon="6.852">
        <ele>-1.8</ele>
        <time>2019-10-13T08:34:26Z</time>
      </trkpt>
      <trkpt lat="43.4473" lon="6.85183">
        <ele>-1.2</ele>
        <time>2019-10-13T08:34:29Z</time>
      </trkpt>
      <trkpt lat="43.44699" lon="6.85167">
        <ele>-1.4</ele>
        <time>2019-10-13T08:34:33Z</time>
      </trkpt>
      <trkpt lat="43.44683" lon="6.85144">
        <ele>-2.2</ele>
        <time>2019-10-13T08:34:36Z</time>
      </trkpt>
      <trkpt lat="43.44679" lon="6.85135">
        <ele>-2.4</ele>
        <time>2019-10-13T08:34:37Z</time>
      </trkpt>
      <trkpt lat="43.44669" lon="6.8512">
        <ele>-2.2</ele>
        <time>2019-10-13T08:34:39Z</time>
      </trkpt>
      <trkpt lat="43.44656" lon="6.85112">
        <ele>-2</ele>
        <time>2019-10-13T08:34:41Z</time>
      </trkpt>
      <trkpt lat="43.44635" lon="6.85117">
        <ele>-2</ele>
        <time>2019-10-13T08:34:44Z</time>
      </trkpt>
      <trkpt lat="43.44628" lon="6.85121">
        <ele>-1.8</ele>
        <time>2019-10-13T08:34:45Z</time>
      </trkpt>
      <trkpt lat="43.44607" lon="6.85128">
        <ele>-1.8</ele>
        <time>2019-10-13T08:34:48Z</time>
      </trkpt>
      <trkpt lat="43.44601" lon="6.85129">
        <ele>-2</ele>
        <time>2019-10-13T08:34:49Z</time>
      </trkpt>
      <trkpt lat="43.44562" lon="6.85127">
        <ele>-1</ele>
        <time>2019-10-13T08:34:55Z</time>
      </trkpt>
      <trkpt lat="43.44509" lon="6.85122">
        <ele>-0.4</ele>
        <time>2019-10-13T08:35:03Z</time>
      </trkpt>
      <trkpt lat="43.44474" lon="6.85107">
        <ele>0.6</ele>
        <time>2019-10-13T08:35:09Z</time>
      </trkpt>
      <trkpt lat="43.44459" lon="6.85096">
        <ele>1</ele>
        <time>2019-10-13T08:35:12Z</time>
      </trkpt>
      <trkpt lat="43.44448" lon="6.85093">
        <ele>1.2</ele>
        <time>2019-10-13T08:35:14Z</time>
      </trkpt>
      <trkpt lat="43.44429" lon="6.85093">
        <ele>1.2</ele>
        <time>2019-10-13T08:35:17Z</time>
      </trkpt>
      <trkpt lat="43.44417" lon="6.85095">
        <ele>1</ele>
        <time>2019-10-13T08:35:19Z</time>
      </trkpt>
      <trkpt lat="43.44385" lon="6.85101">
        <ele>0.2</ele>
        <time>2019-10-13T08:35:24Z</time>
      </trkpt>
      <trkpt lat="43.44379" lon="6.85101">
        <ele>8.3</ele>
        <time>2019-10-13T08:35:25Z</time>
      </trkpt>
      <trkpt lat="43.44366" lon="6.85099">
        <ele>-0.4</ele>
        <time>2019-10-13T08:35:27Z</time>
      </trkpt>
      <trkpt lat="43.44346" lon="6.85094">
        <ele>-1</ele>
        <time>2019-10-13T08:35:30Z</time>
      </trkpt>
      <trkpt lat="43.44334" lon="6.85088">
        <ele>-1.2</ele>
        <time>2019-10-13T08:35:32Z</time>
      </trkpt>
      <trkpt lat="43.44293" lon="6.85059">
        <ele>-1.4</ele>
        <time>2019-10-13T08:35:39Z</time>
      </trkpt>
      <trkpt lat="43.44288" lon="6.85055">
        <ele>-1.6</ele>
        <time>2019-10-13T08:35:40Z</time>
      </trkpt>
      <trkpt lat="43.44273" lon="6.85042">
        <ele>-1.6</ele>
        <time>2019-10-13T08:35:43Z</time>
      </trkpt>
      <trkpt lat="43.4427" lon="6.85034">
        <ele>-1</ele>
        <time>2019-10-13T08:35:45Z</time>
      </trkpt>
      <trkpt lat="43.4427" lon="6.85032">
        <ele>-0.2</ele>
        <time>2019-10-13T08:35:47Z</time>
      </trkpt>
      <trkpt lat="43.44269" lon="6.85029">
        <ele>0.2</ele>
        <time>2019-10-13T08:35:48Z</time>
      </trkpt>
      <trkpt lat="43.44267" lon="6.85027">
        <ele>0.4</ele>
        <time>2019-10-13T08:35:49Z</time>
      </trkpt>
      <trkpt lat="43.44254" lon="6.85027">
        <ele>0.2</ele>
        <time>2019-10-13T08:35:53Z</time>
      </trkpt>
      <trkpt lat="43.44251" lon="6.85028">
        <ele>0.2</ele>
        <time>2019-10-13T08:35:54Z</time>
      </trkpt>
      <trkpt lat="43.44245" lon="6.85028">
        <ele>7.1</ele>
        <time>2019-10-13T08:35:56Z</time>
      </trkpt>
      <trkpt lat="43.4424" lon="6.85027">
        <ele>0.2</ele>
        <time>2019-10-13T08:35:58Z</time>
      </trkpt>
      <trkpt lat="43.44238" lon="6.85028">
        <ele>7</ele>
        <time>2019-10-13T08:36:01Z</time>
      </trkpt>
      <trkpt lat="43.44238" lon="6.85028">
        <ele>-0.2</ele>
        <time>2019-10-13T08:36:18Z</time>
      </trkpt>
      <trkpt lat="43.44239" lon="6.85028">
        <ele>-0.2</ele>
        <time>2019-10-13T08:36:43Z</time>
      </trkpt>
      <trkpt lat="43.44235" lon="6.85029">
        <ele>-0.4</ele>
        <time>2019-10-13T08:36:45Z</time>
      </trkpt>
      <trkpt lat="43.44228" lon="6.85029">
        <ele>-0.6</ele>
        <time>2019-10-13T08:36:47Z</time>
      </trkpt>
      <trkpt lat="43.44213" lon="6.8503">
        <ele>-1.4</ele>
        <time>2019-10-13T08:36:50Z</time>
      </trkpt>
      <trkpt lat="43.44207" lon="6.8503">
        <ele>-1.8</ele>
        <time>2019-10-13T08:36:51Z</time>
      </trkpt>
      <trkpt lat="43.44201" lon="6.8503">
        <ele>-2.6</ele>
        <time>2019-10-13T08:36:52Z</time>
      </trkpt>
      <trkpt lat="43.4419" lon="6.85031">
        <ele>-3.6</ele>
        <time>2019-10-13T08:36:54Z</time>
      </trkpt>
      <trkpt lat="43.44166" lon="6.8503">
        <ele>-3.8</ele>
        <time>2019-10-13T08:36:58Z</time>
      </trkpt>
      <trkpt lat="43.44154" lon="6.85027">
        <ele>-4.2</ele>
        <time>2019-10-13T08:37:00Z</time>
      </trkpt>
      <trkpt lat="43.44136" lon="6.85021">
        <ele>-4.6</ele>
        <time>2019-10-13T08:37:03Z</time>
      </trkpt>
      <trkpt lat="43.44131" lon="6.85019">
        <ele>-4.8</ele>
        <time>2019-10-13T08:37:04Z</time>
      </trkpt>
      <trkpt lat="43.4408" lon="6.84999">
        <ele>-4.8</ele>
        <time>2019-10-13T08:37:13Z</time>
      </trkpt>
      <trkpt lat="43.44022" lon="6.84977">
        <ele>-5</ele>
        <time>2019-10-13T08:37:23Z</time>
      </trkpt>
      <trkpt lat="43.44017" lon="6.84976">
        <ele>-4.8</ele>
        <time>2019-10-13T08:37:24Z</time>
      </trkpt>
      <trkpt lat="43.43999" lon="6.84978">
        <ele>-4.8</ele>
        <time>2019-10-13T08:37:27Z</time>
      </trkpt>
      <trkpt lat="43.43973" lon="6.84995">
        <ele>-5.2</ele>
        <time>2019-10-13T08:37:32Z</time>
      </trkpt>
      <trkpt lat="43.43937" lon="6.85022">
        <ele>-4.2</ele>
        <time>2019-10-13T08:37:40Z</time>
      </trkpt>
      <trkpt lat="43.43931" lon="6.85008">
        <ele>-4.6</ele>
        <time>2019-10-13T08:37:43Z</time>
      </trkpt>
      <trkpt lat="43.43929" lon="6.85">
        <ele>-5.2</ele>
        <time>2019-10-13T08:37:44Z</time>
      </trkpt>
      <trkpt lat="43.43928" lon="6.84991">
        <ele>-6.2</ele>
        <time>2019-10-13T08:37:45Z</time>
      </trkpt>
      <trkpt lat="43.43925" lon="6.84972">
        <ele>-7.6</ele>
        <time>2019-10-13T08:37:47Z</time>
      </trkpt>
      <trkpt lat="43.43924" lon="6.84964">
        <ele>-8.2</ele>
        <time>2019-10-13T08:37:48Z</time>
      </trkpt>
      <trkpt lat="43.43923" lon="6.84947">
        <ele>-8.6</ele>
        <time>2019-10-13T08:37:50Z</time>
      </trkpt>
      <trkpt lat="43.43929" lon="6.84935">
        <ele>-8.6</ele>
        <time>2019-10-13T08:37:52Z</time>
      </trkpt>
      <trkpt lat="43.43942" lon="6.84923">
        <ele>-8.2</ele>
        <time>2019-10-13T08:37:55Z</time>
      </trkpt>
      <trkpt lat="43.43948" lon="6.8492">
        <ele>-8</ele>
        <time>2019-10-13T08:37:56Z</time>
      </trkpt>
      <trkpt lat="43.43971" lon="6.84907">
        <ele>-7.6</ele>
        <time>2019-10-13T08:38:00Z</time>
      </trkpt>
      <trkpt lat="43.43975" lon="6.84901">
        <ele>-7.2</ele>
        <time>2019-10-13T08:38:01Z</time>
      </trkpt>
      <trkpt lat="43.43974" lon="6.84889">
        <ele>-7</ele>
        <time>2019-10-13T08:38:03Z</time>
      </trkpt>
      <trkpt lat="43.43966" lon="6.84879">
        <ele>-6.4</ele>
        <time>2019-10-13T08:38:05Z</time>
      </trkpt>
      <trkpt lat="43.43954" lon="6.84864">
        <ele>-6.8</ele>
        <time>2019-10-13T08:38:08Z</time>
      </trkpt>
      <trkpt lat="43.43922" lon="6.84816">
        <ele>-5.2</ele>
        <time>2019-10-13T08:38:17Z</time>
      </trkpt>
      <trkpt lat="43.43906" lon="6.84787">
        <ele>-4.6</ele>
        <time>2019-10-13T08:38:22Z</time>
      </trkpt>
      <trkpt lat="43.43901" lon="6.84775">
        <ele>-4</ele>
        <time>2019-10-13T08:38:24Z</time>
      </trkpt>
      <trkpt lat="43.43894" lon="6.84758">
        <ele>-3.8</ele>
        <time>2019-10-13T08:38:27Z</time>
      </trkpt>
      <trkpt lat="43.43893" lon="6.84752">
        <ele>-3.8</ele>
        <time>2019-10-13T08:38:28Z</time>
      </trkpt>
      <trkpt lat="43.43894" lon="6.84732">
        <ele>-2.8</ele>
        <time>2019-10-13T08:38:31Z</time>
      </trkpt>
      <trkpt lat="43.43895" lon="6.84724">
        <ele>-2.8</ele>
        <time>2019-10-13T08:38:32Z</time>
      </trkpt>
      <trkpt lat="43.43896" lon="6.84717">
        <ele>-2.6</ele>
        <time>2019-10-13T08:38:33Z</time>
      </trkpt>
      <trkpt lat="43.43904" lon="6.84681">
        <ele>-1.8</ele>
        <time>2019-10-13T08:38:38Z</time>
      </trkpt>
      <trkpt lat="43.43904" lon="6.84674">
        <ele>-1.6</ele>
        <time>2019-10-13T08:38:39Z</time>
      </trkpt>
      <trkpt lat="43.43901" lon="6.84623">
        <ele>-1.4</ele>
        <time>2019-10-13T08:38:46Z</time>
      </trkpt>
      <trkpt lat="43.43898" lon="6.846">
        <ele>-1.2</ele>
        <time>2019-10-13T08:38:49Z</time>
      </trkpt>
      <trkpt lat="43.43892" lon="6.8458">
        <ele>-0.8</ele>
        <time>2019-10-13T08:38:52Z</time>
      </trkpt>
      <trkpt lat="43.43889" lon="6.84573">
        <ele>-0.8</ele>
        <time>2019-10-13T08:38:53Z</time>
      </trkpt>
      <trkpt lat="43.4388" lon="6.8455">
        <ele>0.2</ele>
        <time>2019-10-13T08:38:57Z</time>
      </trkpt>
      <trkpt lat="43.43878" lon="6.84546">
        <ele>0.6</ele>
        <time>2019-10-13T08:38:58Z</time>
      </trkpt>
      <trkpt lat="43.43875" lon="6.84535">
        <ele>0.8</ele>
        <time>2019-10-13T08:39:00Z</time>
      </trkpt>
      <trkpt lat="43.4387" lon="6.84517">
        <ele>0.8</ele>
        <time>2019-10-13T08:39:03Z</time>
      </trkpt>
      <trkpt lat="43.43856" lon="6.84462">
        <ele>1.2</ele>
        <time>2019-10-13T08:39:12Z</time>
      </trkpt>
      <trkpt lat="43.43847" lon="6.8443">
        <ele>2.6</ele>
        <time>2019-10-13T08:39:18Z</time>
      </trkpt>
      <trkpt lat="43.43846" lon="6.84425">
        <ele>2.6</ele>
        <time>2019-10-13T08:39:19Z</time>
      </trkpt>
      <trkpt lat="43.43839" lon="6.84396">
        <ele>3.2</ele>
        <time>2019-10-13T08:39:24Z</time>
      </trkpt>
      <trkpt lat="43.43838" lon="6.8439">
        <ele>3.2</ele>
        <time>2019-10-13T08:39:25Z</time>
      </trkpt>
      <trkpt lat="43.43835" lon="6.84378">
        <ele>3.2</ele>
        <time>2019-10-13T08:39:27Z</time>
      </trkpt>
      <trkpt lat="43.43827" lon="6.84364">
        <ele>3.6</ele>
        <time>2019-10-13T08:39:30Z</time>
      </trkpt>
      <trkpt lat="43.43807" lon="6.8435">
        <ele>4.4</ele>
        <time>2019-10-13T08:39:35Z</time>
      </trkpt>
      <trkpt lat="43.43801" lon="6.84349">
        <ele>4.6</ele>
        <time>2019-10-13T08:39:37Z</time>
      </trkpt>
      <trkpt lat="43.43801" lon="6.84349">
        <ele>4.8</ele>
        <time>2019-10-13T08:39:38Z</time>
      </trkpt>
      <trkpt lat="43.438" lon="6.84348">
        <ele>5</ele>
        <time>2019-10-13T08:39:44Z</time>
      </trkpt>
      <trkpt lat="43.438" lon="6.84348">
        <ele>4.8</ele>
        <time>2019-10-13T08:40:01Z</time>
      </trkpt>
      <trkpt lat="43.438" lon="6.84348">
        <ele>4.6</ele>
        <time>2019-10-13T08:40:16Z</time>
      </trkpt>
      <trkpt lat="43.43799" lon="6.84349">
        <ele>4.2</ele>
        <time>2019-10-13T08:40:35Z</time>
      </trkpt>
      <trkpt lat="43.43799" lon="6.84349">
        <ele>4.2</ele>
        <time>2019-10-13T08:40:40Z</time>
      </trkpt>
      <trkpt lat="43.43798" lon="6.84354">
        <ele>4.4</ele>
        <time>2019-10-13T08:40:43Z</time>
      </trkpt>
      <trkpt lat="43.43798" lon="6.84356">
        <ele>4.4</ele>
        <time>2019-10-13T08:40:44Z</time>
      </trkpt>
      <trkpt lat="43.43802" lon="6.84367">
        <ele>5</ele>
        <time>2019-10-13T08:40:47Z</time>
      </trkpt>
      <trkpt lat="43.43806" lon="6.84383">
        <ele>5.2</ele>
        <time>2019-10-13T08:40:51Z</time>
      </trkpt>
      <trkpt lat="43.43809" lon="6.84394">
        <ele>5.8</ele>
        <time>2019-10-13T08:40:54Z</time>
      </trkpt>
      <trkpt lat="43.43811" lon="6.844">
        <ele>7</ele>
        <time>2019-10-13T08:40:56Z</time>
      </trkpt>
      <trkpt lat="43.43813" lon="6.84403">
        <ele>7.4</ele>
        <time>2019-10-13T08:40:57Z</time>
      </trkpt>
      <trkpt lat="43.43817" lon="6.84413">
        <ele>8.4</ele>
        <time>2019-10-13T08:41:00Z</time>
      </trkpt>
      <trkpt lat="43.4382" lon="6.84426">
        <ele>9.6</ele>
        <time>2019-10-13T08:41:03Z</time>
      </trkpt>
      <trkpt lat="43.43823" lon="6.84443">
        <ele>10.6</ele>
        <time>2019-10-13T08:41:07Z</time>
      </trkpt>
      <trkpt lat="43.43826" lon="6.84457">
        <ele>11.2</ele>
        <time>2019-10-13T08:41:11Z</time>
      </trkpt>
      <trkpt lat="43.4383" lon="6.84468">
        <ele>11.6</ele>
        <time>2019-10-13T08:41:14Z</time>
      </trkpt>
      <trkpt lat="43.43833" lon="6.84481">
        <ele>12.8</ele>
        <time>2019-10-13T08:41:17Z</time>
      </trkpt>
      <trkpt lat="43.43835" lon="6.84493">
        <ele>14</ele>
        <time>2019-10-13T08:41:20Z</time>
      </trkpt>
      <trkpt lat="43.43836" lon="6.84505">
        <ele>14.6</ele>
        <time>2019-10-13T08:41:23Z</time>
      </trkpt>
      <trkpt lat="43.43837" lon="6.84517">
        <ele>15</ele>
        <time>2019-10-13T08:41:26Z</time>
      </trkpt>
      <trkpt lat="43.43838" lon="6.84523">
        <ele>15.4</ele>
        <time>2019-10-13T08:41:28Z</time>
      </trkpt>
      <trkpt lat="43.43838" lon="6.8453">
        <ele>16.2</ele>
        <time>2019-10-13T08:41:30Z</time>
      </trkpt>
      <trkpt lat="43.43839" lon="6.84541">
        <ele>16.8</ele>
        <time>2019-10-13T08:41:33Z</time>
      </trkpt>
      <trkpt lat="43.43838" lon="6.84554">
        <ele>17.4</ele>
        <time>2019-10-13T08:41:37Z</time>
      </trkpt>
      <trkpt lat="43.43838" lon="6.84558">
        <ele>17.4</ele>
        <time>2019-10-13T08:41:38Z</time>
      </trkpt>
      <trkpt lat="43.43836" lon="6.84572">
        <ele>18.4</ele>
        <time>2019-10-13T08:41:43Z</time>
      </trkpt>
      <trkpt lat="43.43835" lon="6.84575">
        <ele>18.6</ele>
        <time>2019-10-13T08:41:44Z</time>
      </trkpt>
      <trkpt lat="43.43829" lon="6.84597">
        <ele>19.6</ele>
        <time>2019-10-13T08:41:51Z</time>
      </trkpt>
      <trkpt lat="43.43822" lon="6.84612">
        <ele>20</ele>
        <time>2019-10-13T08:41:56Z</time>
      </trkpt>
      <trkpt lat="43.43816" lon="6.84621">
        <ele>20.6</ele>
        <time>2019-10-13T08:42:00Z</time>
      </trkpt>
      <trkpt lat="43.43813" lon="6.84625">
        <ele>21.4</ele>
        <time>2019-10-13T08:42:02Z</time>
      </trkpt>
      <trkpt lat="43.4381" lon="6.8463">
        <ele>21.8</ele>
        <time>2019-10-13T08:42:04Z</time>
      </trkpt>
      <trkpt lat="43.43801" lon="6.84641">
        <ele>22.6</ele>
        <time>2019-10-13T08:42:09Z</time>
      </trkpt>
      <trkpt lat="43.43799" lon="6.84642">
        <ele>22.8</ele>
        <time>2019-10-13T08:42:10Z</time>
      </trkpt>
      <trkpt lat="43.43795" lon="6.84651">
        <ele>23.6</ele>
        <time>2019-10-13T08:42:13Z</time>
      </trkpt>
      <trkpt lat="43.43781" lon="6.84667">
        <ele>23.8</ele>
        <time>2019-10-13T08:42:19Z</time>
      </trkpt>
      <trkpt lat="43.4378" lon="6.84666">
        <ele>24.2</ele>
        <time>2019-10-13T08:42:20Z</time>
      </trkpt>
      <trkpt lat="43.43781" lon="6.84663">
        <ele>24.6</ele>
        <time>2019-10-13T08:42:22Z</time>
      </trkpt>
      <trkpt lat="43.43786" lon="6.84655">
        <ele>24.8</ele>
        <time>2019-10-13T08:42:25Z</time>
      </trkpt>
      <trkpt lat="43.43788" lon="6.84651">
        <ele>24.8</ele>
        <time>2019-10-13T08:42:26Z</time>
      </trkpt>
      <trkpt lat="43.438" lon="6.84631">
        <ele>24.8</ele>
        <time>2019-10-13T08:42:32Z</time>
      </trkpt>
      <trkpt lat="43.43803" lon="6.84625">
        <ele>25.2</ele>
        <time>2019-10-13T08:42:34Z</time>
      </trkpt>
      <trkpt lat="43.43812" lon="6.84604">
        <ele>26.4</ele>
        <time>2019-10-13T08:42:40Z</time>
      </trkpt>
      <trkpt lat="43.43818" lon="6.84575">
        <ele>27.6</ele>
        <time>2019-10-13T08:42:47Z</time>
      </trkpt>
      <trkpt lat="43.43819" lon="6.84559">
        <ele>28.6</ele>
        <time>2019-10-13T08:42:51Z</time>
      </trkpt>
      <trkpt lat="43.43818" lon="6.84546">
        <ele>29.4</ele>
        <time>2019-10-13T08:42:54Z</time>
      </trkpt>
      <trkpt lat="43.43817" lon="6.84542">
        <ele>29.8</ele>
        <time>2019-10-13T08:42:55Z</time>
      </trkpt>
      <trkpt lat="43.43815" lon="6.84525">
        <ele>30.6</ele>
        <time>2019-10-13T08:42:59Z</time>
      </trkpt>
      <trkpt lat="43.43811" lon="6.84508">
        <ele>30.8</ele>
        <time>2019-10-13T08:43:03Z</time>
      </trkpt>
      <trkpt lat="43.43807" lon="6.84496">
        <ele>31.4</ele>
        <time>2019-10-13T08:43:06Z</time>
      </trkpt>
      <trkpt lat="43.43801" lon="6.84481">
        <ele>32</ele>
        <time>2019-10-13T08:43:10Z</time>
      </trkpt>
      <trkpt lat="43.43795" lon="6.8447">
        <ele>32.4</ele>
        <time>2019-10-13T08:43:13Z</time>
      </trkpt>
      <trkpt lat="43.43788" lon="6.84456">
        <ele>33.2</ele>
        <time>2019-10-13T08:43:17Z</time>
      </trkpt>
      <trkpt lat="43.43777" lon="6.8444">
        <ele>33.8</ele>
        <time>2019-10-13T08:43:22Z</time>
      </trkpt>
      <trkpt lat="43.43773" lon="6.84433">
        <ele>34.2</ele>
        <time>2019-10-13T08:43:24Z</time>
      </trkpt>
      <trkpt lat="43.43761" lon="6.84418">
        <ele>35</ele>
        <time>2019-10-13T08:43:29Z</time>
      </trkpt>
      <trkpt lat="43.43756" lon="6.84414">
        <ele>35.2</ele>
        <time>2019-10-13T08:43:31Z</time>
      </trkpt>
      <trkpt lat="43.43742" lon="6.84403">
        <ele>36</ele>
        <time>2019-10-13T08:43:36Z</time>
      </trkpt>
      <trkpt lat="43.43735" lon="6.84402">
        <ele>36.4</ele>
        <time>2019-10-13T08:43:38Z</time>
      </trkpt>
      <trkpt lat="43.43723" lon="6.84404">
        <ele>37</ele>
        <time>2019-10-13T08:43:42Z</time>
      </trkpt>
      <trkpt lat="43.4372" lon="6.84405">
        <ele>37.4</ele>
        <time>2019-10-13T08:43:43Z</time>
      </trkpt>
      <trkpt lat="43.43702" lon="6.84413">
        <ele>38.4</ele>
        <time>2019-10-13T08:43:49Z</time>
      </trkpt>
      <trkpt lat="43.43699" lon="6.84414">
        <ele>38.4</ele>
        <time>2019-10-13T08:43:50Z</time>
      </trkpt>
      <trkpt lat="43.43678" lon="6.84423">
        <ele>39.4</ele>
        <time>2019-10-13T08:43:57Z</time>
      </trkpt>
      <trkpt lat="43.43675" lon="6.84425">
        <ele>39.6</ele>
        <time>2019-10-13T08:43:58Z</time>
      </trkpt>
      <trkpt lat="43.43654" lon="6.84433">
        <ele>40.4</ele>
        <time>2019-10-13T08:44:05Z</time>
      </trkpt>
      <trkpt lat="43.43641" lon="6.84424">
        <ele>40.2</ele>
        <time>2019-10-13T08:44:09Z</time>
      </trkpt>
      <trkpt lat="43.43636" lon="6.8441">
        <ele>40.8</ele>
        <time>2019-10-13T08:44:12Z</time>
      </trkpt>
      <trkpt lat="43.43635" lon="6.84404">
        <ele>40.8</ele>
        <time>2019-10-13T08:44:13Z</time>
      </trkpt>
      <trkpt lat="43.43639" lon="6.84382">
        <ele>41</ele>
        <time>2019-10-13T08:44:17Z</time>
      </trkpt>
      <trkpt lat="43.43649" lon="6.8436">
        <ele>41.6</ele>
        <time>2019-10-13T08:44:22Z</time>
      </trkpt>
      <trkpt lat="43.43651" lon="6.84356">
        <ele>42</ele>
        <time>2019-10-13T08:44:23Z</time>
      </trkpt>
      <trkpt lat="43.43666" lon="6.84327">
        <ele>42.8</ele>
        <time>2019-10-13T08:44:29Z</time>
      </trkpt>
      <trkpt lat="43.43669" lon="6.84316">
        <ele>43.4</ele>
        <time>2019-10-13T08:44:31Z</time>
      </trkpt>
      <trkpt lat="43.43674" lon="6.84296">
        <ele>44.2</ele>
        <time>2019-10-13T08:44:35Z</time>
      </trkpt>
      <trkpt lat="43.43673" lon="6.84286">
        <ele>44.6</ele>
        <time>2019-10-13T08:44:37Z</time>
      </trkpt>
      <trkpt lat="43.43671" lon="6.84279">
        <ele>44.8</ele>
        <time>2019-10-13T08:44:39Z</time>
      </trkpt>
      <trkpt lat="43.43671" lon="6.84272">
        <ele>45</ele>
        <time>2019-10-13T08:44:41Z</time>
      </trkpt>
      <trkpt lat="43.43669" lon="6.84272">
        <ele>45.4</ele>
        <time>2019-10-13T08:44:43Z</time>
      </trkpt>
      <trkpt lat="43.4367" lon="6.84278">
        <ele>45.6</ele>
        <time>2019-10-13T08:44:45Z</time>
      </trkpt>
      <trkpt lat="43.4367" lon="6.84282">
        <ele>46</ele>
        <time>2019-10-13T08:44:46Z</time>
      </trkpt>
      <trkpt lat="43.4367" lon="6.84303">
        <ele>46</ele>
        <time>2019-10-13T08:44:51Z</time>
      </trkpt>
      <trkpt lat="43.43662" lon="6.84327">
        <ele>46.4</ele>
        <time>2019-10-13T08:44:57Z</time>
      </trkpt>
      <trkpt lat="43.43654" lon="6.84338">
        <ele>46.8</ele>
        <time>2019-10-13T08:45:00Z</time>
      </trkpt>
      <trkpt lat="43.43645" lon="6.84348">
        <ele>47.4</ele>
        <time>2019-10-13T08:45:03Z</time>
      </trkpt>
      <trkpt lat="43.43638" lon="6.84359">
        <ele>47.8</ele>
        <time>2019-10-13T08:45:06Z</time>
      </trkpt>
      <trkpt lat="43.43629" lon="6.84368">
        <ele>48.6</ele>
        <time>2019-10-13T08:45:09Z</time>
      </trkpt>
      <trkpt lat="43.43627" lon="6.84371">
        <ele>48.8</ele>
        <time>2019-10-13T08:45:10Z</time>
      </trkpt>
      <trkpt lat="43.43619" lon="6.8439">
        <ele>49.8</ele>
        <time>2019-10-13T08:45:14Z</time>
      </trkpt>
      <trkpt lat="43.43618" lon="6.84395">
        <ele>49.8</ele>
        <time>2019-10-13T08:45:15Z</time>
      </trkpt>
      <trkpt lat="43.43615" lon="6.84416">
        <ele>51</ele>
        <time>2019-10-13T08:45:20Z</time>
      </trkpt>
      <trkpt lat="43.43611" lon="6.84435">
        <ele>52.2</ele>
        <time>2019-10-13T08:45:25Z</time>
      </trkpt>
      <trkpt lat="43.4361" lon="6.84438">
        <ele>52.4</ele>
        <time>2019-10-13T08:45:26Z</time>
      </trkpt>
      <trkpt lat="43.43602" lon="6.84458">
        <ele>53.2</ele>
        <time>2019-10-13T08:45:32Z</time>
      </trkpt>
      <trkpt lat="43.43599" lon="6.8446">
        <ele>53.4</ele>
        <time>2019-10-13T08:45:33Z</time>
      </trkpt>
      <trkpt lat="43.43595" lon="6.84463">
        <ele>54</ele>
        <time>2019-10-13T08:45:35Z</time>
      </trkpt>
      <trkpt lat="43.43592" lon="6.84464">
        <ele>54.4</ele>
        <time>2019-10-13T08:45:36Z</time>
      </trkpt>
      <trkpt lat="43.43587" lon="6.84465">
        <ele>55</ele>
        <time>2019-10-13T08:45:38Z</time>
      </trkpt>
      <trkpt lat="43.43578" lon="6.84467">
        <ele>55.4</ele>
        <time>2019-10-13T08:45:41Z</time>
      </trkpt>
      <trkpt lat="43.43569" lon="6.84467">
        <ele>56.2</ele>
        <time>2019-10-13T08:45:44Z</time>
      </trkpt>
      <trkpt lat="43.43559" lon="6.84463">
        <ele>56.6</ele>
        <time>2019-10-13T08:45:48Z</time>
      </trkpt>
      <trkpt lat="43.43554" lon="6.8446">
        <ele>57.2</ele>
        <time>2019-10-13T08:45:50Z</time>
      </trkpt>
      <trkpt lat="43.43549" lon="6.84454">
        <ele>57.8</ele>
        <time>2019-10-13T08:45:52Z</time>
      </trkpt>
      <trkpt lat="43.43538" lon="6.84441">
        <ele>58.8</ele>
        <time>2019-10-13T08:45:57Z</time>
      </trkpt>
      <trkpt lat="43.43531" lon="6.84433">
        <ele>59.8</ele>
        <time>2019-10-13T08:46:00Z</time>
      </trkpt>
      <trkpt lat="43.43524" lon="6.84424">
        <ele>61.2</ele>
        <time>2019-10-13T08:46:03Z</time>
      </trkpt>
      <trkpt lat="43.43504" lon="6.84404">
        <ele>62.2</ele>
        <time>2019-10-13T08:46:11Z</time>
      </trkpt>
      <trkpt lat="43.43502" lon="6.84401">
        <ele>62.4</ele>
        <time>2019-10-13T08:46:12Z</time>
      </trkpt>
      <trkpt lat="43.43493" lon="6.8439">
        <ele>63.2</ele>
        <time>2019-10-13T08:46:16Z</time>
      </trkpt>
      <trkpt lat="43.43486" lon="6.84382">
        <ele>63.4</ele>
        <time>2019-10-13T08:46:19Z</time>
      </trkpt>
      <trkpt lat="43.43478" lon="6.84372">
        <ele>64</ele>
        <time>2019-10-13T08:46:23Z</time>
      </trkpt>
      <trkpt lat="43.43476" lon="6.84373">
        <ele>64.2</ele>
        <time>2019-10-13T08:46:24Z</time>
      </trkpt>
      <trkpt lat="43.43475" lon="6.84375">
        <ele>64.2</ele>
        <time>2019-10-13T08:46:25Z</time>
      </trkpt>
      <trkpt lat="43.43472" lon="6.84386">
        <ele>64.4</ele>
        <time>2019-10-13T08:46:28Z</time>
      </trkpt>
      <trkpt lat="43.43472" lon="6.84389">
        <ele>64.6</ele>
        <time>2019-10-13T08:46:29Z</time>
      </trkpt>
      <trkpt lat="43.43468" lon="6.8441">
        <ele>65.4</ele>
        <time>2019-10-13T08:46:34Z</time>
      </trkpt>
      <trkpt lat="43.43467" lon="6.84413">
        <ele>65.6</ele>
        <time>2019-10-13T08:46:35Z</time>
      </trkpt>
      <trkpt lat="43.43464" lon="6.84439">
        <ele>66.2</ele>
        <time>2019-10-13T08:46:41Z</time>
      </trkpt>
      <trkpt lat="43.43462" lon="6.84447">
        <ele>66.4</ele>
        <time>2019-10-13T08:46:43Z</time>
      </trkpt>
      <trkpt lat="43.43456" lon="6.84468">
        <ele>67.2</ele>
        <time>2019-10-13T08:46:49Z</time>
      </trkpt>
      <trkpt lat="43.43455" lon="6.84471">
        <ele>67.4</ele>
        <time>2019-10-13T08:46:50Z</time>
      </trkpt>
      <trkpt lat="43.4345" lon="6.84483">
        <ele>68</ele>
        <time>2019-10-13T08:46:54Z</time>
      </trkpt>
      <trkpt lat="43.43445" lon="6.84488">
        <ele>68.6</ele>
        <time>2019-10-13T08:46:56Z</time>
      </trkpt>
      <trkpt lat="43.43443" lon="6.8449">
        <ele>68.8</ele>
        <time>2019-10-13T08:46:57Z</time>
      </trkpt>
      <trkpt lat="43.43438" lon="6.84492">
        <ele>68.8</ele>
        <time>2019-10-13T08:46:59Z</time>
      </trkpt>
      <trkpt lat="43.43432" lon="6.84493">
        <ele>69.2</ele>
        <time>2019-10-13T08:47:01Z</time>
      </trkpt>
      <trkpt lat="43.43426" lon="6.84491">
        <ele>69.6</ele>
        <time>2019-10-13T08:47:03Z</time>
      </trkpt>
      <trkpt lat="43.4342" lon="6.84489">
        <ele>70</ele>
        <time>2019-10-13T08:47:05Z</time>
      </trkpt>
      <trkpt lat="43.43403" lon="6.84484">
        <ele>70.6</ele>
        <time>2019-10-13T08:47:11Z</time>
      </trkpt>
      <trkpt lat="43.43401" lon="6.84482">
        <ele>70.8</ele>
        <time>2019-10-13T08:47:12Z</time>
      </trkpt>
      <trkpt lat="43.43387" lon="6.84475">
        <ele>71.8</ele>
        <time>2019-10-13T08:47:17Z</time>
      </trkpt>
      <trkpt lat="43.43384" lon="6.84473">
        <ele>72</ele>
        <time>2019-10-13T08:47:18Z</time>
      </trkpt>
      <trkpt lat="43.43373" lon="6.84464">
        <ele>73</ele>
        <time>2019-10-13T08:47:23Z</time>
      </trkpt>
      <trkpt lat="43.43371" lon="6.84463">
        <ele>73.2</ele>
        <time>2019-10-13T08:47:24Z</time>
      </trkpt>
      <trkpt lat="43.43362" lon="6.84456">
        <ele>74</ele>
        <time>2019-10-13T08:47:28Z</time>
      </trkpt>
      <trkpt lat="43.43358" lon="6.8445">
        <ele>74.2</ele>
        <time>2019-10-13T08:47:30Z</time>
      </trkpt>
      <trkpt lat="43.43351" lon="6.84437">
        <ele>74.6</ele>
        <time>2019-10-13T08:47:34Z</time>
      </trkpt>
      <trkpt lat="43.43342" lon="6.84425">
        <ele>75</ele>
        <time>2019-10-13T08:47:39Z</time>
      </trkpt>
      <trkpt lat="43.43341" lon="6.84427">
        <ele>75</ele>
        <time>2019-10-13T08:47:40Z</time>
      </trkpt>
      <trkpt lat="43.43339" lon="6.84434">
        <ele>75.2</ele>
        <time>2019-10-13T08:47:42Z</time>
      </trkpt>
      <trkpt lat="43.43336" lon="6.84441">
        <ele>75.4</ele>
        <time>2019-10-13T08:47:44Z</time>
      </trkpt>
      <trkpt lat="43.43332" lon="6.84454">
        <ele>75.6</ele>
        <time>2019-10-13T08:47:47Z</time>
      </trkpt>
      <trkpt lat="43.43329" lon="6.84467">
        <ele>76.4</ele>
        <time>2019-10-13T08:47:50Z</time>
      </trkpt>
      <trkpt lat="43.43323" lon="6.84486">
        <ele>77.6</ele>
        <time>2019-10-13T08:47:55Z</time>
      </trkpt>
      <trkpt lat="43.4332" lon="6.84492">
        <ele>78</ele>
        <time>2019-10-13T08:47:57Z</time>
      </trkpt>
      <trkpt lat="43.43318" lon="6.84499">
        <ele>78.8</ele>
        <time>2019-10-13T08:47:59Z</time>
      </trkpt>
      <trkpt lat="43.43317" lon="6.84505">
        <ele>79.4</ele>
        <time>2019-10-13T08:48:02Z</time>
      </trkpt>
      <trkpt lat="43.43317" lon="6.84505">
        <ele>79.8</ele>
        <time>2019-10-13T08:48:04Z</time>
      </trkpt>
      <trkpt lat="43.43318" lon="6.84501">
        <ele>80</ele>
        <time>2019-10-13T08:48:07Z</time>
      </trkpt>
      <trkpt lat="43.43319" lon="6.84499">
        <ele>79.6</ele>
        <time>2019-10-13T08:48:12Z</time>
      </trkpt>
      <trkpt lat="43.43319" lon="6.84499">
        <ele>79.6</ele>
        <time>2019-10-13T08:48:19Z</time>
      </trkpt>
      <trkpt lat="43.43319" lon="6.84499">
        <ele>79.2</ele>
        <time>2019-10-13T08:48:36Z</time>
      </trkpt>
      <trkpt lat="43.43319" lon="6.84499">
        <ele>79.4</ele>
        <time>2019-10-13T08:48:50Z</time>
      </trkpt>
      <trkpt lat="43.43319" lon="6.84501">
        <ele>79</ele>
        <time>2019-10-13T08:49:00Z</time>
      </trkpt>
      <trkpt lat="43.43315" lon="6.84513">
        <ele>79.2</ele>
        <time>2019-10-13T08:49:04Z</time>
      </trkpt>
      <trkpt lat="43.43306" lon="6.84527">
        <ele>79.6</ele>
        <time>2019-10-13T08:49:09Z</time>
      </trkpt>
      <trkpt lat="43.43289" lon="6.84528">
        <ele>81</ele>
        <time>2019-10-13T08:49:15Z</time>
      </trkpt>
      <trkpt lat="43.43285" lon="6.84525">
        <ele>81.4</ele>
        <time>2019-10-13T08:49:19Z</time>
      </trkpt>
      <trkpt lat="43.43285" lon="6.84529">
        <ele>81.6</ele>
        <time>2019-10-13T08:49:24Z</time>
      </trkpt>
      <trkpt lat="43.43285" lon="6.8453">
        <ele>81.4</ele>
        <time>2019-10-13T08:49:32Z</time>
      </trkpt>
      <trkpt lat="43.43285" lon="6.84528">
        <ele>81.2</ele>
        <time>2019-10-13T08:49:47Z</time>
      </trkpt>
      <trkpt lat="43.4328" lon="6.84524">
        <ele>81.8</ele>
        <time>2019-10-13T08:49:51Z</time>
      </trkpt>
      <trkpt lat="43.43278" lon="6.84523">
        <ele>81.6</ele>
        <time>2019-10-13T08:49:52Z</time>
      </trkpt>
      <trkpt lat="43.43261" lon="6.84518">
        <ele>81</ele>
        <time>2019-10-13T08:49:58Z</time>
      </trkpt>
      <trkpt lat="43.43257" lon="6.84518">
        <ele>80.8</ele>
        <time>2019-10-13T08:49:59Z</time>
      </trkpt>
      <trkpt lat="43.43246" lon="6.8452">
        <ele>80.6</ele>
        <time>2019-10-13T08:50:02Z</time>
      </trkpt>
      <trkpt lat="43.43243" lon="6.8452">
        <ele>80.2</ele>
        <time>2019-10-13T08:50:03Z</time>
      </trkpt>
      <trkpt lat="43.43241" lon="6.84521">
        <ele>79.8</ele>
        <time>2019-10-13T08:50:04Z</time>
      </trkpt>
      <trkpt lat="43.43235" lon="6.84525">
        <ele>79.4</ele>
        <time>2019-10-13T08:50:07Z</time>
      </trkpt>
      <trkpt lat="43.43231" lon="6.84528">
        <ele>78.6</ele>
        <time>2019-10-13T08:50:09Z</time>
      </trkpt>
      <trkpt lat="43.43227" lon="6.84531">
        <ele>78</ele>
        <time>2019-10-13T08:50:13Z</time>
      </trkpt>
      <trkpt lat="43.43228" lon="6.8453">
        <ele>78</ele>
        <time>2019-10-13T08:50:15Z</time>
      </trkpt>
      <trkpt lat="43.43232" lon="6.84527">
        <ele>78</ele>
        <time>2019-10-13T08:50:17Z</time>
      </trkpt>
      <trkpt lat="43.43245" lon="6.8452">
        <ele>78.6</ele>
        <time>2019-10-13T08:50:21Z</time>
      </trkpt>
      <trkpt lat="43.43262" lon="6.84518">
        <ele>79.6</ele>
        <time>2019-10-13T08:50:27Z</time>
      </trkpt>
      <trkpt lat="43.43261" lon="6.84518">
        <ele>79.8</ele>
        <time>2019-10-13T08:50:28Z</time>
      </trkpt>
      <trkpt lat="43.43261" lon="6.84518">
        <ele>80.2</ele>
        <time>2019-10-13T08:50:30Z</time>
      </trkpt>
      <trkpt lat="43.43256" lon="6.84518">
        <ele>80.6</ele>
        <time>2019-10-13T08:50:36Z</time>
      </trkpt>
      <trkpt lat="43.43255" lon="6.84519">
        <ele>80.8</ele>
        <time>2019-10-13T08:50:41Z</time>
      </trkpt>
      <trkpt lat="43.43254" lon="6.84519">
        <ele>80.8</ele>
        <time>2019-10-13T08:50:43Z</time>
      </trkpt>
      <trkpt lat="43.43254" lon="6.84519">
        <ele>80.8</ele>
        <time>2019-10-13T08:50:51Z</time>
      </trkpt>
      <trkpt lat="43.43253" lon="6.84519">
        <ele>80.8</ele>
        <time>2019-10-13T08:51:10Z</time>
      </trkpt>
      <trkpt lat="43.43242" lon="6.84521">
        <ele>80.6</ele>
        <time>2019-10-13T08:51:14Z</time>
      </trkpt>
      <trkpt lat="43.43237" lon="6.84523">
        <ele>80.6</ele>
        <time>2019-10-13T08:51:15Z</time>
      </trkpt>
      <trkpt lat="43.43222" lon="6.84532">
        <ele>79.6</ele>
        <time>2019-10-13T08:51:18Z</time>
      </trkpt>
      <trkpt lat="43.43213" lon="6.8454">
        <ele>78.2</ele>
        <time>2019-10-13T08:51:20Z</time>
      </trkpt>
      <trkpt lat="43.43207" lon="6.84543">
        <ele>77.6</ele>
        <time>2019-10-13T08:51:21Z</time>
      </trkpt>
      <trkpt lat="43.43201" lon="6.84545">
        <ele>76.8</ele>
        <time>2019-10-13T08:51:22Z</time>
      </trkpt>
      <trkpt lat="43.43188" lon="6.84551">
        <ele>75</ele>
        <time>2019-10-13T08:51:24Z</time>
      </trkpt>
      <trkpt lat="43.43181" lon="6.84555">
        <ele>73.8</ele>
        <time>2019-10-13T08:51:25Z</time>
      </trkpt>
      <trkpt lat="43.43174" lon="6.84562">
        <ele>72.8</ele>
        <time>2019-10-13T08:51:26Z</time>
      </trkpt>
      <trkpt lat="43.43167" lon="6.84568">
        <ele>72</ele>
        <time>2019-10-13T08:51:28Z</time>
      </trkpt>
      <trkpt lat="43.4316" lon="6.84574">
        <ele>71.4</ele>
        <time>2019-10-13T08:51:29Z</time>
      </trkpt>
      <trkpt lat="43.43153" lon="6.84581">
        <ele>70.8</ele>
        <time>2019-10-13T08:51:30Z</time>
      </trkpt>
      <trkpt lat="43.43146" lon="6.8459">
        <ele>69.8</ele>
        <time>2019-10-13T08:51:31Z</time>
      </trkpt>
      <trkpt lat="43.43141" lon="6.84599">
        <ele>68.6</ele>
        <time>2019-10-13T08:51:32Z</time>
      </trkpt>
      <trkpt lat="43.43138" lon="6.84607">
        <ele>67.4</ele>
        <time>2019-10-13T08:51:33Z</time>
      </trkpt>
      <trkpt lat="43.43127" lon="6.84614">
        <ele>66.2</ele>
        <time>2019-10-13T08:51:35Z</time>
      </trkpt>
      <trkpt lat="43.43121" lon="6.84616">
        <ele>65.8</ele>
        <time>2019-10-13T08:51:36Z</time>
      </trkpt>
      <trkpt lat="43.43114" lon="6.84619">
        <ele>65.4</ele>
        <time>2019-10-13T08:51:37Z</time>
      </trkpt>
      <trkpt lat="43.43108" lon="6.84621">
        <ele>65</ele>
        <time>2019-10-13T08:51:38Z</time>
      </trkpt>
      <trkpt lat="43.43101" lon="6.84622">
        <ele>64.6</ele>
        <time>2019-10-13T08:51:39Z</time>
      </trkpt>
      <trkpt lat="43.43095" lon="6.84622">
        <ele>64.2</ele>
        <time>2019-10-13T08:51:40Z</time>
      </trkpt>
      <trkpt lat="43.43091" lon="6.84623">
        <ele>63.8</ele>
        <time>2019-10-13T08:51:41Z</time>
      </trkpt>
      <trkpt lat="43.43086" lon="6.84624">
        <ele>63.2</ele>
        <time>2019-10-13T08:51:43Z</time>
      </trkpt>
      <trkpt lat="43.43082" lon="6.84621">
        <ele>62.6</ele>
        <time>2019-10-13T08:51:45Z</time>
      </trkpt>
      <trkpt lat="43.43082" lon="6.84621">
        <ele>62.6</ele>
        <time>2019-10-13T08:51:47Z</time>
      </trkpt>
      <trkpt lat="43.43082" lon="6.84621">
        <ele>62.8</ele>
        <time>2019-10-13T08:52:05Z</time>
      </trkpt>
      <trkpt lat="43.43084" lon="6.84621">
        <ele>62.8</ele>
        <time>2019-10-13T08:52:12Z</time>
      </trkpt>
      <trkpt lat="43.43091" lon="6.84622">
        <ele>63</ele>
        <time>2019-10-13T08:52:15Z</time>
      </trkpt>
      <trkpt lat="43.43093" lon="6.8462">
        <ele>63</ele>
        <time>2019-10-13T08:52:16Z</time>
      </trkpt>
      <trkpt lat="43.43093" lon="6.84609">
        <ele>63.6</ele>
        <time>2019-10-13T08:52:19Z</time>
      </trkpt>
      <trkpt lat="43.43092" lon="6.84605">
        <ele>63.8</ele>
        <time>2019-10-13T08:52:20Z</time>
      </trkpt>
      <trkpt lat="43.43089" lon="6.8459">
        <ele>64.6</ele>
        <time>2019-10-13T08:52:23Z</time>
      </trkpt>
      <trkpt lat="43.43088" lon="6.84585">
        <ele>64.8</ele>
        <time>2019-10-13T08:52:24Z</time>
      </trkpt>
      <trkpt lat="43.43085" lon="6.84571">
        <ele>65.8</ele>
        <time>2019-10-13T08:52:27Z</time>
      </trkpt>
      <trkpt lat="43.43083" lon="6.84567">
        <ele>66.2</ele>
        <time>2019-10-13T08:52:28Z</time>
      </trkpt>
      <trkpt lat="43.43073" lon="6.84549">
        <ele>66.8</ele>
        <time>2019-10-13T08:52:32Z</time>
      </trkpt>
      <trkpt lat="43.43069" lon="6.84544">
        <ele>66</ele>
        <time>2019-10-13T08:52:33Z</time>
      </trkpt>
      <trkpt lat="43.4306" lon="6.84525">
        <ele>65</ele>
        <time>2019-10-13T08:52:36Z</time>
      </trkpt>
      <trkpt lat="43.43058" lon="6.84517">
        <ele>64.6</ele>
        <time>2019-10-13T08:52:37Z</time>
      </trkpt>
      <trkpt lat="43.43053" lon="6.84501">
        <ele>63.6</ele>
        <time>2019-10-13T08:52:39Z</time>
      </trkpt>
      <trkpt lat="43.43048" lon="6.84484">
        <ele>62.4</ele>
        <time>2019-10-13T08:52:41Z</time>
      </trkpt>
      <trkpt lat="43.43044" lon="6.84466">
        <ele>61.8</ele>
        <time>2019-10-13T08:52:43Z</time>
      </trkpt>
      <trkpt lat="43.43043" lon="6.84457">
        <ele>61.6</ele>
        <time>2019-10-13T08:52:44Z</time>
      </trkpt>
      <trkpt lat="43.43043" lon="6.84448">
        <ele>61</ele>
        <time>2019-10-13T08:52:45Z</time>
      </trkpt>
      <trkpt lat="43.43043" lon="6.84439">
        <ele>60.8</ele>
        <time>2019-10-13T08:52:46Z</time>
      </trkpt>
      <trkpt lat="43.43043" lon="6.84421">
        <ele>60.2</ele>
        <time>2019-10-13T08:52:48Z</time>
      </trkpt>
      <trkpt lat="43.43044" lon="6.84412">
        <ele>59.6</ele>
        <time>2019-10-13T08:52:49Z</time>
      </trkpt>
      <trkpt lat="43.43045" lon="6.84395">
        <ele>59</ele>
        <time>2019-10-13T08:52:51Z</time>
      </trkpt>
      <trkpt lat="43.43047" lon="6.84391">
        <ele>58.4</ele>
        <time>2019-10-13T08:52:52Z</time>
      </trkpt>
      <trkpt lat="43.43056" lon="6.84391">
        <ele>58</ele>
        <time>2019-10-13T08:52:54Z</time>
      </trkpt>
      <trkpt lat="43.43064" lon="6.84385">
        <ele>58.2</ele>
        <time>2019-10-13T08:52:57Z</time>
      </trkpt>
      <trkpt lat="43.43075" lon="6.84376">
        <ele>58.4</ele>
        <time>2019-10-13T08:53:00Z</time>
      </trkpt>
      <trkpt lat="43.43078" lon="6.84373">
        <ele>58.2</ele>
        <time>2019-10-13T08:53:01Z</time>
      </trkpt>
      <trkpt lat="43.43079" lon="6.84369">
        <ele>58.2</ele>
        <time>2019-10-13T08:53:02Z</time>
      </trkpt>
      <trkpt lat="43.43079" lon="6.84364">
        <ele>57.8</ele>
        <time>2019-10-13T08:53:03Z</time>
      </trkpt>
      <trkpt lat="43.43071" lon="6.84349">
        <ele>57.4</ele>
        <time>2019-10-13T08:53:06Z</time>
      </trkpt>
      <trkpt lat="43.43068" lon="6.84343">
        <ele>57.2</ele>
        <time>2019-10-13T08:53:07Z</time>
      </trkpt>
      <trkpt lat="43.43059" lon="6.84324">
        <ele>56.2</ele>
        <time>2019-10-13T08:53:10Z</time>
      </trkpt>
      <trkpt lat="43.43054" lon="6.84311">
        <ele>55.8</ele>
        <time>2019-10-13T08:53:12Z</time>
      </trkpt>
      <trkpt lat="43.43054" lon="6.84285">
        <ele>55</ele>
        <time>2019-10-13T08:53:16Z</time>
      </trkpt>
      <trkpt lat="43.43058" lon="6.84266">
        <ele>54.4</ele>
        <time>2019-10-13T08:53:19Z</time>
      </trkpt>
      <trkpt lat="43.4306" lon="6.84259">
        <ele>54.2</ele>
        <time>2019-10-13T08:53:20Z</time>
      </trkpt>
      <trkpt lat="43.43061" lon="6.84253">
        <ele>53.6</ele>
        <time>2019-10-13T08:53:21Z</time>
      </trkpt>
      <trkpt lat="43.43056" lon="6.84248">
        <ele>53.8</ele>
        <time>2019-10-13T08:53:23Z</time>
      </trkpt>
      <trkpt lat="43.43042" lon="6.84241">
        <ele>53.4</ele>
        <time>2019-10-13T08:53:27Z</time>
      </trkpt>
      <trkpt lat="43.43038" lon="6.84237">
        <ele>53.4</ele>
        <time>2019-10-13T08:53:28Z</time>
      </trkpt>
      <trkpt lat="43.43031" lon="6.84225">
        <ele>52.8</ele>
        <time>2019-10-13T08:53:31Z</time>
      </trkpt>
      <trkpt lat="43.43031" lon="6.84219">
        <ele>53.6</ele>
        <time>2019-10-13T08:53:35Z</time>
      </trkpt>
      <trkpt lat="43.4303" lon="6.84219">
        <ele>54</ele>
        <time>2019-10-13T08:53:44Z</time>
      </trkpt>
      <trkpt lat="43.4303" lon="6.84219">
        <ele>53.8</ele>
        <time>2019-10-13T08:54:02Z</time>
      </trkpt>
      <trkpt lat="43.43031" lon="6.84216">
        <ele>53.8</ele>
        <time>2019-10-13T08:54:15Z</time>
      </trkpt>
      <trkpt lat="43.43035" lon="6.84193">
        <ele>54</ele>
        <time>2019-10-13T08:54:20Z</time>
      </trkpt>
      <trkpt lat="43.43036" lon="6.84182">
        <ele>54</ele>
        <time>2019-10-13T08:54:22Z</time>
      </trkpt>
      <trkpt lat="43.43036" lon="6.84164">
        <ele>54.2</ele>
        <time>2019-10-13T08:54:25Z</time>
      </trkpt>
      <trkpt lat="43.43038" lon="6.84153">
        <ele>54.4</ele>
        <time>2019-10-13T08:54:27Z</time>
      </trkpt>
      <trkpt lat="43.4304" lon="6.84145">
        <ele>54.8</ele>
        <time>2019-10-13T08:54:29Z</time>
      </trkpt>
      <trkpt lat="43.43039" lon="6.8414">
        <ele>55.2</ele>
        <time>2019-10-13T08:54:30Z</time>
      </trkpt>
      <trkpt lat="43.43039" lon="6.84135">
        <ele>55.8</ele>
        <time>2019-10-13T08:54:31Z</time>
      </trkpt>
      <trkpt lat="43.43038" lon="6.84126">
        <ele>57.4</ele>
        <time>2019-10-13T08:54:33Z</time>
      </trkpt>
      <trkpt lat="43.43037" lon="6.84113">
        <ele>58.4</ele>
        <time>2019-10-13T08:54:36Z</time>
      </trkpt>
      <trkpt lat="43.43036" lon="6.84108">
        <ele>58.8</ele>
        <time>2019-10-13T08:54:37Z</time>
      </trkpt>
      <trkpt lat="43.4303" lon="6.84089">
        <ele>59.2</ele>
        <time>2019-10-13T08:54:41Z</time>
      </trkpt>
      <trkpt lat="43.43026" lon="6.84077">
        <ele>58.8</ele>
        <time>2019-10-13T08:54:43Z</time>
      </trkpt>
      <trkpt lat="43.43018" lon="6.84059">
        <ele>59</ele>
        <time>2019-10-13T08:54:47Z</time>
      </trkpt>
      <trkpt lat="43.43015" lon="6.84055">
        <ele>59</ele>
        <time>2019-10-13T08:54:48Z</time>
      </trkpt>
      <trkpt lat="43.43007" lon="6.84044">
        <ele>59.6</ele>
        <time>2019-10-13T08:54:51Z</time>
      </trkpt>
      <trkpt lat="43.43005" lon="6.84039">
        <ele>59.8</ele>
        <time>2019-10-13T08:54:52Z</time>
      </trkpt>
      <trkpt lat="43.43005" lon="6.84027">
        <ele>60.6</ele>
        <time>2019-10-13T08:54:55Z</time>
      </trkpt>
      <trkpt lat="43.43005" lon="6.84023">
        <ele>61</ele>
        <time>2019-10-13T08:54:56Z</time>
      </trkpt>
      <trkpt lat="43.43004" lon="6.8402">
        <ele>61.8</ele>
        <time>2019-10-13T08:54:57Z</time>
      </trkpt>
      <trkpt lat="43.43005" lon="6.8401">
        <ele>63</ele>
        <time>2019-10-13T08:55:00Z</time>
      </trkpt>
      <trkpt lat="43.43006" lon="6.84003">
        <ele>63.4</ele>
        <time>2019-10-13T08:55:02Z</time>
      </trkpt>
      <trkpt lat="43.43004" lon="6.83997">
        <ele>64</ele>
        <time>2019-10-13T08:55:04Z</time>
      </trkpt>
      <trkpt lat="43.43003" lon="6.83993">
        <ele>64.6</ele>
        <time>2019-10-13T08:55:07Z</time>
      </trkpt>
      <trkpt lat="43.43003" lon="6.83992">
        <ele>65.2</ele>
        <time>2019-10-13T08:55:09Z</time>
      </trkpt>
      <trkpt lat="43.43003" lon="6.83991">
        <ele>65.6</ele>
        <time>2019-10-13T08:55:13Z</time>
      </trkpt>
      <trkpt lat="43.43003" lon="6.83991">
        <ele>65.8</ele>
        <time>2019-10-13T08:55:29Z</time>
      </trkpt>
      <trkpt lat="43.43003" lon="6.83991">
        <ele>66</ele>
        <time>2019-10-13T08:55:45Z</time>
      </trkpt>
      <trkpt lat="43.42999" lon="6.83982">
        <ele>66</ele>
        <time>2019-10-13T08:55:51Z</time>
      </trkpt>
      <trkpt lat="43.42994" lon="6.8397">
        <ele>66.4</ele>
        <time>2019-10-13T08:55:54Z</time>
      </trkpt>
      <trkpt lat="43.42989" lon="6.83958">
        <ele>67.6</ele>
        <time>2019-10-13T08:55:57Z</time>
      </trkpt>
      <trkpt lat="43.42974" lon="6.8394">
        <ele>68.6</ele>
        <time>2019-10-13T08:56:02Z</time>
      </trkpt>
      <trkpt lat="43.42973" lon="6.83935">
        <ele>68.6</ele>
        <time>2019-10-13T08:56:03Z</time>
      </trkpt>
      <trkpt lat="43.42971" lon="6.83919">
        <ele>69.4</ele>
        <time>2019-10-13T08:56:06Z</time>
      </trkpt>
      <trkpt lat="43.42968" lon="6.83903">
        <ele>69.6</ele>
        <time>2019-10-13T08:56:09Z</time>
      </trkpt>
      <trkpt lat="43.42967" lon="6.83898">
        <ele>69.8</ele>
        <time>2019-10-13T08:56:10Z</time>
      </trkpt>
      <trkpt lat="43.42957" lon="6.83858">
        <ele>70.4</ele>
        <time>2019-10-13T08:56:17Z</time>
      </trkpt>
      <trkpt lat="43.42956" lon="6.83854">
        <ele>70.8</ele>
        <time>2019-10-13T08:56:18Z</time>
      </trkpt>
      <trkpt lat="43.42954" lon="6.83841">
        <ele>71.8</ele>
        <time>2019-10-13T08:56:21Z</time>
      </trkpt>
      <trkpt lat="43.42954" lon="6.83836">
        <ele>72</ele>
        <time>2019-10-13T08:56:22Z</time>
      </trkpt>
      <trkpt lat="43.42952" lon="6.83822">
        <ele>73.2</ele>
        <time>2019-10-13T08:56:25Z</time>
      </trkpt>
      <trkpt lat="43.42952" lon="6.83804">
        <ele>73.8</ele>
        <time>2019-10-13T08:56:29Z</time>
      </trkpt>
      <trkpt lat="43.42951" lon="6.83799">
        <ele>74.4</ele>
        <time>2019-10-13T08:56:30Z</time>
      </trkpt>
      <trkpt lat="43.42951" lon="6.83775">
        <ele>75.6</ele>
        <time>2019-10-13T08:56:35Z</time>
      </trkpt>
      <trkpt lat="43.42951" lon="6.83766">
        <ele>76</ele>
        <time>2019-10-13T08:56:37Z</time>
      </trkpt>
      <trkpt lat="43.42949" lon="6.83747">
        <ele>76.6</ele>
        <time>2019-10-13T08:56:41Z</time>
      </trkpt>
      <trkpt lat="43.4295" lon="6.83743">
        <ele>76.8</ele>
        <time>2019-10-13T08:56:42Z</time>
      </trkpt>
      <trkpt lat="43.4295" lon="6.83728">
        <ele>77.2</ele>
        <time>2019-10-13T08:56:46Z</time>
      </trkpt>
      <trkpt lat="43.42949" lon="6.83713">
        <ele>77.8</ele>
        <time>2019-10-13T08:56:49Z</time>
      </trkpt>
      <trkpt lat="43.42947" lon="6.83698">
        <ele>78.4</ele>
        <time>2019-10-13T08:56:52Z</time>
      </trkpt>
      <trkpt lat="43.42944" lon="6.83689">
        <ele>78.8</ele>
        <time>2019-10-13T08:56:54Z</time>
      </trkpt>
      <trkpt lat="43.42937" lon="6.83679">
        <ele>79</ele>
        <time>2019-10-13T08:56:57Z</time>
      </trkpt>
      <trkpt lat="43.42925" lon="6.83672">
        <ele>79.8</ele>
        <time>2019-10-13T08:57:00Z</time>
      </trkpt>
      <trkpt lat="43.42921" lon="6.83672">
        <ele>79.6</ele>
        <time>2019-10-13T08:57:01Z</time>
      </trkpt>
      <trkpt lat="43.42908" lon="6.83675">
        <ele>79.8</ele>
        <time>2019-10-13T08:57:04Z</time>
      </trkpt>
      <trkpt lat="43.42895" lon="6.83681">
        <ele>80</ele>
        <time>2019-10-13T08:57:07Z</time>
      </trkpt>
      <trkpt lat="43.42875" lon="6.83689">
        <ele>80.4</ele>
        <time>2019-10-13T08:57:12Z</time>
      </trkpt>
      <trkpt lat="43.42871" lon="6.83692">
        <ele>80.4</ele>
        <time>2019-10-13T08:57:13Z</time>
      </trkpt>
      <trkpt lat="43.42862" lon="6.83702">
        <ele>80.4</ele>
        <time>2019-10-13T08:57:16Z</time>
      </trkpt>
      <trkpt lat="43.42857" lon="6.8371">
        <ele>80.6</ele>
        <time>2019-10-13T08:57:18Z</time>
      </trkpt>
      <trkpt lat="43.42844" lon="6.83725">
        <ele>81</ele>
        <time>2019-10-13T08:57:23Z</time>
      </trkpt>
      <trkpt lat="43.42837" lon="6.83732">
        <ele>81.6</ele>
        <time>2019-10-13T08:57:26Z</time>
      </trkpt>
      <trkpt lat="43.4283" lon="6.8374">
        <ele>82.2</ele>
        <time>2019-10-13T08:57:29Z</time>
      </trkpt>
      <trkpt lat="43.4282" lon="6.83751">
        <ele>82.6</ele>
        <time>2019-10-13T08:57:33Z</time>
      </trkpt>
      <trkpt lat="43.428" lon="6.83759">
        <ele>83.2</ele>
        <time>2019-10-13T08:57:39Z</time>
      </trkpt>
      <trkpt lat="43.42791" lon="6.83746">
        <ele>84.6</ele>
        <time>2019-10-13T08:57:43Z</time>
      </trkpt>
      <trkpt lat="43.4279" lon="6.83737">
        <ele>85.8</ele>
        <time>2019-10-13T08:57:45Z</time>
      </trkpt>
      <trkpt lat="43.42788" lon="6.83728">
        <ele>87.2</ele>
        <time>2019-10-13T08:57:47Z</time>
      </trkpt>
      <trkpt lat="43.42787" lon="6.8372">
        <ele>88</ele>
        <time>2019-10-13T08:57:49Z</time>
      </trkpt>
      <trkpt lat="43.42786" lon="6.83716">
        <ele>88.2</ele>
        <time>2019-10-13T08:57:50Z</time>
      </trkpt>
      <trkpt lat="43.42782" lon="6.83709">
        <ele>88.6</ele>
        <time>2019-10-13T08:57:52Z</time>
      </trkpt>
      <trkpt lat="43.42779" lon="6.83709">
        <ele>88.8</ele>
        <time>2019-10-13T08:57:53Z</time>
      </trkpt>
      <trkpt lat="43.4277" lon="6.83709">
        <ele>89.6</ele>
        <time>2019-10-13T08:57:56Z</time>
      </trkpt>
      <trkpt lat="43.42761" lon="6.83708">
        <ele>90.6</ele>
        <time>2019-10-13T08:57:59Z</time>
      </trkpt>
      <trkpt lat="43.42758" lon="6.83708">
        <ele>90.8</ele>
        <time>2019-10-13T08:58:00Z</time>
      </trkpt>
      <trkpt lat="43.42746" lon="6.83704">
        <ele>92</ele>
        <time>2019-10-13T08:58:04Z</time>
      </trkpt>
      <trkpt lat="43.42742" lon="6.83703">
        <ele>92.2</ele>
        <time>2019-10-13T08:58:05Z</time>
      </trkpt>
      <trkpt lat="43.42724" lon="6.83697">
        <ele>93.2</ele>
        <time>2019-10-13T08:58:10Z</time>
      </trkpt>
      <trkpt lat="43.42716" lon="6.83695">
        <ele>93.2</ele>
        <time>2019-10-13T08:58:12Z</time>
      </trkpt>
      <trkpt lat="43.42698" lon="6.83692">
        <ele>94.2</ele>
        <time>2019-10-13T08:58:17Z</time>
      </trkpt>
      <trkpt lat="43.42691" lon="6.83692">
        <ele>94.6</ele>
        <time>2019-10-13T08:58:19Z</time>
      </trkpt>
      <trkpt lat="43.42678" lon="6.83691">
        <ele>95.2</ele>
        <time>2019-10-13T08:58:24Z</time>
      </trkpt>
      <trkpt lat="43.42676" lon="6.83691">
        <ele>95.4</ele>
        <time>2019-10-13T08:58:25Z</time>
      </trkpt>
      <trkpt lat="43.42673" lon="6.83689">
        <ele>95.2</ele>
        <time>2019-10-13T08:58:30Z</time>
      </trkpt>
      <trkpt lat="43.42673" lon="6.83689">
        <ele>94.6</ele>
        <time>2019-10-13T08:58:47Z</time>
      </trkpt>
      <trkpt lat="43.42673" lon="6.83689">
        <ele>94.4</ele>
        <time>2019-10-13T08:59:05Z</time>
      </trkpt>
      <trkpt lat="43.42673" lon="6.83689">
        <ele>94.2</ele>
        <time>2019-10-13T08:59:07Z</time>
      </trkpt>
      <trkpt lat="43.42673" lon="6.83689">
        <ele>94.4</ele>
        <time>2019-10-13T08:59:19Z</time>
      </trkpt>
      <trkpt lat="43.42673" lon="6.83686">
        <ele>94.8</ele>
        <time>2019-10-13T08:59:23Z</time>
      </trkpt>
      <trkpt lat="43.42677" lon="6.83682">
        <ele>94.8</ele>
        <time>2019-10-13T08:59:25Z</time>
      </trkpt>
      <trkpt lat="43.4269" lon="6.83666">
        <ele>94.8</ele>
        <time>2019-10-13T08:59:29Z</time>
      </trkpt>
      <trkpt lat="43.42693" lon="6.83662">
        <ele>95</ele>
        <time>2019-10-13T08:59:30Z</time>
      </trkpt>
      <trkpt lat="43.42697" lon="6.83658">
        <ele>95.2</ele>
        <time>2019-10-13T08:59:31Z</time>
      </trkpt>
      <trkpt lat="43.42701" lon="6.83655">
        <ele>95.4</ele>
        <time>2019-10-13T08:59:32Z</time>
      </trkpt>
      <trkpt lat="43.42704" lon="6.83651">
        <ele>95.6</ele>
        <time>2019-10-13T08:59:33Z</time>
      </trkpt>
      <trkpt lat="43.4271" lon="6.83644">
        <ele>96.2</ele>
        <time>2019-10-13T08:59:35Z</time>
      </trkpt>
      <trkpt lat="43.42712" lon="6.83641">
        <ele>96.8</ele>
        <time>2019-10-13T08:59:36Z</time>
      </trkpt>
      <trkpt lat="43.42715" lon="6.83639">
        <ele>97.4</ele>
        <time>2019-10-13T08:59:37Z</time>
      </trkpt>
      <trkpt lat="43.42717" lon="6.83635">
        <ele>97.8</ele>
        <time>2019-10-13T08:59:38Z</time>
      </trkpt>
      <trkpt lat="43.42721" lon="6.83628">
        <ele>99.6</ele>
        <time>2019-10-13T08:59:40Z</time>
      </trkpt>
      <trkpt lat="43.42723" lon="6.83625">
        <ele>100.4</ele>
        <time>2019-10-13T08:59:41Z</time>
      </trkpt>
      <trkpt lat="43.42725" lon="6.83623">
        <ele>101.2</ele>
        <time>2019-10-13T08:59:42Z</time>
      </trkpt>
      <trkpt lat="43.42729" lon="6.83617">
        <ele>102.6</ele>
        <time>2019-10-13T08:59:44Z</time>
      </trkpt>
      <trkpt lat="43.42731" lon="6.83612">
        <ele>104</ele>
        <time>2019-10-13T08:59:46Z</time>
      </trkpt>
      <trkpt lat="43.42731" lon="6.83609">
        <ele>104.4</ele>
        <time>2019-10-13T08:59:47Z</time>
      </trkpt>
      <trkpt lat="43.42733" lon="6.83604">
        <ele>105.2</ele>
        <time>2019-10-13T08:59:49Z</time>
      </trkpt>
      <trkpt lat="43.42737" lon="6.83587">
        <ele>105</ele>
        <time>2019-10-13T08:59:53Z</time>
      </trkpt>
      <trkpt lat="43.42741" lon="6.83562">
        <ele>104.2</ele>
        <time>2019-10-13T08:59:56Z</time>
      </trkpt>
      <trkpt lat="43.42742" lon="6.83553">
        <ele>103.6</ele>
        <time>2019-10-13T08:59:57Z</time>
      </trkpt>
      <trkpt lat="43.42746" lon="6.83534">
        <ele>102</ele>
        <time>2019-10-13T08:59:59Z</time>
      </trkpt>
      <trkpt lat="43.42751" lon="6.83517">
        <ele>100.8</ele>
        <time>2019-10-13T09:00:01Z</time>
      </trkpt>
      <trkpt lat="43.42767" lon="6.83479">
        <ele>99.2</ele>
        <time>2019-10-13T09:00:05Z</time>
      </trkpt>
      <trkpt lat="43.42771" lon="6.83471">
        <ele>98</ele>
        <time>2019-10-13T09:00:06Z</time>
      </trkpt>
      <trkpt lat="43.42776" lon="6.83462">
        <ele>97</ele>
        <time>2019-10-13T09:00:07Z</time>
      </trkpt>
      <trkpt lat="43.4278" lon="6.83453">
        <ele>95.6</ele>
        <time>2019-10-13T09:00:08Z</time>
      </trkpt>
      <trkpt lat="43.42783" lon="6.83445">
        <ele>94</ele>
        <time>2019-10-13T09:00:09Z</time>
      </trkpt>
      <trkpt lat="43.42786" lon="6.8344">
        <ele>92.2</ele>
        <time>2019-10-13T09:00:10Z</time>
      </trkpt>
      <trkpt lat="43.42788" lon="6.83435">
        <ele>91.8</ele>
        <time>2019-10-13T09:00:11Z</time>
      </trkpt>
      <trkpt lat="43.42789" lon="6.83431">
        <ele>91.6</ele>
        <time>2019-10-13T09:00:12Z</time>
      </trkpt>
      <trkpt lat="43.4279" lon="6.83428">
        <ele>91</ele>
        <time>2019-10-13T09:00:13Z</time>
      </trkpt>
      <trkpt lat="43.42789" lon="6.83425">
        <ele>90.4</ele>
        <time>2019-10-13T09:00:14Z</time>
      </trkpt>
      <trkpt lat="43.42788" lon="6.83424">
        <ele>90</ele>
        <time>2019-10-13T09:00:15Z</time>
      </trkpt>
      <trkpt lat="43.42787" lon="6.83424">
        <ele>90</ele>
        <time>2019-10-13T09:00:16Z</time>
      </trkpt>
      <trkpt lat="43.42787" lon="6.83424">
        <ele>89.8</ele>
        <time>2019-10-13T09:00:19Z</time>
      </trkpt>
      <trkpt lat="43.42787" lon="6.83424">
        <ele>89.2</ele>
        <time>2019-10-13T09:00:38Z</time>
      </trkpt>
      <trkpt lat="43.42788" lon="6.83427">
        <ele>89.4</ele>
        <time>2019-10-13T09:00:45Z</time>
      </trkpt>
      <trkpt lat="43.42801" lon="6.83436">
        <ele>89</ele>
        <time>2019-10-13T09:00:50Z</time>
      </trkpt>
      <trkpt lat="43.42808" lon="6.83438">
        <ele>88.6</ele>
        <time>2019-10-13T09:00:51Z</time>
      </trkpt>
      <trkpt lat="43.42822" lon="6.83443">
        <ele>86.2</ele>
        <time>2019-10-13T09:00:53Z</time>
      </trkpt>
      <trkpt lat="43.4283" lon="6.83445">
        <ele>84.6</ele>
        <time>2019-10-13T09:00:54Z</time>
      </trkpt>
      <trkpt lat="43.4284" lon="6.83447">
        <ele>82.8</ele>
        <time>2019-10-13T09:00:55Z</time>
      </trkpt>
      <trkpt lat="43.4285" lon="6.83449">
        <ele>80.6</ele>
        <time>2019-10-13T09:00:56Z</time>
      </trkpt>
      <trkpt lat="43.42859" lon="6.83449">
        <ele>78.2</ele>
        <time>2019-10-13T09:00:57Z</time>
      </trkpt>
      <trkpt lat="43.42869" lon="6.83448">
        <ele>73.8</ele>
        <time>2019-10-13T09:00:58Z</time>
      </trkpt>
      <trkpt lat="43.42878" lon="6.83445">
        <ele>72.4</ele>
        <time>2019-10-13T09:00:59Z</time>
      </trkpt>
      <trkpt lat="43.42888" lon="6.83441">
        <ele>71</ele>
        <time>2019-10-13T09:01:00Z</time>
      </trkpt>
      <trkpt lat="43.42898" lon="6.83436">
        <ele>69.6</ele>
        <time>2019-10-13T09:01:01Z</time>
      </trkpt>
      <trkpt lat="43.42908" lon="6.83433">
        <ele>67.8</ele>
        <time>2019-10-13T09:01:02Z</time>
      </trkpt>
      <trkpt lat="43.42915" lon="6.83431">
        <ele>66.4</ele>
        <time>2019-10-13T09:01:03Z</time>
      </trkpt>
      <trkpt lat="43.4292" lon="6.83429">
        <ele>65.6</ele>
        <time>2019-10-13T09:01:04Z</time>
      </trkpt>
      <trkpt lat="43.42927" lon="6.83419">
        <ele>66</ele>
        <time>2019-10-13T09:01:07Z</time>
      </trkpt>
      <trkpt lat="43.42928" lon="6.83411">
        <ele>66</ele>
        <time>2019-10-13T09:01:09Z</time>
      </trkpt>
      <trkpt lat="43.42931" lon="6.834">
        <ele>65.4</ele>
        <time>2019-10-13T09:01:12Z</time>
      </trkpt>
      <trkpt lat="43.42931" lon="6.83377">
        <ele>65.4</ele>
        <time>2019-10-13T09:01:18Z</time>
      </trkpt>
      <trkpt lat="43.42927" lon="6.8336">
        <ele>63.4</ele>
        <time>2019-10-13T09:01:22Z</time>
      </trkpt>
      <trkpt lat="43.42927" lon="6.83353">
        <ele>62.8</ele>
        <time>2019-10-13T09:01:23Z</time>
      </trkpt>
      <trkpt lat="43.42928" lon="6.83345">
        <ele>62</ele>
        <time>2019-10-13T09:01:24Z</time>
      </trkpt>
      <trkpt lat="43.42928" lon="6.8333">
        <ele>60.4</ele>
        <time>2019-10-13T09:01:26Z</time>
      </trkpt>
      <trkpt lat="43.42929" lon="6.83324">
        <ele>59.8</ele>
        <time>2019-10-13T09:01:27Z</time>
      </trkpt>
      <trkpt lat="43.42932" lon="6.83317">
        <ele>59.4</ele>
        <time>2019-10-13T09:01:28Z</time>
      </trkpt>
      <trkpt lat="43.42939" lon="6.83305">
        <ele>58.6</ele>
        <time>2019-10-13T09:01:30Z</time>
      </trkpt>
      <trkpt lat="43.42941" lon="6.83298">
        <ele>58</ele>
        <time>2019-10-13T09:01:31Z</time>
      </trkpt>
      <trkpt lat="43.42947" lon="6.83283">
        <ele>57</ele>
        <time>2019-10-13T09:01:33Z</time>
      </trkpt>
      <trkpt lat="43.4295" lon="6.83276">
        <ele>56.6</ele>
        <time>2019-10-13T09:01:34Z</time>
      </trkpt>
      <trkpt lat="43.42955" lon="6.83258">
        <ele>55.4</ele>
        <time>2019-10-13T09:01:36Z</time>
      </trkpt>
      <trkpt lat="43.42959" lon="6.83252">
        <ele>54.4</ele>
        <time>2019-10-13T09:01:37Z</time>
      </trkpt>
      <trkpt lat="43.42963" lon="6.83245">
        <ele>53.2</ele>
        <time>2019-10-13T09:01:38Z</time>
      </trkpt>
      <trkpt lat="43.4297" lon="6.83231">
        <ele>51.6</ele>
        <time>2019-10-13T09:01:40Z</time>
      </trkpt>
      <trkpt lat="43.42973" lon="6.83215">
        <ele>50.4</ele>
        <time>2019-10-13T09:01:42Z</time>
      </trkpt>
      <trkpt lat="43.42976" lon="6.83199">
        <ele>49.4</ele>
        <time>2019-10-13T09:01:45Z</time>
      </trkpt>
      <trkpt lat="43.42982" lon="6.83195">
        <ele>48.8</ele>
        <time>2019-10-13T09:01:47Z</time>
      </trkpt>
      <trkpt lat="43.42988" lon="6.83189">
        <ele>48.8</ele>
        <time>2019-10-13T09:01:49Z</time>
      </trkpt>
      <trkpt lat="43.4299" lon="6.83186">
        <ele>48.2</ele>
        <time>2019-10-13T09:01:50Z</time>
      </trkpt>
      <trkpt lat="43.42993" lon="6.83178">
        <ele>46.6</ele>
        <time>2019-10-13T09:01:52Z</time>
      </trkpt>
      <trkpt lat="43.42993" lon="6.83179">
        <ele>45.6</ele>
        <time>2019-10-13T09:01:54Z</time>
      </trkpt>
      <trkpt lat="43.42993" lon="6.83178">
        <ele>45.2</ele>
        <time>2019-10-13T09:01:55Z</time>
      </trkpt>
      <trkpt lat="43.42995" lon="6.83179">
        <ele>45.2</ele>
        <time>2019-10-13T09:01:56Z</time>
      </trkpt>
      <trkpt lat="43.43002" lon="6.83174">
        <ele>45</ele>
        <time>2019-10-13T09:01:59Z</time>
      </trkpt>
      <trkpt lat="43.43005" lon="6.83166">
        <ele>44.8</ele>
        <time>2019-10-13T09:02:01Z</time>
      </trkpt>
      <trkpt lat="43.43008" lon="6.83159">
        <ele>44.6</ele>
        <time>2019-10-13T09:02:03Z</time>
      </trkpt>
      <trkpt lat="43.4301" lon="6.83144">
        <ele>45.6</ele>
        <time>2019-10-13T09:02:07Z</time>
      </trkpt>
      <trkpt lat="43.43008" lon="6.83135">
        <ele>46</ele>
        <time>2019-10-13T09:02:09Z</time>
      </trkpt>
      <trkpt lat="43.42999" lon="6.83114">
        <ele>46</ele>
        <time>2019-10-13T09:02:14Z</time>
      </trkpt>
      <trkpt lat="43.4298" lon="6.83098">
        <ele>45.6</ele>
        <time>2019-10-13T09:02:20Z</time>
      </trkpt>
      <trkpt lat="43.42964" lon="6.83085">
        <ele>44.6</ele>
        <time>2019-10-13T09:02:24Z</time>
      </trkpt>
      <trkpt lat="43.42949" lon="6.83074">
        <ele>44</ele>
        <time>2019-10-13T09:02:27Z</time>
      </trkpt>
      <trkpt lat="43.42934" lon="6.83063">
        <ele>43.4</ele>
        <time>2019-10-13T09:02:30Z</time>
      </trkpt>
      <trkpt lat="43.42917" lon="6.83054">
        <ele>42.6</ele>
        <time>2019-10-13T09:02:33Z</time>
      </trkpt>
      <trkpt lat="43.42905" lon="6.83049">
        <ele>42.4</ele>
        <time>2019-10-13T09:02:35Z</time>
      </trkpt>
      <trkpt lat="43.42893" lon="6.83041">
        <ele>41.8</ele>
        <time>2019-10-13T09:02:37Z</time>
      </trkpt>
      <trkpt lat="43.42887" lon="6.83035">
        <ele>41.6</ele>
        <time>2019-10-13T09:02:38Z</time>
      </trkpt>
      <trkpt lat="43.42881" lon="6.83028">
        <ele>41.2</ele>
        <time>2019-10-13T09:02:39Z</time>
      </trkpt>
      <trkpt lat="43.42863" lon="6.8301">
        <ele>40.2</ele>
        <time>2019-10-13T09:02:42Z</time>
      </trkpt>
      <trkpt lat="43.42856" lon="6.83005">
        <ele>39.8</ele>
        <time>2019-10-13T09:02:43Z</time>
      </trkpt>
      <trkpt lat="43.42835" lon="6.82996">
        <ele>40.2</ele>
        <time>2019-10-13T09:02:46Z</time>
      </trkpt>
      <trkpt lat="43.42829" lon="6.82992">
        <ele>40.6</ele>
        <time>2019-10-13T09:02:47Z</time>
      </trkpt>
      <trkpt lat="43.42793" lon="6.82965">
        <ele>40.6</ele>
        <time>2019-10-13T09:02:52Z</time>
      </trkpt>
      <trkpt lat="43.42785" lon="6.82959">
        <ele>39.8</ele>
        <time>2019-10-13T09:02:53Z</time>
      </trkpt>
      <trkpt lat="43.42775" lon="6.82953">
        <ele>38.4</ele>
        <time>2019-10-13T09:02:54Z</time>
      </trkpt>
      <trkpt lat="43.42766" lon="6.82948">
        <ele>37</ele>
        <time>2019-10-13T09:02:55Z</time>
      </trkpt>
      <trkpt lat="43.42757" lon="6.82943">
        <ele>35.8</ele>
        <time>2019-10-13T09:02:56Z</time>
      </trkpt>
      <trkpt lat="43.42738" lon="6.82934">
        <ele>34.2</ele>
        <time>2019-10-13T09:02:58Z</time>
      </trkpt>
      <trkpt lat="43.42722" lon="6.82922">
        <ele>34.4</ele>
        <time>2019-10-13T09:03:00Z</time>
      </trkpt>
      <trkpt lat="43.42716" lon="6.82913">
        <ele>34.6</ele>
        <time>2019-10-13T09:03:01Z</time>
      </trkpt>
      <trkpt lat="43.42711" lon="6.8289">
        <ele>34</ele>
        <time>2019-10-13T09:03:03Z</time>
      </trkpt>
      <trkpt lat="43.42714" lon="6.82863">
        <ele>34.8</ele>
        <time>2019-10-13T09:03:06Z</time>
      </trkpt>
      <trkpt lat="43.42717" lon="6.82856">
        <ele>35.4</ele>
        <time>2019-10-13T09:03:07Z</time>
      </trkpt>
      <trkpt lat="43.4272" lon="6.82849">
        <ele>36</ele>
        <time>2019-10-13T09:03:08Z</time>
      </trkpt>
      <trkpt lat="43.42723" lon="6.82844">
        <ele>36.6</ele>
        <time>2019-10-13T09:03:09Z</time>
      </trkpt>
      <trkpt lat="43.42727" lon="6.82839">
        <ele>37.2</ele>
        <time>2019-10-13T09:03:10Z</time>
      </trkpt>
      <trkpt lat="43.42731" lon="6.82835">
        <ele>37.8</ele>
        <time>2019-10-13T09:03:11Z</time>
      </trkpt>
      <trkpt lat="43.4274" lon="6.82826">
        <ele>38.2</ele>
        <time>2019-10-13T09:03:13Z</time>
      </trkpt>
      <trkpt lat="43.42744" lon="6.82823">
        <ele>38.4</ele>
        <time>2019-10-13T09:03:14Z</time>
      </trkpt>
      <trkpt lat="43.42749" lon="6.8282">
        <ele>38.6</ele>
        <time>2019-10-13T09:03:15Z</time>
      </trkpt>
      <trkpt lat="43.42754" lon="6.82817">
        <ele>38.8</ele>
        <time>2019-10-13T09:03:16Z</time>
      </trkpt>
      <trkpt lat="43.42766" lon="6.82808">
        <ele>39.8</ele>
        <time>2019-10-13T09:03:19Z</time>
      </trkpt>
      <trkpt lat="43.42774" lon="6.82803">
        <ele>40.4</ele>
        <time>2019-10-13T09:03:21Z</time>
      </trkpt>
      <trkpt lat="43.42778" lon="6.82801">
        <ele>41.4</ele>
        <time>2019-10-13T09:03:22Z</time>
      </trkpt>
      <trkpt lat="43.42783" lon="6.82799">
        <ele>41.8</ele>
        <time>2019-10-13T09:03:23Z</time>
      </trkpt>
      <trkpt lat="43.42792" lon="6.82792">
        <ele>42.2</ele>
        <time>2019-10-13T09:03:25Z</time>
      </trkpt>
      <trkpt lat="43.42801" lon="6.82781">
        <ele>42</ele>
        <time>2019-10-13T09:03:27Z</time>
      </trkpt>
      <trkpt lat="43.42811" lon="6.82755">
        <ele>42</ele>
        <time>2019-10-13T09:03:31Z</time>
      </trkpt>
      <trkpt lat="43.42812" lon="6.82749">
        <ele>42</ele>
        <time>2019-10-13T09:03:32Z</time>
      </trkpt>
      <trkpt lat="43.42813" lon="6.82737">
        <ele>42.8</ele>
        <time>2019-10-13T09:03:34Z</time>
      </trkpt>
      <trkpt lat="43.42815" lon="6.82726">
        <ele>43.2</ele>
        <time>2019-10-13T09:03:36Z</time>
      </trkpt>
      <trkpt lat="43.42815" lon="6.82721">
        <ele>43.6</ele>
        <time>2019-10-13T09:03:37Z</time>
      </trkpt>
      <trkpt lat="43.42815" lon="6.82716">
        <ele>44.2</ele>
        <time>2019-10-13T09:03:38Z</time>
      </trkpt>
      <trkpt lat="43.42816" lon="6.82707">
        <ele>45.2</ele>
        <time>2019-10-13T09:03:40Z</time>
      </trkpt>
      <trkpt lat="43.42817" lon="6.82698">
        <ele>45.8</ele>
        <time>2019-10-13T09:03:42Z</time>
      </trkpt>
      <trkpt lat="43.42817" lon="6.82694">
        <ele>46.2</ele>
        <time>2019-10-13T09:03:43Z</time>
      </trkpt>
      <trkpt lat="43.42817" lon="6.82682">
        <ele>47.4</ele>
        <time>2019-10-13T09:03:46Z</time>
      </trkpt>
      <trkpt lat="43.42818" lon="6.82675">
        <ele>48.4</ele>
        <time>2019-10-13T09:03:48Z</time>
      </trkpt>
      <trkpt lat="43.42818" lon="6.82672">
        <ele>48.8</ele>
        <time>2019-10-13T09:03:49Z</time>
      </trkpt>
      <trkpt lat="43.42818" lon="6.82664">
        <ele>50</ele>
        <time>2019-10-13T09:03:52Z</time>
      </trkpt>
      <trkpt lat="43.42817" lon="6.82655">
        <ele>51.4</ele>
        <time>2019-10-13T09:03:55Z</time>
      </trkpt>
      <trkpt lat="43.42816" lon="6.8265">
        <ele>52.4</ele>
        <time>2019-10-13T09:03:57Z</time>
      </trkpt>
      <trkpt lat="43.42815" lon="6.8264">
        <ele>53.4</ele>
        <time>2019-10-13T09:04:01Z</time>
      </trkpt>
      <trkpt lat="43.42815" lon="6.82634">
        <ele>54</ele>
        <time>2019-10-13T09:04:03Z</time>
      </trkpt>
      <trkpt lat="43.42816" lon="6.82632">
        <ele>54.6</ele>
        <time>2019-10-13T09:04:04Z</time>
      </trkpt>
      <trkpt lat="43.42816" lon="6.82624">
        <ele>56</ele>
        <time>2019-10-13T09:04:07Z</time>
      </trkpt>
      <trkpt lat="43.42817" lon="6.82617">
        <ele>57.8</ele>
        <time>2019-10-13T09:04:10Z</time>
      </trkpt>
      <trkpt lat="43.42818" lon="6.82608">
        <ele>58.8</ele>
        <time>2019-10-13T09:04:13Z</time>
      </trkpt>
      <trkpt lat="43.42819" lon="6.826">
        <ele>60</ele>
        <time>2019-10-13T09:04:16Z</time>
      </trkpt>
      <trkpt lat="43.42819" lon="6.82594">
        <ele>61.2</ele>
        <time>2019-10-13T09:04:18Z</time>
      </trkpt>
      <trkpt lat="43.42817" lon="6.82587">
        <ele>62.4</ele>
        <time>2019-10-13T09:04:21Z</time>
      </trkpt>
      <trkpt lat="43.42817" lon="6.82585">
        <ele>62.8</ele>
        <time>2019-10-13T09:04:22Z</time>
      </trkpt>
      <trkpt lat="43.42814" lon="6.82577">
        <ele>63.4</ele>
        <time>2019-10-13T09:04:25Z</time>
      </trkpt>
      <trkpt lat="43.42812" lon="6.82565">
        <ele>64.4</ele>
        <time>2019-10-13T09:04:29Z</time>
      </trkpt>
      <trkpt lat="43.42808" lon="6.82556">
        <ele>64.4</ele>
        <time>2019-10-13T09:04:32Z</time>
      </trkpt>
      <trkpt lat="43.42804" lon="6.82551">
        <ele>64.2</ele>
        <time>2019-10-13T09:04:34Z</time>
      </trkpt>
      <trkpt lat="43.42788" lon="6.82535">
        <ele>64.4</ele>
        <time>2019-10-13T09:04:42Z</time>
      </trkpt>
      <trkpt lat="43.42777" lon="6.82521">
        <ele>64.8</ele>
        <time>2019-10-13T09:04:47Z</time>
      </trkpt>
      <trkpt lat="43.42766" lon="6.82498">
        <ele>63.8</ele>
        <time>2019-10-13T09:04:52Z</time>
      </trkpt>
      <trkpt lat="43.42759" lon="6.82484">
        <ele>63.4</ele>
        <time>2019-10-13T09:04:55Z</time>
      </trkpt>
      <trkpt lat="43.42748" lon="6.82464">
        <ele>62.6</ele>
        <time>2019-10-13T09:04:59Z</time>
      </trkpt>
      <trkpt lat="43.42742" lon="6.82454">
        <ele>62.2</ele>
        <time>2019-10-13T09:05:01Z</time>
      </trkpt>
      <trkpt lat="43.42728" lon="6.82435">
        <ele>61.6</ele>
        <time>2019-10-13T09:05:05Z</time>
      </trkpt>
      <trkpt lat="43.42721" lon="6.82426">
        <ele>61.4</ele>
        <time>2019-10-13T09:05:07Z</time>
      </trkpt>
      <trkpt lat="43.42711" lon="6.82413">
        <ele>61.6</ele>
        <time>2019-10-13T09:05:10Z</time>
      </trkpt>
      <trkpt lat="43.427" lon="6.82397">
        <ele>61.2</ele>
        <time>2019-10-13T09:05:13Z</time>
      </trkpt>
      <trkpt lat="43.42687" lon="6.8238">
        <ele>61</ele>
        <time>2019-10-13T09:05:16Z</time>
      </trkpt>
      <trkpt lat="43.42656" lon="6.82349">
        <ele>60.2</ele>
        <time>2019-10-13T09:05:22Z</time>
      </trkpt>
      <trkpt lat="43.42632" lon="6.82343">
        <ele>59.6</ele>
        <time>2019-10-13T09:05:26Z</time>
      </trkpt>
      <trkpt lat="43.42621" lon="6.82344">
        <ele>59.8</ele>
        <time>2019-10-13T09:05:28Z</time>
      </trkpt>
      <trkpt lat="43.42615" lon="6.82345">
        <ele>59.6</ele>
        <time>2019-10-13T09:05:29Z</time>
      </trkpt>
      <trkpt lat="43.42604" lon="6.82351">
        <ele>59.6</ele>
        <time>2019-10-13T09:05:31Z</time>
      </trkpt>
      <trkpt lat="43.42589" lon="6.82364">
        <ele>59</ele>
        <time>2019-10-13T09:05:34Z</time>
      </trkpt>
      <trkpt lat="43.4258" lon="6.82377">
        <ele>58.6</ele>
        <time>2019-10-13T09:05:36Z</time>
      </trkpt>
      <trkpt lat="43.42573" lon="6.82389">
        <ele>58.4</ele>
        <time>2019-10-13T09:05:38Z</time>
      </trkpt>
      <trkpt lat="43.4256" lon="6.82416">
        <ele>58.4</ele>
        <time>2019-10-13T09:05:42Z</time>
      </trkpt>
      <trkpt lat="43.42552" lon="6.82438">
        <ele>58</ele>
        <time>2019-10-13T09:05:45Z</time>
      </trkpt>
      <trkpt lat="43.42549" lon="6.82454">
        <ele>58.4</ele>
        <time>2019-10-13T09:05:47Z</time>
      </trkpt>
      <trkpt lat="43.42547" lon="6.82463">
        <ele>58.6</ele>
        <time>2019-10-13T09:05:48Z</time>
      </trkpt>
      <trkpt lat="43.42537" lon="6.82517">
        <ele>56.6</ele>
        <time>2019-10-13T09:05:54Z</time>
      </trkpt>
      <trkpt lat="43.42533" lon="6.82525">
        <ele>56</ele>
        <time>2019-10-13T09:05:55Z</time>
      </trkpt>
      <trkpt lat="43.42529" lon="6.82535">
        <ele>55.2</ele>
        <time>2019-10-13T09:05:56Z</time>
      </trkpt>
      <trkpt lat="43.42526" lon="6.82544">
        <ele>54.8</ele>
        <time>2019-10-13T09:05:57Z</time>
      </trkpt>
      <trkpt lat="43.42522" lon="6.82554">
        <ele>54.2</ele>
        <time>2019-10-13T09:05:58Z</time>
      </trkpt>
      <trkpt lat="43.42516" lon="6.82572">
        <ele>52.8</ele>
        <time>2019-10-13T09:06:00Z</time>
      </trkpt>
      <trkpt lat="43.42515" lon="6.82579">
        <ele>52.4</ele>
        <time>2019-10-13T09:06:01Z</time>
      </trkpt>
      <trkpt lat="43.4251" lon="6.82594">
        <ele>52.4</ele>
        <time>2019-10-13T09:06:04Z</time>
      </trkpt>
      <trkpt lat="43.42504" lon="6.82591">
        <ele>52.2</ele>
        <time>2019-10-13T09:06:07Z</time>
      </trkpt>
      <trkpt lat="43.42505" lon="6.82575">
        <ele>52</ele>
        <time>2019-10-13T09:06:10Z</time>
      </trkpt>
      <trkpt lat="43.42506" lon="6.82568">
        <ele>51.6</ele>
        <time>2019-10-13T09:06:11Z</time>
      </trkpt>
      <trkpt lat="43.42508" lon="6.82542">
        <ele>50.6</ele>
        <time>2019-10-13T09:06:14Z</time>
      </trkpt>
      <trkpt lat="43.42508" lon="6.82532">
        <ele>49.8</ele>
        <time>2019-10-13T09:06:15Z</time>
      </trkpt>
      <trkpt lat="43.4251" lon="6.82523">
        <ele>49.2</ele>
        <time>2019-10-13T09:06:16Z</time>
      </trkpt>
      <trkpt lat="43.42511" lon="6.82505">
        <ele>48.2</ele>
        <time>2019-10-13T09:06:18Z</time>
      </trkpt>
      <trkpt lat="43.4251" lon="6.82497">
        <ele>47.8</ele>
        <time>2019-10-13T09:06:19Z</time>
      </trkpt>
      <trkpt lat="43.42501" lon="6.8245">
        <ele>47.4</ele>
        <time>2019-10-13T09:06:24Z</time>
      </trkpt>
      <trkpt lat="43.42496" lon="6.82439">
        <ele>46.8</ele>
        <time>2019-10-13T09:06:26Z</time>
      </trkpt>
      <trkpt lat="43.42493" lon="6.82434">
        <ele>46.6</ele>
        <time>2019-10-13T09:06:27Z</time>
      </trkpt>
      <trkpt lat="43.42481" lon="6.82416">
        <ele>45.2</ele>
        <time>2019-10-13T09:06:30Z</time>
      </trkpt>
      <trkpt lat="43.42475" lon="6.82413">
        <ele>44.6</ele>
        <time>2019-10-13T09:06:31Z</time>
      </trkpt>
      <trkpt lat="43.42469" lon="6.82412">
        <ele>43.8</ele>
        <time>2019-10-13T09:06:32Z</time>
      </trkpt>
      <trkpt lat="43.42461" lon="6.82413">
        <ele>42.2</ele>
        <time>2019-10-13T09:06:34Z</time>
      </trkpt>
      <trkpt lat="43.42449" lon="6.82417">
        <ele>41.8</ele>
        <time>2019-10-13T09:06:38Z</time>
      </trkpt>
      <trkpt lat="43.42434" lon="6.82424">
        <ele>41.2</ele>
        <time>2019-10-13T09:06:42Z</time>
      </trkpt>
      <trkpt lat="43.42429" lon="6.82425">
        <ele>40.6</ele>
        <time>2019-10-13T09:06:43Z</time>
      </trkpt>
      <trkpt lat="43.42424" lon="6.82423">
        <ele>40</ele>
        <time>2019-10-13T09:06:44Z</time>
      </trkpt>
      <trkpt lat="43.42414" lon="6.82421">
        <ele>39</ele>
        <time>2019-10-13T09:06:46Z</time>
      </trkpt>
      <trkpt lat="43.42408" lon="6.82421">
        <ele>38.6</ele>
        <time>2019-10-13T09:06:47Z</time>
      </trkpt>
      <trkpt lat="43.42394" lon="6.82424">
        <ele>37.8</ele>
        <time>2019-10-13T09:06:50Z</time>
      </trkpt>
      <trkpt lat="43.4239" lon="6.82424">
        <ele>37.4</ele>
        <time>2019-10-13T09:06:51Z</time>
      </trkpt>
      <trkpt lat="43.42382" lon="6.82423">
        <ele>37</ele>
        <time>2019-10-13T09:06:53Z</time>
      </trkpt>
      <trkpt lat="43.42375" lon="6.82414">
        <ele>36.4</ele>
        <time>2019-10-13T09:06:55Z</time>
      </trkpt>
      <trkpt lat="43.42368" lon="6.82404">
        <ele>35.8</ele>
        <time>2019-10-13T09:06:57Z</time>
      </trkpt>
      <trkpt lat="43.42363" lon="6.824">
        <ele>35.6</ele>
        <time>2019-10-13T09:06:58Z</time>
      </trkpt>
      <trkpt lat="43.42362" lon="6.82396">
        <ele>34.6</ele>
        <time>2019-10-13T09:06:59Z</time>
      </trkpt>
      <trkpt lat="43.42354" lon="6.82391">
        <ele>34</ele>
        <time>2019-10-13T09:07:02Z</time>
      </trkpt>
      <trkpt lat="43.4235" lon="6.82392">
        <ele>34</ele>
        <time>2019-10-13T09:07:03Z</time>
      </trkpt>
      <trkpt lat="43.42346" lon="6.8239">
        <ele>33.8</ele>
        <time>2019-10-13T09:07:04Z</time>
      </trkpt>
      <trkpt lat="43.42341" lon="6.82388">
        <ele>33.6</ele>
        <time>2019-10-13T09:07:05Z</time>
      </trkpt>
      <trkpt lat="43.42338" lon="6.8239">
        <ele>33.4</ele>
        <time>2019-10-13T09:07:06Z</time>
      </trkpt>
      <trkpt lat="43.42331" lon="6.82396">
        <ele>33.4</ele>
        <time>2019-10-13T09:07:08Z</time>
      </trkpt>
      <trkpt lat="43.42312" lon="6.82397">
        <ele>32.8</ele>
        <time>2019-10-13T09:07:13Z</time>
      </trkpt>
      <trkpt lat="43.42303" lon="6.82395">
        <ele>32</ele>
        <time>2019-10-13T09:07:15Z</time>
      </trkpt>
      <trkpt lat="43.4229" lon="6.82392">
        <ele>31</ele>
        <time>2019-10-13T09:07:18Z</time>
      </trkpt>
      <trkpt lat="43.42285" lon="6.82391">
        <ele>30.6</ele>
        <time>2019-10-13T09:07:19Z</time>
      </trkpt>
      <trkpt lat="43.42277" lon="6.82393">
        <ele>29.2</ele>
        <time>2019-10-13T09:07:21Z</time>
      </trkpt>
      <trkpt lat="43.42273" lon="6.82395">
        <ele>28.4</ele>
        <time>2019-10-13T09:07:22Z</time>
      </trkpt>
      <trkpt lat="43.42271" lon="6.82399">
        <ele>27</ele>
        <time>2019-10-13T09:07:23Z</time>
      </trkpt>
      <trkpt lat="43.42268" lon="6.82408">
        <ele>26.2</ele>
        <time>2019-10-13T09:07:25Z</time>
      </trkpt>
      <trkpt lat="43.42268" lon="6.82413">
        <ele>25.8</ele>
        <time>2019-10-13T09:07:26Z</time>
      </trkpt>
      <trkpt lat="43.42269" lon="6.82425">
        <ele>25.2</ele>
        <time>2019-10-13T09:07:28Z</time>
      </trkpt>
      <trkpt lat="43.42269" lon="6.8243">
        <ele>24.6</ele>
        <time>2019-10-13T09:07:29Z</time>
      </trkpt>
      <trkpt lat="43.42263" lon="6.82433">
        <ele>23.8</ele>
        <time>2019-10-13T09:07:32Z</time>
      </trkpt>
      <trkpt lat="43.42257" lon="6.82431">
        <ele>24</ele>
        <time>2019-10-13T09:07:34Z</time>
      </trkpt>
      <trkpt lat="43.42249" lon="6.82427">
        <ele>23.6</ele>
        <time>2019-10-13T09:07:36Z</time>
      </trkpt>
      <trkpt lat="43.42245" lon="6.82424">
        <ele>23.2</ele>
        <time>2019-10-13T09:07:37Z</time>
      </trkpt>
      <trkpt lat="43.42231" lon="6.82415">
        <ele>22.4</ele>
        <time>2019-10-13T09:07:40Z</time>
      </trkpt>
      <trkpt lat="43.42227" lon="6.82412">
        <ele>21.8</ele>
        <time>2019-10-13T09:07:41Z</time>
      </trkpt>
      <trkpt lat="43.42223" lon="6.82409">
        <ele>21.2</ele>
        <time>2019-10-13T09:07:42Z</time>
      </trkpt>
      <trkpt lat="43.42209" lon="6.82399">
        <ele>19.8</ele>
        <time>2019-10-13T09:07:45Z</time>
      </trkpt>
      <trkpt lat="43.42199" lon="6.82395">
        <ele>18.6</ele>
        <time>2019-10-13T09:07:47Z</time>
      </trkpt>
      <trkpt lat="43.42194" lon="6.82393">
        <ele>18.2</ele>
        <time>2019-10-13T09:07:48Z</time>
      </trkpt>
      <trkpt lat="43.42182" lon="6.82391">
        <ele>17.4</ele>
        <time>2019-10-13T09:07:50Z</time>
      </trkpt>
      <trkpt lat="43.42164" lon="6.82385">
        <ele>16</ele>
        <time>2019-10-13T09:07:53Z</time>
      </trkpt>
      <trkpt lat="43.42154" lon="6.82379">
        <ele>15</ele>
        <time>2019-10-13T09:07:55Z</time>
      </trkpt>
      <trkpt lat="43.42149" lon="6.82375">
        <ele>14.6</ele>
        <time>2019-10-13T09:07:56Z</time>
      </trkpt>
      <trkpt lat="43.42143" lon="6.82362">
        <ele>14</ele>
        <time>2019-10-13T09:07:58Z</time>
      </trkpt>
      <trkpt lat="43.4214" lon="6.82355">
        <ele>13.4</ele>
        <time>2019-10-13T09:07:59Z</time>
      </trkpt>
      <trkpt lat="43.42135" lon="6.8234">
        <ele>12.4</ele>
        <time>2019-10-13T09:08:01Z</time>
      </trkpt>
      <trkpt lat="43.42131" lon="6.82334">
        <ele>12</ele>
        <time>2019-10-13T09:08:02Z</time>
      </trkpt>
      <trkpt lat="43.42126" lon="6.82328">
        <ele>11.6</ele>
        <time>2019-10-13T09:08:03Z</time>
      </trkpt>
      <trkpt lat="43.4212" lon="6.82325">
        <ele>11.4</ele>
        <time>2019-10-13T09:08:04Z</time>
      </trkpt>
      <trkpt lat="43.42108" lon="6.82323">
        <ele>11</ele>
        <time>2019-10-13T09:08:06Z</time>
      </trkpt>
      <trkpt lat="43.42088" lon="6.82327">
        <ele>10.8</ele>
        <time>2019-10-13T09:08:10Z</time>
      </trkpt>
      <trkpt lat="43.42083" lon="6.82329">
        <ele>10.8</ele>
        <time>2019-10-13T09:08:11Z</time>
      </trkpt>
      <trkpt lat="43.42058" lon="6.82337">
        <ele>10.6</ele>
        <time>2019-10-13T09:08:16Z</time>
      </trkpt>
      <trkpt lat="43.42052" lon="6.82337">
        <ele>10.6</ele>
        <time>2019-10-13T09:08:17Z</time>
      </trkpt>
      <trkpt lat="43.42033" lon="6.82332">
        <ele>9.8</ele>
        <time>2019-10-13T09:08:20Z</time>
      </trkpt>
      <trkpt lat="43.4202" lon="6.82329">
        <ele>9</ele>
        <time>2019-10-13T09:08:22Z</time>
      </trkpt>
      <trkpt lat="43.42013" lon="6.82326">
        <ele>8.8</ele>
        <time>2019-10-13T09:08:23Z</time>
      </trkpt>
      <trkpt lat="43.42" lon="6.8232">
        <ele>8.6</ele>
        <time>2019-10-13T09:08:25Z</time>
      </trkpt>
      <trkpt lat="43.41988" lon="6.82308">
        <ele>8.2</ele>
        <time>2019-10-13T09:08:27Z</time>
      </trkpt>
      <trkpt lat="43.41978" lon="6.8229">
        <ele>7.6</ele>
        <time>2019-10-13T09:08:29Z</time>
      </trkpt>
      <trkpt lat="43.41967" lon="6.82273">
        <ele>6.4</ele>
        <time>2019-10-13T09:08:31Z</time>
      </trkpt>
      <trkpt lat="43.41952" lon="6.82259">
        <ele>5</ele>
        <time>2019-10-13T09:08:33Z</time>
      </trkpt>
      <trkpt lat="43.41944" lon="6.82255">
        <ele>4.4</ele>
        <time>2019-10-13T09:08:34Z</time>
      </trkpt>
      <trkpt lat="43.41936" lon="6.82253">
        <ele>3.6</ele>
        <time>2019-10-13T09:08:35Z</time>
      </trkpt>
      <trkpt lat="43.4192" lon="6.82255">
        <ele>3.2</ele>
        <time>2019-10-13T09:08:37Z</time>
      </trkpt>
      <trkpt lat="43.41912" lon="6.82257">
        <ele>3</ele>
        <time>2019-10-13T09:08:38Z</time>
      </trkpt>
      <trkpt lat="43.41896" lon="6.82255">
        <ele>2.8</ele>
        <time>2019-10-13T09:08:40Z</time>
      </trkpt>
      <trkpt lat="43.41891" lon="6.82249">
        <ele>2.8</ele>
        <time>2019-10-13T09:08:41Z</time>
      </trkpt>
      <trkpt lat="43.41882" lon="6.82221">
        <ele>2.4</ele>
        <time>2019-10-13T09:08:44Z</time>
      </trkpt>
      <trkpt lat="43.41882" lon="6.82186">
        <ele>1.6</ele>
        <time>2019-10-13T09:08:47Z</time>
      </trkpt>
      <trkpt lat="43.41881" lon="6.82175">
        <ele>0.8</ele>
        <time>2019-10-13T09:08:48Z</time>
      </trkpt>
      <trkpt lat="43.41874" lon="6.82166">
        <ele>-0.6</ele>
        <time>2019-10-13T09:08:50Z</time>
      </trkpt>
      <trkpt lat="43.41861" lon="6.82166">
        <ele>-1</ele>
        <time>2019-10-13T09:08:53Z</time>
      </trkpt>
      <trkpt lat="43.41851" lon="6.82168">
        <ele>-2</ele>
        <time>2019-10-13T09:08:55Z</time>
      </trkpt>
      <trkpt lat="43.41841" lon="6.82176">
        <ele>-2.2</ele>
        <time>2019-10-13T09:08:57Z</time>
      </trkpt>
      <trkpt lat="43.4183" lon="6.82187">
        <ele>-2.8</ele>
        <time>2019-10-13T09:08:59Z</time>
      </trkpt>
      <trkpt lat="43.41814" lon="6.82202">
        <ele>-2.8</ele>
        <time>2019-10-13T09:09:02Z</time>
      </trkpt>
      <trkpt lat="43.41803" lon="6.82212">
        <ele>-3</ele>
        <time>2019-10-13T09:09:04Z</time>
      </trkpt>
      <trkpt lat="43.41783" lon="6.82228">
        <ele>-3.8</ele>
        <time>2019-10-13T09:09:08Z</time>
      </trkpt>
      <trkpt lat="43.41779" lon="6.82226">
        <ele>-3.8</ele>
        <time>2019-10-13T09:09:09Z</time>
      </trkpt>
      <trkpt lat="43.41768" lon="6.82212">
        <ele>-2.8</ele>
        <time>2019-10-13T09:09:12Z</time>
      </trkpt>
      <trkpt lat="43.41765" lon="6.82207">
        <ele>-2.6</ele>
        <time>2019-10-13T09:09:13Z</time>
      </trkpt>
      <trkpt lat="43.41753" lon="6.82184">
        <ele>-1.8</ele>
        <time>2019-10-13T09:09:17Z</time>
      </trkpt>
      <trkpt lat="43.4175" lon="6.82178">
        <ele>-1.8</ele>
        <time>2019-10-13T09:09:18Z</time>
      </trkpt>
      <trkpt lat="43.41737" lon="6.82148">
        <ele>-0.6</ele>
        <time>2019-10-13T09:09:23Z</time>
      </trkpt>
      <trkpt lat="43.4173" lon="6.8213">
        <ele>-0.4</ele>
        <time>2019-10-13T09:09:26Z</time>
      </trkpt>
      <trkpt lat="43.41725" lon="6.82109">
        <ele>0.2</ele>
        <time>2019-10-13T09:09:29Z</time>
      </trkpt>
      <trkpt lat="43.41723" lon="6.82096">
        <ele>0.4</ele>
        <time>2019-10-13T09:09:31Z</time>
      </trkpt>
      <trkpt lat="43.41721" lon="6.82089">
        <ele>0.6</ele>
        <time>2019-10-13T09:09:32Z</time>
      </trkpt>
      <trkpt lat="43.41712" lon="6.82032">
        <ele>1.2</ele>
        <time>2019-10-13T09:09:40Z</time>
      </trkpt>
      <trkpt lat="43.41706" lon="6.8198">
        <ele>1.2</ele>
        <time>2019-10-13T09:09:47Z</time>
      </trkpt>
      <trkpt lat="43.41702" lon="6.8195">
        <ele>1.6</ele>
        <time>2019-10-13T09:09:51Z</time>
      </trkpt>
      <trkpt lat="43.41696" lon="6.81905">
        <ele>1.8</ele>
        <time>2019-10-13T09:09:57Z</time>
      </trkpt>
      <trkpt lat="43.41692" lon="6.81849">
        <ele>2</ele>
        <time>2019-10-13T09:10:04Z</time>
      </trkpt>
      <trkpt lat="43.41689" lon="6.81772">
        <ele>1</ele>
        <time>2019-10-13T09:10:13Z</time>
      </trkpt>
      <trkpt lat="43.41687" lon="6.81729">
        <ele>1.2</ele>
        <time>2019-10-13T09:10:18Z</time>
      </trkpt>
      <trkpt lat="43.41682" lon="6.81667">
        <ele>0.8</ele>
        <time>2019-10-13T09:10:25Z</time>
      </trkpt>
      <trkpt lat="43.41676" lon="6.81629">
        <ele>0.4</ele>
        <time>2019-10-13T09:10:29Z</time>
      </trkpt>
      <trkpt lat="43.41669" lon="6.81591">
        <ele>-0.8</ele>
        <time>2019-10-13T09:10:33Z</time>
      </trkpt>
      <trkpt lat="43.41655" lon="6.81546">
        <ele>-1.2</ele>
        <time>2019-10-13T09:10:38Z</time>
      </trkpt>
      <trkpt lat="43.41652" lon="6.81537">
        <ele>-1.4</ele>
        <time>2019-10-13T09:10:39Z</time>
      </trkpt>
      <trkpt lat="43.41651" lon="6.81527">
        <ele>-1.6</ele>
        <time>2019-10-13T09:10:40Z</time>
      </trkpt>
      <trkpt lat="43.41646" lon="6.81509">
        <ele>-1.8</ele>
        <time>2019-10-13T09:10:42Z</time>
      </trkpt>
      <trkpt lat="43.4164" lon="6.8149">
        <ele>-1.8</ele>
        <time>2019-10-13T09:10:44Z</time>
      </trkpt>
      <trkpt lat="43.41624" lon="6.81444">
        <ele>-3</ele>
        <time>2019-10-13T09:10:49Z</time>
      </trkpt>
      <trkpt lat="43.41621" lon="6.81435">
        <ele>-3.4</ele>
        <time>2019-10-13T09:10:50Z</time>
      </trkpt>
      <trkpt lat="43.41614" lon="6.81417">
        <ele>-4.2</ele>
        <time>2019-10-13T09:10:52Z</time>
      </trkpt>
      <trkpt lat="43.41599" lon="6.81375">
        <ele>-3</ele>
        <time>2019-10-13T09:10:57Z</time>
      </trkpt>
      <trkpt lat="43.41593" lon="6.81358">
        <ele>-2.8</ele>
        <time>2019-10-13T09:10:59Z</time>
      </trkpt>
      <trkpt lat="43.41565" lon="6.81284">
        <ele>-2</ele>
        <time>2019-10-13T09:11:08Z</time>
      </trkpt>
      <trkpt lat="43.41544" lon="6.81226">
        <ele>-2</ele>
        <time>2019-10-13T09:11:15Z</time>
      </trkpt>
      <trkpt lat="43.41541" lon="6.81217">
        <ele>-1.8</ele>
        <time>2019-10-13T09:11:16Z</time>
      </trkpt>
      <trkpt lat="43.41532" lon="6.81165">
        <ele>-1.6</ele>
        <time>2019-10-13T09:11:22Z</time>
      </trkpt>
      <trkpt lat="43.41527" lon="6.81129">
        <ele>-0.8</ele>
        <time>2019-10-13T09:11:26Z</time>
      </trkpt>
      <trkpt lat="43.41522" lon="6.81101">
        <ele>-0.6</ele>
        <time>2019-10-13T09:11:29Z</time>
      </trkpt>
      <trkpt lat="43.41511" lon="6.8103">
        <ele>9.8</ele>
        <time>2019-10-13T09:11:37Z</time>
      </trkpt>
      <trkpt lat="43.41499" lon="6.80962">
        <ele>-0.2</ele>
        <time>2019-10-13T09:11:45Z</time>
      </trkpt>
      <trkpt lat="43.41496" lon="6.80946">
        <ele>-0.4</ele>
        <time>2019-10-13T09:11:47Z</time>
      </trkpt>
      <trkpt lat="43.41497" lon="6.80933">
        <ele>-0.8</ele>
        <time>2019-10-13T09:11:49Z</time>
      </trkpt>
      <trkpt lat="43.41495" lon="6.80919">
        <ele>-0.6</ele>
        <time>2019-10-13T09:11:52Z</time>
      </trkpt>
      <trkpt lat="43.41491" lon="6.80895">
        <ele>-1.2</ele>
        <time>2019-10-13T09:11:55Z</time>
      </trkpt>
      <trkpt lat="43.41489" lon="6.80887">
        <ele>-1.4</ele>
        <time>2019-10-13T09:11:56Z</time>
      </trkpt>
      <trkpt lat="43.41485" lon="6.8086">
        <ele>-1.8</ele>
        <time>2019-10-13T09:11:59Z</time>
      </trkpt>
      <trkpt lat="43.41477" lon="6.80812">
        <ele>-3</ele>
        <time>2019-10-13T09:12:04Z</time>
      </trkpt>
      <trkpt lat="43.41472" lon="6.80753">
        <ele>-4.2</ele>
        <time>2019-10-13T09:12:10Z</time>
      </trkpt>
      <trkpt lat="43.41472" lon="6.80743">
        <ele>-5</ele>
        <time>2019-10-13T09:12:11Z</time>
      </trkpt>
      <trkpt lat="43.41472" lon="6.80723">
        <ele>-5.4</ele>
        <time>2019-10-13T09:12:13Z</time>
      </trkpt>
      <trkpt lat="43.41471" lon="6.80643">
        <ele>-6.4</ele>
        <time>2019-10-13T09:12:21Z</time>
      </trkpt>
      <trkpt lat="43.41471" lon="6.80633">
        <ele>-6.4</ele>
        <time>2019-10-13T09:12:22Z</time>
      </trkpt>
      <trkpt lat="43.41473" lon="6.80569">
        <ele>-5.8</ele>
        <time>2019-10-13T09:12:29Z</time>
      </trkpt>
      <trkpt lat="43.41474" lon="6.80551">
        <ele>-5.2</ele>
        <time>2019-10-13T09:12:31Z</time>
      </trkpt>
      <trkpt lat="43.41475" lon="6.80517">
        <ele>-4</ele>
        <time>2019-10-13T09:12:35Z</time>
      </trkpt>
      <trkpt lat="43.41475" lon="6.80501">
        <ele>-3.6</ele>
        <time>2019-10-13T09:12:37Z</time>
      </trkpt>
      <trkpt lat="43.41475" lon="6.80461">
        <ele>-3</ele>
        <time>2019-10-13T09:12:42Z</time>
      </trkpt>
      <trkpt lat="43.41475" lon="6.80446">
        <ele>-2.4</ele>
        <time>2019-10-13T09:12:44Z</time>
      </trkpt>
      <trkpt lat="43.41474" lon="6.8043">
        <ele>-2</ele>
        <time>2019-10-13T09:12:46Z</time>
      </trkpt>
      <trkpt lat="43.4147" lon="6.80391">
        <ele>-1.8</ele>
        <time>2019-10-13T09:12:51Z</time>
      </trkpt>
      <trkpt lat="43.41459" lon="6.80326">
        <ele>-1</ele>
        <time>2019-10-13T09:12:59Z</time>
      </trkpt>
      <trkpt lat="43.41457" lon="6.8031">
        <ele>-0.8</ele>
        <time>2019-10-13T09:13:01Z</time>
      </trkpt>
      <trkpt lat="43.41448" lon="6.80262">
        <ele>-0.8</ele>
        <time>2019-10-13T09:13:07Z</time>
      </trkpt>
      <trkpt lat="43.41437" lon="6.80198">
        <ele>-0.6</ele>
        <time>2019-10-13T09:13:15Z</time>
      </trkpt>
      <trkpt lat="43.41431" lon="6.8015">
        <ele>-0.6</ele>
        <time>2019-10-13T09:13:21Z</time>
      </trkpt>
      <trkpt lat="43.41428" lon="6.80133">
        <ele>-0.4</ele>
        <time>2019-10-13T09:13:23Z</time>
      </trkpt>
      <trkpt lat="43.41415" lon="6.8007">
        <ele>-1.6</ele>
        <time>2019-10-13T09:13:30Z</time>
      </trkpt>
      <trkpt lat="43.41408" lon="6.80052">
        <ele>-2.2</ele>
        <time>2019-10-13T09:13:32Z</time>
      </trkpt>
      <trkpt lat="43.41394" lon="6.80013">
        <ele>-3.2</ele>
        <time>2019-10-13T09:13:36Z</time>
      </trkpt>
      <trkpt lat="43.41389" lon="6.79993">
        <ele>-4</ele>
        <time>2019-10-13T09:13:38Z</time>
      </trkpt>
      <trkpt lat="43.41387" lon="6.79982">
        <ele>-4.4</ele>
        <time>2019-10-13T09:13:39Z</time>
      </trkpt>
      <trkpt lat="43.41387" lon="6.7996">
        <ele>-5.8</ele>
        <time>2019-10-13T09:13:41Z</time>
      </trkpt>
      <trkpt lat="43.41391" lon="6.79927">
        <ele>-7</ele>
        <time>2019-10-13T09:13:44Z</time>
      </trkpt>
      <trkpt lat="43.41392" lon="6.79917">
        <ele>-7.2</ele>
        <time>2019-10-13T09:13:45Z</time>
      </trkpt>
      <trkpt lat="43.41397" lon="6.79885">
        <ele>-8.4</ele>
        <time>2019-10-13T09:13:48Z</time>
      </trkpt>
      <trkpt lat="43.41402" lon="6.79853">
        <ele>-9.4</ele>
        <time>2019-10-13T09:13:51Z</time>
      </trkpt>
      <trkpt lat="43.41404" lon="6.79832">
        <ele>-9.4</ele>
        <time>2019-10-13T09:13:53Z</time>
      </trkpt>
      <trkpt lat="43.41413" lon="6.79782">
        <ele>-8.4</ele>
        <time>2019-10-13T09:13:58Z</time>
      </trkpt>
      <trkpt lat="43.41415" lon="6.79773">
        <ele>-8.2</ele>
        <time>2019-10-13T09:13:59Z</time>
      </trkpt>
      <trkpt lat="43.41422" lon="6.79736">
        <ele>-6.8</ele>
        <time>2019-10-13T09:14:03Z</time>
      </trkpt>
      <trkpt lat="43.41425" lon="6.79717">
        <ele>-6</ele>
        <time>2019-10-13T09:14:05Z</time>
      </trkpt>
      <trkpt lat="43.41427" lon="6.79699">
        <ele>-5.4</ele>
        <time>2019-10-13T09:14:07Z</time>
      </trkpt>
      <trkpt lat="43.41429" lon="6.79672">
        <ele>-4</ele>
        <time>2019-10-13T09:14:10Z</time>
      </trkpt>
      <trkpt lat="43.41429" lon="6.79663">
        <ele>-3.8</ele>
        <time>2019-10-13T09:14:11Z</time>
      </trkpt>
      <trkpt lat="43.41428" lon="6.79654">
        <ele>-3.2</ele>
        <time>2019-10-13T09:14:12Z</time>
      </trkpt>
      <trkpt lat="43.41425" lon="6.79636">
        <ele>-3</ele>
        <time>2019-10-13T09:14:14Z</time>
      </trkpt>
      <trkpt lat="43.41423" lon="6.79626">
        <ele>-3</ele>
        <time>2019-10-13T09:14:15Z</time>
      </trkpt>
      <trkpt lat="43.41416" lon="6.79589">
        <ele>-2.4</ele>
        <time>2019-10-13T09:14:19Z</time>
      </trkpt>
      <trkpt lat="43.41411" lon="6.79571">
        <ele>-2.6</ele>
        <time>2019-10-13T09:14:21Z</time>
      </trkpt>
      <trkpt lat="43.41387" lon="6.79493">
        <ele>-3.2</ele>
        <time>2019-10-13T09:14:29Z</time>
      </trkpt>
      <trkpt lat="43.41366" lon="6.79427">
        <ele>-1.8</ele>
        <time>2019-10-13T09:14:36Z</time>
      </trkpt>
      <trkpt lat="43.41363" lon="6.79418">
        <ele>-1.8</ele>
        <time>2019-10-13T09:14:37Z</time>
      </trkpt>
      <trkpt lat="43.41351" lon="6.79383">
        <ele>-0.8</ele>
        <time>2019-10-13T09:14:41Z</time>
      </trkpt>
      <trkpt lat="43.4134" lon="6.7935">
        <ele>10.6</ele>
        <time>2019-10-13T09:14:45Z</time>
      </trkpt>
      <trkpt lat="43.41335" lon="6.79334">
        <ele>0.4</ele>
        <time>2019-10-13T09:14:47Z</time>
      </trkpt>
      <trkpt lat="43.41322" lon="6.79297">
        <ele>1.6</ele>
        <time>2019-10-13T09:14:52Z</time>
      </trkpt>
      <trkpt lat="43.41319" lon="6.7929">
        <ele>1.8</ele>
        <time>2019-10-13T09:14:53Z</time>
      </trkpt>
      <trkpt lat="43.41312" lon="6.79267">
        <ele>2.6</ele>
        <time>2019-10-13T09:14:56Z</time>
      </trkpt>
      <trkpt lat="43.41302" lon="6.79237">
        <ele>3.8</ele>
        <time>2019-10-13T09:15:00Z</time>
      </trkpt>
      <trkpt lat="43.41291" lon="6.79203">
        <ele>5</ele>
        <time>2019-10-13T09:15:05Z</time>
      </trkpt>
      <trkpt lat="43.41283" lon="6.79181">
        <ele>5.8</ele>
        <time>2019-10-13T09:15:08Z</time>
      </trkpt>
      <trkpt lat="43.41278" lon="6.79167">
        <ele>6.2</ele>
        <time>2019-10-13T09:15:10Z</time>
      </trkpt>
      <trkpt lat="43.41267" lon="6.79131">
        <ele>7.2</ele>
        <time>2019-10-13T09:15:15Z</time>
      </trkpt>
      <trkpt lat="43.41263" lon="6.79116">
        <ele>7.4</ele>
        <time>2019-10-13T09:15:17Z</time>
      </trkpt>
      <trkpt lat="43.41255" lon="6.7907">
        <ele>8</ele>
        <time>2019-10-13T09:15:23Z</time>
      </trkpt>
      <trkpt lat="43.41253" lon="6.79053">
        <ele>8.2</ele>
        <time>2019-10-13T09:15:25Z</time>
      </trkpt>
      <trkpt lat="43.41247" lon="6.7902">
        <ele>8.6</ele>
        <time>2019-10-13T09:15:29Z</time>
      </trkpt>
      <trkpt lat="43.41241" lon="6.78996">
        <ele>8.6</ele>
        <time>2019-10-13T09:15:32Z</time>
      </trkpt>
      <trkpt lat="43.41234" lon="6.78981">
        <ele>8.6</ele>
        <time>2019-10-13T09:15:34Z</time>
      </trkpt>
      <trkpt lat="43.41201" lon="6.78921">
        <ele>8.4</ele>
        <time>2019-10-13T09:15:42Z</time>
      </trkpt>
      <trkpt lat="43.41176" lon="6.78875">
        <ele>9.2</ele>
        <time>2019-10-13T09:15:48Z</time>
      </trkpt>
      <trkpt lat="43.41164" lon="6.78852">
        <ele>9.6</ele>
        <time>2019-10-13T09:15:51Z</time>
      </trkpt>
      <trkpt lat="43.4115" lon="6.78818">
        <ele>9</ele>
        <time>2019-10-13T09:15:55Z</time>
      </trkpt>
      <trkpt lat="43.41145" lon="6.78798">
        <ele>8.6</ele>
        <time>2019-10-13T09:15:57Z</time>
      </trkpt>
      <trkpt lat="43.41141" lon="6.78777">
        <ele>8.2</ele>
        <time>2019-10-13T09:15:59Z</time>
      </trkpt>
      <trkpt lat="43.41138" lon="6.78745">
        <ele>7.6</ele>
        <time>2019-10-13T09:16:02Z</time>
      </trkpt>
      <trkpt lat="43.41135" lon="6.78724">
        <ele>7</ele>
        <time>2019-10-13T09:16:04Z</time>
      </trkpt>
      <trkpt lat="43.41128" lon="6.78658">
        <ele>5.6</ele>
        <time>2019-10-13T09:16:10Z</time>
      </trkpt>
      <trkpt lat="43.41127" lon="6.78636">
        <ele>4.4</ele>
        <time>2019-10-13T09:16:12Z</time>
      </trkpt>
      <trkpt lat="43.41129" lon="6.78613">
        <ele>4</ele>
        <time>2019-10-13T09:16:14Z</time>
      </trkpt>
      <trkpt lat="43.41133" lon="6.7859">
        <ele>3.4</ele>
        <time>2019-10-13T09:16:16Z</time>
      </trkpt>
      <trkpt lat="43.41135" lon="6.78578">
        <ele>3.2</ele>
        <time>2019-10-13T09:16:17Z</time>
      </trkpt>
      <trkpt lat="43.41149" lon="6.78531">
        <ele>2.2</ele>
        <time>2019-10-13T09:16:21Z</time>
      </trkpt>
      <trkpt lat="43.41155" lon="6.7852">
        <ele>1.8</ele>
        <time>2019-10-13T09:16:22Z</time>
      </trkpt>
      <trkpt lat="43.41169" lon="6.78501">
        <ele>0.6</ele>
        <time>2019-10-13T09:16:24Z</time>
      </trkpt>
      <trkpt lat="43.41176" lon="6.78491">
        <ele>10.5</ele>
        <time>2019-10-13T09:16:25Z</time>
      </trkpt>
      <trkpt lat="43.41183" lon="6.7848">
        <ele>-0.6</ele>
        <time>2019-10-13T09:16:26Z</time>
      </trkpt>
      <trkpt lat="43.41192" lon="6.78456">
        <ele>-1.8</ele>
        <time>2019-10-13T09:16:28Z</time>
      </trkpt>
      <trkpt lat="43.41203" lon="6.78431">
        <ele>-3</ele>
        <time>2019-10-13T09:16:30Z</time>
      </trkpt>
      <trkpt lat="43.41213" lon="6.78406">
        <ele>-4.2</ele>
        <time>2019-10-13T09:16:32Z</time>
      </trkpt>
      <trkpt lat="43.4122" lon="6.78394">
        <ele>-4.8</ele>
        <time>2019-10-13T09:16:33Z</time>
      </trkpt>
      <trkpt lat="43.41227" lon="6.78383">
        <ele>-5.6</ele>
        <time>2019-10-13T09:16:34Z</time>
      </trkpt>
      <trkpt lat="43.41242" lon="6.78362">
        <ele>-6.8</ele>
        <time>2019-10-13T09:16:36Z</time>
      </trkpt>
      <trkpt lat="43.41271" lon="6.78322">
        <ele>-7.6</ele>
        <time>2019-10-13T09:16:40Z</time>
      </trkpt>
      <trkpt lat="43.41301" lon="6.78274">
        <ele>-7</ele>
        <time>2019-10-13T09:16:45Z</time>
      </trkpt>
      <trkpt lat="43.41332" lon="6.78207">
        <ele>-7.2</ele>
        <time>2019-10-13T09:16:52Z</time>
      </trkpt>
      <trkpt lat="43.41338" lon="6.78198">
        <ele>-7.2</ele>
        <time>2019-10-13T09:16:53Z</time>
      </trkpt>
      <trkpt lat="43.41363" lon="6.78171">
        <ele>-7.4</ele>
        <time>2019-10-13T09:16:57Z</time>
      </trkpt>
      <trkpt lat="43.4137" lon="6.78165">
        <ele>-7.4</ele>
        <time>2019-10-13T09:16:58Z</time>
      </trkpt>
      <trkpt lat="43.41403" lon="6.78141">
        <ele>-7</ele>
        <time>2019-10-13T09:17:03Z</time>
      </trkpt>
      <trkpt lat="43.41436" lon="6.78102">
        <ele>-6.6</ele>
        <time>2019-10-13T09:17:09Z</time>
      </trkpt>
      <trkpt lat="43.41444" lon="6.78086">
        <ele>-6.6</ele>
        <time>2019-10-13T09:17:11Z</time>
      </trkpt>
      <trkpt lat="43.41457" lon="6.7806">
        <ele>-7</ele>
        <time>2019-10-13T09:17:14Z</time>
      </trkpt>
      <trkpt lat="43.41475" lon="6.78017">
        <ele>-7</ele>
        <time>2019-10-13T09:17:19Z</time>
      </trkpt>
      <trkpt lat="43.41478" lon="6.7801">
        <ele>-7</ele>
        <time>2019-10-13T09:17:20Z</time>
      </trkpt>
      <trkpt lat="43.41496" lon="6.77985">
        <ele>-7</ele>
        <time>2019-10-13T09:17:24Z</time>
      </trkpt>
      <trkpt lat="43.41506" lon="6.77971">
        <ele>-7.2</ele>
        <time>2019-10-13T09:17:26Z</time>
      </trkpt>
      <trkpt lat="43.41518" lon="6.77946">
        <ele>-7.6</ele>
        <time>2019-10-13T09:17:29Z</time>
      </trkpt>
      <trkpt lat="43.41521" lon="6.77937">
        <ele>-7.6</ele>
        <time>2019-10-13T09:17:30Z</time>
      </trkpt>
      <trkpt lat="43.41532" lon="6.77899">
        <ele>-7.4</ele>
        <time>2019-10-13T09:17:34Z</time>
      </trkpt>
      <trkpt lat="43.41547" lon="6.77842">
        <ele>-7.8</ele>
        <time>2019-10-13T09:17:40Z</time>
      </trkpt>
      <trkpt lat="43.41554" lon="6.77823">
        <ele>-8.2</ele>
        <time>2019-10-13T09:17:42Z</time>
      </trkpt>
      <trkpt lat="43.41583" lon="6.77763">
        <ele>-8.2</ele>
        <time>2019-10-13T09:17:49Z</time>
      </trkpt>
      <trkpt lat="43.41617" lon="6.77693">
        <ele>-8.2</ele>
        <time>2019-10-13T09:17:57Z</time>
      </trkpt>
      <trkpt lat="43.41622" lon="6.77685">
        <ele>-8.2</ele>
        <time>2019-10-13T09:17:58Z</time>
      </trkpt>
      <trkpt lat="43.41643" lon="6.77656">
        <ele>-8</ele>
        <time>2019-10-13T09:18:02Z</time>
      </trkpt>
      <trkpt lat="43.41654" lon="6.77645">
        <ele>-8.2</ele>
        <time>2019-10-13T09:18:04Z</time>
      </trkpt>
      <trkpt lat="43.41685" lon="6.77621">
        <ele>-7.8</ele>
        <time>2019-10-13T09:18:09Z</time>
      </trkpt>
      <trkpt lat="43.41691" lon="6.77618">
        <ele>-7.8</ele>
        <time>2019-10-13T09:18:10Z</time>
      </trkpt>
      <trkpt lat="43.41711" lon="6.77607">
        <ele>-8</ele>
        <time>2019-10-13T09:18:13Z</time>
      </trkpt>
      <trkpt lat="43.41723" lon="6.77596">
        <ele>-7.8</ele>
        <time>2019-10-13T09:18:15Z</time>
      </trkpt>
      <trkpt lat="43.41757" lon="6.77559">
        <ele>-7.4</ele>
        <time>2019-10-13T09:18:21Z</time>
      </trkpt>
      <trkpt lat="43.41798" lon="6.77504">
        <ele>-8.4</ele>
        <time>2019-10-13T09:18:29Z</time>
      </trkpt>
      <trkpt lat="43.41838" lon="6.77446">
        <ele>-7.8</ele>
        <time>2019-10-13T09:18:37Z</time>
      </trkpt>
      <trkpt lat="43.41843" lon="6.77438">
        <ele>-7.8</ele>
        <time>2019-10-13T09:18:38Z</time>
      </trkpt>
      <trkpt lat="43.4188" lon="6.77375">
        <ele>-8</ele>
        <time>2019-10-13T09:18:46Z</time>
      </trkpt>
      <trkpt lat="43.41891" lon="6.7735">
        <ele>-8</ele>
        <time>2019-10-13T09:18:49Z</time>
      </trkpt>
      <trkpt lat="43.41896" lon="6.77333">
        <ele>-8.2</ele>
        <time>2019-10-13T09:18:51Z</time>
      </trkpt>
      <trkpt lat="43.41911" lon="6.77269">
        <ele>-8.6</ele>
        <time>2019-10-13T09:18:58Z</time>
      </trkpt>
      <trkpt lat="43.41923" lon="6.77205">
        <ele>-8.8</ele>
        <time>2019-10-13T09:19:05Z</time>
      </trkpt>
      <trkpt lat="43.41928" lon="6.77178">
        <ele>-8.8</ele>
        <time>2019-10-13T09:19:08Z</time>
      </trkpt>
      <trkpt lat="43.41943" lon="6.77105">
        <ele>-8.8</ele>
        <time>2019-10-13T09:19:16Z</time>
      </trkpt>
      <trkpt lat="43.41945" lon="6.77096">
        <ele>-8.4</ele>
        <time>2019-10-13T09:19:17Z</time>
      </trkpt>
      <trkpt lat="43.41959" lon="6.77063">
        <ele>-8.4</ele>
        <time>2019-10-13T09:19:21Z</time>
      </trkpt>
      <trkpt lat="43.41972" lon="6.7704">
        <ele>-8.2</ele>
        <time>2019-10-13T09:19:24Z</time>
      </trkpt>
      <trkpt lat="43.41983" lon="6.77028">
        <ele>-8.4</ele>
        <time>2019-10-13T09:19:26Z</time>
      </trkpt>
      <trkpt lat="43.42001" lon="6.77015">
        <ele>-8.4</ele>
        <time>2019-10-13T09:19:29Z</time>
      </trkpt>
      <trkpt lat="43.42013" lon="6.77008">
        <ele>-8.4</ele>
        <time>2019-10-13T09:19:31Z</time>
      </trkpt>
      <trkpt lat="43.42038" lon="6.76997">
        <ele>-7.8</ele>
        <time>2019-10-13T09:19:35Z</time>
      </trkpt>
      <trkpt lat="43.42051" lon="6.76992">
        <ele>-7.8</ele>
        <time>2019-10-13T09:19:37Z</time>
      </trkpt>
      <trkpt lat="43.42089" lon="6.76975">
        <ele>-8.6</ele>
        <time>2019-10-13T09:19:43Z</time>
      </trkpt>
      <trkpt lat="43.42119" lon="6.76963">
        <ele>-8.2</ele>
        <time>2019-10-13T09:19:48Z</time>
      </trkpt>
      <trkpt lat="43.42124" lon="6.76964">
        <ele>-8.2</ele>
        <time>2019-10-13T09:19:49Z</time>
      </trkpt>
      <trkpt lat="43.42136" lon="6.76967">
        <ele>-8.2</ele>
        <time>2019-10-13T09:19:51Z</time>
      </trkpt>
      <trkpt lat="43.42153" lon="6.76963">
        <ele>-7.6</ele>
        <time>2019-10-13T09:19:54Z</time>
      </trkpt>
      <trkpt lat="43.42179" lon="6.76944">
        <ele>-7</ele>
        <time>2019-10-13T09:19:59Z</time>
      </trkpt>
      <trkpt lat="43.42191" lon="6.76946">
        <ele>-6.6</ele>
        <time>2019-10-13T09:20:01Z</time>
      </trkpt>
      <trkpt lat="43.42203" lon="6.7695">
        <ele>-5.2</ele>
        <time>2019-10-13T09:20:03Z</time>
      </trkpt>
      <trkpt lat="43.42237" lon="6.7696">
        <ele>-4</ele>
        <time>2019-10-13T09:20:09Z</time>
      </trkpt>
      <trkpt lat="43.42264" lon="6.76967">
        <ele>-3.4</ele>
        <time>2019-10-13T09:20:14Z</time>
      </trkpt>
      <trkpt lat="43.42268" lon="6.76967">
        <ele>-3.8</ele>
        <time>2019-10-13T09:20:15Z</time>
      </trkpt>
      <trkpt lat="43.4228" lon="6.76959">
        <ele>-3.4</ele>
        <time>2019-10-13T09:20:19Z</time>
      </trkpt>
      <trkpt lat="43.42282" lon="6.76955">
        <ele>-3</ele>
        <time>2019-10-13T09:20:20Z</time>
      </trkpt>
      <trkpt lat="43.42296" lon="6.7694">
        <ele>-2.2</ele>
        <time>2019-10-13T09:20:25Z</time>
      </trkpt>
      <trkpt lat="43.42308" lon="6.76927">
        <ele>-2</ele>
        <time>2019-10-13T09:20:28Z</time>
      </trkpt>
      <trkpt lat="43.42317" lon="6.76918">
        <ele>-1.4</ele>
        <time>2019-10-13T09:20:30Z</time>
      </trkpt>
      <trkpt lat="43.42341" lon="6.76894">
        <ele>-1.6</ele>
        <time>2019-10-13T09:20:36Z</time>
      </trkpt>
      <trkpt lat="43.42358" lon="6.76876">
        <ele>-1.6</ele>
        <time>2019-10-13T09:20:41Z</time>
      </trkpt>
      <trkpt lat="43.42373" lon="6.76856">
        <ele>-1.4</ele>
        <time>2019-10-13T09:20:45Z</time>
      </trkpt>
      <trkpt lat="43.42379" lon="6.76844">
        <ele>-1.4</ele>
        <time>2019-10-13T09:20:47Z</time>
      </trkpt>
      <trkpt lat="43.42394" lon="6.76803">
        <ele>-2</ele>
        <time>2019-10-13T09:20:53Z</time>
      </trkpt>
      <trkpt lat="43.42398" lon="6.76786">
        <ele>-3</ele>
        <time>2019-10-13T09:20:56Z</time>
      </trkpt>
      <trkpt lat="43.42401" lon="6.76781">
        <ele>-3.2</ele>
        <time>2019-10-13T09:20:57Z</time>
      </trkpt>
      <trkpt lat="43.42407" lon="6.76775">
        <ele>-4</ele>
        <time>2019-10-13T09:20:59Z</time>
      </trkpt>
      <trkpt lat="43.4241" lon="6.76775">
        <ele>-4.8</ele>
        <time>2019-10-13T09:21:00Z</time>
      </trkpt>
      <trkpt lat="43.42415" lon="6.76777">
        <ele>-5.2</ele>
        <time>2019-10-13T09:21:01Z</time>
      </trkpt>
      <trkpt lat="43.42433" lon="6.76785">
        <ele>-6.6</ele>
        <time>2019-10-13T09:21:04Z</time>
      </trkpt>
      <trkpt lat="43.42446" lon="6.76791">
        <ele>-7.6</ele>
        <time>2019-10-13T09:21:06Z</time>
      </trkpt>
      <trkpt lat="43.42459" lon="6.76797">
        <ele>-8.6</ele>
        <time>2019-10-13T09:21:08Z</time>
      </trkpt>
      <trkpt lat="43.42478" lon="6.76811">
        <ele>-9.4</ele>
        <time>2019-10-13T09:21:11Z</time>
      </trkpt>
      <trkpt lat="43.42484" lon="6.76816">
        <ele>-9.4</ele>
        <time>2019-10-13T09:21:12Z</time>
      </trkpt>
      <trkpt lat="43.42492" lon="6.7683">
        <ele>-8.8</ele>
        <time>2019-10-13T09:21:14Z</time>
      </trkpt>
      <trkpt lat="43.42498" lon="6.76843">
        <ele>-7.6</ele>
        <time>2019-10-13T09:21:16Z</time>
      </trkpt>
      <trkpt lat="43.42501" lon="6.76855">
        <ele>-6.2</ele>
        <time>2019-10-13T09:21:18Z</time>
      </trkpt>
      <trkpt lat="43.42503" lon="6.7686">
        <ele>-5.4</ele>
        <time>2019-10-13T09:21:19Z</time>
      </trkpt>
      <trkpt lat="43.42504" lon="6.76865">
        <ele>-5</ele>
        <time>2019-10-13T09:21:20Z</time>
      </trkpt>
      <trkpt lat="43.42509" lon="6.76882">
        <ele>-3.6</ele>
        <time>2019-10-13T09:21:24Z</time>
      </trkpt>
      <trkpt lat="43.4251" lon="6.76885">
        <ele>-3.4</ele>
        <time>2019-10-13T09:21:25Z</time>
      </trkpt>
      <trkpt lat="43.42513" lon="6.76888">
        <ele>-3.2</ele>
        <time>2019-10-13T09:21:27Z</time>
      </trkpt>
      <trkpt lat="43.42514" lon="6.76893">
        <ele>-3.2</ele>
        <time>2019-10-13T09:21:29Z</time>
      </trkpt>
      <trkpt lat="43.42516" lon="6.76894">
        <ele>-3.2</ele>
        <time>2019-10-13T09:21:30Z</time>
      </trkpt>
      <trkpt lat="43.42519" lon="6.76896">
        <ele>-3.2</ele>
        <time>2019-10-13T09:21:31Z</time>
      </trkpt>
      <trkpt lat="43.42529" lon="6.76904">
        <ele>-3.4</ele>
        <time>2019-10-13T09:21:34Z</time>
      </trkpt>
      <trkpt lat="43.42532" lon="6.76907">
        <ele>-3.4</ele>
        <time>2019-10-13T09:21:35Z</time>
      </trkpt>
      <trkpt lat="43.42544" lon="6.7691">
        <ele>-2.4</ele>
        <time>2019-10-13T09:21:39Z</time>
      </trkpt>
      <trkpt lat="43.42557" lon="6.7691">
        <ele>-1.8</ele>
        <time>2019-10-13T09:21:44Z</time>
      </trkpt>
      <trkpt lat="43.42565" lon="6.76911">
        <ele>-1.4</ele>
        <time>2019-10-13T09:21:47Z</time>
      </trkpt>
      <trkpt lat="43.42573" lon="6.76907">
        <ele>-1.4</ele>
        <time>2019-10-13T09:21:50Z</time>
      </trkpt>
      <trkpt lat="43.42578" lon="6.769">
        <ele>-0.8</ele>
        <time>2019-10-13T09:21:53Z</time>
      </trkpt>
      <trkpt lat="43.42581" lon="6.76892">
        <ele>-1.4</ele>
        <time>2019-10-13T09:21:55Z</time>
      </trkpt>
      <trkpt lat="43.42582" lon="6.76884">
        <ele>-2</ele>
        <time>2019-10-13T09:21:57Z</time>
      </trkpt>
      <trkpt lat="43.42584" lon="6.76883">
        <ele>-2.4</ele>
        <time>2019-10-13T09:21:58Z</time>
      </trkpt>
      <trkpt lat="43.42586" lon="6.76882">
        <ele>-2.8</ele>
        <time>2019-10-13T09:21:59Z</time>
      </trkpt>
      <trkpt lat="43.4259" lon="6.76881">
        <ele>-3.2</ele>
        <time>2019-10-13T09:22:01Z</time>
      </trkpt>
      <trkpt lat="43.42597" lon="6.76882">
        <ele>-3.8</ele>
        <time>2019-10-13T09:22:03Z</time>
      </trkpt>
      <trkpt lat="43.42616" lon="6.76885">
        <ele>-4.8</ele>
        <time>2019-10-13T09:22:07Z</time>
      </trkpt>
      <trkpt lat="43.4262" lon="6.76883">
        <ele>-5.2</ele>
        <time>2019-10-13T09:22:08Z</time>
      </trkpt>
      <trkpt lat="43.42634" lon="6.76873">
        <ele>-5</ele>
        <time>2019-10-13T09:22:12Z</time>
      </trkpt>
      <trkpt lat="43.42637" lon="6.76872">
        <ele>-4.4</ele>
        <time>2019-10-13T09:22:13Z</time>
      </trkpt>
      <trkpt lat="43.42641" lon="6.76871">
        <ele>-4.4</ele>
        <time>2019-10-13T09:22:15Z</time>
      </trkpt>
      <trkpt lat="43.42641" lon="6.76871">
        <ele>-4.4</ele>
        <time>2019-10-13T09:22:16Z</time>
      </trkpt>
      <trkpt lat="43.42641" lon="6.76871">
        <ele>-4.8</ele>
        <time>2019-10-13T09:22:22Z</time>
      </trkpt>
    </trkseg>
  </trk>
</gpx>